GFSGBSN_sfc_wetblb_000.txt.gz
Wetbulb
55.32 55.09 55.15 55.47 55.44 55.20 55.19 55.27 55.48 55.37 55.43 55.49 55.57 55.47 55.63 55.76 55.91 56.28 56.67 56.78 56.86 56.64 57.07 57.65 58.36 58.10 53.65 47.11 50.04 55.22 70.54 73.48 69.66 62.54 55.96 52.70 51.17 51.48 51.42 52.44 53.16 51.84 52.93 59.05 61.17 59.22 60.41
55.05 55.11 55.10 54.96 55.04 54.89 54.90 55.10 55.06 55.10 55.06 55.16 55.05 55.59 55.78 55.80 55.67 55.95 56.75 56.66 56.29 56.20 56.68 57.72 57.97 57.96 50.17 44.86 54.73 55.75 62.39 66.04 62.34 56.93 54.30 53.22 52.82 54.78 53.30 52.73 50.77 52.94 57.42 58.71 59.23 58.93 59.50
55.22 55.23 55.25 54.81 54.73 54.68 54.77 54.77 54.77 54.87 54.84 54.85 54.95 54.97 55.47 55.80 55.39 55.57 56.06 56.04 55.41 55.71 56.95 57.97 57.36 58.27 52.18 49.96 55.49 57.27 55.32 58.14 57.53 55.48 52.95 54.12 54.30 52.74 52.55 51.42 53.33 58.36 55.30 57.69 57.74 58.45 60.84
55.31 55.18 55.09 54.95 54.86 54.70 54.57 54.53 54.45 54.85 55.00 55.26 55.36 55.02 54.81 54.87 55.11 55.56 55.55 54.98 54.73 56.39 59.37 58.14 58.73 55.00 47.80 57.29 57.43 59.56 56.65 53.18 53.61 53.63 54.03 54.04 54.28 51.46 51.39 53.41 55.84 53.73 54.12 51.42 56.47 58.98 61.18
55.40 55.14 54.88 54.74 54.39 54.97 55.00 54.64 54.34 54.63 55.09 55.09 55.31 55.39 55.45 55.29 55.21 54.98 54.10 54.04 55.13 58.24 58.55 59.00 53.99 51.26 49.95 62.00 57.08 58.92 56.55 53.80 52.07 52.01 53.78 57.88 53.66 49.61 50.12 48.18 49.61 50.13 48.71 49.73 53.60 58.51 59.30
55.08 54.70 54.74 54.59 54.25 54.79 54.90 54.73 54.73 54.61 54.81 54.80 54.90 54.96 54.94 54.94 54.59 53.90 53.00 53.84 54.10 56.37 58.27 59.17 59.16 50.85 53.16 53.28 56.29 57.84 56.09 54.87 51.85 50.24 51.12 50.19 47.44 46.02 45.08 45.27 44.66 47.78 49.21 49.00 52.24 55.96 57.74
54.85 54.45 54.18 54.25 54.05 54.32 54.45 54.31 54.24 54.26 54.42 54.66 54.72 54.53 54.45 54.45 53.65 52.86 51.01 45.31 45.83 45.71 52.04 49.82 49.93 52.51 54.00 55.45 58.18 56.26 55.53 53.48 50.20 46.62 43.27 45.44 43.74 41.73 45.80 47.73 50.33 51.61 51.28 52.79 53.94 56.54 54.55
54.45 54.29 54.07 53.93 53.83 53.70 53.49 53.30 53.64 53.80 54.08 54.51 54.32 54.22 54.08 53.65 52.83 52.19 47.43 43.12 45.46 46.15 40.76 48.34 49.85 51.68 54.48 55.67 52.84 55.37 55.48 50.92 48.50 44.60 43.68 43.51 41.60 46.03 49.00 49.92 49.70 51.85 48.96 50.49 51.93 55.56 55.27
54.00 53.79 54.00 53.94 53.65 53.83 53.56 53.37 53.85 54.24 54.08 54.06 53.94 53.85 53.47 52.21 51.77 48.06 42.84 42.30 48.03 46.29 39.98 45.88 48.70 49.34 50.04 53.38 51.08 52.80 54.24 50.12 46.55 44.34 42.34 40.30 44.00 49.09 50.33 48.39 47.36 45.04 46.37 45.99 51.52 54.39 55.44
53.65 54.30 54.52 54.10 53.83 53.76 53.57 53.46 53.48 53.75 53.55 53.46 53.55 53.49 52.56 51.21 43.84 45.18 44.12 45.82 46.14 45.60 38.06 43.50 46.63 50.72 52.27 53.54 49.52 56.44 56.04 52.42 46.20 44.70 43.82 42.47 46.75 48.62 48.15 48.57 48.45 43.12 48.92 49.65 51.36 50.94 45.73
54.25 54.37 54.24 54.05 54.01 53.51 53.42 53.44 53.36 53.30 53.11 53.14 53.07 52.83 51.72 50.91 44.63 43.52 45.44 45.57 45.18 44.96 31.77 47.32 48.33 54.24 50.82 48.78 48.33 51.69 55.04 50.63 47.66 45.26 43.93 42.84 44.60 46.07 47.17 48.41 50.09 47.78 50.08 49.37 50.88 48.40 47.35
53.43 53.31 53.18 53.65 53.54 53.30 53.15 53.01 53.13 53.16 52.93 52.72 52.41 51.81 51.21 47.85 46.45 46.71 48.51 45.86 44.48 38.78 32.72 44.49 50.17 47.17 47.36 47.65 48.71 49.67 51.71 51.73 51.30 46.57 43.24 45.67 47.65 47.80 47.50 50.54 52.20 50.89 46.56 45.22 43.88 43.94 39.88
53.21 52.94 52.78 53.04 53.49 53.18 52.91 52.70 52.70 52.91 52.42 51.75 51.04 50.40 50.17 49.41 41.76 44.93 44.34 43.36 36.45 32.45 44.37 43.10 42.88 44.78 44.06 45.04 47.28 46.81 47.30 45.13 44.02 39.99 38.85 43.09 44.67 47.18 49.65 46.20 48.44 46.08 42.35 36.93 36.53 37.74 38.11
53.30 53.36 53.41 53.51 53.67 52.95 52.68 52.64 52.68 52.39 51.98 50.87 49.64 49.56 48.22 48.88 46.99 47.56 41.52 37.72 31.02 40.17 40.84 44.45 44.97 44.17 41.67 44.16 44.89 46.93 44.13 43.91 44.43 42.67 39.45 37.94 38.01 45.18 48.07 47.13 45.40 44.08 43.46 37.73 33.19 34.65 40.67
53.51 53.38 53.54 53.47 53.28 52.99 52.64 52.57 52.20 51.92 51.38 50.29 49.62 44.03 43.18 45.77 49.47 43.93 38.81 30.83 34.38 40.02 45.43 44.30 43.67 39.91 40.48 43.83 44.26 44.51 42.98 43.29 46.28 44.06 41.09 37.11 38.73 46.14 48.07 49.18 49.05 43.25 40.70 44.19 38.24 35.73 36.82
52.65 52.48 52.86 53.08 53.30 53.01 52.60 52.39 52.31 51.81 51.09 50.05 45.28 42.55 41.00 49.30 49.04 41.27 35.60 33.16 36.23 43.81 44.74 42.09 38.43 40.91 37.65 39.80 41.59 41.47 40.76 45.55 45.05 46.71 44.64 42.13 36.82 43.90 47.46 48.34 47.94 46.98 46.72 41.33 37.33 33.70 32.85
52.24 52.09 51.96 52.35 52.87 53.09 52.64 52.56 52.33 51.63 50.65 50.20 39.39 35.27 41.21 48.66 43.35 38.60 31.48 33.16 38.83 42.74 43.65 40.26 40.48 39.69 39.78 39.64 41.32 39.84 41.99 46.01 47.76 47.09 45.24 42.39 39.47 40.74 44.69 44.39 44.63 43.57 41.63 40.19 40.32 37.65 35.14
52.23 51.98 52.14 52.12 52.54 52.72 52.89 52.56 51.87 50.97 49.89 46.62 39.35 31.14 43.18 45.22 38.84 34.18 32.67 36.17 42.28 41.08 43.08 42.24 42.12 41.58 40.71 42.08 39.57 40.99 41.79 45.20 49.11 47.29 42.90 43.26 41.63 39.44 41.08 44.54 47.23 47.32 44.50 43.21 41.52 36.39 36.21
52.31 52.13 52.04 51.52 52.23 51.71 52.60 52.20 51.50 50.65 50.25 45.48 37.09 36.48 43.54 42.71 34.17 34.97 37.86 41.79 43.46 43.56 43.56 43.89 42.21 42.68 42.97 41.34 39.09 41.91 43.72 48.49 49.36 47.63 44.80 43.78 37.73 37.76 37.71 39.79 43.22 43.00 43.70 41.01 40.13 39.10 36.88
51.69 51.79 51.52 51.17 51.37 51.50 51.89 51.74 51.17 50.55 50.29 47.51 38.77 31.57 38.07 39.23 35.84 33.60 33.10 36.03 39.44 47.06 45.91 46.46 45.10 44.87 42.49 41.77 42.67 41.36 44.22 50.42 53.15 52.56 59.79 54.58 38.49 40.42 39.46 41.10 42.83 42.31 45.07 44.04 42.11 37.77 38.33
51.62 51.81 51.41 50.93 51.12 51.35 51.81 51.87 51.12 50.25 50.24 47.13 40.34 33.97 37.31 34.05 36.05 36.05 33.17 36.88 39.62 40.14 44.38 45.18 42.39 44.49 43.34 39.17 42.14 41.37 44.98 47.69 52.41 55.79 50.38 42.21 40.70 40.57 45.34 43.16 45.10 45.17 45.32 44.72 42.98 42.83 42.28
51.53 51.39 50.88 50.95 51.37 51.63 51.24 51.77 51.66 50.10 49.28 44.07 40.01 38.94 39.21 37.35 37.91 33.90 35.12 34.23 38.74 40.93 40.82 41.07 41.82 45.96 45.15 41.87 44.43 43.54 46.11 46.32 47.42 50.48 48.03 42.70 39.90 38.74 43.25 44.36 44.57 44.23 45.66 46.68 46.05 45.16 44.83
51.17 51.01 51.13 51.03 51.22 51.33 51.26 51.68 51.57 50.40 46.62 38.74 38.87 40.50 41.03 38.50 36.85 33.70 33.89 36.61 39.38 41.33 43.04 44.15 43.71 42.85 44.82 46.97 47.31 49.25 49.45 50.29 50.95 48.30 47.54 43.97 38.81 36.88 39.22 41.42 41.44 38.64 44.64 44.89 46.14 46.51 46.76
50.75 50.84 50.98 51.00 51.18 51.18 51.35 51.28 51.30 51.15 48.16 44.80 42.16 41.55 39.06 33.70 38.32 38.29 39.34 40.29 39.47 40.94 38.78 42.28 42.90 40.37 47.94 46.60 48.69 46.30 45.90 48.99 48.78 47.01 49.61 46.91 40.10 37.60 40.90 38.04 33.58 44.07 48.98 48.92 48.63 51.57 51.33
50.52 50.64 50.86 50.84 50.92 51.05 51.18 50.88 50.85 51.26 50.12 45.21 43.65 39.09 39.65 34.63 38.92 38.92 39.71 38.93 39.12 39.74 38.49 42.16 44.72 47.27 44.39 44.22 42.62 42.11 43.26 45.85 48.83 51.72 50.00 48.42 40.67 38.46 35.89 35.52 40.34 47.63 50.27 51.03 50.20 48.91 52.45
50.31 50.28 50.33 50.24 50.46 50.41 50.56 50.62 50.44 50.82 50.50 45.89 40.68 42.15 38.24 34.59 35.15 40.70 38.55 39.59 35.98 35.23 36.31 40.32 46.37 44.35 44.12 42.21 41.75 37.90 38.96 42.62 44.45 47.33 49.81 49.12 46.76 42.34 37.44 35.94 37.46 44.76 51.15 54.75 52.56 45.74 52.06
50.47 50.36 50.14 50.22 50.24 50.18 50.41 50.40 50.33 50.10 50.55 47.18 42.59 46.66 43.12 37.92 39.61 40.51 37.18 36.64 39.10 37.66 35.57 37.74 39.30 40.80 46.24 40.62 38.60 37.91 38.64 44.44 42.71 43.92 44.90 45.34 46.34 43.20 40.73 39.36 42.92 50.33 52.31 54.53 45.63 44.35 52.18
50.63 50.35 50.09 49.98 50.05 49.66 49.81 50.16 50.46 50.37 50.05 47.46 41.99 46.31 42.59 38.96 39.98 42.72 42.76 39.56 39.30 38.37 35.32 38.66 39.09 43.24 43.82 41.06 40.68 40.11 38.80 43.33 43.81 46.64 45.67 45.18 45.07 44.26 43.37 41.05 39.06 52.39 52.54 48.03 51.41 52.00 53.39
50.29 50.08 50.01 49.84 49.86 49.56 49.82 49.99 50.03 49.90 49.86 49.07 41.55 43.40 47.83 41.57 39.98 43.94 44.16 45.41 44.41 43.74 39.55 39.49 36.60 38.43 44.94 40.38 41.66 42.06 42.69 43.07 42.85 43.33 50.34 45.47 49.06 46.93 45.26 44.90 50.57 52.37 50.43 52.90 54.16 53.88 54.04

GFSGBSN_sfc_wetblb_003.txt.gz
Wetbulb
55.65 55.30 55.31 55.08 54.89 54.84 54.67 54.97 54.81 54.89 55.27 55.68 55.67 55.68 55.84 55.88 56.27 56.45 56.73 56.87 56.65 56.55 57.00 57.33 58.23 58.57 56.70 53.43 54.21 58.02 70.49 73.71 69.83 65.14 58.04 56.74 54.78 54.28 52.48 55.79 56.83 56.75 57.58 60.86 62.83 64.39 65.00
55.66 55.05 55.20 55.17 54.86 54.48 54.38 54.48 55.01 55.06 55.11 55.27 55.35 55.80 56.02 56.00 56.25 56.29 56.71 56.78 56.29 56.07 56.54 57.66 57.71 57.43 55.01 50.24 58.11 59.74 68.14 68.47 67.37 62.43 58.48 57.20 56.04 57.02 55.26 57.56 56.99 56.98 57.96 59.26 63.11 63.67 64.53
55.73 55.42 54.98 54.60 54.12 54.20 54.75 54.35 54.27 54.63 54.43 54.73 55.03 55.53 55.83 55.97 55.62 55.79 56.19 56.03 55.55 55.56 56.74 58.04 57.71 57.80 54.50 54.25 58.79 59.36 61.27 63.70 65.01 61.25 57.23 57.59 58.17 57.95 58.36 56.37 57.28 61.69 59.57 61.46 61.97 63.11 62.99
55.44 55.23 55.06 54.43 54.08 54.47 54.43 54.48 54.30 54.14 54.21 54.61 55.04 55.08 55.22 55.38 55.57 55.49 55.48 55.01 54.56 56.13 57.84 58.42 58.53 58.10 54.29 60.37 60.91 60.84 61.77 59.32 60.15 60.47 59.08 59.65 58.97 56.52 55.69 58.02 60.52 59.24 60.20 56.56 61.03 63.32 63.89
55.31 55.20 54.78 54.30 54.51 54.99 54.94 54.41 53.93 54.00 54.44 54.76 54.96 55.06 55.44 55.56 55.00 54.18 53.97 53.61 55.08 57.35 58.33 59.30 57.57 55.64 55.25 63.96 59.61 61.64 62.47 56.87 55.97 59.22 59.54 58.91 58.27 55.23 55.48 54.93 56.90 57.62 54.61 56.27 58.04 63.24 63.15
55.00 54.76 54.34 54.10 54.11 54.40 54.50 54.28 53.83 54.36 54.78 55.02 54.71 54.65 54.67 54.65 53.79 53.54 52.67 53.30 54.70 57.92 58.80 59.29 59.49 54.83 58.51 56.88 59.16 60.48 61.04 56.86 54.55 55.23 55.15 54.91 54.40 51.80 53.16 54.23 49.75 53.88 55.19 56.81 57.28 60.30 62.64
54.48 54.55 54.46 54.56 54.36 54.25 54.24 54.24 53.44 53.88 54.01 54.47 54.40 54.18 54.15 54.09 53.00 52.37 51.97 51.52 52.34 51.68 55.32 54.54 54.65 56.31 56.64 59.10 59.42 59.28 58.67 57.70 53.58 53.38 50.78 52.27 49.48 47.48 51.16 54.30 56.60 57.02 57.15 56.51 58.86 60.77 60.32
53.88 54.26 54.45 54.39 54.02 53.88 53.30 53.11 53.18 53.40 53.44 53.91 54.05 53.79 53.62 53.21 52.41 52.02 50.70 45.60 49.59 48.70 44.44 49.21 49.72 51.60 54.52 56.32 52.53 55.99 59.34 55.17 53.75 50.59 49.20 48.62 46.76 51.22 53.44 54.15 53.38 57.24 56.59 56.80 58.29 60.36 60.39
54.20 54.21 54.23 54.12 53.93 53.91 53.63 53.48 53.67 53.75 53.77 53.97 53.74 53.33 53.07 51.72 51.62 50.81 46.48 46.88 50.95 50.42 44.08 47.31 49.59 50.28 52.21 53.34 51.25 52.76 56.59 55.48 53.11 51.61 49.18 46.97 48.41 51.19 52.00 52.12 51.35 53.85 55.20 56.58 56.59 58.16 59.89
54.11 54.46 54.35 54.07 53.82 53.88 53.77 53.56 53.37 53.37 53.66 53.54 53.37 53.11 51.89 50.39 47.89 47.59 48.68 51.20 51.27 49.71 44.32 47.42 49.91 53.39 54.70 54.57 51.52 56.44 57.07 55.91 51.40 51.38 49.97 49.29 50.30 49.65 50.41 51.44 53.38 51.16 56.30 57.35 57.42 56.17 52.86
54.30 54.34 54.30 53.96 53.98 54.12 53.81 53.33 53.02 53.21 53.13 53.13 52.98 52.57 51.17 50.21 48.08 47.23 49.33 51.24 51.60 49.90 37.08 49.41 51.43 57.26 55.76 53.80 52.33 53.60 58.14 55.70 51.81 50.45 50.09 48.37 47.74 48.52 49.02 50.95 53.93 53.44 55.03 55.45 57.11 55.96 54.44
54.25 54.08 53.73 53.78 54.00 54.28 53.48 53.00 52.86 52.90 52.96 52.74 52.34 51.44 51.03 49.29 48.55 49.99 51.52 50.83 50.48 44.38 36.78 46.71 52.88 51.22 51.02 52.71 52.85 54.10 54.29 56.20 56.19 52.43 49.30 50.84 51.42 50.65 51.10 53.40 54.60 54.65 53.51 53.07 54.25 54.13 47.99
53.82 54.12 53.78 53.69 54.06 53.89 53.40 52.84 52.88 52.82 52.57 52.04 50.84 50.08 50.05 49.82 46.91 50.45 50.75 48.67 42.45 38.39 47.32 45.63 47.96 49.68 49.26 48.91 50.74 51.32 50.80 50.49 49.83 47.38 47.68 50.18 49.82 51.05 51.52 50.46 54.60 53.76 51.82 46.52 45.48 45.88 45.68
53.76 53.58 53.75 53.75 53.50 53.58 53.46 53.21 52.90 52.70 52.43 51.21 49.40 49.15 50.03 50.47 51.48 51.81 48.56 43.77 36.26 42.64 44.46 48.14 48.42 48.23 46.23 48.20 49.42 49.68 49.87 48.28 52.67 51.93 48.88 46.12 43.93 50.00 52.13 50.72 50.49 51.59 51.69 47.96 42.70 43.81 46.68
53.71 53.68 53.36 53.07 53.00 53.35 53.27 53.21 52.76 52.51 51.83 50.41 49.40 48.53 46.89 49.69 51.36 50.44 44.64 36.49 39.43 42.98 47.99 47.81 48.14 45.70 45.93 47.51 47.78 48.70 48.92 48.99 51.05 52.27 47.59 45.99 46.08 50.54 51.39 53.29 53.71 51.12 49.03 53.86 50.02 47.32 46.97
53.23 52.84 52.88 52.84 53.03 52.96 53.02 52.96 52.94 52.37 51.73 50.13 46.52 44.38 44.53 52.21 52.71 47.74 41.71 37.55 40.93 47.02 48.97 46.33 43.70 46.36 43.85 45.44 45.72 46.80 47.61 50.62 50.84 52.80 54.87 49.71 45.14 49.57 50.92 52.41 53.50 52.55 53.93 47.87 48.73 44.58 42.64
53.59 53.29 52.84 52.68 52.96 52.71 52.90 52.82 52.55 51.89 51.15 50.12 44.54 39.38 47.30 52.95 48.96 44.63 38.49 38.88 41.72 45.45 48.12 44.99 44.44 44.81 46.10 44.12 45.71 45.59 46.52 49.61 50.56 51.22 53.95 52.41 48.50 46.79 49.61 48.77 48.44 49.72 49.36 50.30 51.26 49.48 45.93
53.40 53.15 52.80 52.53 52.40 52.21 52.18 52.73 52.13 51.09 50.01 47.24 42.56 35.26 46.97 50.68 44.04 42.90 40.05 40.91 42.92 44.70 46.21 45.15 46.48 46.57 45.29 45.39 44.57 45.03 45.48 49.32 51.64 51.31 48.43 51.91 49.95 45.95 47.09 50.72 51.87 51.87 51.00 51.81 47.84 47.41 48.23
53.00 52.47 51.99 52.39 51.82 51.60 52.07 52.26 51.85 50.79 50.36 46.55 38.45 39.01 47.71 47.85 38.68 41.11 43.14 42.88 45.27 45.86 46.89 47.00 45.31 47.36 47.81 45.32 43.26 46.37 47.75 51.21 51.81 51.32 51.79 50.22 47.99 44.28 45.80 49.47 50.77 49.28 50.70 52.22 52.40 52.21 50.34
52.55 52.36 52.28 52.18 51.72 51.22 51.61 51.84 51.53 50.79 50.27 47.44 39.72 34.58 42.92 45.27 42.49 40.82 39.95 41.08 41.64 46.92 47.02 48.83 47.83 49.34 48.25 46.97 49.04 47.11 47.34 51.38 54.07 52.97 58.60 55.94 51.33 48.74 44.41 47.00 49.45 47.33 49.12 51.04 50.80 47.98 48.58
52.17 52.13 51.92 51.69 51.37 51.05 51.45 51.94 51.51 50.68 49.96 46.62 40.55 37.98 41.44 39.01 41.66 41.63 40.13 39.86 39.59 40.36 46.15 47.11 47.49 47.71 47.29 45.06 46.40 46.27 48.53 49.47 51.31 56.17 56.15 54.58 48.99 50.67 51.48 51.53 50.04 48.67 48.02 49.64 49.44 51.66 49.28
51.31 51.52 51.36 51.29 51.23 51.11 51.48 51.99 51.44 50.69 48.60 44.26 38.39 39.50 40.42 39.02 40.49 40.07 39.56 39.45 39.81 41.55 42.50 43.59 44.29 46.46 47.68 45.61 47.30 46.25 49.50 50.31 50.91 54.93 55.30 50.86 50.29 47.98 47.46 50.74 50.04 47.68 49.09 50.03 50.75 51.05 51.49
50.89 50.93 50.96 51.19 51.19 51.34 51.33 51.25 51.18 50.47 47.70 42.59 43.15 42.96 39.31 37.33 38.23 37.74 38.84 39.62 40.32 41.74 44.27 45.44 44.40 43.08 43.03 46.24 48.56 50.05 51.65 52.43 53.61 52.78 54.51 54.96 51.64 50.31 46.54 48.58 47.77 45.88 49.29 49.93 51.49 53.03 52.76
50.64 50.57 50.81 51.00 50.79 50.83 50.98 51.12 51.25 50.79 49.23 47.59 43.41 41.57 36.84 32.78 36.46 37.57 39.81 40.85 40.13 41.53 40.03 43.12 44.47 42.18 46.12 49.36 50.76 52.43 50.31 50.92 52.40 53.73 54.71 53.95 53.05 48.12 47.57 47.94 40.95 48.99 53.28 52.67 51.61 52.55 54.21
50.64 50.58 50.68 50.53 50.66 50.62 50.64 50.83 50.94 50.41 50.19 47.81 45.13 42.57 38.19 32.15 36.29 36.60 38.84 40.24 41.61 42.63 40.75 41.49 44.39 46.47 48.51 46.72 46.34 47.37 49.02 50.37 51.06 52.97 53.48 56.68 51.67 46.54 44.52 45.08 48.93 50.44 53.68 51.51 50.11 51.04 57.20
50.65 50.39 50.52 50.76 50.62 50.45 50.66 50.69 50.69 50.54 50.32 49.31 46.36 45.52 41.77 33.49 33.08 37.77 38.32 39.83 37.53 38.47 39.68 40.92 45.66 47.76 48.61 47.90 47.25 43.68 42.63 46.39 47.52 50.32 53.93 53.80 53.68 49.84 47.90 43.16 42.46 51.59 55.21 57.35 56.87 50.08 56.43
50.09 49.85 50.35 50.67 50.63 50.43 50.64 50.56 50.47 50.36 50.44 48.43 47.96 46.84 43.67 36.08 38.69 39.41 36.37 37.37 41.68 40.35 38.44 40.51 40.76 43.38 49.60 48.28 44.83 44.84 44.69 49.74 45.95 47.28 48.60 49.96 49.26 46.90 47.64 46.00 49.30 54.34 55.78 57.56 49.53 52.80 56.92
49.64 50.08 50.36 50.31 50.29 50.32 50.11 49.79 49.98 50.02 50.28 48.70 46.55 47.33 44.38 38.90 39.22 41.03 41.64 39.23 41.28 40.64 36.48 39.67 39.43 43.18 46.61 46.60 46.27 47.09 45.63 49.59 49.32 51.93 50.36 48.74 46.85 46.20 49.30 46.89 44.88 55.65 56.15 53.66 56.72 57.98 58.67
49.96 50.15 50.02 50.00 49.98 50.37 50.15 49.40 49.16 49.29 49.70 49.64 44.45 47.49 48.63 42.12 39.42 44.47 44.07 45.14 44.45 44.24 41.15 41.43 39.30 39.61 43.23 43.20 46.48 46.88 48.51 50.71 49.63 46.17 53.62 47.62 50.89 47.43 50.61 50.15 55.00 55.91 55.86 59.16 60.21 58.75 59.41

GFSGBSN_sfc_wetblb_006.txt.gz
Wetbulb
56.10 55.58 55.64 55.60 55.00 54.78 54.88 54.92 55.09 55.07 55.16 55.29 55.45 55.60 55.88 56.00 56.41 56.70 56.89 57.21 57.10 56.55 56.78 57.27 58.16 58.33 60.40 57.82 56.57 65.42 70.16 71.85 68.08 68.63 60.62 59.75 56.76 57.12 54.77 57.34 58.18 57.79 59.21 60.18 61.85 63.80 64.56
56.00 55.74 55.46 55.44 55.11 54.58 55.14 54.76 54.85 54.85 54.94 55.19 55.17 55.70 56.04 56.10 56.23 56.49 56.83 56.59 56.34 55.81 56.29 57.17 57.92 57.81 59.84 52.65 60.59 64.11 67.14 68.68 65.65 63.44 59.97 59.14 57.38 58.25 56.67 57.35 57.88 59.26 59.24 59.63 60.85 63.08 65.09
55.79 55.64 55.11 55.05 54.93 54.79 54.85 54.64 54.47 54.28 54.52 54.86 55.25 55.31 55.59 55.59 55.64 55.93 56.09 55.28 54.96 55.02 56.15 57.30 58.59 59.55 58.66 56.06 61.11 62.06 62.93 63.52 65.66 63.48 59.55 59.83 59.73 57.24 57.97 57.02 59.93 59.50 58.54 61.68 62.42 63.95 64.41
55.49 55.28 54.86 54.84 54.93 54.68 54.51 54.53 54.22 53.88 54.21 55.00 55.04 54.72 54.72 54.72 54.90 55.37 54.89 54.62 54.11 55.97 57.21 59.34 58.98 61.51 56.66 62.51 64.43 62.91 63.72 62.75 63.92 65.84 62.34 61.84 60.59 58.24 57.52 60.39 58.80 58.03 59.52 57.43 62.39 64.25 65.39
55.51 55.48 54.92 55.18 54.98 55.22 54.76 54.33 54.01 53.88 54.06 54.78 54.68 54.39 54.81 54.92 55.01 54.58 53.68 53.52 55.14 57.92 58.70 59.52 61.08 60.81 56.40 63.78 61.86 63.84 64.60 60.41 60.91 62.51 61.51 60.50 59.36 57.46 57.64 56.15 56.07 57.99 55.02 56.46 60.55 64.95 64.58
54.35 54.60 54.81 55.20 54.54 54.88 54.56 54.32 54.01 54.04 54.33 54.55 54.73 54.59 54.48 54.26 53.86 53.06 52.73 53.97 56.70 59.41 60.60 62.03 62.48 58.70 60.78 57.15 62.82 61.71 64.99 60.85 58.92 60.12 58.13 57.13 56.41 54.64 55.43 54.95 51.43 54.57 55.13 57.08 57.47 62.88 64.36
54.45 54.65 54.76 54.57 54.42 54.51 54.22 53.88 53.50 53.31 53.66 54.20 54.48 54.17 53.92 53.57 53.02 52.04 53.20 56.46 57.00 57.16 59.37 56.60 56.37 58.00 56.93 60.22 61.74 60.37 62.72 58.88 58.20 57.71 52.44 54.74 51.55 50.21 53.88 56.60 57.19 57.36 57.19 56.74 59.08 63.63 62.84
54.62 54.57 54.39 54.22 53.96 53.96 53.95 53.60 53.61 53.42 53.38 53.77 54.01 53.90 53.43 52.96 51.99 51.65 53.97 50.54 51.71 51.27 48.06 53.14 53.26 53.88 56.34 58.02 53.88 57.06 61.85 57.71 55.29 52.55 54.08 51.81 49.21 53.49 55.21 56.24 56.17 56.85 56.05 56.43 59.45 62.79 62.46
54.20 54.42 54.21 54.04 53.97 54.07 54.47 54.38 54.01 53.50 53.76 53.72 53.72 53.51 52.83 52.24 51.24 54.49 51.99 52.37 54.83 53.47 48.38 51.25 53.05 52.49 54.37 55.50 53.35 54.88 58.62 57.93 54.89 52.43 51.94 50.51 51.14 53.86 53.60 53.71 54.46 56.10 55.71 56.54 57.89 61.24 62.65
54.32 54.73 54.70 54.25 54.23 54.22 54.56 54.24 53.74 53.35 53.43 53.41 53.55 53.20 52.19 51.02 51.29 52.66 52.85 55.26 56.02 54.19 46.81 50.35 52.14 55.21 56.51 56.72 53.58 58.64 58.68 57.13 54.97 52.28 52.85 51.16 53.57 51.88 51.34 52.08 55.21 53.85 57.37 57.40 57.68 58.02 54.95
54.77 54.72 55.02 54.84 54.39 54.40 54.36 53.86 53.68 53.35 53.27 53.18 53.04 52.46 51.23 50.27 50.73 51.15 52.97 54.95 55.30 53.82 40.98 51.85 53.52 59.85 58.45 56.02 56.08 55.84 58.84 56.57 53.17 53.01 53.72 50.99 50.72 50.44 50.05 51.53 54.81 54.80 58.10 57.09 56.98 57.36 57.38
54.49 54.81 54.34 54.29 53.98 54.16 54.05 53.68 53.59 53.37 53.18 53.02 52.75 51.57 50.70 51.89 53.31 53.36 54.90 55.17 55.09 46.89 40.57 48.91 54.18 53.58 53.96 55.34 54.87 55.94 55.58 57.77 56.94 53.86 54.36 53.29 54.79 52.83 52.36 53.50 54.98 57.14 56.43 57.06 57.24 56.04 51.93
54.57 54.53 53.95 53.92 53.75 53.50 53.57 53.59 53.25 53.12 52.92 52.38 51.30 49.94 50.19 52.19 49.96 55.80 55.41 50.96 44.77 41.90 49.59 47.98 49.80 53.28 52.42 51.01 52.61 54.03 52.65 52.06 51.14 49.26 49.47 51.43 51.42 52.74 53.23 51.80 54.12 55.33 54.82 50.19 49.21 49.52 49.34
54.66 54.49 54.22 53.83 53.56 53.41 53.51 53.39 53.14 52.94 53.02 51.74 49.58 48.59 52.50 53.20 55.08 54.55 51.95 44.99 40.01 45.21 47.00 51.02 51.01 52.01 50.18 51.64 51.48 52.59 52.00 49.86 52.78 52.77 50.71 48.05 45.57 51.26 53.01 51.91 52.38 53.01 54.07 50.45 46.06 47.13 49.63
55.20 54.71 54.49 53.95 53.33 53.39 53.47 53.18 52.69 52.59 52.13 50.90 48.85 51.58 50.94 54.70 54.91 54.61 48.32 39.62 42.67 45.80 48.83 48.02 49.50 48.33 49.39 51.12 50.06 51.39 51.56 51.28 52.05 53.82 49.98 49.26 48.54 53.26 53.16 53.62 53.78 53.28 52.00 56.33 52.65 53.35 50.13
55.08 54.59 54.52 54.15 53.80 53.35 53.18 52.62 52.52 52.58 51.77 50.09 48.45 48.74 49.31 54.73 56.99 52.69 45.01 40.20 44.79 47.17 48.84 50.55 46.81 49.27 47.14 48.87 48.76 50.06 50.53 52.87 52.13 54.35 56.35 53.47 48.75 53.05 53.00 54.01 54.15 53.65 56.36 51.17 53.03 48.28 46.43
54.10 54.01 53.66 53.29 53.23 53.12 52.88 52.77 52.48 52.26 51.23 49.70 48.59 44.09 52.34 57.80 56.36 49.93 41.70 43.03 44.99 47.55 48.12 48.02 47.20 47.51 48.44 48.44 49.60 49.43 49.58 52.34 53.79 53.96 56.16 54.77 51.99 50.71 52.97 50.63 50.17 51.42 51.56 53.93 54.18 52.49 48.18
53.50 53.66 53.58 53.35 52.96 53.02 52.65 52.75 52.25 51.58 50.00 49.04 46.37 40.47 52.72 56.46 46.62 47.38 44.26 46.26 46.00 46.50 47.60 46.64 48.34 47.69 47.61 49.02 48.78 49.05 48.89 51.17 54.48 55.31 53.08 55.71 53.31 48.87 48.94 52.88 53.58 53.56 52.69 54.17 50.38 51.01 52.41
53.31 53.15 52.96 52.84 52.88 52.55 52.42 52.15 51.72 50.97 50.22 48.06 43.03 43.25 51.72 51.52 39.82 42.04 46.70 45.68 46.94 46.16 46.31 46.18 45.26 47.44 48.98 47.93 46.85 48.64 49.62 52.16 52.71 53.78 53.96 55.51 52.07 48.13 49.02 50.54 52.43 50.51 52.18 53.86 54.42 54.71 53.57
52.48 52.54 52.52 52.42 52.32 52.11 52.13 51.98 51.47 50.89 50.65 48.49 43.67 39.17 45.15 49.24 46.93 43.92 43.45 43.78 44.43 48.19 47.10 48.00 47.75 48.53 46.72 46.97 49.44 47.81 49.10 51.13 53.35 53.42 60.16 58.66 52.71 50.43 47.20 49.82 51.58 49.33 49.85 51.77 52.12 50.92 51.66
51.63 51.70 51.67 51.82 51.88 51.82 51.77 52.04 51.32 50.74 50.39 47.91 44.02 41.24 44.52 39.65 44.83 45.09 45.60 44.80 42.53 43.37 48.01 49.35 47.62 48.29 47.32 45.64 47.36 47.79 49.96 51.73 54.08 57.73 57.07 57.61 52.60 53.34 52.26 52.31 52.42 51.44 50.33 50.31 49.92 51.38 50.73
51.35 51.35 51.25 51.29 51.42 51.50 51.44 51.92 51.53 50.56 49.72 44.65 40.15 41.55 43.90 41.02 42.00 41.09 40.71 41.50 42.22 43.54 45.77 45.99 46.70 47.13 48.28 47.25 48.36 47.47 49.35 50.56 50.14 54.57 54.13 56.91 53.03 54.32 52.04 52.92 52.46 50.55 51.87 51.22 50.80 51.13 51.71
51.33 51.27 51.12 51.14 51.14 50.95 51.16 51.12 51.42 50.49 48.80 44.15 45.80 45.84 40.53 38.95 37.69 37.73 39.28 41.06 41.29 44.35 46.10 47.29 47.30 46.70 46.49 49.17 51.83 53.53 54.32 54.62 54.96 53.69 54.01 55.05 54.38 53.42 49.82 53.01 52.36 49.33 52.10 52.25 51.77 52.39 52.28
51.35 51.24 51.29 51.21 51.19 50.97 50.94 50.64 50.91 50.78 49.65 47.65 46.01 44.43 37.00 35.49 38.16 37.02 39.16 40.71 40.12 41.58 41.14 44.92 46.56 44.51 48.61 51.43 51.30 52.25 52.57 53.20 53.70 54.35 55.91 54.91 55.72 54.65 50.65 52.40 44.85 52.35 56.22 55.36 53.10 52.74 54.39
50.61 50.87 51.16 51.29 51.22 51.04 51.10 50.83 50.74 51.00 50.03 47.52 47.71 42.46 38.62 34.03 37.94 37.49 37.82 39.01 42.19 42.72 41.94 42.25 44.57 47.86 50.21 47.41 45.13 45.95 47.76 49.86 51.02 53.09 54.27 56.57 54.96 52.15 48.82 49.16 51.80 53.29 55.58 53.78 52.48 52.04 54.88
50.74 50.51 50.34 50.72 50.93 51.08 50.93 50.87 50.82 50.72 50.51 48.62 47.56 47.57 41.83 36.35 37.16 40.10 37.93 39.41 39.15 39.66 40.98 42.54 46.68 49.61 48.16 44.48 45.75 42.87 42.43 46.55 46.37 49.92 55.83 56.29 56.56 52.86 51.37 46.89 44.76 53.91 58.00 60.35 59.90 51.95 56.80
50.29 50.51 50.42 50.36 50.72 50.93 50.84 50.87 50.75 50.36 50.33 48.60 47.67 49.45 43.82 37.70 41.79 42.23 38.38 38.75 42.89 41.99 40.88 42.56 41.70 43.39 49.23 46.46 44.20 44.62 44.51 49.84 45.65 47.76 50.16 52.29 53.38 49.85 50.16 48.98 51.66 57.51 58.06 60.35 51.22 52.97 58.32
50.01 50.23 50.41 50.41 50.64 50.53 50.57 50.53 50.49 49.87 49.34 48.35 46.75 49.11 43.81 39.09 40.07 44.04 44.40 39.97 39.73 42.65 39.74 42.77 40.73 43.69 44.41 45.17 46.27 46.82 47.66 49.39 49.09 52.83 52.51 51.68 50.37 49.69 51.52 49.43 47.28 58.01 58.28 55.27 59.57 62.82 63.05
49.64 49.46 50.00 50.33 50.11 50.38 50.38 50.08 49.61 49.07 48.32 48.87 44.19 50.38 51.07 42.30 40.49 47.04 47.32 47.99 46.50 45.29 42.72 43.19 41.20 41.55 43.56 44.47 48.70 50.00 50.03 53.04 50.67 46.87 56.49 50.73 54.01 52.04 53.14 52.67 57.71 58.67 57.57 60.39 63.38 61.67 63.45

GFSGBSN_sfc_wetblb_009.txt.gz
Wetbulb
56.48 56.29 55.97 55.90 55.75 55.30 55.36 55.43 55.40 55.18 55.19 55.49 55.75 55.67 55.83 55.69 55.96 56.35 56.92 57.22 56.88 56.46 56.53 57.00 57.77 58.72 60.78 58.74 57.50 67.66 72.99 72.20 69.90 66.31 64.91 61.48 60.39 59.98 58.70 59.00 60.36 59.34 60.94 61.29 62.17 63.42 63.67
56.20 55.95 55.56 55.49 55.55 55.51 55.06 55.10 55.20 54.86 54.92 54.82 55.21 55.81 56.02 56.03 55.72 56.14 56.39 56.48 56.07 55.59 56.19 57.00 57.70 58.30 60.15 54.33 62.12 65.01 64.51 66.61 64.68 64.77 61.99 61.40 60.49 60.66 59.09 59.17 59.18 60.94 60.83 60.64 61.60 61.91 63.69
55.60 55.66 55.31 55.79 55.53 55.91 55.12 55.02 54.66 54.78 54.83 54.76 55.12 55.30 55.70 55.52 55.12 55.30 55.74 55.69 54.86 55.07 56.19 57.74 58.27 60.29 58.75 57.46 62.15 62.57 65.36 64.54 65.02 63.37 61.17 61.13 61.38 58.96 59.15 58.03 60.83 60.76 58.39 60.84 61.49 61.73 62.11
55.37 55.26 55.47 55.72 55.46 55.00 55.05 54.46 54.50 54.31 54.38 54.58 54.90 55.14 55.30 55.00 54.73 55.00 54.98 54.23 54.18 55.85 57.99 59.10 60.08 61.63 56.69 63.23 65.10 62.75 62.56 62.01 63.96 64.65 62.59 62.35 61.17 59.41 58.68 60.83 59.99 58.25 58.86 56.42 61.41 61.88 62.58
55.35 55.51 55.25 55.05 55.10 55.21 55.11 54.55 54.18 54.48 54.62 54.78 54.85 54.95 54.95 55.06 54.65 54.24 53.39 53.33 54.66 58.21 59.40 60.08 62.15 62.34 56.60 65.17 61.63 63.26 63.47 61.44 62.48 62.49 63.74 62.14 60.84 57.36 57.93 55.38 55.10 57.84 54.31 56.40 58.37 62.63 63.47
55.74 55.34 55.03 54.90 54.78 54.99 55.18 55.04 54.60 54.73 54.54 54.50 54.57 54.55 54.51 54.40 53.89 53.17 52.32 52.90 57.50 59.30 61.23 63.64 64.06 60.11 60.77 58.72 61.98 63.14 64.35 62.49 59.79 60.73 59.33 58.57 57.10 54.89 55.01 55.05 50.89 54.70 55.32 57.26 58.97 60.47 63.22
55.45 55.03 54.94 54.80 54.70 54.80 54.80 54.92 54.73 54.68 54.52 54.48 54.51 54.32 54.01 53.52 53.02 51.93 53.33 58.98 58.28 59.44 61.38 58.68 59.41 58.21 58.99 61.24 63.82 61.32 63.25 60.91 59.24 58.94 54.19 55.85 52.32 50.60 53.77 56.42 57.12 57.84 57.33 56.56 58.99 61.08 61.32
55.62 54.94 54.73 54.74 54.74 54.82 54.85 54.93 54.90 54.57 54.33 54.29 54.18 53.95 53.66 52.96 52.07 51.36 54.47 53.95 54.03 53.55 49.30 54.69 55.90 56.66 58.59 59.49 56.11 59.64 63.17 57.10 55.69 53.46 55.67 53.43 50.38 54.06 56.24 57.15 56.67 56.85 56.49 56.98 59.53 60.05 61.09
55.06 55.02 54.82 55.37 55.20 55.21 54.96 54.88 54.53 54.34 53.95 53.95 53.91 53.74 53.00 52.20 51.23 55.35 53.49 54.48 56.45 56.17 49.98 52.46 55.49 55.01 56.13 57.40 54.26 55.83 58.78 58.62 54.68 53.12 53.76 51.51 52.68 54.87 54.86 55.69 55.62 56.36 55.91 56.88 57.09 61.40 62.27
55.49 55.22 55.38 55.56 55.24 54.78 54.63 54.45 54.32 54.16 53.93 53.81 53.79 53.48 52.59 50.87 51.74 53.91 53.89 57.15 57.23 56.37 47.45 50.79 52.87 54.63 56.46 57.01 53.44 57.75 59.41 57.15 56.38 53.15 53.52 53.25 55.03 53.19 53.14 53.72 55.73 53.99 57.66 57.82 57.48 57.19 55.41
55.58 55.56 55.48 55.44 54.97 54.53 54.26 53.99 54.17 53.89 53.58 53.58 53.70 53.08 51.70 50.06 51.56 52.24 54.32 56.28 56.02 55.15 41.74 53.74 54.43 59.99 58.74 56.32 58.00 57.23 60.47 57.45 54.39 54.32 54.31 52.07 52.51 52.69 51.77 53.15 56.18 54.90 58.15 57.76 57.76 57.85 57.88
55.91 55.73 55.54 55.20 54.81 54.45 54.01 53.66 53.85 53.52 53.35 53.17 53.10 52.15 51.32 52.89 54.44 55.88 56.54 55.86 54.98 46.62 42.16 51.22 55.35 54.49 55.32 56.34 55.92 57.80 56.87 58.58 57.97 55.07 55.01 54.12 56.50 54.22 53.98 54.98 56.07 57.34 56.85 57.51 57.18 56.39 51.98
56.05 55.93 55.49 55.15 54.78 54.22 53.66 53.70 53.56 53.12 52.88 52.63 51.81 50.42 50.48 52.83 50.56 56.25 55.84 52.72 44.78 42.53 52.02 50.46 51.62 53.67 53.64 53.14 54.01 55.18 53.78 52.92 51.65 49.33 50.59 53.02 53.26 55.30 54.99 52.60 55.27 55.39 54.37 50.16 49.96 49.71 49.42
56.01 55.88 55.65 55.16 54.81 54.36 53.87 53.91 53.70 52.80 52.74 52.08 50.27 48.75 52.92 54.98 57.24 56.36 52.72 46.53 40.43 47.62 48.90 52.95 52.83 53.60 51.42 53.66 53.43 54.01 53.26 51.26 53.74 53.34 51.55 49.50 47.97 53.16 54.76 52.98 52.01 53.31 53.71 49.96 46.52 48.13 50.61
55.82 55.55 55.61 55.34 54.93 54.66 54.34 53.83 53.39 52.88 52.53 51.41 49.32 53.66 53.27 55.48 56.65 55.60 48.94 40.90 43.60 47.44 51.26 50.96 51.99 50.40 51.31 52.79 52.89 52.39 53.03 52.17 53.48 53.92 50.73 50.60 50.14 55.01 54.81 54.71 53.71 52.70 51.59 56.11 52.53 54.24 51.36
55.33 55.21 54.98 54.73 54.42 54.20 53.80 53.48 53.19 52.75 52.26 50.90 49.95 51.43 52.19 56.08 58.04 53.74 46.20 41.49 46.63 49.63 51.24 51.08 48.38 51.06 49.59 51.35 51.12 51.58 52.11 54.46 53.43 54.80 55.99 53.72 50.40 54.43 54.18 54.79 54.10 52.50 55.56 51.47 53.84 48.79 47.38
53.99 53.91 54.23 54.10 54.20 53.91 53.79 53.46 53.17 52.51 51.67 50.72 50.28 47.13 54.64 56.91 57.53 50.46 42.29 44.26 46.70 49.35 50.32 48.65 48.91 49.63 50.34 50.28 51.57 51.35 51.24 53.36 54.77 55.02 55.87 54.10 53.16 52.76 54.93 52.31 50.83 50.88 50.45 53.72 53.99 52.99 49.21
53.57 53.63 53.66 53.64 53.72 53.76 53.21 53.52 52.82 51.83 50.58 49.54 49.13 43.92 54.26 57.98 47.71 48.16 45.73 47.52 47.56 48.86 51.07 48.87 49.12 49.91 50.65 51.36 50.65 51.02 50.81 53.04 55.75 55.67 53.11 55.17 53.38 50.78 52.13 55.36 55.53 53.63 51.94 52.20 51.09 51.79 52.77
53.11 53.09 52.89 52.99 53.21 52.93 52.99 52.98 52.28 51.26 50.99 49.42 45.64 47.31 53.57 51.57 40.38 43.27 47.11 47.46 49.04 48.68 49.33 48.89 47.81 48.74 50.44 49.74 48.92 51.26 52.08 54.84 54.89 54.84 54.57 55.29 51.91 48.77 50.82 53.21 54.54 52.35 52.80 52.98 53.00 54.64 54.31
52.25 52.21 52.15 52.23 52.37 52.18 52.36 52.42 51.77 51.17 51.24 49.00 45.12 42.01 47.61 48.71 47.77 44.10 43.38 44.67 45.13 49.86 49.06 49.51 49.09 49.71 47.93 47.46 50.55 49.45 50.67 53.28 54.72 54.24 61.20 59.21 53.93 51.71 48.81 51.50 53.21 50.57 51.42 52.08 52.02 49.99 51.64
52.18 52.18 52.04 52.12 52.08 51.94 52.06 52.15 51.68 51.14 50.60 46.73 44.37 42.83 45.66 41.18 44.05 43.27 43.20 42.62 43.03 43.19 49.52 50.08 48.20 47.76 47.47 45.54 46.85 47.52 50.43 52.22 53.18 56.87 55.74 55.26 52.04 53.50 53.46 54.05 54.22 52.75 50.76 50.99 50.44 51.92 50.78
52.09 52.07 52.09 52.16 51.95 51.72 51.79 51.86 51.82 50.82 50.01 43.98 42.21 42.31 44.45 43.28 44.87 41.95 40.81 40.94 40.62 43.14 44.37 43.34 44.99 47.61 48.15 46.34 47.74 46.80 49.44 51.15 51.96 53.52 54.19 55.51 51.94 54.39 51.96 53.26 52.84 51.40 52.92 52.51 51.60 51.39 51.88
51.32 51.53 51.78 51.93 51.97 51.86 51.68 51.57 51.59 50.69 48.98 44.35 46.84 47.87 44.37 40.74 41.60 40.45 39.79 40.26 41.34 43.10 44.50 46.38 44.49 44.74 47.17 48.56 50.17 52.43 54.20 53.42 53.63 54.12 54.10 54.52 53.84 53.66 50.34 53.79 53.29 49.96 52.20 52.77 53.66 54.14 52.80
51.02 50.95 51.36 51.63 51.55 51.76 51.63 51.48 51.31 51.11 50.01 48.83 46.53 44.43 40.27 37.62 39.94 39.33 40.67 39.53 40.69 41.74 41.60 44.69 44.81 43.22 48.06 51.20 52.39 52.81 52.91 54.19 54.46 54.31 54.64 54.01 54.57 53.45 50.29 53.30 45.52 53.68 57.30 56.38 54.43 54.97 55.74
50.74 50.83 51.04 51.33 51.26 51.39 51.35 51.50 51.29 51.14 50.87 49.96 48.59 42.55 39.73 37.46 39.52 40.48 40.34 39.28 40.91 43.14 43.16 41.83 43.85 46.72 48.53 48.46 46.33 46.03 46.97 47.43 49.53 52.22 54.56 56.98 54.87 51.06 49.68 49.74 52.06 53.28 56.91 57.24 56.67 55.23 57.15
50.87 50.66 50.78 50.95 51.14 51.11 51.39 51.53 51.26 50.96 51.16 50.68 50.91 47.60 41.88 35.88 38.06 40.80 38.96 39.68 37.44 38.98 41.93 44.49 46.78 49.04 47.88 44.75 42.41 40.17 40.15 44.57 44.30 47.40 53.14 55.01 56.69 53.48 52.59 47.94 46.59 54.14 59.02 61.41 59.81 52.48 58.38
50.74 50.51 50.60 50.78 51.17 51.08 51.45 51.20 51.14 50.97 50.57 51.41 48.21 48.74 42.54 37.07 40.29 42.27 38.97 37.88 41.63 39.59 40.90 42.33 44.86 43.95 46.31 40.84 39.48 39.98 41.25 46.95 43.01 44.26 47.31 49.03 51.48 49.14 50.25 49.62 52.47 58.75 59.88 61.37 51.34 54.09 63.74
50.60 50.53 50.34 50.11 50.83 51.04 50.95 50.98 51.03 50.96 50.39 50.34 49.38 52.16 44.41 39.34 40.01 44.53 45.05 42.59 40.75 43.02 38.16 42.58 44.32 43.18 43.45 40.58 41.52 42.51 42.67 45.65 46.32 50.09 50.26 48.88 49.46 48.95 51.06 48.59 46.79 60.68 60.17 55.94 61.23 64.16 64.66
50.88 50.57 50.41 49.96 50.58 50.53 50.72 50.58 50.49 49.95 49.70 49.66 46.21 50.20 48.96 41.71 41.83 48.09 48.36 48.98 47.78 47.72 44.89 44.82 43.35 41.69 45.67 44.46 46.45 45.50 45.54 48.70 48.96 44.95 53.90 49.31 53.20 51.67 52.91 53.22 61.91 62.70 60.67 63.26 64.18 64.13 64.87

GFSGBSN_sfc_wetblb_012.txt.gz
Wetbulb
56.38 56.17 55.91 56.37 56.18 56.30 55.61 55.28 55.47 55.49 55.07 55.34 55.52 55.87 56.26 55.91 55.83 55.94 56.32 56.71 56.51 56.20 56.31 56.79 57.61 58.35 60.06 56.30 57.85 63.99 73.55 72.23 68.29 64.06 61.40 60.78 59.20 60.14 58.18 60.26 60.48 58.61 61.48 62.41 62.43 62.84 63.63
55.69 55.91 56.10 56.13 56.12 55.57 55.58 55.29 55.21 55.08 54.84 54.71 54.74 55.45 55.82 56.02 56.06 56.14 56.20 56.03 55.92 55.48 55.74 56.86 57.83 58.20 58.49 51.37 61.68 66.32 64.39 65.87 63.28 62.52 60.56 61.87 60.01 61.50 59.83 59.60 59.00 60.13 60.13 60.58 61.01 61.09 62.61
55.71 55.82 55.80 55.71 55.62 55.80 55.44 55.46 55.03 55.02 55.01 54.94 55.12 55.40 55.54 55.50 55.33 55.60 55.68 55.36 55.18 54.74 55.79 57.54 59.14 59.01 56.29 53.57 62.72 63.67 62.93 63.81 63.01 63.23 59.82 61.93 62.17 60.08 60.42 58.18 60.80 59.85 57.55 59.49 59.88 60.67 61.07
56.56 55.92 55.73 55.52 55.48 55.30 55.25 54.97 55.37 55.60 55.55 55.22 55.20 55.43 55.36 55.40 55.53 55.24 54.70 54.06 54.25 55.00 56.84 59.65 59.64 60.28 54.05 59.94 62.42 61.59 62.98 62.36 63.82 64.01 62.35 62.63 61.95 59.30 59.01 59.87 58.21 56.46 57.17 54.52 59.13 60.83 61.43
56.59 56.42 56.00 55.59 55.69 55.68 55.43 55.19 55.10 55.34 55.32 54.99 54.89 55.09 55.17 55.17 54.74 54.09 53.17 53.21 54.33 56.55 59.52 60.42 60.32 60.67 56.47 66.13 60.82 62.84 63.21 59.39 60.43 61.78 62.85 62.42 60.52 56.58 57.02 54.47 53.28 55.26 52.39 54.16 56.35 61.44 60.87
56.41 56.42 56.14 55.39 55.33 55.86 55.61 55.40 55.22 55.22 55.11 54.87 54.62 54.64 54.53 54.35 53.94 53.00 52.32 53.05 57.50 58.33 61.09 62.93 62.47 58.89 61.53 58.91 61.73 61.77 62.70 60.98 58.82 60.00 58.26 58.67 57.15 54.18 53.44 52.75 48.26 51.49 52.85 55.18 55.66 59.91 60.22
55.82 55.67 55.48 55.00 55.28 55.76 55.43 55.20 55.28 54.93 54.75 54.72 54.52 54.22 54.08 53.75 52.99 52.20 51.67 56.94 57.54 56.97 59.71 58.55 58.98 56.53 58.01 62.53 62.41 61.65 62.94 61.27 60.10 57.69 53.58 56.91 52.42 50.32 52.77 53.98 55.17 54.93 55.29 55.13 57.35 61.16 59.55
56.31 55.64 55.47 55.52 55.92 55.72 55.30 55.09 54.72 54.48 54.60 54.43 54.24 54.04 53.83 53.38 52.32 51.61 53.28 55.29 54.70 54.33 48.82 53.74 55.14 58.26 61.35 61.98 57.88 60.33 62.24 57.87 56.15 52.56 55.46 53.32 50.10 53.37 54.70 55.58 54.63 54.91 54.44 55.39 58.23 61.10 60.52
56.48 56.14 55.98 55.80 55.85 55.58 55.12 54.72 54.41 54.14 54.28 54.08 53.91 53.71 53.38 52.69 51.61 54.59 55.22 53.20 58.26 56.24 49.04 51.05 53.72 53.00 55.41 60.09 56.97 56.42 59.84 58.95 54.51 52.47 53.67 51.30 52.55 54.16 53.18 53.56 53.59 54.25 53.91 55.07 55.82 59.62 60.29
56.47 56.05 55.99 55.86 55.78 55.46 54.97 54.62 54.20 53.98 53.97 53.77 53.56 53.52 52.90 51.51 52.87 52.73 52.70 57.62 56.58 56.08 45.52 49.32 52.94 54.01 55.13 55.66 52.74 57.99 58.88 58.26 56.18 52.11 52.59 53.01 55.00 53.12 51.78 51.93 54.23 52.02 56.48 56.29 55.85 56.72 53.60
56.60 56.29 56.11 55.94 55.82 55.27 54.94 54.51 54.04 53.85 53.89 53.62 53.38 53.03 51.89 50.79 49.74 51.20 55.43 56.76 56.24 54.33 39.44 54.21 53.99 59.56 56.96 53.54 55.01 54.84 58.69 56.35 52.81 53.65 53.94 51.21 52.64 52.02 50.82 51.63 54.62 54.09 57.35 56.36 56.01 55.72 56.62
56.56 56.54 56.25 56.11 55.94 55.55 54.85 54.53 54.09 53.81 53.73 53.34 53.11 52.22 51.65 51.91 53.24 54.81 56.77 56.11 54.43 44.93 39.90 51.32 55.24 53.57 52.74 53.48 54.19 57.62 55.19 56.65 56.17 53.10 54.96 54.04 56.27 54.61 53.32 54.03 54.40 56.66 55.78 55.76 55.73 55.04 50.31
56.37 56.25 56.08 55.81 55.71 55.48 54.87 54.42 54.14 53.85 53.34 52.82 52.00 50.87 50.45 52.14 49.24 55.56 55.83 52.53 43.32 40.53 52.48 50.78 52.30 54.35 53.77 52.21 52.50 55.19 52.84 52.04 51.09 48.49 49.55 52.93 53.00 54.90 55.22 52.25 54.05 53.50 52.38 49.04 48.12 49.25 48.70
55.82 55.80 55.59 55.36 55.22 55.11 54.95 54.56 54.18 53.56 53.13 52.07 50.36 49.31 52.14 54.27 56.36 56.52 53.48 46.36 39.14 46.90 47.64 53.65 53.40 53.57 51.35 53.92 53.08 53.51 53.51 51.24 53.38 52.31 50.33 48.43 47.24 52.60 55.09 52.49 51.22 51.74 51.59 49.71 44.78 46.91 49.38
55.39 55.35 55.16 54.90 54.63 54.55 54.46 54.26 53.66 53.21 52.72 51.35 49.46 53.13 53.12 54.99 56.33 55.94 49.17 39.10 42.90 46.89 51.12 51.22 52.24 50.44 51.12 52.50 52.93 52.35 52.38 52.02 52.81 53.13 49.91 49.05 49.00 55.25 54.76 55.36 53.35 51.43 49.37 53.72 50.52 52.27 49.76
54.48 54.63 54.56 54.29 54.24 54.36 54.30 53.85 53.64 53.32 52.58 50.89 49.01 49.88 52.88 57.68 56.48 53.45 45.40 40.55 45.56 49.05 50.95 51.22 48.00 50.65 49.02 51.32 50.99 51.78 51.84 54.30 53.53 54.27 55.11 52.71 48.99 53.92 54.89 55.33 54.97 52.33 54.33 48.28 50.03 45.96 46.01
53.83 53.74 53.96 53.91 53.93 54.01 53.97 54.01 53.48 53.11 51.86 50.75 48.85 47.49 53.08 56.26 55.87 50.14 42.28 43.21 46.27 49.58 49.74 47.12 46.43 47.06 49.16 50.65 51.88 51.28 51.38 53.91 55.06 54.86 55.21 53.25 52.06 51.64 54.67 52.68 51.05 50.74 49.79 50.72 51.46 51.08 48.20
53.47 53.44 53.44 53.40 53.24 53.49 53.61 53.40 52.94 52.17 50.72 49.47 47.90 41.91 54.44 56.61 46.92 48.06 44.68 47.26 47.55 48.69 50.79 49.47 49.73 48.32 47.44 48.43 50.33 50.98 51.34 53.23 56.07 55.95 52.78 54.30 51.85 49.79 50.98 55.36 55.48 53.49 51.41 50.83 47.44 49.04 51.06
53.44 53.44 53.38 53.28 53.13 53.09 53.01 52.74 52.39 51.65 51.35 48.93 43.83 44.90 52.23 51.60 40.48 42.26 45.30 45.67 48.34 48.29 49.17 49.24 48.28 49.35 50.16 47.69 47.24 49.56 51.91 55.25 56.07 54.89 53.26 55.19 51.42 48.32 48.39 52.45 55.21 51.81 52.17 52.26 51.26 51.61 49.68
53.28 53.07 53.47 53.24 53.20 52.91 52.93 52.47 52.00 51.40 51.35 48.74 43.20 39.53 45.67 48.08 47.53 44.04 42.68 43.06 42.92 47.49 47.77 48.58 48.85 50.23 49.28 48.11 49.82 48.63 49.46 53.03 55.25 55.32 60.62 58.91 52.52 51.08 47.65 50.55 53.37 51.82 51.95 52.56 51.15 48.00 49.45
52.12 51.94 52.27 52.45 52.71 52.56 52.76 52.30 51.85 51.27 51.09 48.08 44.05 40.97 44.48 38.58 41.89 42.59 41.91 42.40 40.93 41.93 46.80 48.45 46.38 46.95 46.46 45.54 47.05 46.74 48.84 50.29 53.32 57.75 56.59 54.50 51.22 52.47 51.87 52.30 53.25 52.93 51.94 52.11 51.16 52.17 49.64
52.06 51.83 51.89 51.83 52.04 52.14 52.32 52.51 52.11 51.11 50.57 44.97 38.99 40.48 44.04 41.74 42.76 41.55 39.86 39.13 38.94 41.64 43.83 41.08 42.26 45.31 46.04 44.03 43.96 41.92 47.67 50.23 50.79 53.86 53.52 53.96 51.28 52.34 50.91 53.03 52.77 51.58 53.40 52.64 51.93 52.11 52.52
51.70 51.61 51.79 51.53 51.54 51.78 51.86 51.78 51.99 51.05 49.35 46.52 44.99 46.01 42.81 40.29 39.83 38.86 39.58 39.61 39.69 41.91 43.53 45.04 43.49 42.43 42.45 44.13 46.82 47.41 49.17 50.36 51.92 52.78 53.68 53.59 51.12 51.62 48.31 51.84 51.97 49.33 52.58 53.47 53.58 52.81 52.59
52.11 51.40 51.62 51.56 51.58 51.51 51.68 51.76 51.71 51.52 50.04 50.21 47.68 45.81 38.39 34.88 38.05 37.77 40.20 40.95 40.60 41.52 38.68 42.99 43.64 41.10 45.03 48.42 49.12 50.35 50.58 51.11 51.67 52.20 53.32 54.22 52.25 51.89 49.22 51.49 44.07 52.82 56.15 55.21 53.75 54.60 55.41
51.90 51.57 51.48 51.42 51.30 51.36 51.64 51.58 51.53 51.76 51.50 51.21 50.51 44.39 38.34 34.36 38.86 37.99 40.30 40.27 40.54 42.17 40.27 42.01 44.38 46.56 48.46 45.37 40.80 40.92 45.24 47.16 49.36 51.59 52.11 55.05 54.00 50.11 48.58 47.64 51.72 53.19 55.82 55.94 54.27 53.89 57.68
51.86 51.59 51.40 51.19 51.17 51.30 51.57 51.81 51.62 51.99 51.45 51.28 51.75 49.09 41.80 35.31 36.15 41.55 39.83 40.56 38.69 39.62 40.50 42.70 48.68 49.44 46.86 42.18 38.33 34.42 32.61 43.62 44.46 48.68 53.91 53.23 56.93 51.70 50.60 46.19 45.31 54.53 57.74 61.06 59.45 52.48 60.79
51.63 51.64 51.40 51.21 51.11 51.03 51.53 51.81 51.69 51.45 51.42 50.49 50.63 50.79 43.19 35.41 39.95 41.75 39.60 39.74 42.34 39.85 38.24 42.18 43.98 45.93 47.10 39.27 34.76 34.23 35.98 44.18 42.20 44.75 46.77 48.81 50.79 48.73 49.35 47.61 50.64 57.63 59.55 59.99 50.06 53.92 63.18
51.89 51.49 51.21 51.06 50.87 50.73 51.50 51.21 51.32 51.28 51.47 50.79 48.92 52.51 44.84 39.42 40.28 43.71 44.43 42.06 41.77 40.74 36.38 41.04 38.45 45.09 42.91 37.49 36.76 36.91 37.68 42.69 44.13 48.73 48.62 47.01 46.10 47.50 51.22 47.97 45.02 59.69 58.36 53.96 61.20 63.43 63.09
51.78 51.38 50.92 51.00 51.04 51.04 50.92 51.14 50.68 50.65 50.32 50.05 46.43 52.24 50.98 43.82 41.72 46.30 47.50 49.12 47.24 46.03 42.92 43.21 40.50 40.84 44.64 41.12 43.20 43.40 41.10 44.44 44.47 41.09 50.81 46.01 50.04 47.88 50.87 51.72 60.75 63.88 62.98 64.30 64.61 63.80 64.01

GFSGBSN_sfc_wetblb_015.txt.gz
Wetbulb
56.23 56.12 56.37 56.24 56.65 56.46 55.97 55.61 55.92 55.98 55.51 55.34 55.23 55.37 55.45 55.39 55.52 56.03 56.10 56.46 56.42 56.22 55.93 56.49 57.07 58.15 55.89 52.40 54.45 61.55 73.90 73.83 69.37 64.00 59.69 56.99 54.25 53.76 52.65 56.48 57.87 57.12 59.70 62.29 63.81 63.02 62.07
56.81 56.17 56.04 55.78 56.01 55.78 55.63 55.43 55.46 55.63 55.46 55.48 55.61 55.80 55.83 56.06 56.07 56.22 56.28 55.88 55.64 55.54 55.49 56.24 57.54 58.23 54.46 47.17 56.39 58.83 65.72 65.97 64.02 61.68 57.84 57.68 56.23 57.13 55.74 56.66 55.86 58.24 58.62 60.38 60.45 62.20 62.17
56.94 56.32 55.82 55.91 55.94 55.69 55.42 55.28 55.24 55.16 55.19 55.28 55.70 55.72 55.65 55.69 55.68 55.48 55.89 55.19 55.24 54.93 55.08 56.57 58.40 57.99 53.76 50.36 57.31 61.36 60.81 62.35 61.87 60.19 56.99 58.14 59.20 56.85 55.99 55.24 58.63 57.50 54.53 56.25 57.45 56.93 61.20
57.38 56.90 56.29 56.30 56.30 56.15 55.84 55.31 55.14 55.32 55.26 55.60 55.56 55.46 55.44 55.54 55.75 55.46 54.78 54.32 54.50 54.98 55.90 57.32 59.74 56.76 50.66 57.81 58.03 56.64 56.65 57.31 61.99 59.76 60.12 59.29 58.96 56.91 54.47 56.55 56.43 53.76 51.68 47.85 55.11 57.23 58.31
56.87 56.75 56.78 56.53 56.38 55.99 55.91 55.97 55.55 55.54 55.25 55.11 55.07 54.95 54.89 54.89 54.70 54.33 53.25 53.35 55.01 56.87 57.40 60.19 56.83 55.29 52.96 64.62 57.88 58.21 57.80 57.09 58.58 59.01 59.48 61.68 57.47 53.80 53.81 50.15 47.72 48.89 45.88 48.44 51.80 57.68 58.39
56.92 56.81 56.50 56.25 56.13 56.06 55.87 55.61 55.44 54.99 54.85 54.86 54.70 54.55 54.33 54.27 53.77 53.13 52.50 52.97 54.99 57.19 58.95 61.00 60.41 53.60 58.53 56.71 59.19 59.58 59.79 59.81 56.87 55.90 56.12 55.89 53.13 49.37 49.42 46.36 42.51 44.81 46.14 49.01 50.32 55.52 57.73
57.21 56.77 56.19 56.15 56.37 55.97 55.87 55.40 55.32 54.97 54.81 54.68 54.53 54.10 53.87 53.64 53.07 52.13 50.23 48.55 50.72 50.13 55.63 55.40 54.87 54.63 54.50 58.12 61.37 59.13 59.66 57.66 56.19 53.07 49.28 52.25 47.74 46.49 47.71 48.82 50.14 50.67 49.71 49.85 52.80 57.90 58.44
57.31 57.21 56.78 56.52 56.23 56.25 55.98 55.48 55.19 54.96 54.51 54.51 54.18 53.91 53.66 53.15 52.53 51.42 50.11 49.46 51.66 50.45 46.00 51.27 51.32 53.54 58.73 60.38 56.91 58.02 60.14 54.16 52.98 49.76 51.82 48.83 46.84 50.72 52.78 51.89 50.28 50.19 49.36 49.48 53.18 57.96 57.90
57.23 57.02 56.73 56.40 56.40 56.12 55.99 55.44 55.14 54.69 54.50 54.22 54.19 53.60 53.19 52.53 51.31 51.82 48.28 48.76 53.75 52.44 44.18 47.43 50.39 50.15 50.79 53.52 54.47 56.37 57.72 55.61 52.84 50.13 50.40 47.27 49.95 54.14 52.17 50.67 49.98 49.19 48.21 49.56 50.43 57.05 58.40
56.88 56.69 56.42 56.32 56.24 55.95 55.95 55.58 55.24 54.83 54.46 54.25 54.13 53.50 52.77 51.62 50.17 48.15 48.88 54.86 55.25 53.03 39.14 45.04 48.25 50.54 51.58 51.73 50.01 57.00 59.81 56.07 53.70 50.03 50.66 48.84 53.15 52.13 50.46 49.13 49.63 46.77 52.43 52.62 52.17 51.38 50.16
56.51 56.26 56.30 56.32 56.14 55.85 55.60 55.46 55.21 54.68 54.46 54.07 53.97 53.17 51.77 51.24 46.67 46.83 52.49 54.24 53.86 50.37 33.05 51.42 51.12 55.48 51.84 48.60 50.86 53.84 59.89 54.84 51.75 52.20 49.41 47.65 50.45 50.56 49.35 48.87 50.17 48.81 53.43 52.62 52.44 50.75 51.61
56.26 56.10 56.08 56.02 55.87 55.62 55.17 54.91 54.68 54.38 54.01 53.80 53.48 52.38 51.39 49.34 48.75 50.37 53.06 53.10 50.95 38.87 34.49 48.03 52.34 50.31 47.93 48.86 49.69 52.22 54.64 55.32 53.67 52.39 52.02 51.20 53.72 51.39 51.12 52.64 51.36 51.97 51.08 51.32 51.64 49.98 45.21
55.95 55.78 55.57 55.60 55.42 54.93 54.34 54.23 54.40 54.25 53.58 53.13 52.42 50.99 49.59 50.19 45.34 52.18 51.85 49.48 37.51 34.84 49.33 48.74 48.72 50.71 48.82 47.42 48.03 49.03 49.04 48.02 46.07 43.31 44.30 48.39 50.35 53.18 53.19 49.30 50.12 49.25 43.71 42.32 41.71 42.96 41.51
55.21 54.70 54.86 54.79 54.34 54.11 54.15 54.38 54.13 53.75 53.48 52.58 50.82 49.34 50.14 52.21 53.00 52.01 49.82 41.29 33.48 44.22 43.84 49.82 49.40 50.26 48.44 49.79 48.62 48.99 48.55 45.89 48.77 47.07 43.61 42.43 41.88 50.25 53.18 49.85 46.96 46.76 45.54 42.23 36.22 39.87 42.86
54.70 54.39 54.41 54.12 53.99 54.09 54.11 54.05 53.75 53.50 53.03 51.77 49.83 48.52 48.35 51.16 53.77 52.44 45.51 35.67 38.23 43.03 47.28 46.73 45.94 46.37 47.59 50.55 50.40 48.58 48.15 47.17 48.38 48.66 44.37 43.53 44.11 52.72 53.35 53.33 51.02 46.17 44.20 47.52 40.76 43.86 41.52
54.19 54.35 54.14 53.95 53.83 53.68 53.72 53.54 53.43 53.09 52.68 51.14 46.71 46.15 47.71 53.23 55.49 50.46 42.10 37.06 41.58 46.59 46.56 45.10 39.53 44.64 41.14 43.61 45.68 48.76 47.51 51.13 50.39 51.42 51.88 47.46 42.53 50.62 52.91 53.06 52.11 48.54 48.55 42.63 44.62 37.50 38.55
54.04 54.04 53.99 53.81 53.83 53.64 53.58 53.44 53.04 52.49 51.80 50.50 46.03 42.56 49.30 52.73 52.95 46.22 37.63 39.32 43.05 47.04 47.75 44.58 43.18 42.52 43.40 43.38 44.44 43.93 46.90 51.65 52.98 52.93 52.53 49.96 46.96 47.05 50.11 48.56 47.37 47.68 45.65 44.11 43.52 44.19 40.01
53.81 53.77 53.66 53.75 53.50 53.44 53.52 53.23 52.71 51.92 50.75 48.52 44.16 36.94 49.77 50.87 39.97 44.34 40.32 43.29 44.69 45.83 48.68 46.99 46.98 45.23 43.76 44.58 43.26 43.98 44.31 46.88 53.84 53.79 49.98 50.61 46.68 43.39 46.07 51.30 52.73 50.50 46.33 44.76 41.80 37.95 41.95
53.13 53.21 53.15 53.26 53.25 53.33 53.21 52.90 52.40 51.49 51.29 46.43 39.95 40.42 48.58 48.30 34.96 37.88 42.51 43.39 45.21 43.86 43.81 43.71 44.05 46.80 47.65 44.40 41.79 45.12 46.43 50.93 51.18 50.27 51.18 51.15 46.78 41.36 43.59 46.85 50.08 48.61 49.30 46.78 46.93 42.50 40.84
53.01 52.68 52.74 52.76 53.09 53.11 52.92 52.65 52.16 51.25 51.37 47.29 41.19 34.84 41.73 44.60 44.26 39.95 38.82 38.69 38.08 44.33 43.42 44.35 43.93 45.14 43.51 42.62 45.47 43.57 45.11 49.87 51.53 50.10 59.35 55.97 47.79 45.67 42.38 43.92 46.82 46.97 48.93 49.32 46.28 42.82 42.61
52.28 52.06 52.14 52.66 52.37 52.66 52.59 52.40 52.12 51.39 50.82 47.91 42.88 37.37 40.45 34.05 37.63 37.67 39.15 38.76 36.65 36.68 42.23 42.03 41.27 41.28 39.46 36.64 40.50 41.45 44.58 43.54 47.22 53.05 51.68 47.78 46.17 47.36 48.37 49.64 49.60 48.41 49.16 49.22 46.73 46.29 42.96
52.48 52.20 52.30 52.53 52.31 52.20 52.37 52.25 52.03 51.36 50.64 45.64 39.01 37.25 39.74 36.57 38.29 37.18 37.69 36.88 36.72 38.09 39.00 37.72 37.97 40.78 40.21 38.63 40.12 37.70 40.35 40.98 39.93 44.98 43.17 46.01 44.66 47.49 45.98 49.89 49.35 47.98 50.04 51.05 49.44 48.99 48.25
51.96 51.69 51.95 51.87 52.35 52.06 52.08 52.09 52.05 51.23 49.46 44.57 46.12 44.84 40.62 36.90 35.58 34.34 35.39 36.55 36.64 38.86 40.60 41.43 40.24 39.87 38.31 41.33 43.54 43.21 43.59 43.55 43.53 42.15 41.23 42.36 43.19 44.14 41.36 47.92 47.83 45.03 48.14 49.54 50.65 51.36 50.07
52.44 52.02 51.88 52.14 52.20 51.95 51.72 52.05 51.98 51.66 50.10 47.46 46.47 44.68 38.31 32.29 34.20 34.13 36.37 37.74 37.24 38.54 37.65 40.65 42.22 39.74 42.32 46.78 46.36 45.82 45.79 45.42 46.15 46.41 46.62 43.38 43.08 45.08 41.30 44.34 38.47 46.48 52.76 53.25 51.90 53.09 52.35
52.46 52.28 52.07 52.11 52.28 51.85 51.70 51.80 51.88 51.98 51.41 48.07 47.93 44.56 38.96 33.07 35.35 35.91 36.65 37.63 39.01 40.19 38.37 39.59 42.27 44.20 46.66 44.38 38.56 38.14 39.70 41.74 43.99 46.74 46.87 47.53 44.48 42.29 39.95 41.42 43.85 49.18 51.41 50.99 49.27 49.99 53.07
52.50 52.48 52.69 52.17 51.98 51.65 51.57 51.70 51.85 52.13 51.82 49.83 48.94 48.74 42.73 33.87 33.45 38.92 36.68 37.22 34.86 36.41 37.69 39.65 43.48 46.44 45.46 41.59 37.92 34.50 33.42 37.37 39.12 43.91 48.52 47.90 47.77 45.34 40.38 38.50 38.39 46.61 53.88 58.68 55.88 47.28 59.18
51.82 52.05 51.80 51.75 51.75 51.54 51.62 51.82 51.73 51.76 51.82 50.42 48.70 50.10 43.09 35.15 37.68 38.87 36.37 36.75 40.26 38.95 36.34 38.50 40.47 39.39 43.42 38.28 34.16 32.42 33.34 40.95 36.43 38.38 41.96 43.23 46.25 44.41 43.02 40.54 43.41 51.81 56.68 57.19 46.57 49.18 58.94
52.20 52.42 52.32 51.63 51.42 51.52 51.57 51.64 51.56 51.47 51.30 50.64 48.29 50.76 45.02 38.45 39.46 41.17 41.71 38.95 39.53 38.94 35.46 39.76 37.98 38.87 38.22 35.93 34.84 35.55 35.01 39.07 39.45 42.09 41.59 41.75 43.25 42.08 44.18 41.53 40.49 57.99 57.31 51.65 55.06 58.64 58.91
52.05 52.09 52.11 52.11 52.15 51.51 51.24 51.00 50.83 50.74 50.65 50.51 44.17 51.44 50.59 43.46 40.78 45.22 45.17 45.93 44.46 43.61 40.92 40.72 39.73 38.95 39.98 40.16 40.28 40.75 37.70 40.78 41.27 38.31 47.32 41.38 46.03 45.42 46.38 47.92 56.44 56.16 53.44 54.40 58.14 58.64 60.88

GFSGBSN_sfc_wetblb_018.txt.gz
Wetbulb
57.11 56.50 56.28 56.19 56.72 56.56 56.08 55.69 55.97 56.12 55.66 55.38 55.30 55.22 55.48 55.32 55.37 55.70 55.90 56.11 56.11 55.64 55.80 56.02 56.67 57.76 53.88 49.77 51.62 57.24 72.40 72.98 69.42 65.37 60.61 57.26 53.17 50.59 48.76 51.16 54.03 54.87 57.80 61.73 63.36 62.47 60.53
57.43 56.91 56.64 56.28 56.37 56.37 55.87 55.76 55.71 56.01 55.94 55.66 55.93 55.96 55.82 55.80 55.91 56.04 56.26 56.11 55.81 55.48 55.40 55.85 56.49 57.49 51.37 42.11 52.49 55.74 58.72 64.93 63.07 60.31 58.18 56.07 54.17 53.93 51.64 52.56 52.29 55.85 56.18 56.70 61.15 61.92 61.72
56.94 56.49 56.24 56.32 56.61 56.65 56.42 55.80 55.24 55.26 55.21 55.14 55.55 55.61 55.39 55.55 55.66 55.79 55.66 55.08 55.20 55.10 55.28 56.16 56.72 56.68 52.58 46.78 54.50 55.82 59.18 60.08 60.64 60.55 56.59 56.95 56.82 53.75 53.15 52.28 55.70 55.73 52.46 54.41 55.68 60.71 60.51
57.23 57.01 56.52 56.50 56.53 56.32 56.34 55.99 55.59 55.71 55.49 55.30 55.28 55.24 55.32 55.30 55.24 55.16 54.60 54.08 54.43 55.02 56.12 56.93 57.57 55.66 47.62 56.72 56.22 54.14 54.25 53.31 55.81 59.35 58.98 58.01 57.15 54.39 52.56 54.77 53.26 50.18 48.40 45.85 52.20 56.00 60.78
57.44 57.34 57.11 56.88 56.62 56.44 56.34 56.09 55.96 55.75 55.40 55.09 54.99 55.13 55.09 54.95 54.60 54.04 53.31 53.38 54.51 57.03 57.34 58.82 54.65 52.19 48.58 62.62 57.24 57.28 54.57 53.49 54.23 55.52 57.55 60.54 54.97 51.76 51.41 48.36 44.88 45.67 43.61 45.65 48.74 56.84 60.31
57.67 57.56 57.15 56.97 56.59 56.55 56.36 56.32 56.01 55.72 55.48 55.11 54.88 54.80 54.61 54.27 53.71 52.96 52.44 52.96 53.64 56.37 58.53 59.72 59.37 50.05 52.59 53.30 59.31 57.04 55.08 55.47 54.56 55.54 54.94 54.64 51.08 47.74 45.51 43.69 39.67 42.54 43.19 45.38 46.78 52.19 57.20
58.02 57.79 57.04 56.77 56.52 56.45 56.30 56.26 56.10 55.73 55.43 55.08 54.90 54.44 54.28 53.75 52.98 51.95 50.22 45.85 46.49 45.00 52.24 51.33 51.70 52.17 53.83 56.40 60.63 56.81 57.07 54.95 54.52 51.39 47.24 49.49 45.46 45.34 45.57 46.36 47.46 47.21 46.14 45.92 49.62 53.90 54.91
57.35 57.18 56.84 56.88 56.63 56.46 56.36 56.20 56.05 55.83 55.48 55.14 54.67 54.30 53.97 53.35 52.53 51.40 48.37 45.86 47.99 48.45 41.14 49.16 50.47 52.94 56.04 56.09 54.03 57.48 57.70 52.03 50.63 47.16 47.33 45.66 44.54 47.90 50.36 49.35 47.71 47.10 45.80 46.11 49.33 52.11 54.99
56.71 56.59 56.50 56.54 56.32 56.40 56.07 55.89 55.64 55.36 55.01 54.81 54.44 54.03 53.44 52.74 51.55 48.13 44.36 45.08 50.51 49.49 39.52 44.57 48.86 48.67 48.81 51.20 49.80 52.17 54.68 52.70 49.69 46.73 47.11 44.60 46.95 51.41 50.46 49.24 47.24 46.18 44.82 45.92 46.18 50.25 55.92
56.55 56.26 55.98 55.92 55.83 55.87 55.58 55.26 54.89 54.81 54.62 54.44 54.13 53.89 52.95 51.56 45.50 45.91 45.97 50.03 50.88 50.05 35.47 41.44 44.42 47.38 48.87 49.39 46.32 53.89 57.14 53.95 51.08 47.62 48.64 46.47 50.88 49.85 49.11 48.63 48.00 41.66 48.96 49.02 48.50 46.18 43.37
56.18 55.84 55.49 55.37 55.46 55.28 54.81 54.71 54.44 54.58 54.26 54.24 53.97 53.46 52.02 51.10 44.07 44.31 48.29 49.74 50.51 44.13 32.00 49.35 47.50 51.79 48.66 46.74 48.35 50.10 54.99 52.91 50.25 49.19 47.65 45.64 48.28 48.32 48.22 49.04 50.24 46.37 49.54 49.29 49.30 46.52 42.94
55.58 55.39 55.05 54.90 54.92 54.75 54.24 54.09 54.18 54.11 54.11 53.97 53.52 52.58 51.53 46.80 44.28 46.82 49.22 48.45 44.81 36.76 31.57 44.69 49.39 45.97 44.81 45.41 46.80 50.34 52.11 54.16 53.25 50.25 50.08 48.21 51.31 50.30 49.93 51.63 51.47 51.37 46.74 46.66 46.19 45.99 39.87
55.16 54.76 54.66 54.74 54.39 54.05 53.87 53.81 53.91 53.66 53.69 53.22 52.39 50.97 49.98 49.26 41.86 47.07 48.19 44.46 34.33 30.69 45.33 45.78 44.04 45.46 43.48 43.58 45.23 45.69 50.28 49.12 47.28 40.46 42.81 48.23 49.42 50.39 50.39 46.89 49.00 46.90 40.64 36.88 36.69 37.79 39.22
54.03 54.35 54.43 54.18 53.81 53.75 53.77 53.77 53.54 53.26 53.15 51.99 50.49 49.68 48.60 48.34 47.00 47.52 44.79 37.03 28.64 40.08 40.70 45.70 44.04 45.12 43.65 43.91 44.09 45.34 44.29 47.48 49.48 42.82 40.07 41.24 41.05 47.09 50.81 48.86 44.79 43.34 42.71 38.58 32.85 33.85 38.08
54.41 54.35 54.22 54.03 53.87 53.75 53.81 53.64 53.15 52.97 52.52 51.18 49.67 44.33 44.53 44.50 48.22 46.50 38.72 30.53 32.45 38.22 42.97 42.00 42.48 39.90 40.86 44.33 43.03 43.68 43.37 44.18 47.43 48.28 41.40 38.21 40.96 48.35 50.31 50.64 49.95 45.27 39.91 44.77 37.86 37.99 37.16
53.99 53.80 53.78 53.83 53.64 53.70 53.62 53.44 53.01 52.88 52.12 50.62 45.22 41.11 42.38 48.46 48.47 43.63 35.03 33.00 35.74 43.19 43.90 43.51 36.80 39.87 37.19 39.95 40.57 41.13 39.97 45.82 46.50 48.99 48.98 43.54 38.11 45.71 49.35 50.06 50.34 46.19 46.26 40.21 35.71 34.18 34.81
52.84 52.93 53.15 53.48 53.25 53.32 53.42 53.31 52.90 52.52 51.70 50.43 42.16 36.56 43.27 47.26 44.71 39.04 32.74 33.08 39.67 44.30 45.22 41.56 39.51 38.68 40.23 39.85 41.08 40.28 41.16 45.46 48.08 47.88 48.73 46.60 41.82 43.22 46.17 45.02 46.03 45.53 43.35 40.25 40.88 37.84 37.29
52.74 53.13 53.23 53.09 52.94 53.01 53.29 53.07 52.43 51.84 50.33 46.02 38.36 31.71 43.67 47.29 32.99 33.12 34.21 37.51 42.34 42.05 44.94 43.26 43.49 42.47 40.67 41.30 40.01 40.99 41.24 43.96 49.65 48.48 43.54 46.40 43.31 40.93 43.83 47.80 50.29 49.60 45.69 41.83 40.15 36.09 38.15
52.90 53.05 53.07 53.03 53.03 53.09 53.11 52.71 52.06 51.23 50.43 42.23 35.52 35.06 43.28 40.99 28.22 30.23 35.13 38.80 40.52 40.18 40.03 40.14 39.24 40.94 41.82 38.65 36.66 41.25 42.96 48.49 47.43 46.48 43.64 46.29 41.79 39.66 38.80 41.91 43.77 44.70 46.79 46.47 38.90 38.20 40.01
52.70 52.45 52.62 52.76 53.03 53.13 53.01 52.44 51.54 51.21 50.69 42.83 36.12 31.46 34.07 36.50 37.19 33.16 32.45 35.27 35.35 41.80 40.67 41.17 39.52 41.36 39.42 37.07 38.44 38.16 40.33 45.75 46.06 45.76 51.46 45.75 42.13 40.37 40.72 43.26 44.04 42.14 46.28 46.16 45.01 41.40 41.37
52.18 52.26 52.33 52.25 52.29 52.72 52.93 52.38 51.74 51.12 50.60 44.83 36.35 31.94 34.11 29.18 31.89 33.96 35.14 35.31 34.27 33.73 38.86 39.58 36.90 38.43 37.78 33.82 36.63 36.87 41.19 41.30 44.34 47.41 44.08 40.22 33.65 40.10 43.44 46.72 47.26 46.14 46.32 46.97 44.45 45.80 42.52
52.30 52.32 52.32 52.28 52.58 52.87 52.88 52.36 51.78 51.26 50.30 43.57 37.60 36.11 36.96 34.34 33.38 31.78 34.08 33.75 33.38 34.84 36.66 35.28 35.83 38.21 37.61 34.09 36.79 35.98 38.89 36.35 37.19 41.13 39.37 39.08 34.39 39.03 41.35 46.80 47.59 46.23 47.88 48.31 47.71 47.38 46.12
52.13 52.34 52.34 52.51 52.41 52.72 52.66 52.44 51.94 51.03 48.31 41.68 44.35 44.01 39.48 36.17 31.93 28.43 29.52 32.56 33.22 36.62 38.44 40.08 38.85 37.39 36.06 37.38 40.78 41.50 41.91 40.67 39.54 37.71 37.05 36.07 34.70 35.42 34.53 44.17 46.00 42.75 47.10 47.34 47.23 48.24 47.34
52.57 52.11 51.99 52.27 52.50 52.53 52.18 52.32 52.09 51.54 48.79 42.98 42.10 43.50 37.15 31.54 33.00 32.52 34.10 34.65 35.12 35.57 35.89 38.44 38.46 36.79 39.80 44.50 43.60 40.99 41.77 40.73 40.65 40.36 41.61 37.34 36.95 35.47 35.17 38.71 37.66 45.05 51.19 50.61 47.53 48.91 49.59
52.19 51.99 51.97 51.99 52.06 52.08 52.04 51.91 52.02 51.84 51.50 46.34 46.40 43.20 37.00 32.53 34.21 34.72 34.36 34.77 35.75 36.09 35.04 37.10 39.47 39.57 41.99 40.33 34.95 32.22 34.59 37.83 39.95 41.60 42.54 43.94 41.14 34.91 33.91 35.13 41.18 46.78 48.81 48.42 46.19 46.41 51.20
51.94 52.57 52.40 52.18 51.93 51.99 51.94 51.93 51.77 52.19 51.49 46.21 44.76 46.15 42.69 34.13 33.06 36.81 33.97 34.80 31.31 31.89 34.49 37.58 40.23 42.00 40.48 36.89 35.04 29.18 28.60 34.50 37.34 41.73 45.28 44.84 44.50 40.18 38.11 35.17 36.05 43.57 50.64 55.64 52.83 45.06 56.86
51.86 51.99 52.49 52.13 51.93 51.93 52.15 52.08 52.08 51.80 51.49 46.01 44.14 46.78 42.59 35.74 37.86 35.76 33.51 32.65 34.95 33.21 32.20 34.83 38.15 36.52 39.37 36.31 33.04 28.78 28.66 38.26 34.10 36.70 39.09 39.94 40.37 37.98 39.11 38.70 40.15 48.17 53.93 54.78 45.54 45.70 56.80
52.26 52.45 52.30 51.84 51.52 51.55 51.65 51.62 51.53 51.38 51.07 45.86 42.94 46.50 43.80 39.04 38.65 40.63 39.79 36.49 37.15 35.74 32.56 34.75 36.49 35.85 35.40 33.42 35.20 32.42 31.00 36.46 36.83 41.30 41.03 39.89 40.25 41.27 42.96 38.49 37.70 54.40 54.02 47.53 49.81 56.12 56.73
52.12 52.26 51.93 51.97 51.74 51.55 51.38 51.18 51.29 50.97 50.79 49.63 40.31 44.34 47.59 42.23 38.82 43.15 43.28 43.55 42.08 41.10 36.57 36.04 37.39 38.78 39.10 35.00 37.22 38.48 34.49 38.14 36.27 36.05 45.95 40.82 45.21 42.49 45.59 43.98 51.43 54.42 51.75 56.81 59.77 59.87 60.66

GFSGBSN_sfc_wetblb_021.txt.gz
Wetbulb
56.62 56.60 56.51 56.44 56.38 56.17 55.75 55.67 55.58 55.70 55.30 55.28 55.11 55.14 55.15 55.26 55.23 55.26 55.45 55.46 55.56 55.34 55.45 56.06 56.10 56.65 52.88 47.87 47.96 53.20 72.98 72.11 70.10 63.01 58.81 55.83 52.41 51.01 47.17 48.63 52.62 56.41 57.18 57.95 61.57 61.48 64.84
56.73 56.69 56.62 56.41 56.19 55.97 55.77 55.67 55.53 55.48 55.56 55.58 55.59 55.80 55.94 55.94 56.06 55.70 55.88 55.71 55.59 54.97 55.26 55.88 56.23 56.30 48.98 39.33 50.71 55.10 54.96 64.34 64.11 61.60 58.26 55.84 53.47 52.23 49.91 49.74 49.95 53.54 54.58 55.27 57.36 58.98 62.60
57.11 56.79 56.65 56.67 56.33 56.15 56.20 56.01 55.88 55.66 55.43 55.59 55.77 55.85 55.71 55.71 56.02 56.06 55.58 54.91 55.08 54.91 55.34 56.25 56.60 55.02 51.29 44.73 52.04 54.33 56.07 58.23 60.63 60.64 55.19 56.26 55.34 52.17 50.76 49.04 52.90 53.61 51.11 52.45 53.40 54.92 59.99
57.77 57.15 56.91 56.84 56.75 56.62 56.39 56.12 56.24 56.15 56.06 55.82 55.81 55.73 55.60 55.62 55.58 55.33 54.48 53.94 54.12 55.22 57.04 57.25 57.51 53.95 44.06 54.51 54.69 52.46 52.14 50.51 58.96 58.61 56.75 56.60 56.12 52.10 50.76 52.94 51.74 48.22 47.09 45.02 51.10 52.98 59.27
58.16 57.91 57.48 57.19 56.99 56.78 56.53 56.51 56.43 56.42 55.93 55.67 55.51 55.47 55.39 55.19 54.92 54.26 53.21 53.29 54.49 57.27 57.68 58.21 53.95 49.99 45.11 60.05 56.22 55.30 52.85 51.60 51.98 53.11 56.28 60.31 53.78 50.16 50.00 47.55 43.49 43.82 42.36 44.73 47.68 52.12 57.59
56.85 56.91 56.69 56.41 56.59 56.79 56.48 56.40 56.16 56.18 55.71 55.41 55.32 55.10 54.85 54.69 54.11 53.11 52.38 53.19 53.31 56.02 58.85 58.43 58.28 47.91 51.05 50.70 58.37 56.67 53.49 53.80 51.77 51.39 53.11 52.71 49.76 45.52 43.39 42.61 39.32 41.60 41.97 43.54 45.04 51.92 56.38
56.34 56.25 55.91 55.78 55.92 56.30 56.26 56.07 55.71 55.55 55.35 55.30 55.03 54.67 54.28 54.07 53.27 51.94 50.35 46.43 44.68 43.51 48.98 48.94 49.89 50.02 51.31 54.57 58.40 56.10 53.69 51.97 51.92 50.69 46.36 48.66 45.39 41.51 44.77 45.17 46.60 45.88 44.33 44.43 47.47 52.26 53.91
56.15 55.91 55.47 55.15 55.52 55.67 55.59 55.49 55.28 55.16 55.11 54.91 54.67 54.34 54.01 53.38 52.24 51.78 46.78 42.77 45.28 44.07 38.83 47.07 47.02 48.47 52.80 53.53 50.23 52.39 54.67 48.83 48.64 44.81 46.57 44.16 43.36 47.09 49.25 47.68 46.62 45.56 44.07 44.38 46.60 50.41 50.44
55.47 55.55 55.17 55.25 55.31 55.28 54.98 54.79 54.58 54.52 54.62 54.44 54.30 53.91 53.48 52.64 51.62 46.90 43.94 43.88 48.46 44.83 36.86 42.96 46.49 46.30 47.19 50.37 48.65 49.87 52.30 50.26 47.70 45.51 45.01 43.98 44.64 49.44 48.79 47.11 45.39 42.93 42.81 44.87 44.40 48.34 50.85
55.57 55.77 55.23 54.92 54.92 54.73 54.59 54.38 54.30 54.19 54.09 54.01 54.01 53.62 52.74 51.48 44.37 44.85 44.53 47.41 47.58 46.92 34.01 40.84 42.76 45.73 47.32 49.46 46.47 53.11 55.44 51.81 48.38 46.59 46.52 44.12 48.29 48.23 47.00 46.25 46.43 40.15 46.34 47.29 46.19 43.98 40.02
55.53 55.12 54.58 54.55 54.47 54.30 54.13 54.09 53.97 53.78 53.68 53.54 53.40 52.78 51.37 50.87 42.96 42.71 45.88 47.57 48.67 41.45 30.87 48.37 44.83 49.69 46.59 45.57 46.23 48.19 54.92 51.69 47.96 46.74 45.88 43.90 46.21 46.49 45.64 47.26 47.52 45.64 48.41 46.96 46.69 43.28 40.15
54.28 54.20 54.24 54.37 54.29 54.26 53.91 53.87 53.66 53.62 53.40 53.31 52.70 51.85 51.11 46.34 43.08 45.27 46.99 46.44 42.12 35.36 30.09 43.77 46.70 43.77 42.65 43.76 45.27 48.39 49.69 51.86 52.30 48.13 47.03 47.24 49.90 49.17 47.88 49.53 49.56 50.07 46.22 43.86 43.07 40.95 36.06
53.98 53.71 53.76 54.16 53.93 53.99 53.81 53.64 53.72 53.42 53.13 52.62 51.45 50.19 49.41 48.59 40.88 44.75 46.29 41.98 32.94 29.05 43.47 42.68 41.04 42.94 41.88 41.76 43.73 45.25 46.38 46.13 45.07 41.88 42.59 45.51 47.87 47.64 49.69 45.94 47.60 46.16 39.92 35.16 33.12 34.30 36.81
53.42 53.90 54.02 53.79 53.66 53.41 53.50 53.64 53.44 53.15 52.93 51.93 50.05 49.25 47.45 47.40 44.96 45.64 41.72 35.57 26.92 38.43 37.59 43.09 42.65 42.49 40.67 42.37 42.12 43.43 45.76 44.88 48.46 43.20 41.57 41.55 39.15 47.30 48.18 46.52 44.40 42.46 42.05 33.37 29.37 30.92 35.90
53.27 53.37 53.50 53.40 53.37 53.27 53.23 53.19 52.96 52.72 52.34 51.47 49.44 44.36 41.59 43.85 47.39 44.22 36.70 28.46 30.83 35.51 41.66 40.66 41.51 38.11 38.39 41.65 41.54 41.83 39.39 45.92 48.25 45.17 41.04 38.57 40.69 47.30 50.78 49.24 48.44 42.25 40.80 44.18 35.57 34.48 34.17
52.74 52.87 53.22 53.34 53.31 53.15 53.15 53.13 52.80 52.70 52.11 50.94 44.16 39.86 39.63 46.22 45.63 40.90 33.97 30.79 33.47 41.40 42.06 41.54 35.36 38.42 34.70 38.00 38.58 38.82 38.95 43.24 44.05 48.70 44.43 41.74 36.46 43.38 48.24 49.20 48.32 46.88 45.10 39.10 32.81 32.67 32.73
52.53 52.66 52.78 53.17 53.11 53.19 53.33 53.25 52.73 52.33 51.67 50.21 38.99 34.95 41.23 44.56 41.17 36.54 29.58 30.88 37.48 42.52 43.36 39.19 36.92 36.16 37.22 37.65 39.23 37.44 39.24 43.54 46.41 45.62 46.12 41.18 39.22 41.10 43.97 42.61 44.19 41.96 42.11 37.67 38.40 36.34 35.84
52.58 52.92 53.19 53.13 53.00 53.13 53.23 53.06 52.20 51.54 50.26 44.87 35.71 30.18 41.77 43.14 31.86 29.69 29.29 33.26 40.65 40.32 42.21 40.08 40.47 39.08 37.63 38.60 36.91 37.47 38.92 42.69 46.79 45.98 41.00 42.39 35.23 39.30 41.01 45.65 48.43 46.34 44.99 40.23 37.88 35.22 34.21
52.70 53.07 53.27 53.27 53.23 53.40 53.17 52.55 51.93 50.97 50.22 41.07 33.61 32.17 41.75 39.36 28.40 27.81 32.38 36.54 39.79 38.40 37.87 38.39 37.51 38.94 40.35 36.66 33.92 39.35 40.17 46.14 46.13 43.90 42.27 42.89 35.61 32.88 35.86 39.09 42.09 42.50 43.47 45.54 41.39 38.10 40.61
52.68 52.78 52.62 53.15 53.15 53.07 53.09 52.48 51.76 50.94 50.65 42.29 34.88 30.53 33.19 34.10 33.88 30.75 30.57 32.30 34.21 40.65 39.02 38.83 37.84 39.75 37.80 36.03 37.47 35.94 37.78 44.38 44.17 44.08 49.57 41.89 34.53 34.60 34.27 36.86 40.92 40.92 44.38 45.28 43.80 39.30 41.62
52.24 52.55 52.60 52.66 52.91 53.18 53.26 52.55 52.04 51.02 50.18 42.40 36.61 30.54 31.77 28.14 30.81 31.43 32.56 32.68 33.26 32.33 38.78 39.23 35.32 37.43 36.29 30.42 34.68 34.87 38.70 40.11 41.72 45.71 41.99 37.74 31.42 34.65 38.05 41.19 42.77 43.03 43.04 45.61 42.32 44.43 41.73
52.32 52.37 52.28 52.39 52.81 53.22 52.87 52.80 52.08 51.15 49.74 43.16 36.58 36.13 37.74 34.11 34.67 33.64 31.20 31.46 33.13 33.51 34.35 34.39 35.68 36.22 35.05 32.30 33.71 31.75 35.71 35.10 35.35 39.51 36.89 36.53 33.60 34.91 36.23 42.42 43.77 42.73 44.67 45.52 45.92 45.83 44.43
52.09 52.13 52.16 52.37 52.36 52.81 52.60 52.69 52.13 51.04 47.99 41.60 41.77 43.15 38.99 35.82 34.61 32.06 30.48 30.69 32.14 34.43 37.40 38.59 36.40 35.02 33.54 36.12 38.61 38.49 39.09 38.81 37.73 35.62 34.06 34.32 33.40 32.48 30.40 38.64 39.52 38.64 44.10 45.52 46.37 46.75 46.20
51.82 52.03 52.12 52.41 52.33 52.25 52.27 52.66 52.40 51.52 48.02 41.86 41.10 42.97 37.70 31.33 33.13 33.15 33.64 33.68 33.32 33.76 33.18 36.74 37.72 35.25 37.78 41.24 41.09 38.68 36.44 37.65 38.60 37.98 39.00 33.95 33.45 33.40 30.33 34.14 31.27 42.83 48.28 49.02 47.18 46.81 46.53
51.78 51.97 51.90 51.99 52.12 52.15 52.12 52.14 52.20 51.99 51.22 43.43 44.99 43.44 38.57 31.98 33.68 34.34 34.62 34.03 34.83 34.80 33.16 34.06 36.77 38.75 40.08 38.24 32.57 30.06 30.52 31.93 35.31 38.55 37.57 38.36 35.40 31.94 30.15 30.62 37.93 44.02 47.50 46.79 44.44 44.63 48.25
51.59 51.65 51.82 51.57 51.57 51.95 52.14 52.14 51.90 52.26 51.19 44.33 42.62 43.06 41.48 35.03 33.49 36.86 34.06 34.67 31.49 31.84 32.57 35.77 38.86 39.46 38.22 33.75 31.70 24.97 24.56 31.57 31.05 37.10 39.65 38.42 39.51 37.40 32.02 30.45 31.56 40.35 51.40 54.51 48.13 43.77 53.39
51.71 51.50 51.65 51.71 51.51 51.78 51.90 51.63 51.72 51.88 51.27 44.65 42.32 43.29 42.71 36.75 37.99 36.86 33.18 31.69 35.29 32.19 30.93 32.51 34.13 35.32 36.87 30.66 29.18 26.54 26.66 34.44 29.30 32.48 33.25 34.18 35.51 34.20 34.45 33.17 37.61 48.72 53.17 54.54 41.62 44.76 55.33
52.09 51.80 51.84 51.82 51.46 51.50 51.80 51.81 51.79 51.55 51.45 46.28 42.92 44.31 41.17 38.64 38.24 39.81 38.77 36.53 36.52 35.81 32.14 32.61 33.70 34.75 33.18 30.91 31.31 30.34 29.65 31.96 31.79 35.92 35.56 37.36 36.32 35.44 35.37 34.83 33.00 53.60 53.75 48.52 51.21 56.10 55.48
52.14 52.06 52.22 52.24 51.94 51.74 51.74 51.78 51.64 51.55 51.55 50.05 43.62 45.10 46.25 41.68 39.80 42.31 42.30 42.66 41.13 39.99 37.61 37.48 34.81 33.81 38.51 33.77 34.29 33.86 34.10 34.43 31.77 30.04 39.96 35.40 41.72 39.15 41.76 40.60 52.03 54.03 53.53 57.59 58.42 56.48 57.44

GFSGBSN_sfc_wetblb_024.txt.gz
Wetbulb
57.35 57.16 57.10 57.01 56.88 56.61 56.46 56.05 56.46 56.63 56.13 55.93 55.83 55.75 55.70 55.52 55.74 55.77 55.82 55.77 55.63 55.31 55.55 55.72 56.15 56.46 52.16 46.14 45.81 67.00 72.19 70.69 72.95 64.30 64.39 60.79 62.47 56.43 49.01 52.79 57.35 56.79 58.38 58.31 59.70 60.03 62.94
57.84 57.71 57.25 56.99 56.69 56.33 56.14 56.34 56.27 56.48 56.51 56.30 56.34 56.37 56.22 56.24 56.09 55.99 56.05 56.01 55.66 54.94 55.09 55.70 56.31 56.11 46.98 37.14 48.81 53.78 67.30 67.76 68.60 62.43 56.94 55.59 54.77 53.31 49.41 48.46 50.78 51.66 55.39 55.22 54.11 54.56 58.39
58.10 57.73 57.33 57.00 56.63 56.39 56.24 56.04 56.05 55.98 56.10 55.99 55.98 56.01 56.05 55.99 56.08 55.89 55.75 54.94 54.67 54.49 55.34 56.39 56.83 53.95 49.76 42.01 50.41 51.29 61.02 59.95 62.81 60.58 55.46 55.52 54.28 52.89 50.45 47.98 50.95 50.87 49.28 51.37 52.36 52.93 57.24
56.99 56.73 56.66 56.51 56.45 56.47 56.40 56.05 55.85 55.78 55.83 55.73 55.55 55.63 55.66 55.44 55.61 55.30 54.38 53.77 54.39 55.44 57.31 58.11 57.60 52.43 41.98 51.45 53.51 51.75 50.47 52.32 60.37 58.83 54.97 56.80 54.73 50.43 48.65 50.75 50.20 46.62 45.73 43.35 49.60 52.42 56.50
56.83 56.70 56.45 56.23 56.02 56.02 56.05 55.81 55.35 55.54 55.39 55.43 55.43 55.43 55.35 55.23 54.73 54.07 52.78 53.44 55.12 58.82 58.35 58.26 52.04 48.02 43.06 58.06 54.19 53.00 50.70 49.07 52.61 55.57 56.16 58.69 53.53 49.26 48.27 45.57 42.50 42.37 41.05 43.54 46.74 51.86 54.95
56.39 56.30 55.90 55.04 54.93 55.55 55.48 55.34 55.16 54.95 54.92 54.96 54.84 54.72 54.64 54.49 53.75 52.78 52.10 53.40 53.90 57.70 57.01 56.91 56.45 45.97 50.04 49.85 55.65 56.26 51.18 51.84 50.22 51.46 51.70 52.23 48.10 44.52 42.19 41.65 37.72 40.12 40.60 41.88 44.16 50.07 54.44
55.44 55.45 55.17 54.59 54.35 54.61 54.61 54.73 54.40 54.54 54.58 54.59 54.43 54.14 53.90 53.32 52.76 51.66 49.90 44.32 42.52 41.81 42.95 48.82 48.44 48.51 51.25 52.88 55.21 53.19 52.40 50.56 51.07 48.10 44.41 47.02 43.46 41.68 42.49 43.32 45.10 45.06 43.31 43.52 46.10 50.66 52.75
55.20 55.33 54.57 54.20 54.13 53.86 53.77 53.83 53.76 53.88 53.84 54.29 54.08 53.63 53.40 52.66 51.79 51.61 45.08 42.99 42.67 41.96 37.21 45.25 44.81 46.73 52.48 50.76 48.53 50.88 52.67 47.40 46.63 43.52 46.04 42.43 43.15 46.36 47.79 46.08 45.88 44.74 43.26 42.83 45.38 48.93 47.02
54.67 54.34 54.08 54.10 54.28 54.11 54.15 54.10 54.26 54.08 54.02 53.94 53.69 53.34 52.78 51.92 51.38 45.21 42.49 42.69 46.17 42.62 35.04 41.48 44.82 45.19 46.05 48.02 46.55 47.80 50.19 47.89 45.12 43.74 45.46 44.35 44.02 49.25 48.37 45.31 43.90 41.66 42.53 42.68 43.66 46.68 47.57
54.22 54.50 54.62 54.38 54.25 54.06 54.27 54.16 54.08 53.92 53.79 53.69 53.69 53.15 52.06 50.92 43.17 43.20 41.31 44.60 45.05 45.00 32.28 39.57 41.24 44.81 47.49 47.15 43.71 51.83 52.50 49.78 46.31 45.04 43.74 42.95 47.15 47.70 45.23 45.36 45.24 38.03 45.09 46.20 45.19 42.11 38.97
54.29 54.34 54.15 54.03 54.01 53.92 53.83 53.83 53.67 53.65 53.42 53.40 53.34 52.81 51.24 50.61 42.08 40.63 42.88 45.70 46.11 39.02 29.66 46.82 42.12 47.97 45.96 44.42 44.75 47.06 53.00 49.89 45.54 44.80 44.95 42.90 44.50 45.06 44.24 45.39 46.28 44.90 46.78 45.48 44.85 41.69 38.75
53.92 53.49 53.08 53.28 53.10 53.53 53.48 53.32 53.34 53.32 53.24 53.01 52.75 52.01 51.06 45.38 42.03 43.74 44.97 44.78 39.76 34.98 29.07 42.42 44.13 42.02 41.47 42.54 43.90 46.76 48.97 50.59 50.05 46.16 44.97 45.76 47.88 48.09 46.42 47.81 47.81 48.13 44.85 41.93 40.46 38.80 34.83
53.21 53.04 52.99 53.08 53.34 53.57 53.28 53.11 53.18 53.07 52.77 52.22 51.51 50.40 49.06 47.68 40.24 43.98 44.45 39.43 31.51 28.36 41.62 40.42 39.39 41.74 40.65 40.45 42.02 43.28 44.32 45.20 44.25 39.39 39.37 43.51 46.36 46.09 47.74 44.30 45.32 44.68 40.02 33.09 32.05 32.82 36.18
52.89 53.13 53.51 53.59 53.26 53.20 53.22 53.30 53.12 52.95 52.54 51.60 49.87 49.09 45.74 46.18 45.08 43.62 40.06 34.32 25.09 36.34 35.17 41.48 41.36 40.99 38.38 40.89 40.97 42.33 41.54 43.09 45.26 43.17 40.21 39.18 37.10 45.66 46.92 45.15 42.56 41.19 39.03 32.84 28.99 29.42 35.42
53.22 53.43 53.35 53.26 53.24 53.32 53.15 53.13 52.83 52.56 52.01 50.83 49.26 42.02 40.93 42.79 45.46 42.36 36.00 26.30 28.36 32.66 39.71 38.24 39.58 36.59 36.87 40.18 39.67 39.89 38.37 41.34 46.01 41.82 40.34 38.13 39.88 46.95 47.94 47.09 48.06 40.65 40.35 41.61 34.05 32.60 32.39
53.05 53.23 53.26 53.34 53.30 53.34 53.17 53.13 52.89 52.50 51.72 50.51 43.21 39.98 38.26 44.76 43.10 39.68 33.18 28.88 31.42 39.45 40.29 39.16 33.11 36.94 33.39 36.29 36.99 36.86 37.36 42.19 42.44 45.69 42.89 40.11 36.84 43.36 48.47 48.44 47.14 43.40 43.64 37.91 32.40 30.46 28.78
52.92 52.81 53.22 53.55 53.46 53.36 53.53 53.38 52.78 52.42 51.28 49.73 37.63 33.77 39.69 44.05 40.51 35.11 25.75 28.61 34.46 40.45 41.39 36.69 34.57 34.00 35.36 35.03 36.42 35.15 37.52 41.96 44.43 44.13 44.33 39.20 36.99 38.03 43.41 43.36 44.96 40.58 39.46 36.33 38.72 34.32 31.84
52.80 53.20 53.42 53.53 53.49 53.44 53.61 53.32 52.60 51.55 50.11 43.59 33.86 28.93 40.11 40.95 30.21 28.49 26.06 31.47 37.77 38.02 40.07 38.28 38.52 37.19 35.97 37.41 35.35 35.80 37.61 40.72 45.19 44.75 40.20 40.89 33.66 36.60 39.02 42.62 47.05 48.55 44.06 38.62 37.92 34.56 32.77
52.75 53.30 53.57 53.57 53.57 53.57 53.42 53.11 52.16 51.09 50.32 40.30 32.45 33.74 40.18 38.30 25.28 25.88 31.90 34.08 37.04 36.66 36.61 35.93 35.62 38.01 38.60 35.29 32.20 37.99 38.76 44.31 44.20 42.05 41.09 41.21 33.74 30.77 33.75 39.35 41.68 39.86 44.78 41.17 43.57 36.84 37.90
52.44 52.89 52.77 53.20 53.37 53.39 53.61 52.85 51.89 50.97 50.56 41.03 33.26 29.79 32.25 34.46 31.47 28.57 30.68 29.13 32.18 39.52 38.38 38.29 36.50 38.71 36.43 34.43 36.34 34.66 37.43 42.89 43.55 44.23 47.99 41.47 33.00 32.13 30.57 33.96 38.27 37.54 40.95 42.09 42.72 40.10 41.07
52.38 52.48 52.32 52.69 53.02 53.21 53.53 52.86 52.03 51.04 50.36 40.73 33.76 28.72 32.77 27.31 29.05 33.15 33.10 30.19 31.78 31.06 36.71 38.46 36.78 36.18 32.20 29.20 32.56 32.58 36.04 37.87 41.07 43.78 40.09 36.82 32.13 33.51 35.92 39.26 40.50 40.26 40.67 41.73 39.97 42.84 40.19
52.16 52.10 52.15 52.17 52.67 52.71 53.18 53.11 52.15 51.24 48.98 40.28 35.10 36.24 37.36 34.64 34.74 33.39 32.78 27.37 30.08 32.53 32.74 32.33 35.15 35.69 35.05 29.66 32.02 30.27 32.89 33.20 34.30 37.71 34.76 34.93 31.85 33.21 34.11 40.09 40.31 38.49 41.63 43.01 43.36 42.56 42.48
52.04 52.02 52.12 52.04 52.01 52.40 52.82 53.09 52.29 51.15 47.07 41.22 42.43 41.65 38.18 36.05 32.41 29.33 29.00 30.71 31.31 32.94 34.57 37.08 35.93 33.66 32.37 34.56 37.36 36.90 36.34 36.07 36.28 34.84 33.06 32.30 32.50 31.74 29.38 36.63 37.73 36.01 41.43 42.91 43.03 44.00 44.05
51.91 51.89 52.00 52.17 51.96 51.98 52.42 53.02 52.49 51.61 47.86 44.11 41.90 42.48 36.91 32.18 34.15 31.70 34.13 33.56 32.56 33.29 32.74 34.79 35.99 33.26 37.20 39.88 39.50 36.91 35.12 35.35 36.93 36.58 36.39 31.65 30.91 32.17 29.62 32.59 28.23 38.46 44.54 45.97 45.06 45.97 45.96
52.05 51.99 51.93 51.95 51.89 51.86 51.98 51.97 52.59 52.07 50.81 43.11 42.02 41.86 38.51 31.35 33.76 33.55 33.96 34.17 33.67 33.25 32.13 33.48 35.30 36.93 37.90 36.06 31.49 27.73 26.69 29.05 32.85 36.19 35.90 36.76 32.55 30.07 28.28 29.11 36.12 39.66 46.84 48.86 46.56 44.55 47.67
51.80 51.93 51.89 51.99 51.91 52.00 51.90 52.14 52.12 52.14 51.27 44.97 42.70 43.14 41.22 35.42 32.69 36.63 33.60 34.74 31.39 30.89 31.76 33.81 37.06 37.24 35.94 31.60 29.36 23.39 22.02 26.90 29.18 33.53 36.05 35.19 36.04 31.28 29.45 28.67 28.69 38.91 50.63 54.14 52.82 41.58 48.86
51.68 52.03 51.97 52.01 51.89 52.02 52.19 52.43 52.31 52.05 51.39 44.95 42.88 44.02 42.23 36.43 37.45 37.75 34.22 32.80 32.71 34.74 31.95 34.10 34.52 33.86 34.82 31.58 28.73 26.04 24.53 32.31 26.59 28.88 28.10 31.07 32.49 28.91 30.16 30.81 35.02 42.93 52.45 55.21 40.80 43.83 55.48
52.23 52.23 52.41 52.47 52.06 51.97 52.23 52.11 52.36 52.19 52.01 47.19 44.64 45.48 43.21 38.48 38.04 39.29 40.15 36.51 35.92 35.24 30.96 35.11 33.07 34.50 35.88 31.77 29.93 30.46 26.60 29.65 28.27 30.90 31.06 29.21 29.68 29.39 30.62 30.29 29.75 51.56 52.93 50.60 51.94 56.19 56.68
51.98 52.09 52.06 52.29 52.41 52.47 52.16 52.27 52.35 52.62 52.18 50.70 43.55 43.73 46.43 41.36 39.59 42.06 41.86 42.25 40.99 39.54 37.05 37.53 35.61 34.79 33.77 32.80 32.05 32.15 29.55 32.44 31.50 27.36 36.07 30.43 35.95 34.05 34.04 34.77 43.98 52.99 53.23 55.56 57.22 55.14 56.48

GFSGBSN_sfc_wetblb_027.txt.gz
Wetbulb
57.92 57.83 57.64 57.35 57.41 57.02 56.73 56.55 56.73 56.56 55.96 55.87 55.82 55.78 55.70 55.76 55.77 55.80 56.20 56.44 56.48 55.90 55.85 56.22 56.32 56.25 54.34 50.06 47.59 66.71 72.01 71.52 74.25 71.22 67.90 66.95 65.86 64.39 60.72 62.78 62.53 62.67 61.96 62.42 63.86 62.88 61.72
57.06 57.01 56.93 56.59 56.33 56.09 55.93 56.16 55.99 55.92 55.85 55.55 55.68 55.99 56.02 56.02 56.11 56.15 56.21 55.73 55.42 55.09 55.45 56.13 56.03 55.64 50.41 41.72 51.36 63.61 65.74 70.78 71.31 69.48 66.99 67.03 66.22 65.06 58.44 56.01 59.33 58.53 58.37 57.48 57.89 57.71 59.42
56.87 56.87 56.53 55.90 55.57 55.53 55.50 55.32 55.23 54.99 54.98 54.86 55.30 55.56 55.71 55.71 55.54 55.55 55.46 54.77 54.40 54.78 55.55 56.23 56.38 54.33 50.36 46.68 52.88 61.14 67.49 68.81 70.21 67.30 65.05 65.44 64.25 63.25 58.17 52.67 55.75 54.09 51.14 53.34 54.61 56.60 56.69
56.54 56.35 55.54 55.17 55.05 54.96 54.86 54.60 54.44 54.43 54.47 54.58 54.51 54.92 55.18 55.16 55.24 54.92 54.09 53.63 54.74 58.49 57.63 56.54 57.46 53.92 46.66 53.08 55.08 52.82 64.14 60.78 69.63 66.45 63.84 63.32 60.44 63.04 54.39 54.81 53.45 51.77 52.25 49.66 54.09 55.41 56.75
55.72 55.78 55.05 54.69 54.58 54.51 54.47 54.13 53.99 54.37 54.66 54.76 54.66 54.66 54.82 54.66 54.27 53.44 52.61 53.28 56.02 59.28 59.47 58.17 53.71 52.12 46.08 58.51 52.54 53.36 55.74 57.63 64.14 64.28 60.54 61.53 59.12 55.19 53.50 50.27 47.95 49.85 47.80 49.02 51.31 55.99 58.70
55.72 55.52 54.48 54.60 54.21 54.25 54.65 54.51 54.43 54.62 54.60 54.64 54.59 54.39 54.16 53.90 53.26 52.26 52.18 52.37 55.96 58.15 57.20 57.67 55.05 48.90 50.70 50.76 55.79 54.08 54.45 58.82 57.81 58.57 56.47 55.37 54.56 51.75 51.03 48.73 43.38 45.54 46.50 48.72 49.76 53.81 55.31
54.85 54.47 54.45 54.29 54.21 54.19 54.37 54.20 54.07 54.34 54.52 54.61 54.55 54.24 53.77 53.21 52.37 51.44 50.75 50.97 48.18 47.59 47.10 52.26 52.56 50.05 53.20 55.00 59.47 55.07 52.87 53.75 54.92 54.10 49.13 52.89 48.95 46.81 48.62 49.79 49.69 48.40 48.18 48.85 51.12 53.80 55.27
54.41 54.24 54.15 53.85 53.74 53.57 53.34 53.50 53.73 54.00 54.28 54.24 53.96 53.87 53.58 52.89 51.76 51.42 49.62 46.35 44.14 44.80 40.13 47.77 46.24 48.78 53.66 54.00 50.39 53.65 53.29 49.55 49.64 47.35 50.67 49.12 46.64 50.45 51.25 50.51 49.25 48.01 47.17 48.36 50.88 52.77 53.29
54.07 53.89 53.59 53.34 53.30 53.01 53.18 53.26 53.77 53.87 53.73 53.77 53.69 53.34 52.84 52.21 51.45 48.37 46.32 45.52 48.89 48.13 40.64 45.11 47.09 47.21 49.09 50.73 49.07 51.53 51.81 50.54 48.54 47.57 47.92 47.65 49.05 51.73 50.19 49.20 48.06 47.93 46.54 47.64 48.69 51.06 52.22
53.51 53.94 54.05 53.38 53.45 53.65 53.69 53.81 53.71 53.54 53.40 53.34 53.28 52.99 51.96 51.09 47.47 46.15 45.38 47.75 48.80 47.72 39.49 44.49 44.49 47.47 48.61 50.43 47.62 53.80 54.64 52.66 49.34 46.99 48.34 48.51 51.90 49.99 49.09 48.40 49.48 45.78 49.62 49.07 48.69 48.46 46.23
53.46 53.88 53.85 53.68 53.66 53.51 53.61 53.56 53.60 53.46 53.32 53.23 53.05 52.12 51.01 50.24 46.16 44.90 47.24 48.78 49.43 45.70 34.42 47.27 44.81 51.20 50.25 48.82 48.75 49.45 54.67 53.17 48.85 48.25 49.09 47.16 48.73 48.52 47.88 48.58 50.91 48.01 51.11 49.59 49.75 48.82 48.28
53.36 53.35 53.14 53.25 53.31 53.44 53.52 53.21 53.42 53.22 53.11 52.78 52.25 51.17 50.87 47.63 47.09 48.02 48.72 48.11 46.33 39.07 33.52 44.68 45.86 44.89 45.64 47.54 47.31 49.84 50.71 54.91 53.87 49.51 49.94 49.58 51.93 51.71 50.76 51.98 51.88 52.79 50.33 49.60 48.86 48.55 42.98
52.84 53.00 52.90 52.91 53.15 53.54 53.26 53.24 53.32 53.17 52.85 52.27 50.99 49.90 49.27 48.83 44.45 49.04 47.66 45.41 38.13 34.31 44.72 42.07 42.95 45.49 44.73 44.58 45.14 47.15 47.43 48.27 47.89 44.39 44.87 48.31 48.58 51.13 52.37 49.19 51.38 50.95 48.08 42.65 40.92 41.04 41.32
52.43 52.81 53.55 53.73 53.61 53.60 53.40 53.44 53.28 53.03 52.50 51.43 49.46 48.72 47.15 48.05 49.44 47.68 46.80 40.27 32.07 38.15 38.68 43.24 43.30 43.95 42.57 44.45 44.93 45.48 46.30 45.98 50.95 49.10 46.32 43.77 41.80 48.94 51.26 49.95 47.97 48.62 48.18 42.63 37.46 39.33 42.06
52.02 53.54 53.69 53.67 53.71 53.60 53.63 53.56 53.20 52.64 52.09 50.76 48.89 46.73 46.31 48.00 48.09 47.17 43.32 32.35 33.69 36.34 38.79 38.28 41.52 40.62 41.34 43.38 43.45 44.03 44.42 46.17 49.68 49.80 45.99 44.37 44.40 50.29 51.14 51.74 51.30 47.78 46.01 49.86 44.06 43.38 42.63
52.67 53.23 53.68 53.89 53.89 53.77 53.81 53.54 53.17 52.77 52.06 50.26 45.61 42.47 43.72 47.39 46.97 46.66 39.66 32.40 35.73 40.14 40.66 40.87 35.66 39.33 37.51 40.53 41.75 42.62 43.48 44.56 45.82 47.82 49.11 48.62 44.61 50.02 50.56 52.12 51.69 49.52 51.19 43.77 45.33 38.90 38.21
52.62 53.10 53.83 53.89 53.67 53.58 53.69 53.69 53.18 52.38 51.25 48.53 43.51 39.32 45.33 47.22 46.30 41.50 32.94 32.94 35.50 40.89 41.83 38.82 37.65 37.01 38.77 38.41 40.59 40.25 41.43 43.74 44.66 46.10 48.96 47.35 45.92 45.30 50.30 48.32 47.73 46.88 46.63 48.00 47.79 45.64 41.15
52.79 53.51 53.67 53.75 53.59 53.65 53.79 53.52 52.87 51.48 49.93 46.37 41.04 35.44 45.81 45.69 36.72 36.47 33.05 34.90 37.99 38.87 42.07 39.67 40.58 39.66 38.72 39.77 39.32 40.31 40.42 42.65 45.56 47.13 44.33 46.05 45.19 44.68 46.31 51.55 52.61 50.92 49.11 48.70 44.15 43.20 44.91
52.67 53.22 53.32 53.43 53.57 53.80 53.67 53.26 52.10 50.99 49.31 46.56 37.91 36.88 45.64 45.28 30.61 31.59 35.13 34.91 36.81 37.93 38.40 38.66 37.42 40.39 41.51 39.20 36.92 39.96 41.46 45.21 45.76 46.78 44.30 46.05 43.24 42.70 44.43 47.97 49.14 48.74 50.52 49.86 49.78 49.25 44.86
52.63 52.65 52.73 53.04 53.30 53.66 53.49 52.88 51.98 50.96 50.19 46.05 40.15 33.83 39.38 40.12 38.42 32.94 31.31 32.65 32.90 39.58 38.35 39.23 38.57 39.82 38.07 38.01 40.56 38.01 39.19 43.09 44.22 45.65 47.75 46.53 43.02 42.83 42.87 44.79 44.97 43.85 45.91 49.56 48.52 45.64 45.77
52.62 52.48 52.46 52.53 52.61 53.02 53.53 52.78 52.13 51.24 49.40 46.54 40.87 35.54 37.46 31.92 34.48 34.95 35.28 33.14 32.07 32.83 37.10 38.92 36.76 35.83 34.37 33.77 35.84 36.20 38.58 40.05 42.50 44.68 44.42 44.56 39.42 41.24 41.92 42.61 43.27 43.53 44.08 45.30 45.02 47.96 46.38
52.51 52.45 52.46 52.31 52.51 52.36 53.00 53.17 52.37 51.34 48.14 45.85 38.97 37.49 38.78 35.01 36.79 34.74 34.31 32.82 31.95 33.63 34.06 32.91 33.82 35.43 35.47 33.87 34.61 34.09 36.26 37.98 37.59 42.23 41.19 43.11 38.96 40.18 38.98 42.12 43.35 41.94 44.45 44.91 45.66 46.35 46.54
52.53 52.56 52.56 52.42 52.46 52.44 52.50 52.78 52.39 51.01 48.53 44.66 45.31 43.87 38.89 35.27 35.64 33.28 32.91 33.60 33.40 35.25 36.59 37.20 35.70 33.95 33.43 35.07 38.97 39.89 40.80 40.77 40.05 38.24 38.30 38.73 38.75 37.45 35.31 40.50 40.60 39.40 43.84 45.41 46.57 48.14 48.01
52.26 52.30 52.43 52.48 52.44 52.40 52.56 52.81 52.60 51.64 49.47 48.03 46.33 43.71 37.59 32.67 35.41 33.25 34.26 34.09 32.97 34.77 33.28 36.99 37.83 35.41 38.44 42.46 42.45 42.20 41.01 40.16 40.26 39.91 41.16 37.78 38.18 38.95 35.30 37.74 31.57 44.40 48.99 48.37 47.87 49.56 50.36
51.97 51.99 52.18 52.29 52.39 52.46 52.38 52.44 52.85 52.32 50.84 48.37 47.99 43.69 39.01 32.62 35.32 35.05 34.82 34.38 35.74 36.64 35.39 35.43 38.14 40.54 42.57 39.97 35.68 32.61 34.34 35.59 37.66 39.09 39.51 40.98 38.19 35.30 33.10 35.02 39.67 41.95 45.77 50.42 50.17 49.31 55.10
51.72 52.41 52.03 51.99 52.16 52.27 52.35 52.43 52.74 52.70 51.86 49.11 48.48 48.21 43.01 36.04 34.36 37.90 35.01 34.89 32.31 31.91 33.72 36.12 41.38 42.98 41.90 37.80 34.74 27.34 27.40 30.76 31.31 36.73 41.38 39.86 40.11 35.79 35.30 31.23 31.76 43.43 48.01 51.95 55.20 45.14 57.11
51.47 52.01 52.30 52.01 52.03 52.19 52.40 52.55 52.66 52.64 52.31 49.06 48.01 48.44 43.93 36.57 38.52 39.42 34.97 34.42 37.19 34.75 33.81 35.68 37.02 37.25 41.44 35.24 30.13 27.64 28.37 34.31 29.22 30.24 34.10 34.02 34.59 31.83 32.90 32.74 37.56 45.53 49.87 57.53 45.21 47.94 58.54
51.96 52.33 52.49 52.60 52.43 52.16 52.37 52.60 52.67 52.85 52.97 50.49 46.64 48.10 45.60 39.35 39.38 40.65 40.51 37.09 36.89 36.03 31.98 36.01 35.68 37.03 36.62 33.08 31.82 32.19 31.62 34.15 33.28 35.29 34.46 34.33 32.52 30.99 33.35 31.42 29.43 47.17 50.71 45.38 53.90 58.94 59.71
51.98 52.14 52.12 52.27 52.47 52.84 52.51 52.68 52.64 52.99 53.04 52.50 44.90 46.95 48.46 42.33 40.70 44.75 44.50 45.15 43.23 41.87 37.80 37.55 36.08 37.13 37.92 34.24 34.46 33.92 32.92 34.64 33.74 29.23 39.92 32.72 37.23 36.53 37.37 37.27 45.94 49.69 50.63 57.25 59.96 59.30 59.95

GFSGBSN_sfc_wetblb_030.txt.gz
Wetbulb
57.39 57.29 56.60 56.16 56.09 56.11 55.72 55.40 55.26 55.34 55.32 55.32 55.16 55.36 55.76 55.74 55.34 55.60 56.01 56.42 56.02 55.43 55.62 56.01 56.57 56.46 57.33 53.19 51.51 60.74 70.66 68.98 69.70 66.06 64.27 64.28 64.92 63.80 60.96 63.58 64.54 64.27 63.42 63.25 64.72 64.11 62.95
56.98 56.26 55.66 55.26 55.07 55.18 54.97 54.87 54.94 54.89 54.80 54.82 54.93 55.40 55.64 55.72 55.84 55.78 56.08 55.52 55.24 54.78 55.56 56.12 56.24 56.17 54.86 47.73 55.78 56.73 64.23 65.07 67.33 65.89 64.25 65.39 65.15 65.26 62.41 62.40 62.80 62.02 63.64 62.67 61.63 60.41 61.02
56.29 56.05 54.83 54.93 54.77 54.82 54.71 54.61 54.74 54.71 54.72 54.75 55.21 55.55 55.54 55.71 55.78 55.72 55.41 54.70 54.01 55.26 57.82 57.83 56.81 56.93 53.85 53.16 55.20 57.94 65.29 67.18 69.04 67.39 63.59 65.97 66.74 65.29 61.53 59.13 59.79 61.41 55.03 56.77 57.34 58.42 58.56
56.15 55.26 54.80 54.46 54.72 54.46 54.47 54.54 54.46 54.40 54.86 55.05 55.16 55.34 55.52 55.42 55.57 54.93 54.08 53.78 54.43 58.24 58.87 57.03 57.64 56.94 52.87 57.40 58.69 59.74 64.47 66.88 70.03 68.81 65.81 66.93 65.36 66.14 60.65 58.38 55.91 55.10 55.61 53.32 58.49 58.42 58.73
55.00 54.93 54.28 54.42 54.22 54.37 54.35 54.17 54.13 54.69 54.84 54.94 54.90 54.96 54.80 54.88 54.47 53.97 52.78 53.62 56.69 59.55 58.41 58.28 57.27 56.09 52.58 58.02 52.39 56.06 64.87 62.82 67.84 66.54 66.60 65.40 64.42 60.71 60.87 56.13 52.83 54.02 52.45 54.71 56.54 58.80 58.95
54.53 54.44 54.39 54.32 54.14 53.95 54.45 54.28 54.24 54.50 54.57 54.65 54.57 54.22 54.20 53.93 53.64 52.84 52.29 53.49 57.93 59.18 59.43 60.08 57.95 52.12 54.30 52.61 55.77 54.53 59.14 60.65 64.93 62.55 59.62 59.35 57.15 54.27 55.62 53.31 48.71 51.20 51.60 54.87 55.49 57.93 58.10
54.51 54.30 54.17 53.95 53.88 53.84 54.10 54.05 53.91 54.21 54.39 54.47 54.34 53.79 53.66 53.33 52.77 51.77 52.79 55.20 54.21 54.30 52.60 55.14 57.03 54.13 55.08 56.60 59.45 54.05 55.27 59.67 61.87 60.13 53.00 55.17 51.48 49.31 51.25 53.36 54.01 54.45 53.57 53.37 56.20 58.42 56.47
54.21 53.99 53.88 53.85 53.76 53.76 53.60 53.86 54.08 54.12 54.16 54.24 53.87 53.64 53.13 52.53 51.93 51.85 55.01 50.08 46.89 47.03 43.37 51.07 51.03 53.44 58.43 58.08 55.01 54.89 55.57 55.33 54.61 53.12 54.54 52.05 49.21 52.89 53.55 53.02 52.26 52.27 51.48 52.29 55.81 56.88 55.93
53.85 53.69 53.66 53.65 53.59 53.58 53.63 53.85 53.97 53.99 53.99 53.97 53.72 53.13 52.42 51.80 51.53 53.21 51.69 48.98 53.20 52.37 45.03 49.73 52.05 51.39 52.58 55.10 53.67 53.76 54.49 54.53 52.64 52.02 51.54 50.13 51.20 53.46 52.26 51.63 50.56 50.89 50.92 52.07 52.61 55.43 56.01
53.44 54.31 54.17 54.03 54.01 53.90 54.01 54.01 54.07 53.87 53.68 53.64 53.52 52.84 51.72 50.51 51.74 51.87 50.30 53.14 53.97 52.58 43.49 47.46 48.39 51.23 52.85 54.53 51.39 57.87 54.32 53.98 52.17 50.62 51.31 51.08 53.65 51.73 51.25 50.08 51.02 48.80 52.36 52.00 51.67 51.74 49.35
53.41 53.17 54.01 54.11 54.12 54.08 54.11 53.97 53.99 53.82 53.66 53.58 53.25 52.13 51.02 49.87 51.05 49.08 50.58 53.51 53.42 51.20 37.26 49.89 48.64 54.43 53.10 52.56 54.75 53.43 57.40 52.68 49.90 50.85 51.67 49.42 50.39 50.89 50.03 50.88 52.49 49.98 52.34 51.55 51.30 50.67 51.40
53.20 52.67 53.78 53.80 54.00 54.20 54.03 53.76 53.74 53.66 53.44 53.21 52.53 51.29 50.38 52.02 52.76 52.03 53.43 53.21 52.03 41.63 36.41 47.04 48.34 47.82 48.21 50.70 51.21 53.90 54.31 54.88 54.01 51.73 52.39 51.75 54.53 53.42 52.95 53.47 53.20 53.37 51.55 51.50 51.47 49.82 45.75
52.56 53.21 53.54 53.63 53.99 54.17 53.89 53.93 53.82 53.64 53.27 52.64 51.21 49.78 51.27 52.08 48.30 53.03 52.83 50.37 40.21 37.23 46.77 44.71 45.80 48.36 48.65 48.39 49.48 50.54 50.55 50.32 50.04 47.31 47.43 50.24 51.06 53.27 53.96 51.64 53.52 52.27 50.27 45.19 43.86 44.11 44.04
53.00 53.41 53.98 54.12 54.09 53.95 54.03 54.07 53.95 53.38 52.82 51.63 49.68 48.48 51.36 52.10 53.30 52.85 50.68 43.93 34.30 40.99 42.10 46.27 45.37 46.80 45.98 48.71 48.50 48.91 49.36 48.67 51.61 51.88 49.60 46.70 44.85 50.86 53.68 52.32 51.01 50.94 50.30 45.85 41.48 42.66 44.98
52.91 53.58 54.24 54.18 53.99 53.95 53.93 53.87 53.62 53.03 52.27 50.83 48.90 51.94 51.39 51.75 52.85 52.76 46.19 36.63 37.45 40.09 42.37 41.56 44.58 44.18 46.63 47.40 47.53 48.16 48.14 49.24 51.21 53.27 49.05 48.41 47.99 52.48 53.45 54.06 53.77 51.20 49.13 52.04 47.26 48.66 45.98
52.93 53.27 53.82 54.12 53.89 53.89 54.05 53.82 53.06 52.64 51.92 50.24 49.79 49.14 49.36 52.39 52.85 50.33 42.42 35.71 39.46 42.27 42.71 43.32 39.84 43.14 41.97 44.57 45.51 46.88 47.80 48.90 50.93 53.69 54.37 52.49 48.32 52.12 52.33 53.99 53.86 52.95 53.74 47.42 48.30 43.15 42.39
52.43 52.98 53.81 53.89 53.89 53.97 54.16 53.80 52.98 52.11 51.23 50.17 49.48 45.12 49.56 52.47 51.58 45.14 37.18 37.07 39.18 42.91 43.36 40.80 40.29 40.51 42.75 42.82 44.55 45.57 46.60 46.89 48.77 49.36 52.46 52.84 51.46 51.25 52.56 50.49 49.91 50.51 49.96 50.73 50.49 48.61 44.99
52.67 53.75 53.73 53.75 53.56 53.77 54.18 53.68 52.76 51.48 49.97 49.51 47.57 40.57 50.10 51.81 42.63 42.37 37.77 38.39 39.39 40.79 43.44 42.46 42.95 41.48 41.76 43.11 43.34 44.60 45.14 46.89 48.83 50.48 49.43 52.96 51.39 48.99 49.64 53.31 53.99 53.04 51.42 51.37 46.88 46.85 48.39
53.09 53.57 53.45 53.57 53.52 53.61 53.71 53.41 52.35 51.24 50.60 49.35 44.07 44.29 50.73 49.14 36.26 36.97 39.39 38.78 40.12 39.79 40.34 40.08 40.10 42.84 43.74 42.31 40.47 43.43 44.98 47.09 47.84 49.51 48.96 51.58 49.03 46.41 48.67 51.58 53.46 51.37 52.15 52.86 52.11 51.98 49.40
52.81 52.85 52.92 53.26 53.53 53.63 53.42 53.00 52.33 51.44 50.43 49.58 44.40 39.09 44.93 46.02 45.32 39.08 36.83 37.17 36.77 41.24 39.64 40.58 39.94 41.29 41.27 40.95 43.56 41.42 43.07 45.30 46.61 47.08 48.16 49.34 50.43 49.05 46.51 49.20 51.76 49.80 51.20 52.22 51.47 48.71 49.11
52.95 52.83 52.99 52.98 52.94 53.08 53.32 53.04 52.41 51.61 50.22 49.66 45.27 39.81 40.88 36.80 38.74 38.86 38.00 38.00 35.68 34.81 39.94 40.82 38.20 36.47 35.72 36.53 39.25 40.38 42.09 44.10 45.73 47.27 48.10 48.44 46.70 47.72 50.43 47.72 47.82 50.53 50.62 51.47 50.86 51.63 49.32
52.61 52.80 52.91 52.97 52.96 52.88 53.16 53.31 52.80 51.68 50.27 47.86 41.20 38.67 43.24 39.40 40.15 37.07 37.06 36.01 35.37 35.78 35.92 36.05 35.36 36.94 36.15 34.46 35.84 34.14 38.81 42.18 42.09 45.57 45.54 46.94 44.32 46.04 45.21 47.35 46.91 46.32 48.97 49.92 51.02 52.06 52.45
52.26 52.53 52.72 52.79 52.87 52.85 53.08 53.27 53.00 51.86 49.47 46.43 48.72 47.61 42.70 36.72 38.64 36.37 35.96 36.61 35.24 36.87 39.39 39.18 38.74 37.61 37.03 37.59 41.15 42.58 44.10 44.05 43.81 42.29 42.80 43.09 43.66 42.83 42.77 46.79 45.96 43.49 47.97 49.13 50.44 52.00 51.80
52.32 52.35 52.45 52.50 52.63 52.71 52.99 53.21 53.04 52.51 50.39 49.70 47.28 46.99 39.41 34.35 35.79 36.24 36.76 36.85 35.91 36.51 35.93 39.55 40.25 38.21 41.43 45.83 45.21 44.91 44.28 43.87 43.54 43.26 45.29 42.20 42.43 42.98 41.77 44.61 36.65 48.33 53.20 52.32 50.63 51.97 53.54
52.34 52.16 52.34 52.45 52.54 52.67 52.65 52.79 53.22 52.63 52.10 48.84 49.65 46.21 41.10 34.84 37.32 36.98 37.38 36.10 37.34 38.64 38.54 38.60 41.28 43.59 46.13 42.96 38.87 37.00 38.26 39.13 40.64 42.53 42.83 44.35 42.65 40.04 38.63 39.91 44.55 47.11 48.71 48.94 49.48 50.56 54.12
52.28 52.69 52.63 52.26 52.43 52.51 52.52 52.78 53.06 52.78 52.14 50.34 48.87 49.58 45.07 37.75 37.17 39.29 36.78 38.04 34.84 34.93 38.33 39.70 42.89 46.21 44.52 39.53 37.52 31.43 32.03 34.93 35.40 38.68 43.72 43.29 44.05 40.41 40.29 36.91 36.80 46.66 51.04 52.75 53.86 47.39 55.91
51.84 52.32 52.65 52.25 52.19 52.53 52.85 52.95 52.99 53.14 52.63 50.78 48.24 49.78 44.74 39.05 40.49 41.30 37.17 36.56 39.51 37.50 36.40 37.98 39.46 39.97 43.51 37.79 34.03 32.64 32.73 37.19 33.07 34.43 37.76 38.18 38.94 36.54 37.51 36.94 42.13 49.05 51.79 56.78 45.39 52.56 59.97
52.16 52.40 52.45 52.61 52.80 52.48 52.75 52.80 53.11 53.40 53.29 51.66 48.17 49.33 44.90 39.72 41.10 43.47 43.74 39.62 39.39 37.76 33.99 37.76 37.77 40.39 37.05 33.68 34.78 35.57 34.88 37.67 36.44 38.54 37.99 38.20 36.14 36.30 37.59 35.93 34.20 48.15 48.58 45.81 54.20 58.19 59.27
52.18 52.22 52.49 52.55 52.76 52.73 52.52 52.79 53.21 53.62 53.42 53.11 47.77 48.51 48.90 43.22 42.01 47.07 47.83 48.03 45.23 43.89 39.58 39.01 37.19 38.05 41.66 38.02 38.45 38.04 36.12 38.28 37.32 33.54 42.62 35.81 40.31 39.22 40.00 40.04 47.90 50.31 49.31 52.85 54.46 53.71 56.03

GFSGBSN_sfc_wetblb_033.txt.gz
Wetbulb
56.37 55.70 55.74 55.52 55.42 55.30 55.34 55.43 55.35 55.55 55.34 55.24 55.30 55.51 56.05 55.99 55.82 55.95 56.50 56.61 55.82 55.24 55.37 55.96 56.53 56.99 57.56 55.73 54.11 66.48 72.88 70.00 63.56 64.41 60.93 64.39 64.25 65.34 62.52 63.44 64.80 63.78 64.90 65.61 65.68 64.74 63.87
56.67 55.36 55.26 55.31 55.11 55.05 54.98 55.09 54.97 55.05 55.08 55.21 55.42 55.89 56.01 55.93 55.98 56.23 56.19 55.83 55.42 54.85 55.58 56.85 57.34 56.93 56.81 52.75 60.60 60.41 62.51 64.15 62.53 64.46 60.54 63.65 63.73 66.18 64.10 63.32 63.25 64.91 64.80 64.71 64.88 64.41 63.76
55.33 55.19 54.76 55.01 54.90 54.65 54.66 54.52 54.44 54.60 54.46 54.78 55.42 55.55 55.45 55.48 55.71 55.67 55.44 55.01 54.53 56.61 58.66 59.31 58.86 57.73 57.06 56.97 60.21 58.05 63.47 63.32 64.87 64.52 60.36 63.24 64.45 64.92 65.08 62.30 64.99 64.75 59.70 63.15 63.76 62.82 60.99
55.03 54.89 54.90 54.80 54.53 54.53 54.48 54.26 54.18 54.51 54.97 54.90 55.27 55.29 55.35 55.25 55.24 54.95 54.32 54.06 54.79 59.56 58.40 58.72 58.20 58.27 56.32 62.48 63.93 58.34 62.94 63.88 66.19 66.54 63.61 64.08 64.49 64.44 64.31 64.28 60.02 60.72 60.98 56.49 60.47 61.07 61.22
54.86 54.78 54.63 54.50 54.26 54.46 54.49 54.31 54.16 54.74 54.98 54.77 55.00 54.98 54.84 54.63 54.39 53.84 53.13 53.61 55.70 59.17 57.76 58.40 58.96 58.43 56.61 60.64 56.80 60.80 61.43 63.29 65.79 66.71 66.54 64.70 64.44 62.44 63.14 59.13 55.34 56.35 54.05 55.78 57.61 61.48 60.49
54.72 54.46 54.48 54.39 54.25 54.57 54.68 54.66 54.49 54.80 54.83 54.67 54.73 54.50 54.30 54.11 53.47 52.66 52.66 53.72 58.10 58.05 60.23 61.67 61.30 55.65 57.99 56.05 58.77 58.08 60.97 63.57 64.62 64.69 63.30 62.25 61.62 58.27 59.87 58.26 51.04 52.69 53.46 56.34 56.57 60.12 59.86
54.44 54.27 54.35 54.19 53.99 54.10 54.13 54.27 54.19 54.53 54.73 54.75 54.43 54.27 53.82 53.20 52.60 52.04 53.77 56.69 54.92 57.05 59.08 57.17 57.75 56.50 57.88 59.69 59.14 56.14 61.55 62.01 64.26 62.25 57.62 60.35 56.49 55.13 55.49 59.06 58.05 56.80 55.30 54.98 58.41 60.31 59.19
53.91 53.82 53.95 54.01 53.88 54.15 54.29 54.50 54.39 54.48 54.72 54.52 54.23 54.00 53.47 52.80 52.22 52.00 56.13 51.66 50.71 51.16 46.03 51.73 52.04 52.40 57.23 59.75 56.24 55.31 59.38 56.77 60.36 56.60 57.22 55.56 53.45 55.79 55.73 55.31 56.48 56.22 54.68 55.03 57.78 59.78 59.33
53.64 53.68 53.96 54.54 54.49 54.66 54.72 54.62 54.47 54.27 54.27 54.33 54.22 53.79 52.82 51.81 51.67 55.10 53.55 51.45 54.86 54.83 46.77 49.03 52.58 52.00 53.20 58.51 56.10 57.02 55.04 56.96 57.52 57.08 54.10 51.72 53.16 55.14 53.31 52.63 52.54 53.39 53.57 54.40 54.54 57.91 59.25
53.41 54.02 54.63 54.57 54.56 54.62 54.70 54.63 54.51 54.33 54.18 54.14 54.00 53.40 52.31 50.88 52.12 53.71 51.52 53.73 55.07 54.90 43.47 47.55 50.60 52.76 54.12 55.35 54.05 59.52 55.95 55.67 56.40 55.36 56.43 53.55 55.50 53.45 52.61 51.71 52.44 49.90 54.16 54.66 54.19 54.06 52.11
53.29 54.16 54.51 54.63 54.67 54.60 54.61 54.41 54.47 54.31 53.94 53.77 53.59 52.74 51.07 49.41 53.55 51.95 51.99 53.95 54.68 53.16 37.17 50.79 50.83 56.83 55.65 52.29 55.35 55.70 58.90 53.90 53.12 53.40 55.17 53.08 53.12 52.44 51.53 52.11 53.63 51.61 54.40 53.31 53.68 53.14 53.43
53.64 53.63 54.13 54.31 54.42 54.60 54.31 54.24 54.24 54.12 53.75 53.57 52.97 51.73 50.89 53.28 54.11 52.97 54.04 53.59 53.45 42.60 36.96 48.43 50.78 50.12 50.92 52.29 53.73 56.90 55.62 55.05 56.17 53.51 54.40 54.29 56.20 54.55 53.92 54.55 54.44 54.68 52.56 52.68 52.78 51.45 47.63
53.45 53.77 54.06 54.54 54.54 54.45 54.22 54.14 53.94 53.30 53.01 52.41 51.24 50.06 50.90 53.48 49.72 53.67 54.07 50.64 40.56 36.49 47.88 47.19 47.36 50.82 50.54 50.76 51.38 54.02 53.21 49.85 49.31 47.48 48.80 51.99 52.67 54.57 55.00 52.91 54.61 53.34 50.82 45.89 44.60 44.95 45.07
53.28 54.02 54.34 54.48 54.27 54.31 54.20 54.25 53.48 52.95 52.50 51.55 49.66 48.88 53.78 53.70 53.90 53.57 51.83 44.44 34.34 41.50 43.90 47.64 46.67 47.29 46.31 50.46 51.24 51.93 52.14 50.79 51.35 51.13 49.87 48.08 46.64 52.34 54.82 53.44 52.33 52.10 51.08 46.73 42.47 43.64 45.98
53.25 53.81 54.22 54.21 54.10 54.10 54.31 54.10 53.24 52.56 52.08 50.85 49.08 55.06 53.44 52.65 53.67 53.13 47.25 37.91 38.44 41.75 43.44 42.18 44.47 45.77 46.77 50.15 50.35 51.02 50.70 51.07 52.59 51.80 48.78 49.85 49.34 54.70 54.77 55.06 55.10 52.51 50.11 53.14 49.98 50.52 47.86
53.29 53.67 53.95 54.27 53.92 53.88 53.98 54.04 53.28 52.64 51.84 50.22 52.00 52.31 53.33 53.26 54.12 51.35 44.17 38.19 40.13 43.24 43.01 42.64 39.25 45.21 44.13 47.45 48.13 49.74 50.22 52.50 52.37 54.15 55.90 53.96 50.38 54.43 54.17 55.43 54.90 54.39 54.56 48.69 49.78 45.77 45.06
53.53 53.50 53.89 54.19 53.92 53.96 53.90 54.06 53.38 52.56 51.46 49.91 52.48 47.52 51.81 53.62 53.30 46.96 38.93 39.67 41.19 43.46 43.64 40.88 39.73 39.95 41.36 41.69 44.54 48.14 50.17 50.91 52.34 53.06 55.72 54.47 53.27 53.18 54.87 51.92 51.27 51.62 51.71 52.03 51.57 50.09 46.96
53.38 53.97 53.96 53.92 53.94 53.94 54.05 53.75 53.03 51.92 50.38 50.66 50.38 43.86 52.73 53.16 43.96 46.47 39.97 40.66 41.00 42.03 43.99 42.83 43.27 42.95 41.26 41.91 41.57 44.55 46.41 49.65 50.45 52.53 51.87 55.18 53.20 50.30 51.76 54.44 55.46 54.53 52.79 53.24 48.34 49.12 50.03
53.46 53.82 53.93 53.99 53.98 54.13 53.99 53.63 52.63 51.48 51.14 50.30 47.42 47.35 53.61 50.92 39.12 40.03 41.18 40.95 41.80 40.98 40.71 40.45 39.96 42.53 43.80 41.55 38.76 42.38 45.37 49.97 49.80 51.25 51.09 53.77 51.41 48.42 51.23 52.81 54.23 52.38 53.18 54.09 53.58 53.04 50.93
53.25 53.32 53.46 53.72 54.01 54.18 54.05 53.38 52.71 51.87 51.22 50.72 47.65 42.64 46.41 47.56 46.02 41.43 39.47 38.83 37.57 42.15 41.35 41.94 41.22 42.11 41.24 40.78 43.37 41.98 42.48 47.07 49.07 49.39 50.37 51.92 51.84 50.54 49.37 51.65 52.93 50.78 52.15 53.15 53.18 50.33 50.70
53.00 53.13 53.30 53.30 53.53 53.75 53.99 53.57 52.97 52.20 51.30 50.52 46.81 42.89 44.14 39.17 41.24 41.44 40.97 39.57 36.69 36.58 41.61 42.32 40.21 39.66 38.50 36.71 38.01 36.96 42.67 45.77 48.76 49.25 51.23 51.25 48.40 51.86 52.65 53.85 53.35 52.68 51.74 52.25 51.66 52.94 50.61
52.73 52.82 53.03 53.56 53.55 53.77 53.89 53.80 53.36 52.69 51.10 47.81 42.53 41.09 44.03 42.07 42.33 39.65 39.74 38.70 37.48 39.11 39.68 38.49 38.12 39.30 39.72 37.37 39.40 37.00 39.87 41.53 42.95 46.75 47.61 50.84 46.37 50.69 50.39 53.10 51.59 50.35 53.08 52.87 52.83 52.98 53.39
52.42 52.52 52.96 53.35 53.77 53.87 53.83 53.70 53.36 52.76 50.47 46.47 48.33 47.35 43.04 40.32 40.49 38.14 38.81 39.31 38.38 40.48 40.67 41.89 40.38 38.92 38.12 39.52 42.91 44.67 44.98 45.54 45.23 44.25 44.09 45.83 47.29 48.10 46.03 51.25 50.45 47.09 51.42 53.06 53.95 54.70 54.28
52.95 52.89 52.75 52.71 53.07 53.64 53.68 53.72 53.41 52.80 51.39 50.39 47.55 44.68 40.13 36.48 37.78 38.25 39.38 39.25 38.67 39.03 37.56 40.89 42.16 40.34 43.53 46.91 46.45 46.02 45.56 45.17 45.48 45.49 46.82 44.27 45.57 46.47 44.70 48.57 41.73 51.47 55.72 54.72 53.61 54.73 56.03
52.76 52.89 52.93 52.87 53.05 53.46 53.37 53.54 53.68 53.12 52.62 50.54 49.49 44.67 40.44 37.71 38.46 39.73 39.40 39.43 39.99 40.88 40.63 41.20 42.96 44.90 47.22 44.63 40.20 37.90 39.23 41.00 42.67 44.77 45.08 46.45 44.91 43.31 42.20 44.78 48.55 50.52 52.66 53.31 52.42 52.28 56.10
52.60 52.78 52.97 52.80 52.75 53.22 52.96 53.19 53.75 53.22 52.66 51.22 49.59 49.55 43.13 37.09 39.20 41.48 39.29 41.32 37.27 37.91 40.36 40.70 46.03 47.57 45.37 41.07 36.67 33.69 33.94 38.48 38.52 41.07 45.64 45.75 46.28 42.60 43.71 41.09 41.32 49.84 53.67 54.43 55.55 49.15 56.96
52.64 52.78 52.91 52.85 52.74 52.81 53.17 53.15 53.26 53.70 53.16 51.66 50.15 50.40 44.67 38.17 41.30 42.34 39.06 39.67 42.12 39.83 37.87 41.40 42.60 41.85 45.24 38.06 34.95 34.75 35.31 40.29 36.67 38.02 39.43 40.20 41.54 39.47 40.65 40.89 45.90 52.13 54.69 56.55 47.13 53.19 59.40
52.41 52.54 52.74 53.01 53.28 52.91 52.66 53.18 53.51 53.66 53.90 52.41 50.26 51.06 45.53 40.21 40.96 44.04 44.64 41.41 41.35 41.32 36.88 40.76 40.52 42.84 39.94 36.97 36.45 36.47 37.16 38.80 38.39 41.00 40.77 40.56 39.02 39.00 41.22 39.46 38.42 52.31 51.13 49.34 54.74 58.72 58.39
52.33 52.48 52.54 52.48 52.35 52.16 52.78 53.11 53.26 53.46 53.83 53.16 48.89 51.13 50.24 43.64 42.69 49.17 49.07 49.06 47.76 46.40 42.12 40.90 40.85 40.65 44.63 39.00 40.49 39.95 37.45 39.75 38.89 35.61 44.23 37.93 42.57 41.99 42.89 43.11 50.84 52.55 52.04 54.15 54.20 53.81 55.24

GFSGBSN_sfc_wetblb_039.txt.gz
Wetbulb
56.02 56.00 55.83 55.62 55.93 55.69 55.13 55.32 55.51 55.89 55.62 55.57 55.82 56.40 56.48 56.57 56.36 56.72 56.79 56.83 56.44 55.92 56.23 57.27 58.28 56.75 54.35 50.12 50.94 60.20 73.03 72.18 66.37 59.80 55.21 53.99 54.50 57.57 56.25 61.15 62.78 61.44 63.26 65.01 64.92 63.59 63.90
55.79 55.75 55.58 55.47 55.29 55.21 55.03 55.20 55.21 55.78 55.97 56.02 56.44 56.32 56.30 56.14 56.33 56.40 56.54 56.13 56.16 55.44 56.17 58.02 59.36 56.70 51.47 46.18 60.45 60.72 65.77 65.82 62.47 56.65 54.57 55.07 56.20 59.22 59.40 61.33 61.01 62.78 63.44 63.84 63.75 63.43 64.05
55.53 55.40 55.34 55.23 55.36 55.53 55.50 55.52 55.57 55.78 56.11 56.09 56.07 56.17 55.93 56.05 55.91 56.19 55.83 55.41 55.22 55.13 55.97 58.95 59.66 56.69 51.28 48.46 60.69 61.51 63.58 60.25 58.23 56.59 53.14 56.29 58.46 56.89 60.06 58.66 63.79 62.92 60.50 63.41 63.60 63.17 62.87
55.17 55.13 55.29 55.48 55.71 55.71 55.78 55.83 56.09 56.02 55.98 56.00 56.06 56.05 55.69 55.73 55.52 55.29 54.93 54.35 54.68 55.47 56.43 60.13 59.49 56.10 48.28 59.17 59.10 58.19 60.00 60.98 58.77 57.91 56.03 56.84 58.94 55.68 56.04 60.41 61.06 59.09 58.97 55.22 61.46 62.27 62.80
55.03 55.31 55.78 55.78 55.90 55.86 55.86 55.86 56.04 55.94 55.69 55.63 55.57 55.33 55.28 55.06 54.66 54.18 53.29 53.50 56.66 56.91 58.42 58.68 56.02 53.28 49.83 63.62 59.00 60.68 60.21 57.65 59.16 58.01 58.58 59.61 57.10 53.44 54.34 54.22 53.27 55.01 51.83 52.85 56.77 61.85 61.66
54.59 54.91 55.39 55.02 55.38 55.78 55.63 55.63 55.71 55.61 55.47 55.27 54.98 54.73 54.55 54.39 53.93 53.00 52.54 53.95 57.69 56.50 58.74 59.22 58.71 50.66 55.05 54.44 59.03 60.71 60.63 59.43 56.27 56.75 56.55 55.63 53.84 50.15 50.73 50.12 45.70 49.78 50.37 52.91 53.86 59.58 59.38
54.55 54.94 55.16 55.00 55.13 55.66 55.57 55.53 55.44 55.42 55.22 55.00 54.63 54.20 53.97 53.77 53.25 52.23 50.47 47.80 45.50 48.35 47.93 43.11 45.70 48.47 48.78 58.31 58.86 59.31 60.17 58.46 55.43 54.88 50.99 54.11 49.11 46.61 48.78 51.26 52.83 55.06 54.24 52.03 55.03 59.23 57.19
54.49 54.98 54.99 55.00 55.56 55.51 55.39 55.32 55.22 55.24 55.00 54.65 54.18 54.01 53.60 53.18 52.38 51.75 50.73 46.31 45.56 46.55 41.02 47.15 47.79 48.10 50.42 51.93 49.74 54.71 59.62 54.04 50.91 49.72 53.03 51.38 48.07 51.82 53.21 52.76 52.08 53.56 52.96 52.61 54.01 56.93 55.69
54.57 54.82 55.37 55.41 55.47 55.24 55.07 55.03 54.93 54.74 54.36 54.20 54.01 53.49 52.89 52.15 51.77 52.51 50.21 47.41 50.35 49.03 40.54 43.71 46.33 46.59 47.15 48.85 47.38 49.72 54.80 54.82 50.08 50.15 51.88 49.77 52.16 55.94 54.49 51.61 50.43 51.38 51.11 52.32 52.00 54.03 55.91
54.92 55.23 55.20 55.22 55.04 55.01 54.95 54.90 54.78 54.64 54.17 53.77 53.75 53.29 52.23 50.84 49.79 49.71 49.90 50.86 50.45 49.71 35.36 41.74 44.27 48.34 48.97 48.71 46.33 53.70 55.39 54.03 51.82 49.20 52.93 52.42 56.07 54.74 53.35 51.50 51.85 48.18 54.33 54.99 54.67 52.01 46.76
55.20 55.09 55.08 55.06 55.03 54.93 54.52 54.52 54.42 53.99 53.45 53.41 53.19 52.56 51.27 50.79 47.39 48.00 51.31 51.20 50.35 47.53 27.89 47.85 47.10 53.88 49.65 45.53 47.30 49.71 54.76 53.48 49.43 49.95 52.59 51.54 53.76 53.32 51.66 52.72 54.27 51.17 54.12 54.03 54.42 51.46 47.67
54.99 55.06 55.08 55.20 55.19 54.80 54.47 54.02 53.90 53.51 53.12 52.93 52.50 51.64 51.02 50.68 50.14 52.11 52.44 50.56 47.95 34.63 30.35 41.82 45.37 43.79 43.26 45.66 48.02 50.39 50.93 53.74 53.30 50.76 52.77 52.98 58.39 55.82 54.54 55.73 55.68 56.03 52.29 49.68 51.78 49.42 42.65
54.97 55.19 55.14 55.13 54.93 54.54 54.15 54.06 53.92 53.39 53.00 52.35 51.25 50.08 49.37 51.86 47.54 53.03 52.01 46.83 34.29 29.70 42.67 39.94 39.39 41.79 41.18 43.05 46.21 47.10 47.03 45.99 45.89 43.12 45.50 50.10 52.30 56.26 55.24 52.19 54.20 52.81 46.09 38.89 38.23 40.99 40.03
55.09 55.06 55.01 54.80 54.66 54.47 54.41 54.37 54.04 53.32 52.75 51.61 49.97 49.46 51.87 54.15 54.01 53.52 47.92 40.10 30.01 38.65 38.44 42.02 40.46 40.21 38.57 41.36 41.37 42.47 41.68 43.76 49.66 47.42 43.83 43.95 43.46 52.53 55.57 50.94 48.27 49.05 46.95 37.80 32.68 35.90 39.36
55.02 55.00 54.97 54.80 54.68 54.51 54.51 54.39 53.94 53.28 52.52 51.12 49.93 51.57 52.15 54.52 55.25 51.35 43.11 33.23 34.62 37.91 40.49 38.44 38.45 35.65 36.39 39.24 39.86 39.33 39.38 42.62 48.36 50.51 43.04 43.25 44.58 54.27 56.02 54.63 51.79 47.46 44.54 46.48 39.24 41.67 37.99
55.02 55.00 55.07 54.92 54.68 54.51 54.49 54.37 53.88 53.29 52.42 50.75 47.97 49.39 51.01 54.50 52.71 47.68 39.93 35.84 38.78 41.78 40.86 39.80 33.47 36.11 33.07 36.61 36.34 36.87 37.26 43.93 45.06 47.05 48.62 46.28 40.64 50.77 53.72 55.64 53.97 49.68 49.39 42.41 43.02 34.61 34.92
54.79 54.87 54.93 54.80 54.62 54.54 54.58 54.62 53.94 53.23 52.10 51.03 48.48 46.34 51.50 53.30 50.50 44.12 36.22 38.61 40.34 42.77 42.55 38.40 36.33 35.25 35.43 36.16 36.81 35.66 36.99 41.30 44.65 43.78 45.92 44.65 43.85 44.64 49.75 49.56 48.69 47.31 46.04 46.26 42.49 40.94 36.03
54.50 54.58 54.66 54.52 54.36 54.54 54.60 54.31 53.61 52.36 51.04 48.86 46.47 41.24 53.14 53.71 41.53 42.11 37.63 40.09 41.63 40.41 42.93 40.63 40.28 38.17 35.84 36.68 35.16 34.86 35.70 40.12 45.29 44.41 37.44 45.06 42.14 41.33 43.92 50.45 53.36 50.91 47.44 46.13 42.58 39.06 42.34
54.26 54.30 54.38 54.20 54.19 54.50 54.40 53.94 53.13 52.03 51.62 47.62 42.95 44.98 52.33 50.44 36.40 37.19 40.48 39.91 41.29 39.71 40.16 39.37 37.58 38.88 38.90 36.81 33.21 36.79 38.59 43.79 44.47 41.76 40.66 43.99 39.14 38.93 42.02 45.61 49.24 48.74 48.71 48.35 45.60 44.24 42.22
54.09 54.22 54.14 54.14 54.22 54.34 54.35 53.78 53.11 52.50 51.86 48.79 44.63 38.34 44.26 45.55 44.29 39.25 37.75 37.76 37.44 42.55 41.06 41.03 39.48 39.21 37.58 36.12 38.01 35.61 36.27 41.48 43.25 42.97 49.09 46.63 41.04 39.29 39.34 42.99 46.41 46.63 48.76 48.92 46.76 43.97 43.96
53.63 53.63 53.43 53.79 54.03 54.36 54.27 53.80 53.29 52.70 51.94 48.79 44.40 39.73 41.62 36.01 38.52 38.52 39.81 39.09 36.93 36.83 41.11 40.90 38.03 38.41 35.89 32.10 34.13 34.48 37.15 38.81 41.57 44.62 42.25 40.19 36.21 42.92 46.59 48.96 49.72 50.70 48.82 49.27 46.99 46.99 44.73
53.86 53.86 53.62 53.56 53.67 54.18 54.26 53.86 53.61 52.83 51.92 47.02 41.14 40.04 40.46 37.44 39.38 38.94 38.95 37.77 37.24 38.38 38.86 36.73 36.25 38.18 36.92 33.82 33.75 32.65 36.30 36.37 36.58 39.81 37.69 39.77 36.18 42.18 43.25 49.38 50.84 49.70 51.40 50.29 49.60 49.26 48.50
53.33 53.53 53.27 53.46 53.83 53.96 53.87 53.64 53.59 52.89 51.47 46.05 47.30 46.63 41.22 37.78 37.03 36.14 36.78 38.15 38.19 39.89 40.70 41.12 39.69 37.24 35.94 38.06 40.31 40.80 41.07 40.59 39.61 37.83 35.91 36.58 37.51 37.63 37.91 46.76 47.32 44.22 49.29 50.78 50.07 50.99 49.73
53.33 53.43 53.15 53.11 53.24 53.95 53.97 53.72 52.64 53.06 52.17 50.09 48.42 44.66 38.12 34.05 36.15 35.98 37.59 39.19 39.12 39.19 37.70 40.78 41.73 37.93 40.75 44.67 43.58 42.40 40.99 40.72 40.38 39.98 40.00 36.39 36.86 37.48 37.22 42.28 35.54 46.69 53.08 53.92 51.45 51.95 52.01
53.20 53.35 53.10 53.10 53.09 53.09 52.95 52.79 53.03 53.26 53.02 50.44 51.15 43.83 39.19 34.16 37.25 37.60 38.36 38.31 40.43 40.51 38.70 39.82 42.08 43.82 44.32 41.46 35.47 32.87 33.41 35.62 37.94 40.43 39.79 41.46 37.98 34.79 36.56 40.03 43.79 49.16 51.20 50.83 49.47 50.66 54.52
53.30 53.41 53.51 53.12 53.02 52.40 52.57 53.21 53.55 54.00 53.35 52.45 51.25 48.28 42.63 36.21 35.74 39.64 38.25 38.55 36.39 36.81 38.60 40.32 44.74 45.56 43.70 38.12 34.38 28.96 27.35 33.04 34.58 37.15 41.74 41.51 41.89 37.56 38.42 37.68 38.00 45.68 49.38 51.95 53.20 45.56 53.58
53.26 53.24 53.12 52.97 52.38 52.60 53.22 53.56 53.93 53.91 53.45 52.59 50.88 49.47 44.46 37.45 39.80 40.65 37.76 37.63 41.28 39.85 36.92 39.19 40.36 40.19 41.63 35.86 33.13 31.11 30.96 37.73 33.22 33.89 35.09 36.29 37.47 35.18 37.02 36.88 41.35 46.56 50.24 54.61 45.07 45.88 51.72
52.81 52.81 52.85 52.81 52.56 52.97 53.39 53.51 53.68 53.88 53.96 53.02 50.48 51.20 45.19 39.90 40.98 43.31 43.81 40.93 40.54 40.01 36.91 40.27 38.63 39.36 38.63 34.42 34.38 34.15 34.25 35.96 34.65 37.28 37.55 36.40 35.36 35.44 35.88 36.69 35.72 47.91 49.06 44.22 50.48 51.90 51.23
52.48 52.61 52.63 52.67 52.71 53.10 53.41 53.55 53.64 53.82 53.76 53.54 48.72 51.69 50.39 43.39 42.51 46.18 46.30 47.13 45.95 45.08 42.11 42.62 39.62 39.23 39.95 36.36 36.52 35.12 32.97 36.92 35.22 31.49 40.81 34.25 38.12 35.98 38.10 38.28 45.58 47.24 46.74 49.92 50.56 48.93 49.68

GFSGBSN_sfc_wetblb_042.txt.gz
Wetbulb
55.78 55.82 55.71 55.48 55.34 55.35 55.36 55.61 55.53 55.70 55.74 55.80 55.97 56.36 56.60 56.65 56.29 56.54 56.69 56.66 56.23 55.79 55.96 56.41 57.62 57.37 53.56 48.22 48.80 58.92 71.59 69.59 66.46 61.25 55.88 52.93 50.56 52.55 51.99 56.44 59.20 59.54 61.62 63.78 64.48 63.91 62.76
55.40 55.61 55.50 55.57 55.31 55.38 55.35 55.41 55.52 55.91 55.96 56.00 56.27 56.25 56.04 56.10 56.30 56.47 56.47 56.01 55.64 55.66 55.62 56.19 58.37 56.80 50.28 43.63 57.12 58.69 66.15 63.75 61.04 58.74 54.91 53.53 52.04 53.41 54.97 55.26 57.72 61.56 61.71 63.48 63.66 61.61 62.43
55.22 55.34 55.53 55.50 55.26 55.20 55.21 55.21 55.38 55.37 55.31 55.68 55.84 55.89 55.63 55.61 55.96 56.01 55.92 55.08 55.09 56.13 56.93 55.84 59.57 56.13 50.29 47.33 56.22 56.71 64.17 60.35 60.63 57.38 53.21 53.90 54.37 54.89 55.23 55.73 59.20 59.58 59.08 62.19 61.60 61.71 61.00
55.01 55.25 55.27 55.28 55.33 55.23 55.28 55.31 55.55 55.72 55.85 55.59 55.68 55.68 55.48 55.49 55.49 55.28 54.63 54.08 55.03 58.13 56.84 56.43 59.95 55.44 47.36 57.35 57.06 55.90 56.66 57.59 59.88 57.33 54.16 55.02 54.66 53.15 51.56 54.50 53.66 55.56 56.63 55.11 61.14 61.99 63.32
54.84 55.22 55.38 55.11 55.46 55.68 55.65 55.68 55.64 55.77 55.45 55.26 55.28 55.25 55.15 54.83 54.60 54.13 53.43 53.55 55.92 57.71 58.65 59.35 54.33 52.09 47.17 60.69 57.14 57.07 57.41 57.74 55.14 53.86 53.98 56.36 52.81 50.47 50.74 47.47 45.07 49.59 47.47 51.88 57.43 63.08 62.04
54.96 55.03 55.05 54.98 55.11 55.63 55.45 55.49 55.63 55.50 55.22 55.16 54.95 54.71 54.57 54.31 53.81 52.97 52.58 53.74 55.65 57.96 58.35 58.97 58.12 49.20 51.08 51.90 53.59 55.51 57.97 59.16 54.64 53.66 52.68 51.63 48.65 45.07 47.04 43.72 40.68 44.81 47.73 50.38 52.32 57.20 60.54
54.85 54.92 55.06 54.93 54.82 55.47 55.30 55.38 55.32 55.29 55.22 54.85 54.60 54.30 54.09 53.58 53.08 52.10 50.17 45.09 42.95 39.98 42.12 39.37 41.73 50.40 48.31 50.23 52.33 53.18 57.29 56.94 56.42 51.67 46.67 49.53 45.31 42.89 45.88 46.98 48.47 50.32 50.41 50.78 53.89 57.25 56.64
54.62 54.71 54.76 54.78 54.95 55.28 55.26 55.03 54.85 54.81 54.77 54.45 54.07 53.91 53.45 53.02 52.20 51.89 47.69 41.99 41.26 43.71 36.81 44.86 45.17 44.71 46.83 47.66 44.36 47.86 54.65 52.18 50.92 47.67 49.08 46.78 44.71 49.03 50.81 49.12 48.88 49.22 47.59 50.41 54.53 56.94 53.99
54.71 54.63 54.79 55.26 55.34 55.27 55.05 54.80 54.54 54.52 54.34 54.18 54.01 53.54 52.96 51.94 51.51 47.95 45.16 45.29 47.83 41.73 34.53 41.29 44.12 43.88 44.41 45.08 43.84 44.90 49.14 51.76 49.30 46.90 47.83 46.41 49.10 52.81 51.10 49.21 47.79 47.51 46.32 48.06 50.63 54.55 53.57
54.71 55.16 55.21 55.23 55.23 55.11 54.86 54.70 54.49 54.23 54.05 53.74 53.60 53.17 52.14 51.22 45.53 45.48 46.07 48.57 49.60 43.94 30.85 38.83 42.93 46.40 46.68 46.21 43.00 50.59 50.66 49.89 50.40 46.13 47.46 47.40 52.35 51.47 50.23 49.03 48.91 43.94 50.36 50.56 51.34 49.58 45.10
55.18 55.32 55.34 55.21 55.09 54.99 54.66 54.47 54.41 54.17 53.61 53.19 52.94 52.10 51.03 50.65 43.68 44.56 48.12 48.23 49.79 41.67 25.74 44.34 42.76 49.17 45.93 42.65 45.77 46.32 50.77 49.30 46.69 47.77 46.36 46.76 49.51 50.36 48.66 49.79 51.43 47.57 51.00 50.23 51.14 47.60 44.54
55.37 55.44 55.30 55.19 55.17 55.02 54.59 54.27 54.10 53.96 53.30 52.83 52.17 51.01 51.18 47.62 44.79 47.42 48.72 49.37 41.68 32.23 27.36 39.62 42.05 40.67 40.97 42.04 43.55 46.04 46.37 49.18 51.09 47.30 49.14 48.14 54.11 53.19 52.47 53.81 53.85 53.65 50.71 49.60 48.91 45.04 40.99
54.93 54.88 55.11 55.17 54.96 54.86 54.47 54.21 54.04 53.59 52.97 52.06 50.67 49.93 49.93 49.99 42.96 47.48 48.42 40.84 30.52 26.13 40.30 36.82 35.58 38.30 38.02 37.97 40.19 41.86 41.14 39.83 38.07 37.87 41.33 46.50 47.88 52.93 55.44 51.33 52.94 52.01 45.14 39.43 38.73 37.57 38.53
54.65 55.21 55.05 54.92 54.61 54.49 54.39 54.49 54.00 53.30 52.89 51.52 49.72 49.47 49.50 51.23 48.62 48.37 42.37 34.89 26.37 35.59 33.82 38.19 37.30 36.65 34.71 38.62 38.73 39.81 38.52 36.30 42.66 39.99 38.65 39.99 39.18 48.45 53.49 52.01 50.05 48.69 45.44 37.58 34.32 32.63 39.46
54.85 55.13 54.97 54.78 54.55 54.53 54.43 54.39 53.74 53.28 52.48 50.97 49.55 45.90 46.17 49.02 51.05 46.72 37.71 27.76 28.26 33.25 37.46 35.99 36.23 32.27 32.91 37.76 38.55 37.20 36.31 37.25 41.03 41.54 34.12 34.33 40.58 50.82 52.66 54.59 52.87 48.19 45.38 45.80 36.73 35.14 35.23
54.79 54.73 54.80 54.72 54.59 54.33 54.27 54.23 53.70 53.33 52.45 50.86 45.11 42.70 44.46 51.34 48.63 41.38 34.73 31.75 33.48 39.02 39.24 37.44 30.40 33.84 29.26 33.24 33.95 34.58 34.82 40.83 40.62 42.81 42.84 37.88 33.72 46.43 51.24 52.72 53.53 48.06 47.80 39.95 36.04 32.22 30.90
54.44 54.44 54.70 54.54 54.35 54.19 54.19 54.35 53.78 53.25 51.97 51.02 40.81 38.97 46.82 52.19 44.23 37.35 29.67 31.18 36.79 40.43 41.30 36.44 33.59 32.02 31.31 30.51 32.44 33.93 34.91 39.49 42.21 41.35 42.13 38.69 35.09 40.50 44.51 45.60 47.89 46.57 45.40 41.61 41.99 36.77 33.75
54.13 54.37 54.43 54.37 53.98 54.10 54.37 54.23 53.45 52.40 50.96 47.24 39.47 35.56 47.09 49.76 35.68 32.91 30.91 35.78 40.31 37.78 40.75 37.71 37.18 34.42 31.33 33.26 31.73 33.35 34.63 38.27 43.73 42.29 36.40 40.25 37.93 33.67 40.70 47.16 48.35 52.41 44.51 43.49 41.01 35.56 36.27
54.29 54.29 54.23 53.95 54.03 54.21 54.33 53.90 53.05 51.96 51.47 46.65 38.24 38.08 46.09 43.16 29.64 30.24 35.60 38.82 39.76 38.52 36.03 36.72 35.41 36.29 35.09 31.24 29.78 35.43 37.78 42.27 43.33 40.91 38.40 40.17 37.96 30.88 36.76 40.10 43.50 42.86 48.22 43.78 41.13 39.88 37.45
53.88 53.85 53.65 53.93 54.01 54.19 54.23 53.67 52.70 52.08 51.77 44.28 38.06 32.25 37.34 38.76 37.36 33.76 33.57 35.18 35.92 42.14 39.69 39.12 37.12 36.38 34.21 31.54 33.00 33.09 35.82 40.92 42.89 41.30 43.32 42.18 32.20 31.93 30.70 35.70 41.32 41.40 45.45 47.71 43.13 39.87 40.74
53.05 53.09 52.99 53.17 53.52 53.76 53.97 53.41 52.75 51.99 51.62 43.96 37.29 32.97 35.81 30.62 33.74 35.41 36.05 36.51 35.99 35.42 39.46 38.66 35.00 36.27 32.88 27.19 29.21 30.97 36.10 37.59 40.19 41.22 40.41 37.71 28.84 32.27 34.01 38.01 41.17 43.29 46.12 46.83 43.81 45.78 42.22
53.04 52.84 52.72 52.78 53.13 53.48 53.95 53.78 53.12 52.34 51.27 41.96 36.14 35.20 36.13 36.95 35.63 35.14 35.90 34.96 36.45 37.39 37.45 36.20 35.44 37.32 34.70 29.93 31.92 30.19 34.90 34.76 35.15 38.01 36.53 37.30 30.84 32.24 32.42 42.62 45.11 45.43 49.22 49.28 46.82 46.87 45.21
52.77 52.67 52.80 53.13 53.32 53.21 53.50 53.51 53.14 52.01 50.17 40.42 40.58 40.77 40.40 38.58 36.69 35.48 34.60 35.66 35.83 38.69 39.98 40.69 38.69 36.48 33.79 35.52 37.98 37.75 38.67 39.27 38.46 36.60 35.83 34.64 31.76 28.97 29.62 41.12 45.46 41.80 45.13 48.46 48.04 47.73 47.18
53.32 52.95 52.98 53.25 53.09 52.80 52.57 52.88 53.14 52.65 51.81 48.37 44.16 44.54 38.63 34.14 36.28 36.40 37.04 38.02 38.03 38.55 37.53 39.36 40.37 37.15 40.69 43.76 40.20 38.56 37.61 38.33 38.87 38.31 39.18 34.38 31.26 30.04 30.04 37.24 35.05 44.51 48.57 48.53 48.33 48.53 49.50
53.34 53.24 53.00 53.00 52.82 52.43 52.61 53.10 53.22 53.37 52.98 49.47 48.65 44.51 39.67 33.86 37.08 37.61 38.16 38.86 38.65 38.96 37.82 38.80 40.99 42.70 42.79 37.70 30.97 28.63 30.44 32.73 35.70 38.34 37.62 38.25 35.43 28.42 29.42 36.00 41.54 43.75 44.94 44.50 43.20 44.36 48.76
53.36 53.49 52.91 52.60 52.33 52.68 52.65 53.24 53.45 54.02 53.37 51.05 49.39 48.34 42.52 36.67 36.10 40.03 38.32 38.76 35.89 36.69 37.48 39.17 42.43 42.43 40.29 36.04 31.57 26.18 25.97 30.62 32.62 34.69 39.54 37.90 38.11 31.88 31.12 33.35 34.21 38.82 45.56 51.01 50.89 38.52 48.01
52.93 53.08 52.62 52.74 52.81 52.99 53.27 53.25 53.76 53.80 53.47 51.24 49.55 48.92 44.11 37.37 39.74 40.47 38.03 36.46 39.70 38.55 36.04 38.89 39.05 38.13 39.09 35.44 32.07 30.58 30.86 36.68 32.28 32.22 32.16 33.50 34.39 32.24 33.92 34.37 38.87 43.08 46.46 52.30 39.29 41.03 48.40
52.83 52.50 52.21 52.39 52.85 53.06 53.20 53.37 53.66 54.02 54.04 52.14 49.49 50.07 45.29 40.00 40.91 43.06 43.68 41.24 40.92 39.88 35.81 39.72 37.31 35.29 35.06 29.20 31.93 32.13 31.62 34.45 33.59 35.98 34.93 33.50 33.72 33.15 33.94 34.55 32.48 45.68 45.30 39.99 43.00 47.86 48.37
52.26 51.90 52.09 52.42 52.60 52.68 52.79 53.24 53.65 53.80 53.84 53.05 48.05 51.48 50.38 43.60 42.77 45.26 46.39 46.83 45.83 44.81 41.93 42.18 38.94 39.01 38.33 31.52 31.24 33.57 32.96 35.24 33.89 30.64 38.84 32.24 36.34 33.56 35.13 36.75 42.89 46.19 47.12 47.42 46.88 46.22 46.41

GFSGBSN_sfc_wetblb_045.txt.gz
Wetbulb
55.62 55.83 55.59 55.63 55.22 55.21 55.34 55.57 55.58 55.61 55.61 55.63 55.67 56.04 56.33 56.02 55.82 56.02 56.10 56.10 55.98 55.73 55.83 55.84 56.35 57.26 52.30 45.53 46.41 56.70 70.74 65.81 64.71 59.49 57.14 55.77 54.46 53.09 51.70 54.68 57.93 59.74 61.36 63.22 65.28 65.30 62.89
55.53 55.59 55.61 55.54 55.17 55.08 55.15 55.27 55.30 55.40 55.55 55.54 55.83 56.14 56.17 56.12 56.35 56.47 56.37 56.01 55.44 55.63 56.55 56.13 56.64 56.97 49.14 40.62 52.99 58.05 63.87 61.76 61.23 55.95 54.02 51.43 52.50 54.38 52.80 52.94 56.98 59.10 59.52 60.60 62.36 62.29 59.96
55.33 55.33 55.41 55.30 55.25 54.98 55.16 55.04 55.13 55.16 55.43 55.62 56.06 55.98 55.90 55.85 56.15 56.23 55.81 55.28 54.92 56.28 59.09 56.54 58.28 55.25 49.23 46.37 55.58 56.00 61.42 59.65 61.29 55.76 52.52 53.35 52.63 53.48 51.85 52.85 57.08 57.09 55.62 57.75 59.75 60.95 61.01
55.11 55.21 55.32 55.18 55.05 54.99 55.18 55.17 55.19 55.34 55.43 55.77 55.85 55.80 55.74 55.75 55.79 55.46 54.67 54.42 55.14 57.93 56.72 57.72 60.10 55.23 46.65 55.76 56.60 57.14 56.53 56.88 59.13 55.68 53.24 53.72 53.07 51.98 50.29 53.33 51.45 52.86 52.20 48.61 57.55 61.79 61.45
54.92 55.12 55.20 54.87 54.70 55.00 55.15 54.97 54.95 55.47 55.34 55.28 55.14 55.16 55.19 55.06 54.68 54.42 53.39 53.86 55.79 58.41 59.49 59.71 53.33 50.58 46.44 59.66 55.52 54.29 55.58 55.35 57.26 54.92 52.96 56.16 51.14 47.07 49.69 46.64 42.97 45.43 44.10 50.19 53.70 61.14 61.28
54.90 54.91 54.89 54.83 54.61 54.97 55.51 55.45 55.37 55.34 55.04 54.93 54.65 54.49 54.30 54.35 53.78 53.16 52.75 54.20 54.97 58.86 58.20 58.28 57.16 45.64 47.91 46.86 48.35 48.94 53.60 57.15 53.12 52.68 50.84 49.17 46.12 42.62 42.40 41.61 39.48 41.24 45.18 47.50 49.52 55.80 60.22
54.85 54.72 54.82 54.77 54.63 55.21 55.40 55.26 55.26 55.32 55.12 54.81 54.39 54.08 53.71 53.32 52.91 52.36 50.22 42.72 40.48 38.16 40.09 37.65 40.60 44.97 45.03 47.15 49.55 48.26 50.18 55.61 52.94 48.69 43.21 45.97 41.54 40.33 43.39 46.25 46.13 47.89 48.57 49.16 52.36 56.14 57.45
54.73 54.80 54.94 54.84 54.84 55.36 55.36 55.17 55.01 55.01 54.89 54.51 54.04 53.73 53.15 52.42 52.19 52.10 46.36 41.82 42.92 43.53 35.46 42.68 43.60 43.10 44.88 44.92 42.85 46.29 49.52 50.74 50.07 44.64 46.44 43.42 40.76 45.12 46.86 47.15 46.27 45.49 44.29 45.86 51.01 54.75 53.17
54.86 54.89 54.98 55.12 55.46 55.25 55.11 54.95 54.68 54.58 54.34 54.09 53.73 53.17 52.36 51.62 51.65 47.22 43.31 43.43 46.11 40.08 33.22 39.34 42.83 43.08 43.62 42.69 42.19 43.70 45.14 48.30 47.74 46.89 45.98 43.41 45.59 49.47 48.23 46.48 44.92 44.51 43.41 45.15 46.89 52.19 52.82
54.91 55.18 55.46 55.24 55.29 55.11 54.95 54.64 54.56 54.29 53.88 53.45 53.27 52.86 51.60 51.10 45.36 43.95 44.25 45.13 46.15 42.87 30.05 37.69 40.45 44.13 44.49 44.21 41.53 48.84 49.32 46.56 47.26 46.02 47.78 45.41 50.04 48.75 46.90 46.33 46.33 39.39 47.77 48.76 48.54 48.32 43.46
54.82 55.04 55.20 55.17 55.05 54.93 54.66 54.49 54.41 54.19 53.53 53.31 53.02 52.17 50.80 50.76 42.24 42.39 46.12 45.91 45.06 40.73 24.45 42.10 39.85 46.50 43.58 39.64 42.59 44.92 49.42 46.91 42.78 44.03 44.92 44.28 46.83 47.07 46.34 47.36 49.05 45.62 48.60 47.70 47.78 44.12 44.17
54.66 54.58 54.58 54.81 54.79 54.86 54.41 54.21 54.11 53.80 53.53 53.20 52.48 51.23 50.96 46.85 43.54 45.48 46.44 43.73 40.75 31.68 25.99 37.10 40.02 38.93 38.00 39.78 41.28 44.20 44.98 49.06 47.80 44.37 45.45 45.16 50.11 49.51 49.09 50.99 50.85 50.56 46.96 45.79 44.82 42.44 38.93
54.62 54.49 54.45 54.52 54.76 54.45 54.23 53.98 53.98 53.53 53.16 52.34 51.13 50.09 49.47 49.61 41.96 46.91 45.26 39.37 30.25 25.01 37.59 34.38 33.88 36.34 35.40 37.29 38.69 40.26 40.64 39.31 36.91 35.33 35.88 43.51 45.77 48.47 51.63 47.87 49.86 49.12 41.58 35.41 34.52 34.92 38.20
54.39 54.38 54.81 54.70 54.41 54.25 54.09 54.13 53.94 53.49 53.00 51.75 49.85 49.00 47.95 50.57 48.47 47.10 40.42 34.78 24.94 33.96 31.52 35.72 35.71 34.36 33.13 37.55 37.08 38.30 36.32 35.73 40.61 38.24 34.76 32.48 36.64 45.85 49.78 49.08 46.68 46.42 45.31 35.58 30.39 32.76 38.99
54.18 54.39 54.42 54.37 54.33 54.11 54.09 53.90 53.70 53.29 52.33 51.01 49.22 43.65 44.73 47.26 50.26 43.87 37.10 27.17 27.50 31.10 36.05 34.48 33.69 30.91 31.54 36.17 35.32 35.37 34.72 36.01 39.31 38.97 31.88 32.98 34.05 42.58 45.94 50.90 51.58 45.85 43.69 46.64 37.25 32.29 34.85
54.03 53.84 53.75 54.19 54.29 54.07 54.09 53.90 53.56 53.29 52.27 50.92 43.18 39.95 42.14 49.86 45.16 39.83 33.24 30.29 30.91 37.35 37.19 35.76 28.85 31.74 27.40 30.25 30.80 30.97 33.24 39.41 39.65 41.59 39.94 36.00 31.10 39.29 44.96 48.99 50.67 50.03 48.48 40.45 36.01 33.29 28.98
53.68 53.56 53.68 53.91 54.17 53.98 54.15 54.07 53.58 52.97 51.71 50.24 39.45 38.20 45.31 49.25 41.86 35.62 28.50 28.52 34.72 39.21 39.77 34.64 31.95 29.88 29.69 28.73 30.27 30.57 32.71 39.16 41.11 39.93 42.17 36.79 35.76 36.25 41.99 42.37 44.20 44.41 45.43 42.63 43.62 37.55 38.14
53.87 53.76 53.92 54.05 53.98 53.98 54.23 54.00 53.31 52.09 50.95 45.20 36.97 33.22 45.24 44.19 34.79 30.07 28.94 33.82 39.99 37.07 39.11 36.27 35.22 33.24 30.10 31.30 30.00 30.79 33.09 36.94 42.55 41.30 36.74 39.30 37.41 34.84 36.22 44.75 44.98 43.90 45.33 40.35 42.69 36.96 34.00
53.76 53.41 53.81 53.68 53.66 53.82 53.92 53.53 52.81 51.68 51.17 45.59 37.42 35.22 44.24 41.61 29.32 29.32 33.66 36.98 38.73 37.14 35.82 35.66 34.13 34.92 34.20 30.45 27.33 33.92 36.06 41.57 42.81 40.20 37.17 39.53 36.03 26.71 34.89 37.06 42.11 40.23 41.85 43.16 42.52 36.82 34.96
53.03 52.97 52.91 53.13 53.30 53.25 53.95 53.47 52.69 51.78 51.47 41.87 37.38 31.75 35.91 36.01 35.05 31.29 32.61 34.46 36.01 41.70 39.40 38.03 36.05 35.04 32.04 29.58 31.77 31.08 34.33 40.54 41.17 40.17 44.84 41.32 35.64 29.71 28.97 30.38 35.27 33.34 36.34 38.66 39.53 37.33 38.08
52.93 52.82 52.89 52.91 53.11 53.38 53.76 53.49 53.01 51.93 51.30 42.55 35.05 31.46 33.54 29.88 31.24 31.97 34.25 34.82 34.91 35.79 40.08 38.23 35.34 36.16 32.12 26.16 27.80 29.63 33.93 34.39 39.26 42.16 40.05 37.87 29.85 31.87 32.56 34.54 35.17 34.44 34.67 36.91 38.26 42.30 41.01
53.10 52.90 53.13 53.15 53.38 52.83 52.75 53.18 52.89 51.93 50.56 40.57 35.32 34.63 34.73 34.32 35.24 35.94 34.95 33.50 34.66 36.28 36.51 36.17 35.39 37.03 34.74 28.37 29.87 27.48 31.78 30.96 31.83 36.03 36.25 37.66 29.57 31.51 30.85 35.15 35.85 34.04 38.50 41.05 42.10 45.43 42.76
53.27 53.14 53.25 53.27 53.27 52.56 52.70 52.71 52.77 51.94 48.81 39.40 38.66 40.13 40.49 38.48 36.88 35.67 35.72 36.51 36.28 38.13 39.58 40.71 38.73 36.81 35.40 36.35 36.50 35.13 35.03 33.90 34.65 34.15 34.37 34.02 32.77 29.50 25.46 33.98 35.94 36.76 40.95 43.23 45.87 44.06 44.09
53.16 53.18 53.23 53.05 52.47 52.44 52.79 52.75 53.02 52.92 51.49 47.60 45.51 44.93 39.21 34.74 36.88 36.76 37.37 38.11 37.45 38.65 35.84 39.08 39.71 37.82 40.71 44.11 40.67 36.62 33.09 34.39 35.60 35.96 37.34 33.55 33.58 33.25 26.26 30.59 33.05 40.71 44.98 45.52 43.55 43.71 44.74
53.28 52.89 52.81 52.61 52.38 52.85 53.04 53.08 53.16 53.60 52.91 49.16 48.56 45.12 40.25 34.59 37.45 37.77 38.50 38.75 39.25 39.01 38.18 38.37 40.05 40.44 42.20 36.18 29.77 27.01 26.88 26.98 31.66 36.44 36.43 37.21 34.44 31.43 27.03 28.57 40.28 41.23 42.09 41.72 39.93 40.11 45.15
52.73 52.46 52.40 52.56 53.02 52.89 53.06 53.25 53.60 53.68 53.48 50.95 49.12 48.67 42.92 37.06 36.77 40.11 38.73 39.06 35.98 35.75 37.66 38.67 41.76 41.30 40.01 36.06 30.84 25.03 23.73 30.26 31.27 32.45 37.37 36.75 36.62 32.63 31.44 29.93 33.36 38.78 42.94 47.01 47.73 35.71 45.56
52.40 52.12 52.56 52.60 52.46 52.75 53.25 53.52 53.70 53.78 53.52 51.30 49.34 49.09 44.11 37.93 40.14 40.52 38.30 37.76 39.24 36.93 35.47 38.23 39.71 37.36 38.11 34.26 31.16 29.20 27.87 33.04 31.38 30.55 30.28 31.88 32.89 29.45 31.60 31.36 37.31 42.86 43.54 47.82 36.12 36.55 44.39
52.13 52.25 52.21 52.31 52.56 52.83 53.16 53.24 53.55 53.70 53.86 51.66 49.01 49.60 45.87 40.42 41.33 42.77 43.49 41.34 41.36 39.72 34.26 39.35 36.15 35.78 35.08 30.84 30.85 29.77 30.67 32.86 32.68 34.46 33.91 32.75 32.69 32.47 34.43 34.26 33.85 43.60 44.86 39.42 40.01 44.92 44.62
51.94 52.13 52.36 52.57 52.71 52.96 53.22 53.29 53.80 53.84 53.64 52.87 47.10 51.21 50.19 44.07 43.13 44.40 46.50 47.14 46.15 45.32 42.09 41.87 38.78 38.26 36.53 32.78 33.06 34.10 32.92 34.02 33.04 28.85 37.85 32.71 35.04 33.19 34.22 36.12 42.21 43.51 44.70 45.47 45.08 43.39 43.68

GFSGBSN_sfc_wetblb_048.txt.gz
Wetbulb
55.75 55.67 55.64 55.59 55.37 55.17 55.25 55.52 55.61 55.54 55.64 55.88 55.83 55.91 56.16 55.91 56.07 56.36 56.76 56.44 56.12 56.07 56.48 56.63 55.88 56.65 50.89 43.14 45.24 55.03 67.56 65.39 63.73 63.60 61.17 57.66 58.90 53.47 54.80 56.92 57.81 59.59 62.05 62.69 64.68 64.89 63.92
55.55 55.47 55.45 55.40 55.17 54.89 55.12 55.34 55.43 55.35 55.28 55.36 55.79 56.09 56.09 56.05 56.24 56.17 56.69 56.39 55.41 56.14 57.78 57.38 56.27 56.54 47.22 37.96 51.31 57.11 62.02 61.45 62.15 59.67 58.85 55.15 58.40 54.84 53.18 54.28 56.44 59.02 61.06 61.24 61.75 60.65 61.61
55.29 55.23 55.27 55.14 54.91 54.80 55.09 55.13 55.13 55.00 54.97 55.09 55.48 55.68 55.54 55.67 55.96 55.86 55.86 55.38 55.04 56.94 57.79 57.10 58.21 54.69 47.92 45.38 54.90 56.48 60.24 57.28 57.77 59.26 54.35 52.63 55.37 55.85 51.51 51.23 55.77 56.63 52.16 54.80 56.81 59.23 59.42
55.08 54.97 55.20 54.99 55.02 55.05 54.95 55.02 55.01 54.96 55.05 55.31 55.27 55.52 55.24 55.40 55.25 55.08 54.82 54.35 54.99 57.06 56.99 58.17 59.07 52.86 45.49 54.73 55.37 56.37 59.32 56.61 58.76 53.95 51.66 52.57 52.46 50.79 48.96 52.19 50.16 50.03 50.39 47.55 55.74 58.34 60.24
54.91 54.90 55.00 54.92 55.00 55.10 55.21 55.01 54.89 55.19 55.32 55.10 55.14 54.99 54.85 54.67 54.39 53.86 53.43 53.74 55.54 59.02 58.63 59.54 52.37 47.80 44.22 58.55 49.80 50.15 52.86 54.24 56.46 54.83 53.72 55.91 49.84 46.17 48.31 45.44 42.78 43.43 44.19 48.15 52.50 58.82 59.51
54.97 55.04 55.08 55.18 54.97 55.23 55.30 55.26 55.16 55.22 55.01 54.89 54.61 54.34 54.12 53.86 53.35 52.93 52.76 53.83 58.60 58.24 58.07 57.90 56.08 43.61 45.95 44.48 46.67 48.03 49.66 57.21 54.77 53.78 51.79 47.92 44.41 40.59 40.59 41.29 36.86 41.07 41.90 46.66 49.72 53.89 58.15
54.96 54.96 55.04 55.01 54.94 54.87 55.34 55.28 55.11 55.11 55.07 54.77 54.52 54.07 53.72 53.13 52.73 52.28 49.82 41.13 39.93 38.57 40.81 36.26 39.01 41.04 44.07 45.88 47.92 46.28 47.73 53.83 51.06 48.24 42.64 43.85 39.37 38.68 41.83 45.21 45.68 46.12 46.64 47.76 51.27 54.41 55.97
55.19 55.03 55.10 54.81 54.73 54.82 54.85 55.05 54.88 54.82 54.72 54.48 54.07 53.80 53.27 52.60 52.23 52.25 45.17 41.49 42.50 43.34 35.79 40.88 41.73 41.53 43.72 43.33 42.24 46.79 47.81 49.77 47.29 42.47 44.00 40.53 38.21 43.40 44.37 44.78 45.28 44.96 42.09 44.24 49.30 53.72 53.22
55.12 54.93 54.84 54.74 54.90 55.11 54.95 54.76 54.47 54.50 54.37 54.07 53.82 53.35 52.60 51.83 51.57 46.28 42.79 42.22 44.88 39.18 32.91 38.51 41.47 41.72 42.76 40.94 41.41 43.45 46.42 45.21 46.42 43.53 43.27 39.19 42.15 46.32 44.79 43.40 42.39 43.08 41.28 42.32 45.83 49.55 53.35
54.78 54.88 55.11 54.83 54.73 54.84 54.76 54.39 54.13 54.15 53.84 53.47 53.49 52.93 51.75 51.08 44.95 42.96 42.18 44.11 45.28 41.80 29.45 36.83 38.50 42.58 43.31 42.22 39.79 47.26 47.25 44.94 44.11 44.53 44.82 43.20 47.24 45.80 43.53 42.62 43.36 35.74 46.45 47.27 45.69 44.94 41.07
54.65 54.86 54.89 54.93 54.80 54.52 54.53 54.13 54.12 53.92 53.61 53.37 53.22 52.21 50.96 50.45 41.25 41.71 44.40 44.80 41.62 38.99 22.76 39.69 38.81 45.07 41.72 38.43 40.41 42.97 49.01 46.61 41.07 41.73 43.43 43.70 44.59 45.21 43.15 43.50 45.66 42.04 46.81 45.61 45.87 43.14 41.09
54.68 54.51 54.37 54.32 54.36 54.37 54.15 54.00 54.02 53.74 53.41 53.02 52.40 51.35 50.97 46.16 42.61 45.41 45.60 43.42 39.20 30.46 24.18 35.18 38.86 37.70 37.92 39.26 40.60 42.46 45.49 47.42 46.99 43.22 42.88 42.40 47.38 47.43 47.40 48.35 48.14 48.74 44.78 43.68 42.47 40.22 36.17
54.48 54.37 54.26 54.14 54.31 54.39 53.90 53.90 53.76 53.55 52.98 52.32 51.29 50.27 48.86 48.73 43.66 46.35 44.31 38.49 29.38 23.92 35.97 32.94 32.42 35.01 33.93 35.67 37.20 38.26 39.63 38.50 35.07 33.22 33.95 40.86 43.09 45.49 47.76 44.93 47.81 46.45 41.78 33.22 31.75 32.96 36.58
54.33 54.40 54.44 54.41 54.14 54.14 53.92 53.94 53.80 53.21 52.75 51.82 49.90 48.90 46.59 49.55 47.72 45.81 39.48 34.12 23.07 32.73 29.96 34.14 34.16 32.89 31.61 34.96 35.02 36.44 35.92 34.95 39.28 36.74 33.23 32.38 35.04 43.29 46.94 45.40 43.62 44.61 40.98 33.21 27.86 29.65 38.14
54.27 54.40 54.38 54.23 54.10 54.17 53.90 53.86 53.43 53.02 52.47 51.10 49.12 41.35 42.84 45.71 47.83 41.22 36.93 26.60 26.62 29.31 34.57 32.99 32.01 29.27 29.53 33.45 33.17 33.58 33.38 35.42 37.73 37.03 30.97 30.65 33.15 42.36 44.82 45.81 47.21 43.08 40.46 43.48 35.66 31.81 33.34
54.45 54.16 54.01 53.88 54.02 54.04 53.88 53.76 53.37 53.13 52.25 50.92 41.54 38.09 41.20 47.97 43.32 39.27 32.89 29.56 29.88 35.58 35.80 34.57 26.99 30.14 25.97 28.50 29.74 30.05 30.19 38.30 37.99 40.01 41.04 34.81 29.52 38.72 42.80 45.73 46.88 45.37 47.02 38.62 35.41 31.09 28.23
53.96 53.89 53.62 53.43 54.06 53.86 54.06 53.90 53.47 52.78 51.80 49.82 38.06 36.91 43.44 46.75 40.41 35.35 27.66 27.01 33.27 37.82 38.73 33.94 30.80 28.62 28.76 27.81 29.12 28.71 30.75 37.59 40.16 38.91 39.47 34.10 33.50 34.95 40.46 39.95 40.96 41.61 44.09 41.48 42.12 37.87 33.32
53.73 53.43 53.63 53.84 53.69 53.63 54.02 53.84 53.23 52.04 50.83 45.57 35.51 32.00 44.14 42.74 34.37 29.48 28.03 31.93 38.82 35.88 38.12 35.07 34.18 32.55 30.18 30.76 28.74 29.74 31.40 35.61 41.79 38.96 34.57 37.53 33.50 32.27 34.84 42.08 42.97 41.13 39.04 40.90 41.63 36.30 34.22
53.72 53.41 53.33 53.60 53.61 53.92 54.15 53.69 52.68 51.70 51.10 44.45 36.53 35.50 42.79 40.39 28.09 27.83 32.11 35.10 37.45 35.76 34.98 34.58 33.01 33.69 33.23 30.06 25.88 32.45 34.69 40.84 41.79 38.42 34.68 35.88 35.83 24.77 31.27 34.83 37.78 36.86 38.61 35.26 34.56 38.60 41.16
53.58 53.37 53.15 53.52 53.72 53.89 53.62 52.91 52.36 51.57 51.11 41.33 35.80 31.23 34.70 35.38 32.92 29.33 31.80 32.50 34.25 40.37 37.65 37.30 35.76 34.73 31.05 28.40 30.15 29.01 32.97 39.69 41.11 39.85 44.14 39.91 31.25 28.14 26.12 30.21 33.46 31.77 35.46 36.77 32.87 30.89 38.16
53.45 53.39 53.29 53.40 53.36 53.01 53.06 53.24 52.51 51.58 50.61 41.58 34.34 31.07 32.40 28.89 30.90 32.54 36.08 33.37 33.26 34.04 39.11 39.51 35.80 35.98 32.77 26.81 27.56 28.41 32.05 34.72 38.90 42.46 38.52 34.44 27.78 31.60 31.94 33.77 34.42 33.96 34.08 35.61 33.68 35.02 33.72
53.22 53.33 53.43 52.80 52.76 52.64 52.55 53.26 52.84 52.08 49.64 38.88 34.84 33.73 34.03 32.28 36.78 35.84 35.55 31.69 34.07 35.59 35.78 34.97 35.07 37.27 36.79 31.73 30.75 28.48 31.09 29.13 31.88 35.83 33.92 33.07 28.24 32.52 29.61 34.22 34.75 33.60 36.50 37.59 37.76 38.03 38.72
52.75 52.89 52.80 52.57 52.53 52.53 53.04 53.10 53.06 52.15 48.06 38.43 39.45 41.59 40.62 38.35 37.39 35.88 35.66 36.74 36.68 38.21 38.03 39.90 39.32 36.92 34.09 36.56 39.37 38.83 34.17 32.56 32.26 32.72 30.82 31.86 29.74 30.84 24.83 31.67 32.52 32.64 37.43 40.78 41.25 41.81 42.10
53.00 52.65 52.28 52.36 52.79 53.12 53.35 53.26 53.26 53.03 50.83 46.66 45.54 44.79 39.72 35.17 36.91 37.06 37.95 38.62 38.00 38.70 37.48 38.74 39.69 37.83 39.93 41.28 39.03 39.11 36.77 34.88 34.56 33.27 33.30 29.74 30.69 32.81 25.35 29.33 27.22 38.04 45.08 45.12 41.56 41.85 42.32
52.73 52.27 52.19 52.70 53.06 52.89 53.04 53.41 53.37 53.64 52.85 48.92 48.52 45.27 40.76 34.91 37.95 38.18 39.11 38.98 39.15 39.50 38.19 38.93 40.31 42.22 39.39 38.82 32.33 26.51 25.57 26.05 29.91 33.07 32.44 33.67 32.99 29.44 26.94 27.62 33.86 41.01 41.24 40.34 40.16 38.64 43.00
52.25 52.31 52.62 52.42 52.48 52.73 53.02 53.43 53.51 53.80 53.37 50.75 49.27 49.10 43.21 37.76 37.52 40.53 38.75 39.46 36.29 35.28 37.13 39.32 40.79 40.05 38.17 36.03 33.20 26.89 23.95 21.85 26.44 28.79 34.05 33.06 36.83 31.22 31.64 27.81 32.12 38.52 41.67 44.80 45.68 35.50 43.46
52.21 52.14 52.29 52.54 52.91 53.06 53.35 53.51 53.63 53.53 53.37 50.74 48.96 49.45 44.21 38.60 40.97 40.94 38.63 38.18 39.84 36.46 34.24 37.80 38.95 36.52 36.74 32.83 30.41 28.70 27.31 32.93 27.88 26.68 28.71 31.35 32.49 27.70 28.30 29.75 34.70 40.07 40.50 45.94 37.87 36.66 43.16
52.31 52.08 52.34 52.84 53.12 53.04 53.28 53.61 53.70 53.78 53.69 51.10 46.32 48.90 46.36 41.12 41.99 43.21 43.43 41.54 41.75 39.28 34.42 39.06 36.20 33.92 34.52 31.54 30.76 29.80 29.70 31.96 31.42 33.83 31.81 30.57 29.72 28.86 31.01 31.11 32.83 41.16 43.00 38.58 40.04 42.73 42.97
52.09 52.33 52.67 52.55 52.69 52.96 53.39 53.71 54.10 53.71 53.57 52.04 43.60 51.14 50.13 44.43 42.96 45.73 46.33 46.97 46.40 46.06 42.38 41.14 38.55 38.14 38.33 34.49 33.93 33.57 31.78 32.61 31.96 28.69 36.76 32.61 34.45 32.51 34.21 33.87 40.14 41.67 42.21 43.36 44.05 42.52 43.51

GFSGBSN_sfc_wetblb_051.txt.gz
Wetbulb
55.75 55.81 55.78 55.75 55.64 55.73 55.76 55.79 55.83 55.91 55.68 55.68 55.76 55.76 55.94 55.87 55.86 56.03 56.31 56.29 56.19 56.34 56.91 57.62 56.64 56.20 54.49 48.59 48.14 57.95 66.74 65.49 65.39 65.28 62.15 59.20 60.72 60.12 56.25 59.62 62.60 61.97 63.62 64.93 65.22 65.73 65.80
55.42 55.50 55.73 55.67 55.66 55.49 55.64 55.62 55.55 55.50 55.31 55.60 56.03 56.16 56.00 56.07 56.08 56.06 55.67 55.56 55.50 56.00 57.79 58.47 56.42 56.79 52.33 44.32 54.28 58.83 63.53 63.29 64.36 63.03 61.86 61.93 60.75 61.71 59.02 60.88 60.35 62.35 62.30 63.58 64.07 63.99 64.76
55.35 55.45 55.55 55.57 55.69 55.44 55.35 55.27 55.22 55.28 55.27 55.41 55.90 55.82 55.71 55.79 55.96 55.24 55.17 54.84 54.94 56.10 57.81 57.70 58.21 55.66 50.63 48.93 57.24 58.89 62.73 62.00 64.70 63.10 60.50 62.57 63.16 60.55 57.84 56.19 60.95 60.77 58.12 59.28 60.18 62.05 61.98
55.32 55.35 55.48 55.47 55.46 55.26 55.19 55.05 55.04 55.29 55.39 55.43 55.19 55.61 55.39 55.46 55.35 55.08 54.83 53.93 54.84 56.70 57.62 58.88 59.21 55.50 49.68 56.81 59.42 59.54 61.79 60.65 63.19 61.83 59.69 58.98 60.53 60.42 54.70 56.14 53.62 53.92 54.76 54.07 60.05 61.44 62.35
55.23 55.43 55.49 55.41 55.38 55.13 55.08 55.03 54.91 55.48 55.50 55.36 55.10 55.10 54.95 54.74 54.60 54.10 53.40 54.63 55.86 58.91 58.99 59.35 56.42 53.56 46.83 58.75 49.99 51.75 54.52 57.22 58.90 61.89 57.63 58.15 56.46 55.52 54.97 51.77 50.03 51.69 49.00 52.18 56.59 61.71 61.75
55.53 55.12 55.26 55.34 55.17 55.09 55.44 55.24 55.18 55.36 55.19 54.99 54.72 54.47 54.33 54.00 53.64 53.15 52.92 55.11 60.43 59.79 59.05 58.88 56.36 48.91 49.21 46.19 49.04 49.99 54.50 60.14 56.58 56.97 54.01 52.09 53.86 49.75 49.98 49.43 43.14 47.16 48.15 52.96 55.87 59.86 60.82
55.62 55.38 55.25 55.20 54.99 54.99 55.12 55.05 54.83 54.98 55.11 54.94 54.41 53.98 53.89 53.56 52.90 52.46 51.78 48.50 47.70 47.26 47.86 43.53 43.95 44.32 46.56 48.72 50.81 50.87 51.74 56.78 55.78 52.05 46.81 49.67 46.30 45.09 47.17 49.42 50.75 51.15 50.66 51.95 56.81 60.20 59.35
55.39 55.30 55.01 54.96 54.71 54.89 54.61 54.70 54.55 54.71 54.79 54.67 54.04 53.79 53.46 52.72 52.42 52.33 50.12 48.17 47.33 47.95 42.68 44.43 44.03 44.56 46.43 47.14 45.46 48.25 53.60 53.09 52.27 46.95 48.01 45.76 43.27 47.87 49.03 48.07 48.51 48.73 48.84 51.21 55.61 57.22 58.11
55.17 55.04 54.81 54.87 54.98 55.06 54.90 54.61 54.38 54.42 54.34 54.10 53.85 53.46 52.72 52.19 52.06 50.69 48.74 48.18 50.42 47.33 42.04 43.04 45.42 45.42 45.60 47.01 45.05 45.64 49.80 48.53 50.51 48.01 46.58 44.24 46.14 48.52 46.68 45.77 45.23 46.92 47.11 49.44 50.52 52.09 56.44
54.96 55.15 55.27 54.98 54.82 54.96 54.63 54.57 54.34 54.22 53.97 53.75 53.66 53.05 52.08 51.10 49.36 47.85 47.37 49.28 50.53 47.97 39.84 40.85 42.51 44.76 46.76 45.48 43.53 48.49 52.80 48.28 46.53 48.31 48.19 47.85 50.71 46.91 45.96 44.86 46.20 43.18 48.63 50.04 49.78 48.87 49.81
54.94 55.09 55.19 54.98 54.82 54.55 54.52 54.46 54.28 54.14 53.72 53.46 53.27 52.43 51.33 50.58 49.56 48.11 49.58 50.75 47.02 45.19 31.48 40.83 42.09 48.31 46.84 43.87 44.62 45.34 52.54 50.66 44.75 45.32 48.02 47.43 47.78 47.08 45.38 45.97 47.55 45.17 48.31 47.13 48.96 48.85 48.77
54.82 54.65 54.53 54.66 54.49 54.42 54.24 53.93 54.09 53.69 53.56 53.28 52.72 51.64 51.03 49.76 48.93 50.53 50.84 48.74 46.85 38.05 30.17 37.29 41.75 40.53 41.58 43.32 43.06 45.44 47.86 50.44 49.05 46.44 47.21 47.13 52.66 51.20 49.92 49.95 48.64 49.39 48.36 47.67 47.44 47.03 43.20
54.81 54.49 54.44 54.27 54.57 54.34 54.14 53.89 53.89 53.50 53.13 52.79 51.51 50.46 49.64 51.03 47.75 51.94 49.82 46.43 37.53 32.34 38.89 35.50 37.24 39.53 39.52 38.71 40.46 42.33 42.87 42.40 41.40 40.20 40.80 43.91 46.01 49.76 52.19 48.62 50.32 48.50 45.50 41.09 39.25 38.95 39.86
54.82 54.98 54.78 54.73 54.38 54.22 54.05 54.03 53.91 53.44 53.08 52.06 50.13 48.42 49.26 51.82 51.59 49.36 47.22 42.67 31.50 35.38 35.62 39.49 38.60 38.25 36.38 38.29 38.69 39.56 39.82 39.67 42.17 40.61 41.20 39.27 38.72 45.98 49.90 49.17 47.57 47.49 46.71 40.82 36.11 37.69 39.92
55.14 54.96 54.72 54.38 54.11 54.11 53.93 54.03 53.71 53.24 52.54 51.36 48.85 47.00 49.60 50.78 50.24 48.05 45.72 35.85 35.04 35.86 38.29 37.14 37.19 34.91 34.98 36.93 37.39 37.61 38.39 39.00 40.59 40.92 37.42 38.32 38.55 45.19 47.33 49.06 50.02 47.64 44.63 49.07 43.67 44.16 42.14
54.57 54.38 53.82 53.96 54.07 53.89 53.99 53.89 53.52 52.99 52.32 50.99 45.46 45.02 47.99 50.40 47.21 47.12 42.83 35.27 36.70 39.74 39.93 39.16 33.60 36.06 32.71 34.48 34.84 35.78 35.78 41.17 39.98 41.39 43.78 39.35 35.63 43.27 45.23 48.18 49.57 48.93 51.35 43.73 44.81 37.31 37.05
54.22 53.90 53.36 53.30 53.99 53.95 54.20 54.05 53.34 52.73 51.60 49.77 44.54 45.34 48.99 49.04 48.20 44.04 38.06 35.78 37.88 41.54 41.86 38.27 35.76 34.86 35.34 34.08 35.29 34.99 35.35 40.07 41.55 40.24 43.20 41.24 37.20 39.44 43.91 44.58 45.55 46.19 45.87 47.93 47.95 45.28 39.75
54.11 53.73 53.75 53.97 53.95 54.05 54.18 53.62 52.57 51.72 50.38 48.28 43.05 41.18 48.88 47.96 41.85 38.52 37.70 36.96 39.34 40.51 42.10 40.07 39.39 38.04 36.12 35.76 34.49 34.93 34.86 38.32 43.24 41.59 36.65 40.91 38.71 33.91 38.52 46.26 47.29 45.63 45.94 47.78 43.73 42.95 45.46
53.77 53.77 54.06 54.06 53.83 53.47 53.69 53.09 52.34 51.17 50.21 46.55 40.09 40.16 48.23 47.93 36.69 36.26 37.87 37.68 39.15 39.83 39.76 39.08 37.56 38.50 38.78 36.17 32.85 36.37 38.03 42.60 43.22 41.03 38.22 40.80 36.67 30.45 35.19 42.28 43.63 42.63 42.93 43.77 45.57 45.78 45.01
53.47 53.67 53.60 53.14 53.14 53.22 53.26 52.90 52.08 51.21 50.37 47.24 42.10 38.46 42.20 42.23 40.20 36.52 33.13 35.52 36.13 41.68 40.21 40.94 39.01 39.39 37.05 35.17 37.65 34.53 36.69 41.13 43.21 42.10 44.32 42.64 36.45 32.94 31.00 34.62 38.05 37.09 39.49 41.03 42.06 44.08 45.39
53.44 52.97 52.79 52.98 53.00 52.91 52.97 53.07 52.29 51.50 49.29 47.10 41.40 37.76 38.40 35.83 37.74 37.94 37.40 35.90 34.76 34.70 40.63 41.45 38.42 37.54 35.91 32.87 33.76 34.15 36.95 38.79 41.50 42.88 42.18 40.08 32.32 34.36 35.31 36.19 36.68 36.12 37.02 39.30 39.11 43.67 43.01
53.19 52.51 52.56 52.89 52.87 53.19 53.34 53.62 52.97 52.01 48.43 45.13 41.51 40.33 41.03 38.94 37.92 37.40 36.53 34.90 34.38 36.23 36.12 35.02 35.40 37.82 38.33 35.35 35.59 32.52 35.11 36.92 37.21 40.70 39.39 39.00 33.10 34.31 32.06 35.99 37.12 35.30 38.60 39.79 40.85 42.11 42.57
53.27 52.37 52.47 52.97 53.09 53.56 53.65 53.64 53.23 52.08 48.82 45.12 44.10 44.44 42.17 39.18 38.15 36.19 36.71 37.08 37.02 38.60 39.03 39.29 38.80 36.78 35.42 35.93 39.90 40.52 41.35 40.17 38.00 37.71 37.99 36.70 34.64 31.68 28.45 36.14 35.93 34.01 39.44 41.00 43.46 45.25 45.81
52.61 52.57 53.17 53.13 53.26 53.32 53.18 53.50 53.54 52.87 51.15 49.66 47.17 45.97 40.59 36.29 36.96 37.72 38.49 39.30 38.55 39.47 37.43 39.23 40.29 38.22 40.88 44.67 43.51 42.79 41.36 40.21 38.95 39.18 40.46 35.93 33.16 33.07 29.23 31.19 26.87 41.63 47.66 46.48 44.92 44.58 46.02
52.34 52.69 53.11 53.00 53.05 53.03 53.21 53.65 53.63 53.48 52.60 50.82 49.69 46.19 41.71 36.60 39.00 38.84 39.46 39.09 39.93 40.15 38.07 38.71 40.64 43.11 44.38 41.19 36.13 33.26 32.24 33.48 36.14 38.28 38.77 39.65 35.90 30.75 27.48 30.92 36.11 42.30 43.11 42.57 43.94 42.33 45.85
52.38 52.24 52.72 52.90 53.38 53.62 53.65 53.71 53.79 53.52 52.98 51.91 50.46 50.36 44.53 39.16 38.40 41.42 39.31 39.46 36.76 35.96 36.18 38.13 43.41 45.66 42.51 38.55 35.04 28.33 26.88 29.47 29.77 32.85 39.35 38.53 38.57 33.60 30.14 28.42 31.29 38.35 42.89 45.97 46.58 40.97 44.19
52.39 52.63 52.78 53.09 53.33 53.48 53.58 53.85 53.85 53.65 53.10 52.64 51.19 51.68 45.64 40.13 43.75 42.32 39.39 38.54 40.49 37.69 35.36 37.26 39.20 39.96 41.59 36.81 31.67 30.07 29.74 33.00 28.64 29.16 28.31 31.05 32.61 29.57 30.00 28.38 33.96 38.61 41.72 47.37 39.42 39.82 44.00
52.05 52.53 52.92 53.17 53.17 53.19 53.46 53.77 53.96 53.95 53.85 52.85 50.63 51.07 47.73 42.92 44.49 44.08 44.27 41.60 42.00 39.83 35.63 38.51 39.45 37.97 37.37 33.00 32.79 32.29 30.67 32.83 31.90 34.06 31.80 30.94 30.55 30.90 31.64 28.72 28.71 40.39 41.70 41.43 43.53 46.95 45.41
52.05 52.53 53.09 53.38 53.17 53.48 53.85 54.14 54.12 53.99 54.05 52.09 49.69 51.82 51.22 45.48 45.25 48.13 47.56 47.68 46.68 45.58 42.54 41.49 38.94 39.27 38.80 34.05 34.79 34.76 32.11 33.89 34.05 29.46 36.59 30.44 35.10 34.61 35.72 35.27 40.52 43.31 42.49 45.41 48.48 47.49 47.00

GFSGBSN_sfc_wetblb_054.txt.gz
Wetbulb
56.02 56.31 56.35 56.36 56.31 56.07 56.11 56.09 56.27 56.29 56.37 56.16 56.13 56.55 56.67 56.39 56.11 56.33 56.51 56.49 56.29 56.28 56.89 58.47 57.72 56.95 57.80 53.86 50.34 60.18 66.58 69.06 65.47 66.87 64.65 62.92 61.65 60.51 57.56 60.22 61.85 62.98 64.93 66.01 66.36 66.39 66.96
55.99 56.13 56.15 56.21 56.20 55.90 55.81 55.92 55.93 55.89 55.84 56.10 56.34 56.38 56.22 56.30 56.55 56.39 56.02 55.65 55.57 55.98 57.70 59.17 57.44 57.83 56.58 48.98 58.20 61.96 64.62 64.15 61.79 64.36 64.91 62.44 60.46 60.94 58.78 58.73 59.15 62.55 63.58 66.22 65.92 66.04 66.60
55.98 56.08 56.08 56.00 55.91 55.75 55.66 55.62 55.71 55.55 55.66 55.73 56.23 56.07 55.95 56.07 56.04 55.74 55.35 54.97 55.36 56.45 57.93 58.04 58.41 58.53 55.07 52.68 59.00 63.56 64.61 63.73 64.85 62.66 61.44 61.89 62.70 60.55 57.91 57.40 61.62 61.26 60.48 62.88 62.99 64.40 63.41
56.03 55.89 55.93 55.99 55.77 55.95 55.56 55.35 55.58 55.62 55.69 55.79 55.73 55.76 55.60 55.54 55.11 54.87 54.47 54.79 55.62 57.19 57.96 59.00 59.33 59.81 52.93 57.49 59.03 59.59 63.07 62.64 66.68 64.48 63.53 64.24 62.45 61.38 57.04 58.20 55.20 55.10 58.77 57.22 63.79 61.88 63.42
55.95 55.69 55.52 55.78 55.53 55.72 55.87 55.49 55.37 55.61 55.46 55.44 55.30 55.24 55.16 55.03 54.82 54.30 53.89 54.77 58.21 58.79 59.13 59.54 59.97 56.95 49.14 58.72 52.32 54.13 56.00 60.35 64.51 61.00 62.84 63.47 60.94 59.02 58.80 52.61 50.68 52.15 51.19 55.36 60.04 63.85 62.66
55.74 55.61 55.46 55.39 55.36 55.37 55.57 55.49 55.30 55.24 55.37 55.17 55.03 54.63 54.53 54.39 54.12 53.54 53.08 54.31 60.32 59.88 60.15 60.57 58.55 52.73 51.31 49.25 52.79 53.16 58.36 61.99 59.95 59.10 55.38 56.01 56.11 53.42 53.85 51.31 46.52 50.08 50.02 54.37 56.51 62.94 63.98
55.82 55.51 55.55 55.31 55.24 55.03 55.09 54.96 54.85 55.05 55.17 55.00 54.74 54.28 54.22 53.81 53.30 52.98 55.25 54.52 55.43 50.94 51.81 48.22 48.10 47.95 48.89 51.96 54.10 54.11 60.70 59.79 58.71 57.74 50.93 52.72 50.60 48.41 50.26 52.13 52.36 52.72 53.10 52.83 59.63 62.62 62.64
55.62 55.45 55.36 55.07 54.90 54.68 54.45 54.52 54.80 54.63 54.78 54.69 54.43 54.26 53.83 53.09 52.75 52.71 56.07 51.85 50.42 51.77 47.31 48.73 48.26 48.84 49.78 50.74 49.15 51.68 58.62 55.92 54.38 51.98 52.85 49.68 47.01 52.12 52.70 51.88 50.98 51.21 52.30 53.62 57.76 60.71 62.16
55.37 55.35 55.18 55.16 55.03 54.91 54.62 54.61 54.71 54.50 54.50 54.40 54.32 53.95 53.19 52.48 52.66 55.87 53.15 51.64 55.09 54.03 47.58 47.05 48.61 48.27 48.20 50.43 47.53 48.46 54.14 54.61 53.68 51.11 50.36 48.33 49.90 51.65 50.52 50.37 49.01 49.74 49.41 52.06 54.10 57.14 59.46
55.42 55.34 55.54 55.26 55.07 54.86 54.73 54.57 54.65 54.38 54.26 54.20 54.20 53.68 52.54 50.88 52.77 54.77 52.82 54.85 56.22 54.55 44.26 44.45 45.70 47.23 49.20 49.41 46.50 50.86 54.28 52.29 51.60 51.31 51.93 50.43 52.78 49.63 49.00 48.22 49.50 47.00 50.30 50.20 52.73 53.08 52.87
55.84 55.67 55.36 55.25 55.11 54.90 54.61 54.61 54.38 54.26 54.16 54.13 53.77 52.87 51.61 50.45 55.15 53.44 53.90 56.33 54.47 51.35 35.93 43.90 45.03 50.77 49.35 47.08 47.25 47.98 54.11 52.89 48.52 49.45 52.49 50.02 50.60 50.05 48.32 49.11 50.79 48.38 51.25 49.62 49.56 51.87 53.41
55.92 55.81 55.18 55.01 54.78 54.43 54.38 54.13 54.24 54.09 54.03 53.75 53.21 52.16 51.11 55.05 56.01 54.85 56.23 55.02 51.19 42.17 35.40 40.78 44.65 43.79 44.73 46.02 45.57 48.32 49.36 53.04 52.75 48.95 50.85 50.91 54.95 53.38 52.54 52.66 51.96 51.87 50.06 49.58 49.55 47.95 46.09
55.76 55.65 55.16 54.86 54.39 54.32 54.09 54.15 54.24 53.85 53.38 52.91 51.62 50.53 52.02 55.72 52.91 56.08 55.85 50.92 42.04 37.67 42.56 39.90 41.27 43.39 43.16 42.52 43.45 45.04 45.19 45.89 45.19 43.05 43.96 47.78 48.79 52.80 54.32 51.20 53.14 51.15 48.29 44.06 42.47 41.76 41.14
55.23 55.35 55.25 54.75 54.42 54.16 54.22 54.28 54.20 53.68 53.03 51.86 50.20 49.10 51.08 55.25 56.34 55.30 53.50 46.41 37.28 40.22 40.37 42.88 42.10 42.08 40.62 42.14 42.35 42.38 42.51 42.94 45.77 45.29 43.95 43.04 42.13 48.23 52.61 52.01 50.29 49.93 49.32 44.64 40.30 41.55 42.84
55.14 55.17 54.74 54.32 54.26 54.34 54.36 54.26 53.66 52.98 52.37 51.13 49.51 55.68 56.09 55.50 55.14 54.99 49.72 41.51 40.96 40.73 42.07 40.73 41.38 39.71 40.16 41.20 41.32 41.40 41.63 42.10 44.25 45.05 41.37 42.94 42.29 49.68 50.55 52.57 53.27 50.81 47.73 51.63 47.56 48.91 46.15
54.63 54.55 54.05 54.20 54.28 54.26 54.16 53.87 52.88 52.46 51.63 50.58 51.44 54.45 52.91 55.35 53.99 52.04 47.25 40.27 42.09 43.13 42.98 42.31 38.47 40.45 38.32 39.79 39.13 39.98 40.16 44.11 43.21 44.39 46.51 44.62 40.02 47.44 49.48 51.19 52.24 51.37 53.93 46.86 47.56 41.50 41.22
54.40 54.17 54.02 54.04 54.40 54.20 54.20 53.71 52.05 51.86 51.18 50.53 51.81 50.40 53.32 55.51 53.46 49.85 44.29 43.05 42.30 44.42 44.48 41.32 40.22 39.64 40.06 39.33 39.81 39.76 39.69 42.91 44.65 43.32 44.94 44.13 41.33 43.16 46.60 47.05 46.68 48.74 48.23 49.88 50.24 48.07 43.65
54.11 53.92 54.36 53.74 54.08 54.10 54.28 53.68 52.72 51.49 50.16 50.91 50.86 47.38 53.92 55.66 48.35 48.54 44.80 41.94 41.00 43.88 45.34 43.35 42.89 42.13 41.06 41.08 39.55 39.18 38.68 41.15 45.17 44.03 39.98 43.75 41.79 38.93 41.47 48.55 51.27 49.94 49.43 49.91 44.91 45.48 47.90
53.79 54.08 53.30 53.67 53.93 53.61 53.73 53.27 52.43 51.31 50.66 51.18 48.35 48.82 54.23 54.52 45.68 44.17 43.91 42.56 43.08 42.86 43.40 42.68 41.38 42.44 43.02 40.51 36.81 39.75 40.10 43.80 45.13 42.72 41.27 44.26 39.35 35.66 37.98 42.23 46.60 46.06 49.22 50.51 50.15 50.50 47.70
53.65 53.06 53.22 53.26 53.36 53.57 53.56 53.42 52.36 51.67 50.85 51.44 48.82 46.21 48.97 48.89 47.58 42.20 41.01 41.01 40.43 44.15 43.42 43.94 42.97 43.66 41.71 40.07 41.96 38.18 39.31 42.88 44.83 43.68 44.66 43.75 40.25 37.77 35.09 38.42 41.56 40.58 45.04 46.78 47.66 45.53 46.87
53.71 53.46 52.79 53.32 53.47 53.67 53.67 53.83 52.72 51.79 50.98 50.87 48.66 43.67 44.42 41.54 41.36 41.50 42.44 40.45 36.18 37.05 42.81 44.14 41.42 41.55 39.49 36.70 38.04 38.05 39.94 40.95 43.46 44.21 45.01 43.34 37.20 39.36 39.84 39.93 39.89 40.03 40.48 42.55 42.69 46.52 45.59
53.51 53.03 53.40 53.48 53.86 53.92 53.92 53.97 53.11 52.28 51.02 52.16 47.74 45.42 48.24 43.60 42.90 42.39 40.73 40.14 38.24 38.63 39.09 37.84 38.68 40.19 39.05 38.01 39.17 36.76 39.63 39.46 39.59 43.26 42.36 44.05 36.37 38.36 36.33 39.18 38.99 37.54 40.62 42.34 43.22 44.44 46.11
53.11 53.09 53.42 53.73 53.82 53.55 53.41 53.93 53.40 52.31 51.31 51.21 51.33 49.78 46.76 40.66 39.79 37.73 37.44 37.86 37.68 40.01 40.26 41.25 40.23 37.79 35.79 38.59 43.42 41.90 44.67 44.49 43.44 41.06 41.07 40.24 38.65 36.61 33.30 38.24 37.66 35.05 40.34 43.17 44.55 46.37 46.86
52.83 53.13 53.32 53.52 53.55 53.42 53.46 53.73 53.54 52.89 51.84 53.07 50.91 48.29 43.68 39.75 40.57 38.86 39.12 40.43 39.50 40.37 38.43 40.03 40.73 38.28 42.19 46.72 46.46 45.24 44.88 43.21 42.27 42.06 43.82 39.05 37.75 37.75 33.46 36.33 28.14 38.83 44.14 47.02 46.24 47.51 49.60
53.13 53.11 53.05 53.36 53.73 53.79 53.75 53.80 53.26 53.27 52.31 54.76 53.42 48.25 44.06 39.27 41.75 40.99 41.20 39.34 40.26 40.59 38.55 39.49 41.46 44.77 47.33 44.30 38.09 36.30 36.58 36.61 39.26 42.02 41.09 40.70 38.56 34.72 31.98 32.95 36.36 40.46 46.14 46.14 45.71 46.84 51.38
53.05 52.90 53.11 53.42 53.61 53.56 53.84 53.75 53.73 53.17 52.68 55.44 53.24 52.85 47.11 42.85 41.53 44.43 41.04 40.49 37.69 37.05 38.06 39.51 44.12 47.83 46.08 40.58 37.37 31.60 30.23 32.83 33.04 35.83 43.05 40.58 40.97 35.65 34.29 28.47 27.90 37.47 41.24 45.41 48.45 41.48 49.38
52.72 52.78 53.09 53.42 53.34 53.42 53.51 53.86 53.99 53.54 53.16 54.32 53.34 54.91 48.32 45.14 47.64 43.96 41.19 40.18 41.67 39.21 37.64 40.49 42.09 42.50 44.15 38.35 34.70 33.04 32.09 36.15 30.05 30.83 33.96 35.58 35.61 33.28 32.82 30.72 35.98 40.82 40.54 42.58 37.89 42.30 47.43
52.47 52.76 53.34 53.48 53.30 53.36 53.74 53.92 54.19 54.16 53.44 53.94 52.47 55.42 51.44 47.07 49.19 48.61 46.69 42.79 44.61 41.67 38.30 42.34 41.39 40.83 38.43 34.63 34.80 35.05 33.95 34.28 33.74 35.51 35.20 34.09 31.89 32.29 33.78 30.77 29.40 42.64 38.69 37.81 43.20 48.36 47.62
52.51 52.92 53.52 53.50 53.65 53.80 54.05 54.46 54.27 54.32 53.99 53.10 51.55 53.47 54.08 47.17 49.68 52.46 51.74 50.83 48.56 48.13 44.13 44.64 43.03 41.61 39.54 35.34 36.01 35.68 33.74 35.37 33.90 32.10 41.12 33.02 38.21 35.75 36.88 38.30 42.48 43.30 41.17 44.27 47.89 46.91 48.37

GFSGBSN_sfc_wetblb_057.txt.gz
Wetbulb
56.85 56.85 56.95 56.70 56.67 56.41 56.32 56.28 56.58 57.00 56.75 56.46 56.61 57.02 57.11 56.74 56.29 56.70 56.93 56.94 56.64 56.63 57.11 58.16 59.43 58.05 58.30 56.51 53.96 60.60 67.84 69.72 67.03 63.68 66.37 65.30 63.11 62.53 59.22 61.49 63.78 63.37 64.34 66.92 67.36 67.29 66.03
56.65 56.63 56.61 56.55 56.52 56.20 55.85 55.81 55.84 56.15 56.16 56.41 56.56 56.64 56.60 56.54 56.53 56.39 56.40 56.25 56.16 56.41 57.47 59.85 59.41 58.10 59.31 53.34 59.17 64.74 65.50 67.81 63.12 62.21 63.82 64.21 62.48 63.43 60.08 59.66 60.56 62.73 63.74 65.55 66.09 67.87 67.83
56.66 56.47 56.46 56.29 56.18 56.27 55.76 55.66 55.60 55.80 55.68 55.83 56.40 56.38 56.27 56.19 56.04 55.88 55.82 55.40 56.84 56.74 58.71 58.38 58.72 60.00 58.88 54.56 59.55 64.91 65.62 63.09 62.38 63.24 62.61 64.70 64.11 62.11 60.16 58.49 61.55 61.62 60.33 64.28 65.74 66.55 66.48
56.49 56.55 56.26 56.14 56.11 56.23 55.86 55.34 55.32 55.59 55.70 55.79 55.97 55.87 56.06 55.90 55.36 55.18 55.00 54.75 57.46 58.01 58.35 59.27 59.89 62.62 54.77 57.52 59.65 61.18 65.22 64.32 64.18 64.52 65.34 64.81 63.61 61.81 59.96 60.04 57.52 58.19 59.68 58.73 64.87 65.41 66.62
56.53 56.29 56.14 56.11 55.99 56.27 55.97 55.72 55.54 55.71 55.66 55.51 55.62 55.64 55.56 55.51 55.33 54.83 54.26 54.18 58.66 59.31 59.93 60.66 61.83 61.63 52.13 58.54 54.93 57.36 61.74 62.27 64.56 64.05 64.09 63.71 62.75 59.02 59.74 54.62 53.52 54.26 53.11 56.76 60.43 64.19 64.49
56.26 56.17 56.04 56.02 55.79 55.90 55.85 55.55 55.36 55.38 55.39 55.19 55.14 55.34 55.20 55.06 54.34 53.93 53.60 53.85 58.75 60.32 60.73 62.65 61.01 55.53 53.16 51.42 55.00 55.90 59.40 63.22 63.87 60.11 60.70 60.54 58.73 55.74 56.40 54.54 47.58 50.65 51.61 55.60 58.14 63.28 63.80
56.09 56.00 55.70 55.65 55.55 55.68 55.53 55.24 54.88 54.93 55.21 55.37 55.10 54.95 54.73 54.40 53.62 52.93 54.84 57.86 57.69 56.32 55.93 51.27 51.43 50.67 51.53 54.43 56.63 56.23 61.40 61.50 62.99 57.95 52.96 56.74 53.67 50.78 54.27 55.73 54.33 53.12 53.94 53.87 58.47 63.21 61.90
56.02 55.79 55.64 55.42 55.34 55.10 55.06 54.85 54.78 54.76 55.12 55.38 55.03 54.67 54.44 53.87 53.09 52.63 55.44 53.89 52.83 54.63 50.43 51.53 51.27 51.53 52.73 54.21 51.36 55.33 61.56 57.00 56.55 54.06 54.99 52.26 49.60 54.09 54.72 54.09 52.85 52.45 52.22 53.77 57.36 61.82 61.54
55.80 55.71 55.56 55.39 55.44 55.48 55.27 55.12 54.94 54.75 54.93 54.89 54.67 54.42 53.74 53.03 52.43 54.96 55.62 53.74 57.04 56.28 50.32 49.96 50.99 50.57 51.01 52.84 50.06 51.26 56.25 57.46 54.41 53.87 54.27 51.59 52.35 54.06 53.51 52.65 51.10 51.48 51.16 54.00 55.69 60.27 63.36
56.19 56.37 56.23 55.82 55.40 55.27 55.00 54.79 54.75 54.85 54.70 54.58 54.42 54.18 53.07 51.85 51.91 57.26 55.27 57.01 57.67 56.28 47.25 47.01 47.76 49.74 51.35 51.72 48.90 52.88 54.95 55.06 54.20 52.14 52.70 52.74 54.80 51.97 51.69 50.97 52.54 49.71 52.86 52.06 53.65 55.48 53.86
56.02 56.29 56.07 55.70 55.55 55.04 54.77 54.64 54.68 54.73 54.52 54.24 53.93 53.29 51.95 50.50 57.01 55.56 55.82 57.73 56.85 54.49 37.97 47.29 47.73 52.62 51.10 49.46 50.23 50.31 54.27 53.84 50.49 51.34 53.47 51.06 51.45 51.29 50.45 51.23 52.74 51.05 53.83 51.75 50.81 52.10 54.60
55.76 55.93 55.35 55.18 54.97 54.59 54.46 54.50 54.58 54.50 54.03 53.85 53.17 52.20 51.53 56.22 58.12 56.80 57.93 57.32 53.94 43.61 37.05 43.53 47.16 46.48 47.02 48.14 48.12 49.98 50.60 52.94 53.56 50.95 52.10 52.22 56.02 54.04 52.61 53.53 53.63 54.28 52.21 51.89 51.38 49.38 46.03
55.60 55.21 55.00 54.79 54.47 54.52 54.46 54.52 54.46 53.83 53.17 52.69 51.66 50.55 51.87 57.62 55.38 58.15 57.98 53.90 43.99 39.44 46.67 43.42 44.32 46.08 46.28 45.79 46.27 47.04 47.41 48.18 46.34 44.81 44.81 48.54 49.69 53.26 55.32 52.13 53.69 52.80 50.59 45.39 43.89 43.46 42.91
55.38 55.36 55.57 54.89 54.67 54.50 54.50 54.52 53.83 53.19 52.63 51.63 50.00 49.02 54.96 57.02 58.44 58.04 56.39 49.10 39.91 43.83 44.07 45.98 44.91 44.80 43.82 45.33 45.89 45.33 45.71 45.15 48.81 47.27 45.55 43.96 43.67 49.52 52.36 52.52 51.64 51.59 50.59 46.69 41.94 43.16 44.75
54.96 55.36 55.00 54.87 54.65 54.59 54.30 53.98 53.34 52.82 52.30 50.97 49.33 57.41 58.22 58.44 58.10 57.30 52.33 44.10 44.04 45.32 45.64 43.87 44.87 42.88 43.90 44.49 43.73 44.29 45.06 45.17 47.09 48.32 43.80 43.97 44.01 51.40 51.58 52.55 53.12 51.64 49.07 52.69 48.94 50.49 47.79
54.75 54.52 54.60 54.77 54.45 53.32 53.94 53.89 53.40 52.86 52.12 50.91 54.80 55.96 55.33 58.16 58.36 54.84 49.06 44.08 46.13 46.86 46.18 45.33 41.89 44.01 42.29 44.19 42.21 43.83 44.72 46.99 45.97 47.27 48.82 46.56 43.01 50.16 49.76 52.15 53.08 51.87 54.56 48.06 48.41 43.14 43.02
54.44 54.34 54.51 54.49 54.47 54.22 54.33 54.02 53.33 52.76 51.66 50.63 54.71 53.06 56.22 58.90 57.08 51.89 46.14 46.98 46.07 47.55 47.49 44.70 43.90 43.54 43.35 43.32 43.39 43.47 43.74 45.77 47.05 46.79 47.25 46.78 45.38 45.73 48.75 48.44 47.90 49.24 48.91 50.88 51.29 48.86 44.64
54.11 54.17 54.18 54.30 54.30 54.20 54.34 53.99 53.33 52.01 50.75 53.00 55.18 50.33 57.24 58.29 49.94 51.77 48.59 46.64 41.45 47.23 48.37 46.67 46.02 45.13 44.01 44.68 43.69 43.28 42.89 44.87 47.78 47.22 43.33 46.22 44.13 41.65 44.49 49.85 51.17 50.22 48.93 48.77 47.01 47.17 49.06
54.19 53.83 53.91 54.12 54.30 54.49 54.59 54.18 53.13 51.67 51.46 53.06 52.69 53.46 57.43 57.24 46.96 48.37 48.02 46.54 46.88 46.33 46.77 46.20 45.02 46.14 46.54 43.90 41.05 43.23 44.18 46.49 46.63 45.18 43.60 46.13 41.93 38.09 40.72 44.91 47.71 46.59 49.45 50.62 50.46 50.42 48.71
53.93 53.97 53.78 54.17 54.59 54.76 54.67 53.99 52.91 52.07 51.99 52.83 52.74 49.58 52.66 52.64 51.36 48.00 46.49 44.50 44.43 47.12 46.22 46.47 46.04 47.00 44.99 43.46 45.30 41.56 42.58 44.83 46.63 46.15 46.22 44.90 42.29 40.48 38.07 41.33 44.12 44.07 46.33 49.05 49.22 46.08 47.22
53.68 53.74 53.92 54.10 54.31 54.62 54.70 54.11 53.13 52.29 51.90 53.03 53.01 47.93 49.19 45.20 46.54 47.11 46.88 44.89 41.76 42.09 45.97 46.68 43.70 43.32 42.51 40.13 40.73 40.69 43.49 44.13 45.59 46.97 45.30 44.76 38.87 41.57 42.03 42.94 42.85 42.37 43.83 46.63 47.02 49.01 46.75
53.53 53.63 54.06 54.11 54.13 54.07 54.46 54.44 53.77 52.66 51.59 54.94 51.13 49.90 50.84 48.32 47.34 46.41 44.10 42.42 40.68 41.39 42.90 42.19 41.65 42.43 43.15 41.33 42.14 40.08 41.73 42.87 42.59 45.22 44.39 45.07 39.33 41.69 39.50 42.03 41.82 40.15 42.10 43.44 45.40 46.79 47.58
53.43 53.81 53.75 53.92 54.11 54.10 54.04 54.57 54.26 52.88 51.68 54.48 54.26 53.84 51.64 42.24 45.79 43.98 42.23 41.43 41.54 42.98 43.87 44.12 42.08 42.30 40.97 42.73 45.48 46.88 47.64 46.95 45.58 43.58 42.36 42.56 40.58 37.80 36.27 40.86 40.52 37.26 40.78 41.80 43.45 46.04 46.63
53.56 53.64 53.71 53.74 54.04 54.25 54.39 54.33 54.10 53.72 52.39 55.44 54.12 53.55 48.63 43.05 43.20 41.28 42.52 40.88 41.02 42.95 41.86 43.81 43.47 41.21 45.42 49.62 48.96 47.75 47.08 46.03 46.42 45.94 44.93 41.54 40.47 39.45 35.81 37.55 29.82 41.28 45.37 44.89 43.97 45.47 48.69
53.44 53.46 53.58 53.77 54.06 54.13 54.25 54.42 53.93 53.56 53.31 56.21 55.48 52.40 47.51 43.63 44.21 43.85 42.31 41.41 42.15 43.60 41.89 42.11 44.25 46.98 48.86 45.70 39.31 37.67 39.95 40.47 42.23 44.25 43.69 45.03 40.57 36.62 33.42 33.87 38.57 40.76 44.77 45.15 40.57 44.41 50.66
53.23 53.39 53.50 53.91 53.77 53.80 54.19 54.18 54.01 53.44 53.31 55.35 55.39 56.17 52.13 48.49 45.82 45.77 43.65 43.96 39.56 40.47 42.38 43.01 47.85 49.92 47.20 43.10 38.45 34.00 33.15 35.73 35.40 38.38 44.19 43.61 42.57 37.33 35.57 31.32 28.65 39.76 45.98 46.71 47.74 42.09 52.36
53.09 53.31 53.52 53.77 53.76 53.69 53.98 54.07 54.02 53.30 53.31 54.43 55.92 56.45 53.30 48.23 50.41 48.93 45.81 42.89 45.79 43.34 41.59 43.12 44.56 44.65 47.44 41.14 35.74 35.04 34.84 38.21 32.85 34.24 35.41 38.10 38.62 35.02 34.66 33.25 37.20 45.13 45.83 46.71 36.88 41.00 45.60
52.88 53.23 53.77 53.93 53.62 53.80 53.76 54.06 54.18 53.95 53.69 54.62 55.88 58.18 53.73 51.29 51.67 51.82 49.94 48.02 46.34 47.75 42.03 45.94 44.06 44.04 40.10 35.74 36.42 35.49 35.26 35.31 34.26 38.83 36.22 36.58 34.27 34.05 36.04 32.80 30.22 46.57 45.46 38.93 42.39 42.50 42.81
52.84 53.31 53.91 53.77 53.56 54.29 54.36 54.33 54.45 54.30 54.27 53.93 55.75 58.27 57.71 52.05 52.61 55.60 54.67 53.64 51.52 50.05 48.48 46.68 43.98 43.62 43.01 37.36 37.32 36.71 34.58 36.58 34.22 34.37 43.15 36.39 40.17 38.31 38.98 38.36 45.54 45.97 45.03 48.41 46.03 42.88 43.60

GFSGBSN_sfc_wetblb_060.txt.gz
Wetbulb
57.44 57.25 57.19 57.15 57.03 57.24 56.61 56.18 56.60 57.11 56.93 56.73 56.63 56.71 56.97 56.83 56.49 56.65 57.10 57.21 56.90 57.13 57.63 57.90 58.93 59.48 57.11 55.85 57.56 64.37 71.00 69.27 65.74 62.37 64.65 66.46 63.62 63.01 59.93 61.90 63.48 62.33 64.02 65.52 66.32 66.89 66.84
57.14 57.12 56.89 56.72 56.63 56.53 56.09 56.02 55.97 56.25 56.03 56.71 56.82 56.85 56.87 56.81 56.66 56.38 56.74 56.87 56.29 57.76 57.80 59.34 60.52 59.06 56.76 55.06 59.62 63.91 65.22 67.25 62.71 58.98 64.63 66.97 63.93 64.10 61.21 60.68 60.12 63.16 63.04 64.44 67.07 65.89 66.72
57.09 56.88 56.88 56.62 56.51 56.37 56.29 56.13 55.82 55.79 55.74 55.91 56.30 56.48 56.48 56.58 56.31 56.03 56.05 55.79 55.79 58.36 58.88 59.06 59.51 59.01 59.88 57.29 59.59 63.08 64.59 66.16 63.63 58.46 62.03 66.84 65.45 62.33 61.81 58.35 60.70 60.10 59.46 62.39 65.37 65.63 64.64
56.90 56.79 56.61 56.59 56.68 56.48 56.14 55.70 55.70 55.81 55.82 55.85 56.10 56.10 56.29 56.33 56.22 56.05 55.75 55.16 55.54 59.10 59.31 59.57 60.06 60.86 58.63 57.74 59.55 61.07 64.76 62.89 63.49 60.11 62.18 64.63 64.77 61.90 60.51 60.70 58.29 56.36 58.32 55.30 62.95 65.72 66.19
56.90 56.59 56.44 56.58 56.44 56.41 56.26 56.10 55.62 55.76 55.55 55.56 55.89 56.16 55.94 56.10 55.90 55.10 54.36 54.59 55.97 60.06 60.72 60.67 60.90 61.03 56.77 59.21 55.36 59.15 63.56 61.72 61.90 62.54 64.64 65.55 62.92 59.43 58.51 55.72 53.13 54.08 51.60 55.02 58.24 65.73 65.38
56.80 56.43 56.20 56.07 55.86 56.17 56.04 55.77 55.61 55.43 55.54 55.62 55.59 55.51 55.53 55.45 54.81 54.18 53.42 53.91 58.03 59.97 61.66 62.16 61.55 55.99 56.02 52.47 55.49 55.99 58.85 63.13 61.87 60.50 59.95 60.00 58.46 55.13 55.10 53.70 47.80 49.94 51.39 53.74 56.16 62.51 63.93
56.48 56.35 56.14 55.89 55.66 55.86 55.63 55.49 55.24 55.24 55.43 55.51 55.36 55.06 55.02 54.79 53.99 53.08 53.79 58.33 55.86 56.49 58.33 54.08 54.08 53.26 52.57 55.05 56.87 56.02 58.30 61.11 62.72 59.14 54.81 57.61 54.03 51.54 53.70 54.22 55.02 53.11 51.81 52.30 55.29 62.86 62.50
56.66 56.19 56.12 55.90 55.92 55.67 55.57 55.24 55.15 55.15 55.30 55.53 55.04 54.75 54.61 54.18 53.42 52.66 54.82 54.72 53.31 55.02 50.15 53.71 52.50 52.08 53.49 55.06 51.92 56.56 61.01 57.16 58.48 53.74 54.94 54.63 51.47 55.51 54.64 55.61 54.46 53.92 51.95 51.06 55.38 61.07 62.73
56.57 56.17 55.95 56.28 55.89 55.70 55.42 55.05 54.98 55.14 55.26 55.14 54.85 54.32 53.87 53.13 52.48 55.12 56.31 55.02 57.58 56.53 49.37 52.06 51.99 51.72 51.76 53.28 51.41 52.98 58.16 57.15 54.97 53.30 53.55 50.67 52.33 54.78 54.06 52.94 51.90 51.56 50.65 51.24 52.73 57.94 62.01
56.25 56.33 56.23 55.87 55.69 55.31 55.03 54.96 54.91 54.91 54.87 54.51 54.34 53.97 53.15 51.66 52.33 57.32 55.58 57.54 58.15 56.48 46.30 47.93 48.30 50.31 51.45 51.94 49.21 53.89 55.05 55.31 54.61 52.17 53.00 53.19 55.12 53.32 51.93 51.47 52.83 49.23 53.04 51.96 51.78 52.98 51.60
55.92 56.44 56.02 55.77 55.54 55.07 54.92 54.93 54.91 54.89 54.49 53.81 53.73 53.28 51.96 51.02 53.33 55.15 56.58 58.00 57.40 54.39 37.49 48.39 48.52 53.27 51.92 49.28 50.76 50.74 54.68 53.72 50.73 52.20 53.02 50.96 53.01 52.16 51.29 51.35 53.26 51.09 54.27 52.62 51.39 49.89 51.34
55.80 55.56 55.46 55.49 55.13 54.94 54.91 54.67 54.55 54.43 53.75 53.42 53.26 52.26 51.49 55.69 54.95 57.89 58.07 58.10 54.48 43.56 37.02 45.08 48.61 46.85 47.04 48.75 49.10 51.03 51.25 53.28 53.89 50.97 52.00 51.19 55.46 53.73 52.70 54.00 53.63 54.20 52.14 52.32 51.86 49.29 44.43
55.70 55.43 55.27 55.07 55.06 54.92 54.61 54.32 54.16 53.90 53.30 52.84 51.77 50.87 50.94 56.63 55.50 58.74 58.04 54.69 43.31 38.96 48.13 44.20 44.99 46.63 46.91 46.72 46.71 47.54 48.17 47.67 45.71 43.78 43.95 47.51 49.55 53.51 55.10 51.47 53.12 52.33 49.45 44.15 43.03 43.02 42.49
55.39 55.41 55.30 55.31 55.00 54.53 53.85 54.11 53.85 53.52 53.01 52.27 50.46 49.53 55.28 57.34 58.51 58.28 56.30 49.35 39.48 45.44 45.03 47.44 45.93 45.79 44.18 46.65 46.14 46.39 45.37 45.18 48.48 47.52 44.96 43.94 42.86 47.97 51.83 52.05 50.63 50.44 49.54 44.98 40.23 41.88 44.08
55.13 55.02 55.15 55.11 54.02 53.24 53.39 54.02 53.61 53.38 52.80 51.62 49.90 57.71 56.77 58.61 58.33 57.43 51.84 43.65 44.21 45.76 47.16 45.14 45.74 42.99 43.89 45.69 45.08 45.35 45.49 45.08 47.33 49.36 44.09 43.06 43.03 50.13 51.87 51.73 52.02 50.50 48.25 51.27 46.99 48.56 46.18
54.88 54.53 54.91 54.59 54.23 53.67 54.35 54.24 53.83 53.34 52.49 51.09 52.75 56.70 55.93 58.76 58.72 54.88 48.71 43.57 47.09 48.53 48.00 46.77 41.96 45.34 42.95 44.57 44.15 44.47 44.22 47.61 46.17 49.17 49.83 46.19 41.51 48.45 50.31 52.06 51.97 50.12 52.54 47.32 48.40 41.38 41.23
54.77 54.53 54.61 54.43 54.43 54.39 54.83 54.49 54.08 53.03 51.88 50.71 54.07 53.86 57.44 59.96 57.72 51.88 45.62 47.49 47.97 49.44 48.79 46.15 44.89 44.48 45.04 44.08 45.42 43.78 44.75 47.05 47.94 47.70 48.64 46.48 44.06 44.19 48.14 48.06 46.99 48.22 47.57 48.99 49.42 48.79 43.68
54.69 54.70 54.66 54.63 54.55 54.88 55.04 54.73 53.67 52.34 50.82 53.39 56.63 49.88 58.41 59.26 50.50 51.40 47.69 48.50 43.66 48.87 50.13 48.05 47.35 46.21 44.81 45.39 44.57 44.55 44.00 46.29 48.81 48.53 44.39 47.13 43.57 40.47 43.72 49.07 50.75 50.13 48.54 48.53 45.59 45.29 48.11
54.94 54.62 54.82 54.94 54.83 55.08 55.16 54.43 53.32 52.14 51.94 51.74 53.62 53.83 58.05 57.62 46.21 48.00 49.74 48.43 48.77 48.03 48.06 47.55 46.46 47.57 47.83 44.71 41.95 44.66 45.42 48.78 48.01 46.09 44.86 46.11 42.50 37.73 40.26 44.64 47.77 46.74 48.03 48.84 48.46 48.17 46.73
54.46 54.60 54.66 54.92 55.10 55.23 55.04 54.24 53.09 52.42 52.31 52.46 53.55 49.24 53.55 53.50 52.73 48.96 47.63 46.41 45.37 48.28 47.73 47.65 46.72 47.64 45.91 44.43 46.20 43.29 43.90 46.83 48.00 46.83 47.65 46.07 41.91 40.23 37.34 41.76 44.12 42.99 45.51 46.74 46.64 44.19 44.90
54.23 54.32 54.46 54.81 55.11 54.96 55.00 54.32 53.57 52.75 52.11 53.52 54.32 49.12 50.81 46.16 47.98 48.66 48.59 46.81 44.22 43.46 47.47 47.85 45.37 44.81 43.83 41.36 42.86 42.28 44.60 45.49 46.99 48.00 46.34 44.67 38.44 40.78 41.36 42.50 43.02 42.92 43.29 44.49 44.40 46.88 45.24
53.92 54.40 54.44 54.40 54.65 54.80 55.21 54.77 54.22 53.18 51.58 55.40 51.09 50.91 52.27 48.70 49.22 47.98 45.35 43.85 43.06 43.87 44.63 44.22 43.34 44.58 44.65 41.48 42.82 40.73 43.30 43.89 43.46 46.60 43.99 46.02 38.96 40.94 39.19 42.73 42.78 41.21 43.00 43.53 44.26 45.99 47.11
53.98 54.17 54.36 54.50 54.42 54.64 55.03 55.12 54.67 53.13 52.30 54.95 55.65 55.92 52.00 45.42 47.06 45.30 43.77 43.38 43.19 44.75 45.65 45.75 44.13 43.34 42.23 44.14 46.25 46.82 47.26 46.62 45.57 44.89 42.99 43.51 41.21 38.92 34.95 41.23 41.08 37.52 41.57 42.52 43.72 45.65 46.53
54.12 54.07 54.21 54.38 54.36 54.48 54.81 55.27 55.00 53.77 52.84 56.66 55.29 55.10 49.61 44.38 45.24 43.73 43.80 44.30 43.26 43.58 41.90 45.14 45.22 42.79 46.63 49.88 48.95 47.89 47.09 45.89 45.60 45.34 46.21 41.82 41.18 40.11 35.08 37.60 28.87 41.73 46.69 45.80 43.94 45.06 46.15
53.51 53.83 54.14 54.15 54.42 54.42 54.84 54.97 54.92 54.31 53.61 57.50 57.01 54.52 51.78 46.12 47.16 46.12 44.81 43.27 44.32 45.48 44.65 44.50 45.62 47.91 49.34 46.65 40.22 39.66 40.65 40.94 42.33 44.29 43.74 45.05 41.54 36.64 32.26 32.53 37.26 40.67 44.49 45.05 44.53 43.55 47.63
53.46 53.67 54.12 54.23 54.34 54.19 54.75 54.88 54.82 54.81 54.10 57.68 56.92 58.19 54.41 49.24 45.96 47.56 45.47 45.77 44.38 43.67 44.55 44.80 49.49 50.60 48.31 43.57 39.62 33.80 32.27 36.88 35.81 38.70 44.11 43.97 43.75 39.58 35.85 30.25 28.41 39.68 45.01 48.36 47.64 39.55 49.45
53.30 53.65 53.98 54.17 54.19 54.15 54.36 54.73 55.09 54.95 54.69 54.96 57.26 59.29 55.30 49.93 51.09 50.52 46.26 45.30 47.25 44.53 42.82 45.14 45.48 45.35 48.04 41.18 37.61 35.90 34.99 38.93 33.17 34.23 35.95 37.68 39.64 35.49 35.17 32.60 36.86 43.66 46.35 48.08 36.29 39.24 47.59
53.11 53.61 53.98 54.06 53.83 54.24 54.16 54.47 54.65 55.38 55.09 54.89 56.95 59.09 55.45 51.73 51.75 53.21 51.41 49.26 48.38 46.78 42.72 46.60 45.65 45.59 43.02 37.91 36.98 36.06 35.50 36.59 34.31 38.38 37.58 36.92 35.60 35.33 36.61 32.81 30.00 47.11 45.96 39.99 44.92 48.16 48.24
52.93 53.40 53.91 53.85 53.63 54.43 54.72 54.63 54.75 54.95 55.06 54.19 55.54 59.36 58.55 53.59 52.20 55.92 55.68 54.65 52.99 51.81 49.25 49.39 46.05 44.65 44.72 39.81 38.35 37.40 35.23 36.78 34.70 32.13 40.70 36.44 38.15 37.61 36.87 38.01 46.08 46.84 45.41 47.93 47.84 47.07 47.60

GFSGBSN_sfc_wetblb_063.txt.gz
Wetbulb
57.49 57.43 57.39 57.08 57.25 57.11 56.56 55.97 55.99 56.62 56.37 56.03 56.10 56.41 56.50 56.69 56.72 56.79 57.02 57.13 56.95 56.95 58.15 58.37 58.56 59.66 54.25 51.28 54.30 64.05 71.58 70.46 64.41 58.42 56.45 61.83 61.88 60.31 58.13 59.78 61.18 60.67 62.74 65.44 66.14 65.75 65.36
57.46 57.29 57.25 57.12 56.83 56.80 56.36 55.95 55.88 55.97 55.76 55.96 56.22 56.49 56.92 56.90 56.69 56.85 56.96 56.61 56.20 56.37 58.54 59.27 60.53 59.64 52.07 49.98 58.75 65.00 66.64 65.39 59.94 56.94 58.77 62.39 63.24 62.82 60.09 59.67 58.20 60.56 61.45 63.66 64.63 65.23 65.67
57.37 57.14 57.06 56.90 56.62 56.54 56.31 56.03 55.56 55.64 55.67 55.86 56.15 56.60 56.68 56.86 56.55 56.52 56.37 55.60 55.57 56.11 58.44 59.75 60.02 57.75 55.52 55.10 58.36 60.31 63.14 63.27 60.05 57.15 56.35 62.69 65.77 62.23 59.90 57.02 59.86 57.02 54.53 57.53 63.86 64.30 64.00
57.69 57.07 56.73 56.66 56.74 56.72 56.29 55.80 55.57 55.76 55.84 56.05 56.21 56.38 56.19 56.19 56.13 56.29 55.77 55.12 55.09 56.39 58.99 59.49 59.77 57.39 53.76 62.00 54.96 57.75 61.75 63.62 62.79 57.48 57.54 62.91 65.19 61.93 56.87 58.45 57.25 52.83 51.85 48.22 57.08 64.36 65.35
57.67 57.37 57.15 57.03 56.55 56.45 56.28 56.08 55.73 55.62 55.61 55.88 56.18 56.20 56.24 56.06 55.92 55.24 54.22 54.26 55.60 57.26 60.06 60.12 56.76 55.29 54.46 59.63 52.61 54.89 59.29 59.77 60.81 56.95 55.97 59.36 58.93 56.13 56.24 51.22 48.48 49.48 43.53 48.51 52.73 63.53 64.39
57.44 57.18 56.84 56.16 56.34 56.30 56.15 55.97 55.57 55.41 55.70 55.82 55.65 55.69 55.51 55.24 54.82 54.14 53.37 54.17 57.37 55.84 59.82 60.51 59.26 52.07 56.92 52.35 53.01 54.00 55.73 59.94 57.57 55.45 54.85 56.01 55.94 50.99 49.94 45.59 40.75 45.07 44.95 47.62 50.02 60.22 63.20
57.61 56.90 56.32 55.96 56.16 56.30 56.07 55.61 55.43 55.40 55.62 55.69 55.45 55.12 54.94 54.59 53.98 52.96 51.07 51.11 51.02 49.05 52.11 53.19 52.23 54.78 52.44 52.75 54.93 52.88 55.25 58.57 59.03 55.49 49.89 53.64 48.12 45.74 47.95 49.92 50.88 50.77 49.74 47.90 51.09 56.72 60.62
57.53 56.50 56.15 55.84 56.18 56.09 55.73 55.36 55.27 55.33 55.41 55.53 55.06 54.69 54.39 54.08 53.28 52.44 50.74 48.88 49.38 49.41 45.41 52.83 55.34 51.69 51.58 51.41 50.43 54.28 56.04 52.63 55.71 50.61 53.17 50.35 46.74 51.95 54.46 53.64 52.08 50.07 48.74 48.32 51.14 52.56 59.85
57.26 56.23 56.36 56.27 56.09 55.74 55.32 55.13 55.29 55.24 55.22 55.12 54.55 54.25 53.77 53.03 52.24 52.29 51.09 52.24 54.26 52.46 43.95 48.81 52.12 49.21 48.64 48.65 49.60 52.88 54.68 53.93 53.62 52.42 50.20 47.24 51.42 55.33 54.16 52.12 49.37 48.61 46.55 47.52 47.50 50.74 59.86
56.72 56.66 56.25 56.02 55.86 55.37 55.27 55.16 55.02 54.94 54.67 54.57 54.21 54.02 53.12 52.05 49.47 51.70 52.54 54.28 54.27 52.84 38.68 45.80 46.37 48.21 49.34 48.72 46.31 53.95 53.85 51.87 51.95 49.74 51.43 49.39 52.57 51.83 51.70 50.30 49.60 42.25 50.18 50.20 48.84 45.79 42.16
56.46 56.23 56.01 55.92 55.62 55.31 55.10 54.94 54.63 54.57 54.23 54.12 54.10 53.53 52.17 50.98 47.68 48.91 53.77 54.43 52.16 49.33 31.26 47.21 46.36 50.85 48.74 44.98 47.69 48.51 53.01 50.82 48.25 49.58 48.70 47.33 50.10 50.16 49.20 49.26 50.32 47.15 51.33 49.55 49.23 44.60 41.39
56.34 56.09 55.99 55.68 55.37 55.31 54.49 54.04 54.15 54.14 54.08 53.84 53.49 52.60 51.73 52.45 49.67 51.65 54.84 55.11 51.00 37.94 34.12 44.01 47.01 45.46 44.06 45.41 46.94 49.63 49.83 49.84 50.79 47.55 48.42 48.04 52.14 50.82 50.91 52.84 51.97 52.08 48.95 47.50 46.21 43.04 37.73
56.01 55.89 55.58 55.39 55.19 54.08 53.09 53.62 53.88 53.92 53.65 53.24 52.24 51.08 49.90 52.80 51.41 56.12 55.21 51.20 37.37 34.37 46.51 42.53 42.40 44.32 43.75 43.56 45.06 44.90 45.79 43.57 40.41 35.89 37.32 43.74 46.22 49.22 51.32 48.01 49.44 48.33 43.06 35.48 34.92 36.10 36.04
55.81 55.42 55.38 54.91 54.44 54.01 53.99 54.25 54.37 53.94 53.40 52.42 50.71 49.73 53.00 54.35 55.41 56.06 52.55 44.39 35.46 43.24 42.79 45.50 44.91 43.49 42.17 44.78 43.70 45.12 42.86 40.68 45.25 43.32 38.23 36.84 37.83 44.01 49.36 47.20 45.03 45.38 42.35 36.62 31.89 33.96 37.35
55.73 55.52 54.91 54.74 54.39 54.49 54.47 54.45 54.20 53.73 52.97 51.58 49.96 54.64 53.46 56.53 57.28 54.87 47.17 38.51 39.14 42.62 45.37 44.22 43.29 40.41 40.92 43.45 42.61 42.86 41.19 41.13 44.14 45.05 37.37 37.13 39.00 47.48 48.89 48.58 48.46 45.04 41.48 45.32 39.19 41.49 37.04
55.46 55.34 55.15 55.02 54.82 54.73 54.82 54.71 54.24 53.63 52.58 51.15 49.33 52.29 54.73 57.10 56.22 51.47 44.07 40.96 43.11 46.64 46.91 46.12 40.24 43.13 39.72 41.38 40.54 40.20 39.80 45.05 45.32 46.94 45.16 40.78 34.53 43.19 46.58 47.58 47.76 44.66 46.25 39.06 39.32 32.48 31.73
55.36 55.13 55.00 55.20 55.20 54.94 55.08 54.84 53.98 53.16 51.95 51.19 51.54 51.13 55.40 57.58 54.96 48.38 41.43 44.56 46.24 48.93 48.71 44.69 42.55 41.80 42.00 41.52 42.76 40.78 41.95 44.08 46.39 45.94 45.51 40.39 36.51 38.14 43.07 40.72 41.19 42.67 40.21 40.61 40.25 38.66 35.15
55.25 55.02 54.86 55.12 55.06 55.04 55.14 54.79 53.82 52.27 51.24 51.87 52.58 47.88 55.81 57.08 47.31 49.18 44.81 46.10 46.12 47.64 49.40 47.10 46.65 44.70 42.91 43.25 41.27 41.60 41.99 43.80 47.16 45.75 41.03 41.81 35.31 32.17 37.57 44.15 45.97 44.07 41.15 40.84 36.33 35.91 38.91
55.02 54.68 54.67 55.01 54.55 55.33 55.25 54.55 53.49 52.32 52.04 49.40 49.30 51.45 55.91 55.37 44.19 45.34 47.52 46.46 46.59 45.57 45.46 45.33 44.78 45.55 45.41 41.86 37.84 42.55 43.92 47.61 47.29 44.99 39.82 40.26 34.67 29.50 34.11 37.84 41.66 40.34 42.78 42.72 40.81 38.87 37.07
54.84 54.26 54.44 55.13 55.17 55.33 55.16 54.49 53.37 52.93 52.54 50.38 50.59 46.45 50.72 51.45 49.94 45.79 44.49 44.60 43.64 47.97 46.05 46.41 45.46 45.83 43.25 41.13 42.00 40.39 42.48 46.56 47.11 46.36 48.69 44.63 34.09 31.40 28.30 33.80 38.62 37.28 40.19 41.86 39.21 33.84 35.87
54.29 54.47 54.83 55.13 55.33 55.33 55.31 54.81 54.00 52.96 52.15 51.05 51.40 46.72 49.57 42.49 44.43 45.64 45.64 44.61 42.75 41.24 45.94 45.93 43.91 43.20 40.79 36.32 38.80 38.97 41.85 43.34 46.44 48.56 44.19 39.02 31.43 34.26 36.56 39.20 39.82 39.19 39.22 40.65 38.76 38.35 33.76
54.29 54.66 54.78 55.21 55.11 55.27 55.41 55.10 54.45 53.16 51.89 53.44 48.02 47.01 49.53 45.56 46.45 44.86 43.59 42.03 41.41 42.37 42.67 41.33 40.34 42.27 41.85 37.73 38.52 36.83 39.33 38.94 38.08 42.78 41.16 40.79 33.59 36.21 35.48 39.78 39.59 38.19 40.61 41.52 41.14 41.38 40.78
53.96 54.25 54.66 55.07 54.95 55.13 55.29 55.31 54.63 53.22 52.72 53.25 54.09 54.77 49.49 44.70 44.33 42.27 41.53 42.22 42.44 43.57 45.22 45.17 43.26 41.43 40.51 41.70 43.74 43.48 43.28 42.69 41.42 38.13 38.23 38.31 35.76 33.81 29.66 37.68 38.12 33.33 38.82 40.25 41.25 41.86 40.60
54.16 54.04 54.41 54.68 54.77 55.05 55.40 55.76 55.39 54.16 52.85 53.67 54.64 53.35 48.04 41.97 43.21 42.17 43.58 44.22 42.76 42.62 41.34 44.45 44.30 41.20 44.69 47.68 46.48 44.90 43.85 42.61 42.82 41.30 40.96 36.15 35.58 35.08 29.30 32.60 25.49 36.60 43.54 44.68 42.74 44.41 45.13
54.02 53.84 54.23 54.41 54.65 54.86 55.49 55.92 55.87 55.03 53.63 54.11 56.33 53.36 50.26 42.53 45.50 44.49 44.41 43.57 44.50 44.54 43.57 44.19 45.60 46.23 47.91 45.02 38.49 35.49 36.35 38.08 39.94 42.44 40.10 39.84 35.96 31.99 28.04 27.82 33.54 37.35 40.66 41.88 39.37 40.41 45.99
53.77 53.79 54.22 54.39 54.55 54.99 55.27 55.90 56.27 55.61 54.20 55.86 56.55 57.53 53.49 47.17 44.25 48.30 46.05 45.63 41.73 41.35 43.19 44.97 48.53 49.42 46.35 40.94 37.38 32.54 30.03 34.98 34.58 37.19 40.71 40.68 39.80 36.05 32.64 26.29 24.63 34.90 44.18 46.19 44.55 33.98 45.35
53.69 53.67 54.00 54.27 54.40 54.79 54.99 55.49 56.06 56.30 55.14 53.73 55.56 58.14 54.56 49.19 49.54 48.65 44.39 43.77 46.26 43.98 41.20 44.77 44.94 44.47 45.79 37.98 34.61 34.90 32.87 36.72 30.47 30.95 32.85 34.42 35.49 31.61 32.17 30.05 33.25 41.76 45.61 46.24 33.29 34.25 44.90
53.30 53.36 53.88 54.17 54.19 54.82 55.38 55.59 56.20 56.24 56.05 53.77 56.35 58.83 53.88 50.92 50.69 52.53 51.53 48.48 46.78 45.37 41.17 44.86 44.07 42.93 40.39 35.54 34.68 35.07 32.63 34.05 32.08 34.94 34.66 33.59 32.07 33.29 33.53 29.53 27.32 43.36 44.32 37.53 40.68 43.36 44.31
53.12 53.28 53.59 53.92 54.03 54.30 54.92 55.67 55.66 55.88 55.89 55.09 54.42 59.18 58.75 53.16 51.85 55.22 55.46 55.27 53.61 51.62 46.65 46.97 44.19 43.37 41.81 38.34 37.19 35.81 33.32 35.17 33.75 29.66 37.20 33.39 35.38 32.86 35.52 34.58 40.34 42.19 41.81 44.16 43.61 41.88 42.84

GFSGBSN_sfc_wetblb_066.txt.gz
Wetbulb
57.85 57.74 57.53 57.20 57.12 56.76 56.50 56.05 56.05 56.14 55.57 55.84 56.34 56.58 56.57 56.81 56.96 56.99 57.26 57.03 56.63 56.56 56.91 58.86 58.73 59.10 53.60 49.61 49.38 64.67 71.27 69.87 65.28 57.06 54.62 58.83 59.53 57.94 54.79 58.31 60.44 58.38 59.96 62.57 65.77 66.18 66.02
57.67 57.52 57.20 56.99 56.73 56.51 56.18 55.95 55.65 55.71 55.54 55.75 56.07 56.40 56.56 56.50 56.63 56.72 56.72 56.44 56.05 56.09 56.64 59.37 60.33 59.79 49.78 45.51 60.32 65.52 65.88 64.59 60.02 55.38 53.44 58.08 60.87 62.23 58.63 58.94 57.60 59.67 59.56 59.97 65.05 65.35 65.24
57.72 57.30 57.15 56.88 56.59 56.39 56.36 55.80 55.43 55.25 55.16 55.44 55.81 56.33 56.67 56.39 56.28 56.31 56.09 55.57 55.61 55.65 56.68 59.79 59.75 57.78 52.40 50.20 60.49 64.20 64.64 61.58 58.37 55.82 54.32 57.45 62.08 59.70 59.91 55.78 59.54 57.90 52.32 56.23 63.36 64.17 63.96
57.74 57.21 56.95 56.74 56.76 56.73 56.24 55.67 55.34 55.60 55.53 55.66 55.86 56.02 56.00 55.96 55.88 55.59 55.52 54.98 54.83 56.02 56.70 59.90 59.85 55.69 50.34 62.53 61.08 59.95 63.32 60.95 59.24 55.71 55.43 58.54 61.60 59.24 58.44 58.68 54.87 51.53 48.54 45.30 61.19 63.23 64.06
58.52 57.81 56.99 56.62 56.88 56.73 56.44 55.75 55.38 55.64 55.71 55.97 56.05 55.93 55.58 55.62 55.62 55.25 54.31 54.15 55.22 57.01 58.40 60.16 53.73 52.29 51.59 62.86 50.64 52.69 58.48 61.13 59.13 55.83 54.32 58.14 55.31 51.95 53.34 49.81 45.67 46.84 42.85 45.52 49.99 63.58 62.15
58.28 57.79 56.79 56.38 56.14 56.45 56.10 55.84 55.48 55.49 55.70 55.80 55.66 55.46 55.36 55.19 54.68 54.01 53.35 53.68 54.54 56.12 58.65 59.75 58.35 49.68 53.49 54.40 51.20 53.33 54.13 61.32 57.30 55.15 52.65 51.32 49.15 48.08 47.25 44.44 38.75 42.90 42.87 44.90 46.39 57.59 61.00
58.02 57.11 56.72 56.28 55.80 55.92 55.60 55.31 55.15 55.24 55.64 55.60 55.44 54.99 54.77 54.40 53.92 52.94 50.81 47.04 45.70 46.23 50.42 48.58 50.45 51.62 53.75 52.04 53.37 50.39 52.47 55.20 55.15 51.05 45.69 50.83 46.49 43.61 47.29 47.60 48.47 47.31 46.14 46.15 49.85 52.49 59.04
57.64 56.85 56.44 55.97 55.78 55.65 55.25 55.20 55.17 55.26 55.30 55.40 55.13 54.83 54.42 53.92 53.19 52.57 49.37 44.88 47.85 47.59 42.26 50.54 53.42 53.80 55.85 50.52 48.32 51.04 52.59 50.50 52.50 47.56 49.18 47.22 43.68 49.32 51.70 50.96 49.42 48.36 46.03 45.78 49.19 54.06 56.55
56.99 56.45 56.16 56.05 56.11 55.80 55.64 55.40 54.95 54.95 54.89 54.87 54.64 54.44 53.76 53.15 52.41 49.75 47.11 48.68 52.78 49.33 40.48 46.06 48.71 51.04 48.16 46.76 47.32 50.93 51.64 50.47 52.01 49.63 48.86 45.27 49.25 53.30 51.99 50.28 49.17 47.30 44.45 46.66 46.26 55.50 60.44
56.42 56.35 56.07 55.91 55.62 55.50 54.98 53.77 54.01 54.46 54.56 54.54 54.39 54.19 53.35 52.02 47.74 45.96 47.85 50.48 50.28 48.56 34.73 41.53 44.16 47.30 47.20 47.51 44.62 54.63 54.50 50.79 50.58 49.84 51.28 46.87 52.19 51.11 50.39 49.44 49.17 40.78 48.20 48.72 47.52 43.59 46.48
56.45 56.17 55.85 55.56 54.61 54.26 53.67 53.18 54.08 54.52 54.35 54.39 54.33 53.74 52.34 50.88 43.56 44.49 49.85 51.04 51.55 45.58 29.11 46.05 43.03 48.96 45.94 43.47 46.02 47.30 51.35 49.42 46.08 47.21 46.08 45.74 48.13 48.20 47.31 48.14 50.32 47.05 50.02 47.32 47.09 42.18 40.13
56.18 55.81 55.34 55.08 54.49 54.30 54.46 54.42 54.56 54.41 54.43 54.13 53.76 52.76 51.70 48.49 45.85 47.69 50.39 51.17 46.34 35.27 31.29 42.18 44.87 43.41 42.35 42.41 44.61 47.77 48.14 48.22 48.40 45.61 44.82 45.41 49.48 48.67 48.71 51.29 50.73 50.75 46.80 44.24 41.92 39.97 34.97
55.68 55.17 55.29 55.40 55.23 54.82 54.58 54.54 54.66 54.35 53.95 53.27 52.31 51.17 50.08 50.81 45.72 50.03 50.34 46.88 36.10 30.47 43.72 40.42 40.30 41.66 40.49 40.63 42.43 43.65 44.12 40.51 38.80 34.38 35.25 41.94 43.64 45.09 48.20 44.85 47.77 46.16 39.36 33.67 33.73 33.18 33.94
55.35 55.56 55.38 55.21 54.92 54.90 54.74 54.96 54.58 54.19 53.54 52.41 50.65 49.83 49.90 51.43 48.51 51.03 47.84 42.19 32.27 40.60 38.84 42.30 41.59 41.37 39.30 41.06 40.83 42.81 40.63 37.66 42.55 39.41 35.10 34.28 35.43 42.67 46.72 43.76 42.22 42.37 39.97 34.57 29.97 30.59 34.46
55.66 55.44 55.24 55.07 54.97 55.00 54.96 54.80 54.35 53.74 53.00 51.71 49.86 47.97 48.30 50.70 52.10 51.14 44.00 33.88 32.64 38.31 43.22 42.04 40.76 36.92 38.92 41.91 41.31 41.06 39.85 38.86 42.47 40.79 34.91 33.37 36.44 45.15 46.13 44.95 43.55 40.95 38.79 41.80 36.23 34.30 34.36
55.62 55.40 55.17 55.12 54.37 54.70 54.96 54.66 54.17 53.66 52.89 51.37 45.49 46.40 48.16 54.36 52.06 46.26 39.56 36.84 38.81 45.12 45.39 42.81 36.54 39.55 35.98 39.15 38.74 37.15 39.19 42.26 43.01 44.52 40.53 36.69 33.13 39.33 44.55 45.01 44.20 40.07 43.47 37.22 35.18 29.85 29.00
55.40 55.28 54.55 54.94 54.34 54.19 55.15 54.92 54.35 53.54 52.36 51.24 47.70 46.15 51.21 51.54 50.05 43.66 36.89 38.63 44.50 47.28 47.21 42.64 39.83 38.33 37.90 37.57 38.82 37.03 38.57 42.42 44.66 43.45 41.95 36.40 33.54 35.96 40.15 37.11 36.18 37.97 36.35 36.34 35.90 35.64 31.34
55.11 54.57 54.49 54.46 54.69 54.93 55.27 55.02 53.99 52.56 51.36 48.87 45.73 41.52 52.62 51.35 43.99 41.12 37.74 42.32 45.65 44.25 45.92 43.61 43.62 41.46 38.86 39.30 37.74 37.96 38.10 41.55 45.51 43.19 38.29 37.79 32.12 29.77 34.18 41.41 42.69 40.06 36.07 33.81 31.12 32.40 33.94
54.95 53.98 54.53 54.96 55.01 55.25 55.41 54.68 53.67 52.48 51.46 45.28 43.68 44.39 51.13 50.73 36.72 37.27 41.54 43.98 44.93 43.61 43.21 42.34 41.40 41.96 41.46 37.71 35.03 39.37 41.04 45.66 45.66 42.59 37.29 37.65 30.39 27.16 32.28 34.46 38.26 36.56 38.35 35.15 33.79 32.03 32.64
54.91 54.83 54.52 55.24 55.44 55.39 55.41 54.50 53.52 52.65 52.13 46.04 44.56 39.64 43.49 43.72 42.12 39.15 38.47 39.64 40.35 46.63 43.76 44.47 42.17 41.75 39.26 36.86 37.38 36.60 38.73 44.01 45.90 45.34 50.65 42.26 30.30 28.93 26.19 29.79 34.48 33.93 37.72 38.81 32.32 28.04 30.87
54.46 54.48 54.73 55.54 55.48 55.62 55.53 54.78 54.01 52.80 52.09 47.73 44.37 40.30 41.07 36.49 39.18 39.06 41.03 40.51 40.04 38.59 42.56 42.17 40.05 40.60 36.24 32.37 33.87 34.80 37.72 38.65 42.81 47.01 42.43 36.03 29.03 31.18 31.71 36.99 37.81 37.06 37.27 38.65 35.24 33.69 30.21
54.28 54.28 54.83 55.07 55.38 55.60 55.60 55.21 54.43 53.23 51.85 47.76 42.49 41.25 41.90 38.14 39.36 39.79 37.85 36.32 38.93 39.75 39.23 37.71 37.30 40.25 37.79 33.39 33.98 32.51 35.24 34.00 33.54 38.06 37.40 36.86 31.50 32.95 32.56 38.37 38.32 36.39 38.87 39.39 39.54 39.26 38.01
54.29 54.21 54.58 54.71 55.36 55.44 55.68 55.47 54.84 53.28 51.22 46.54 47.17 46.48 41.44 38.99 37.26 35.55 35.58 37.60 39.72 40.30 42.34 42.59 41.45 38.12 37.00 39.05 40.72 38.90 38.26 37.30 36.99 33.34 32.99 34.92 33.37 30.67 25.08 34.91 35.27 31.08 35.35 37.71 39.08 41.52 40.84
54.01 54.19 54.46 54.75 54.90 55.44 55.72 55.84 55.60 54.48 52.05 48.05 48.00 46.91 40.21 35.83 37.90 38.03 40.90 41.91 40.88 39.93 37.91 41.11 41.35 37.42 41.41 44.03 42.27 38.33 36.45 35.72 37.72 37.58 34.73 32.56 31.87 31.21 26.78 29.96 22.58 32.76 39.92 40.91 41.56 42.44 43.43
53.97 54.11 54.27 54.62 54.78 55.46 55.81 56.06 56.05 55.07 53.62 49.64 50.89 48.93 43.15 35.94 40.60 42.07 41.46 40.54 40.27 40.37 39.47 41.60 43.01 42.21 42.54 39.90 33.91 31.57 31.93 33.98 36.68 38.46 36.83 34.22 31.10 28.11 26.32 25.92 30.95 35.93 38.75 39.39 37.18 37.97 43.26
53.70 53.86 54.01 54.38 54.49 55.57 55.90 56.29 56.38 55.37 54.01 50.22 50.81 51.40 48.03 39.28 38.82 45.73 41.65 41.23 36.68 35.24 38.33 41.48 43.74 44.44 41.72 35.80 33.38 26.56 28.72 31.07 31.48 33.92 35.68 35.74 35.03 30.73 30.90 24.77 23.63 32.38 40.89 45.06 41.71 32.47 43.54
53.31 53.56 53.80 54.17 54.47 55.21 55.89 56.21 56.68 56.16 54.56 49.53 49.73 51.47 48.81 40.92 43.05 42.65 39.94 38.85 41.25 38.12 36.25 38.45 39.89 39.82 39.86 32.64 31.24 32.17 29.62 34.08 26.71 26.60 28.12 29.34 29.24 26.51 29.38 27.37 32.91 39.83 41.97 44.45 31.41 31.73 41.44
53.19 53.39 53.52 54.11 54.60 54.92 55.57 56.23 56.19 56.06 55.70 50.47 49.79 52.32 48.31 44.12 44.88 47.62 48.36 43.37 41.90 39.59 35.69 39.37 38.89 37.56 34.91 28.08 26.26 24.18 27.52 31.83 30.69 31.44 30.19 31.76 32.37 30.63 32.69 27.24 26.00 41.46 41.47 36.32 39.49 40.63 40.90
53.04 53.37 53.41 53.93 54.46 54.61 55.05 55.60 55.59 55.34 55.44 53.54 47.65 52.14 52.88 47.46 46.50 50.53 50.73 50.96 48.91 46.78 41.83 41.06 38.30 37.59 37.12 30.49 31.76 25.84 31.28 33.41 28.07 20.49 33.88 30.71 33.07 29.86 32.23 35.35 40.96 40.88 39.20 42.32 41.15 39.10 39.59

GFSGBSN_sfc_wetblb_069.txt.gz
Wetbulb
58.06 57.87 57.55 57.23 56.77 56.50 56.27 56.09 55.81 55.50 55.35 55.73 56.26 56.48 56.77 56.85 56.97 56.98 57.09 56.80 56.50 56.33 56.54 56.95 59.31 58.62 52.57 47.79 48.54 63.85 68.02 70.42 66.41 57.09 53.62 55.69 57.21 56.20 54.28 57.16 59.48 58.76 60.15 60.43 61.79 65.79 65.36
57.98 57.76 57.54 57.16 56.84 56.68 56.07 55.89 55.57 55.14 55.29 55.68 56.01 56.29 56.46 56.46 56.54 56.63 56.53 56.25 55.87 55.81 56.18 57.24 59.92 59.32 48.08 41.29 56.12 66.51 63.10 63.76 59.46 54.16 52.21 59.35 58.27 59.89 56.76 56.69 56.87 59.06 59.09 58.79 58.66 64.25 64.51
58.54 57.99 57.46 57.00 56.57 56.48 55.93 55.41 55.18 54.91 55.19 55.58 55.86 55.88 55.88 55.84 56.07 55.97 55.72 55.21 55.25 55.49 56.15 57.29 60.00 56.95 50.48 46.92 60.59 64.70 62.92 58.11 56.83 54.04 50.56 54.75 61.14 58.57 58.79 56.39 59.15 58.48 55.01 53.92 62.55 63.34 63.57
58.93 58.36 57.48 56.80 56.42 56.08 55.57 55.21 54.87 55.08 55.31 55.42 55.59 55.72 55.70 55.43 55.39 55.32 54.94 54.59 54.70 55.67 56.36 57.71 60.30 54.50 48.32 60.16 59.76 62.56 61.98 57.87 57.56 52.78 53.99 55.12 60.10 56.66 56.62 58.93 53.86 49.86 47.49 43.80 60.98 63.03 63.94
58.78 58.07 56.80 56.58 55.91 55.59 55.34 54.95 54.95 55.41 55.74 55.74 55.52 55.36 55.34 55.17 55.15 55.06 54.27 54.04 55.35 56.22 57.54 59.99 52.52 50.74 50.42 62.22 55.67 56.11 62.17 59.40 55.05 53.22 53.52 59.37 57.89 52.02 51.23 48.14 44.38 45.79 42.01 43.93 55.35 62.01 62.55
58.18 57.05 56.49 56.01 55.76 55.46 55.38 55.14 55.20 55.14 55.48 55.57 55.45 55.45 55.41 55.25 54.71 54.12 53.41 53.24 56.37 57.74 58.57 58.77 57.62 48.49 51.47 51.59 50.59 53.26 60.08 60.46 56.48 52.93 51.27 50.29 48.05 45.41 45.44 43.92 38.92 41.93 41.88 42.76 44.99 58.58 60.20
56.69 56.49 56.08 55.87 55.66 55.37 55.36 54.92 54.66 54.55 54.99 55.31 55.20 54.88 54.73 54.61 54.16 53.27 50.99 45.89 43.42 43.37 49.95 45.42 46.46 48.71 52.47 53.57 51.33 49.90 54.30 57.95 53.17 49.36 43.89 47.12 44.88 42.42 46.44 47.30 48.16 46.19 44.33 44.02 47.81 51.99 57.96
56.50 56.19 55.95 55.86 55.45 55.32 55.00 54.27 53.71 54.03 54.40 54.90 54.84 54.82 54.55 54.16 53.35 52.50 49.08 43.15 45.10 45.74 41.20 49.37 52.63 52.35 54.58 52.96 47.30 49.64 53.18 51.80 50.21 45.19 47.84 45.58 42.84 48.81 50.67 49.86 48.03 46.55 44.22 43.99 48.00 52.95 52.84
56.22 55.87 55.63 55.40 55.18 54.21 54.21 53.67 53.97 54.35 54.76 54.82 54.77 54.59 54.04 53.35 52.50 48.85 44.75 46.19 50.11 46.29 39.46 44.32 48.04 48.78 48.92 49.88 46.20 47.42 50.30 50.45 49.69 47.06 46.38 43.45 47.55 52.01 50.30 48.47 46.86 44.28 41.96 44.17 45.35 52.35 58.42
55.95 55.72 55.70 55.50 54.36 54.93 54.97 55.10 55.06 54.84 54.86 54.69 54.69 54.45 53.61 51.86 45.60 44.11 45.68 47.99 49.59 46.25 33.75 39.04 42.30 48.13 46.73 46.43 43.14 52.87 52.69 51.20 50.20 47.56 48.25 46.21 50.79 51.06 48.78 47.63 47.65 40.52 47.88 48.83 46.72 41.94 38.50
55.91 55.92 54.98 55.54 55.35 55.35 55.18 55.06 54.86 54.86 54.65 54.55 54.35 53.78 52.40 51.07 43.72 45.32 48.38 47.99 47.77 44.49 28.30 44.11 42.56 47.36 43.94 42.78 45.61 46.46 50.11 48.84 45.63 46.89 48.40 47.08 46.55 46.60 45.86 47.52 49.17 46.42 49.99 46.56 45.88 40.80 43.66
55.81 55.58 55.24 55.48 55.47 55.40 55.16 54.94 54.81 54.77 54.51 54.27 53.80 52.78 51.68 47.80 44.36 47.17 49.08 47.14 45.41 35.81 32.26 40.28 43.46 41.79 41.55 41.33 43.53 46.20 46.71 47.98 47.09 44.58 43.16 44.18 47.84 47.77 47.66 49.91 49.51 50.47 45.42 42.14 39.59 37.73 33.94
55.47 55.14 55.29 55.31 55.20 54.88 54.92 54.73 54.79 54.65 54.06 53.39 52.45 51.25 50.16 49.89 45.16 47.15 49.99 46.40 34.84 29.87 42.27 39.43 39.08 40.83 39.46 38.83 41.37 42.34 42.58 39.51 38.05 35.38 34.82 40.69 41.92 44.02 45.69 42.28 45.75 43.71 38.34 32.76 32.32 32.29 33.08
55.16 55.55 55.23 54.55 54.49 54.09 54.68 54.94 54.81 54.31 53.80 52.74 50.92 49.82 49.89 50.42 46.03 48.28 47.30 39.64 30.73 38.86 37.74 41.65 39.81 40.37 38.55 39.11 38.90 41.07 38.63 36.40 41.88 37.62 33.51 33.88 34.08 41.45 44.66 40.89 38.87 40.27 38.92 33.36 28.86 29.53 34.08
55.40 55.19 54.20 54.00 54.01 53.85 54.76 55.00 54.51 54.01 53.41 52.08 50.10 46.98 47.17 49.07 50.90 47.15 42.98 32.30 32.44 36.53 42.14 40.53 39.38 37.19 37.62 40.32 38.86 39.67 37.40 37.20 40.38 38.65 33.57 32.31 34.37 43.04 44.61 43.53 41.82 38.83 36.32 38.61 33.60 31.08 33.39
55.11 54.99 54.35 54.21 54.27 54.35 55.10 54.96 54.51 53.92 53.11 51.53 45.94 46.21 47.59 51.67 50.22 45.04 41.46 35.64 37.14 43.70 43.46 41.50 35.44 37.37 34.08 37.85 38.21 35.76 36.45 40.64 40.64 41.91 37.94 34.66 32.19 37.44 42.65 43.43 42.93 39.17 40.07 35.03 34.28 29.03 28.12
55.03 54.69 54.10 54.55 54.63 55.12 55.34 55.32 54.51 53.74 52.50 50.82 47.20 44.26 49.35 48.85 48.11 43.09 37.19 38.50 42.94 45.89 45.52 40.71 37.51 36.61 35.80 36.19 37.45 36.64 37.58 41.51 43.15 42.29 40.12 33.49 32.79 35.05 38.29 36.69 35.77 36.09 33.71 32.25 32.96 32.56 29.52
54.62 55.12 54.71 54.89 54.98 55.30 55.57 55.14 54.21 52.70 51.19 47.50 45.16 40.25 53.26 48.85 40.97 37.55 35.56 40.98 44.22 44.05 44.62 42.10 41.66 39.17 37.11 36.57 35.38 35.74 36.78 39.45 44.26 41.44 36.57 35.99 30.56 29.27 32.71 38.89 41.07 38.06 33.65 30.42 28.15 28.53 30.65
54.84 55.04 55.35 55.39 55.46 55.69 55.55 54.94 53.78 52.37 51.45 46.04 43.71 42.84 49.96 47.93 36.38 35.04 39.68 42.61 44.07 42.00 41.16 40.78 39.32 40.37 39.30 35.20 33.55 37.24 38.95 44.52 45.63 41.63 36.83 37.52 29.66 27.14 28.23 33.39 36.55 34.59 35.72 32.39 29.95 28.15 27.45
54.66 54.46 55.01 55.33 55.61 55.71 55.67 54.86 53.62 52.74 51.75 46.79 42.18 38.19 41.41 41.82 37.76 37.39 35.81 37.92 39.07 44.80 42.45 42.37 40.48 39.29 37.07 34.55 35.92 34.97 36.80 41.96 43.70 45.26 49.30 41.11 29.35 30.27 27.88 28.07 32.43 32.30 35.87 35.96 30.80 27.22 28.61
54.23 54.42 54.50 55.21 55.63 55.79 55.73 55.06 54.18 52.80 51.55 46.33 41.78 38.94 38.50 34.38 37.56 37.33 38.32 39.49 38.80 36.96 41.07 40.79 39.23 38.45 35.13 31.40 32.29 33.00 36.15 36.91 40.90 43.29 40.28 34.80 28.09 30.52 31.61 36.75 36.43 35.60 36.22 37.14 32.83 32.38 29.61
54.05 54.43 54.68 55.03 55.41 55.83 55.85 55.57 54.61 53.02 51.40 46.19 41.89 40.55 38.72 35.78 36.38 37.07 36.28 35.38 37.84 38.96 37.81 36.85 36.51 38.48 36.75 32.71 32.89 30.82 33.11 32.11 31.78 37.07 34.39 35.84 30.30 30.83 31.56 36.61 36.47 33.99 36.78 37.53 37.69 37.30 36.13
54.00 54.51 54.53 54.90 55.33 55.90 56.00 55.69 54.90 53.09 50.46 45.65 45.43 44.61 40.36 37.64 35.25 33.77 34.28 35.85 38.14 38.96 40.68 40.86 39.85 36.83 35.94 37.81 39.60 38.45 37.55 36.40 34.04 31.97 32.01 33.19 31.31 28.66 24.58 33.00 33.21 28.66 34.40 35.71 38.62 41.22 39.39
53.88 54.41 54.47 54.86 54.95 55.80 56.08 56.14 55.61 54.04 50.98 48.20 46.85 44.56 38.86 34.85 36.37 36.51 39.56 40.41 39.70 38.66 37.24 39.65 39.31 36.01 39.96 41.86 39.99 37.80 35.02 33.66 35.34 32.97 33.07 31.64 30.31 28.30 25.17 28.10 21.01 31.49 37.64 40.12 40.61 41.06 41.80
53.67 54.04 54.18 54.53 54.68 55.58 56.26 56.41 56.02 54.61 53.27 50.25 48.56 46.83 39.58 35.13 38.76 39.86 40.02 39.04 38.91 39.12 38.21 40.17 41.82 40.92 40.55 38.20 32.68 30.10 31.37 32.23 34.97 35.39 34.18 31.88 30.77 26.20 25.19 24.23 28.97 34.56 37.60 37.06 35.59 37.12 42.13
53.30 53.88 53.94 54.37 54.46 55.52 56.37 56.54 56.27 55.25 53.47 49.73 48.64 48.82 44.13 38.59 38.27 43.92 40.12 39.76 35.81 33.96 37.16 40.01 42.51 41.15 40.39 34.48 31.03 25.22 25.77 28.07 30.15 32.04 33.79 33.56 32.29 29.29 26.91 22.91 23.06 31.10 39.93 42.97 40.72 32.41 41.79
53.05 53.43 53.81 54.00 54.43 54.71 55.34 56.09 56.13 55.86 54.06 49.70 49.52 48.83 46.46 39.71 42.07 40.94 38.56 37.98 39.54 36.49 34.83 36.61 38.27 38.30 37.75 30.24 25.31 21.85 24.51 31.68 23.02 25.64 26.45 26.30 29.49 25.15 26.07 23.86 29.90 38.48 39.78 42.56 29.78 30.51 40.19
52.95 53.28 53.53 53.71 54.25 54.46 54.92 55.65 55.68 55.68 55.55 49.45 49.08 50.27 47.30 42.55 44.01 46.75 46.86 42.31 40.98 37.98 34.86 38.12 37.22 35.86 32.76 26.46 23.96 21.26 20.93 23.05 25.93 28.75 28.40 27.31 27.96 23.47 30.82 26.23 23.72 40.09 39.00 34.55 37.45 37.45 39.08
52.64 53.16 53.35 53.59 53.71 54.53 54.78 55.53 55.57 55.22 55.20 51.15 46.56 49.07 50.22 46.19 45.07 48.57 50.12 49.99 48.36 45.46 40.31 37.93 36.01 35.41 34.87 28.84 26.64 24.18 31.32 32.92 26.60 20.51 32.72 26.62 30.74 27.03 31.59 30.28 37.87 38.93 37.02 39.31 39.82 38.08 37.93

GFSGBSN_sfc_wetblb_072.txt.gz
Wetbulb
58.47 58.32 57.83 57.15 56.99 56.86 56.44 55.92 55.63 55.43 55.39 56.02 56.34 56.40 56.24 56.44 56.58 56.75 56.89 56.56 56.45 56.19 56.24 56.81 57.46 58.85 51.43 44.94 48.26 63.65 66.82 68.18 66.86 59.07 54.38 55.23 56.01 55.68 54.37 56.72 58.96 59.37 60.06 60.55 61.12 64.73 65.56
59.29 59.11 57.86 57.15 56.88 56.56 56.01 55.55 55.17 55.28 55.67 56.00 56.06 55.92 55.92 56.21 56.27 56.32 56.26 56.00 55.70 55.74 56.04 56.49 58.23 59.07 46.67 38.34 53.50 64.65 64.96 63.73 60.66 53.92 51.25 56.55 57.09 58.51 56.17 55.65 55.47 58.89 58.88 58.54 57.66 61.57 63.91
59.36 58.99 57.70 57.14 56.53 56.04 55.61 55.22 55.38 55.68 55.82 55.75 55.41 55.66 55.79 55.86 55.80 55.92 55.71 55.41 55.14 55.35 55.94 56.63 59.32 56.68 47.97 44.31 60.03 62.08 63.08 57.14 55.34 53.18 49.92 55.91 60.56 58.16 57.65 55.69 58.54 56.61 52.13 54.12 62.14 62.42 61.96
59.16 57.85 56.94 56.51 56.12 55.72 55.65 55.48 55.54 55.29 54.98 54.92 54.99 54.98 55.34 55.36 55.38 55.33 54.95 54.43 54.64 55.76 56.05 56.96 59.85 53.21 48.07 57.65 60.62 60.91 58.86 56.73 54.85 51.80 52.50 53.94 59.62 56.31 54.72 57.67 52.88 48.49 46.76 43.60 59.76 62.02 63.01
57.35 57.01 56.54 56.20 56.03 55.75 55.34 55.08 55.02 54.64 54.39 54.92 54.73 55.04 55.00 54.90 54.95 54.86 54.09 53.94 56.60 56.68 57.31 59.77 53.10 48.54 49.23 61.88 56.74 59.67 59.39 55.13 53.37 51.21 52.61 56.86 57.41 53.12 50.13 47.08 44.20 45.27 41.41 42.65 53.56 62.60 62.09
56.56 56.44 56.20 56.12 55.62 55.02 54.83 54.71 54.39 53.97 54.33 55.05 55.36 55.15 55.21 55.09 54.90 53.68 52.71 53.16 58.26 58.49 58.23 58.60 57.20 47.20 50.20 51.67 50.95 56.99 60.22 56.55 53.88 50.43 50.00 49.93 47.69 44.13 44.53 43.18 39.65 41.71 41.25 41.58 43.62 58.40 60.19
56.42 56.22 56.05 55.40 55.25 54.78 54.18 54.15 54.33 54.24 54.90 55.21 55.31 55.04 54.98 54.41 54.01 52.57 50.26 45.44 41.92 42.43 49.31 44.57 44.37 46.34 50.46 53.37 50.95 52.17 59.57 55.48 51.88 48.00 41.70 45.16 42.66 40.11 44.03 46.76 47.13 45.62 43.94 42.98 46.26 52.83 56.84
56.38 56.12 55.39 55.04 54.91 54.58 54.52 55.35 55.15 54.95 54.95 55.03 55.17 55.06 54.66 53.47 52.90 52.05 48.87 42.79 45.46 44.89 40.48 48.78 51.31 50.53 52.40 52.59 46.80 47.77 59.46 51.09 48.84 42.85 45.83 44.61 42.03 47.18 49.68 49.02 47.18 45.43 43.24 42.71 47.21 49.24 51.12
55.98 55.90 54.75 55.33 55.51 54.77 55.66 55.61 55.37 55.39 55.25 55.27 55.18 54.80 53.59 52.65 52.31 47.74 42.35 44.26 47.26 45.61 38.61 43.16 47.41 47.84 47.64 50.29 47.08 46.06 53.86 50.96 47.57 45.15 44.98 43.29 46.91 50.85 49.43 47.42 45.82 42.66 41.68 43.00 45.78 46.55 57.53
56.04 55.89 54.69 54.87 54.85 55.04 55.59 55.35 55.27 55.33 55.14 55.00 54.98 54.33 53.19 51.39 44.93 43.53 44.67 47.28 47.31 45.81 33.15 37.72 40.99 46.52 46.36 45.22 41.89 50.96 51.68 51.41 49.53 45.97 46.45 45.54 49.34 49.85 47.20 46.36 46.50 37.12 47.41 48.49 48.43 41.51 38.11
56.28 55.95 54.68 54.96 55.08 54.93 54.38 55.03 55.23 55.16 55.02 54.84 54.74 53.92 52.30 50.49 43.05 45.03 48.06 46.84 45.62 44.64 27.24 42.44 42.29 46.81 42.87 42.08 44.57 45.34 49.42 49.14 46.69 48.07 47.12 45.34 47.00 46.43 45.62 46.96 48.21 45.41 48.34 47.21 46.36 40.14 43.01
55.93 55.69 54.75 54.69 55.06 54.37 54.22 54.56 54.94 54.84 54.76 54.60 53.72 53.14 51.58 47.09 43.35 46.62 47.59 46.36 44.46 36.46 30.34 39.91 42.55 40.82 40.93 40.94 42.27 45.16 45.94 47.22 47.07 43.57 43.37 46.13 46.39 47.38 47.54 48.91 49.90 49.20 43.47 40.42 39.21 36.56 33.36
55.79 55.42 54.75 54.93 54.87 54.44 54.12 54.54 54.96 54.62 54.29 53.70 52.44 51.54 49.17 48.96 44.01 45.51 47.22 45.31 34.37 29.28 40.88 39.53 38.53 40.61 39.40 39.29 41.34 41.77 40.83 39.31 37.34 35.64 34.47 39.68 40.50 42.83 43.90 41.28 44.00 42.98 37.83 31.29 31.37 31.71 32.66
55.73 54.61 54.57 54.71 54.72 54.39 54.66 55.21 54.94 54.50 54.11 52.88 51.12 49.94 50.16 50.06 47.19 47.37 45.79 39.14 31.31 38.09 37.11 41.07 39.54 39.23 38.08 40.36 39.40 40.19 37.71 36.27 40.06 36.40 33.44 33.88 33.43 39.71 43.30 39.64 39.39 39.03 38.29 32.60 28.45 28.82 33.16
55.80 54.33 54.17 54.87 54.37 54.62 55.25 55.16 54.82 54.33 53.48 52.11 49.87 46.59 46.28 48.87 50.04 45.51 42.98 32.41 33.91 36.47 41.33 39.93 38.48 36.66 36.84 40.05 39.28 38.77 35.84 35.84 38.22 36.41 33.69 32.52 33.45 41.71 42.92 42.01 40.52 38.33 35.22 37.31 32.34 29.82 32.17
55.60 54.51 54.60 54.29 55.07 55.21 55.37 55.14 54.76 54.27 53.23 51.58 46.14 45.85 46.55 49.55 48.45 44.66 41.29 36.02 38.68 42.81 42.47 40.15 35.27 36.76 34.10 36.35 37.04 35.93 35.19 39.37 39.14 40.16 36.33 33.29 31.48 36.53 41.22 42.11 41.44 38.46 38.27 34.90 33.85 29.03 27.89
55.16 54.61 55.27 55.07 55.39 55.37 55.53 55.45 54.90 53.99 52.68 50.72 45.91 43.40 48.28 47.48 46.89 42.22 35.54 37.31 42.43 45.40 44.80 39.67 36.73 37.20 36.94 36.34 36.58 34.43 36.11 39.75 41.94 40.68 38.63 32.61 33.01 33.66 37.26 34.50 32.45 34.96 32.60 31.58 32.66 31.32 29.56
54.97 54.72 54.36 54.95 55.41 55.53 55.79 55.39 54.49 53.13 51.45 47.74 43.56 39.57 49.36 47.52 39.73 35.29 34.11 40.85 42.80 42.87 44.33 42.54 40.93 38.82 36.65 36.51 35.91 36.55 36.67 39.59 44.72 40.86 35.75 34.43 30.05 27.77 29.80 37.19 38.85 35.84 32.32 29.31 30.85 29.46 28.97
54.85 54.68 54.71 54.57 55.57 55.75 55.85 55.14 54.09 52.68 51.53 45.13 42.68 40.47 46.85 46.07 35.04 33.20 37.75 40.79 42.09 40.84 39.65 39.66 39.51 39.81 38.43 34.31 33.07 36.81 39.28 43.67 43.55 43.47 37.45 36.06 29.05 25.25 27.49 32.12 35.37 34.03 34.75 29.75 28.48 27.97 27.06
54.59 54.53 54.51 55.19 55.71 55.98 55.79 54.98 53.93 52.48 51.73 46.11 40.59 36.82 40.30 40.09 36.81 35.60 34.12 36.77 37.82 43.62 40.90 41.32 38.81 38.09 35.81 33.84 34.60 33.84 35.84 41.55 42.71 44.78 48.14 41.43 30.78 28.41 25.81 27.91 31.47 32.21 35.56 35.29 29.45 27.76 27.58
53.98 54.46 54.55 55.11 55.86 56.00 56.06 55.19 53.98 52.33 51.70 44.93 40.06 36.30 36.84 33.35 35.83 36.46 36.45 37.26 37.77 36.04 39.82 40.03 37.99 37.27 34.16 30.61 31.61 32.23 35.01 36.61 40.34 42.37 39.67 34.18 29.73 31.65 32.90 35.38 35.53 34.76 35.06 35.88 32.08 31.96 29.47
53.71 54.50 54.38 55.03 55.52 55.98 56.22 55.55 54.37 52.61 51.12 45.41 41.23 38.24 36.60 34.41 34.95 35.41 35.83 34.99 36.09 36.97 37.02 35.52 35.91 37.46 36.17 32.25 31.27 30.08 32.42 32.36 31.41 36.90 34.18 34.32 30.81 31.13 30.36 35.63 34.95 33.42 35.82 36.70 36.24 36.61 34.75
53.37 54.13 54.66 54.97 55.42 55.94 56.26 55.76 54.64 52.82 50.10 45.54 44.20 41.59 39.38 36.97 33.69 32.24 33.15 34.75 37.10 37.74 39.86 40.09 38.68 36.01 35.63 36.82 37.70 36.13 35.37 34.35 32.69 30.96 31.28 32.06 30.59 27.85 24.38 31.62 31.55 28.61 32.67 34.97 38.45 40.33 39.37
53.41 53.99 54.47 54.78 55.05 55.90 56.53 56.12 55.29 53.60 50.66 47.61 45.40 41.22 38.04 34.20 35.33 35.60 38.11 39.19 38.48 37.77 36.21 38.75 38.87 35.50 38.90 40.41 39.23 36.47 35.76 34.93 35.86 33.31 30.80 30.51 28.24 26.95 25.22 26.20 21.10 29.36 36.80 38.68 39.85 40.77 41.60
53.52 53.66 54.17 54.45 54.89 55.34 56.43 56.45 55.76 54.54 52.93 48.99 46.74 44.30 38.76 34.53 37.39 38.60 39.03 38.38 37.96 37.88 37.69 39.30 40.43 39.75 38.44 37.28 31.62 29.74 30.52 30.49 33.64 33.80 32.43 30.82 29.18 25.77 24.45 22.57 27.34 33.90 37.87 38.07 36.73 36.53 41.80
53.19 53.33 53.80 54.13 54.56 54.81 55.83 56.56 56.09 55.03 53.17 48.93 46.76 45.98 41.96 37.99 36.95 42.86 39.15 38.60 34.88 33.08 35.85 38.48 40.65 39.75 38.43 32.46 29.68 24.86 24.87 27.98 29.04 30.47 32.15 32.19 30.84 27.75 25.11 23.09 22.58 30.35 39.33 41.73 40.44 30.46 41.37
52.63 53.04 53.61 53.86 54.05 54.61 55.15 55.74 55.69 55.73 53.80 49.87 48.66 46.91 43.44 39.42 40.97 40.71 37.45 36.53 37.74 35.00 34.14 34.72 36.51 36.60 35.38 29.02 24.23 20.76 23.80 30.10 21.56 25.08 25.91 25.84 26.28 25.30 25.85 23.01 28.95 37.78 39.51 41.77 29.42 30.63 40.17
52.44 52.83 53.27 53.62 53.76 54.37 54.83 55.38 55.19 55.35 55.17 50.21 48.60 48.07 46.58 41.34 42.09 45.04 45.15 40.67 39.42 37.00 34.30 36.62 35.60 34.13 31.01 25.08 23.85 23.76 19.62 26.84 22.86 27.29 26.11 25.78 22.61 23.84 27.09 24.04 23.48 40.17 38.76 34.26 36.30 38.34 39.79
52.23 52.79 52.98 53.41 53.66 54.02 54.56 54.95 55.19 54.96 54.96 49.80 45.55 47.00 48.84 45.52 43.58 46.45 47.85 47.94 47.29 44.13 39.06 36.19 35.03 34.03 33.17 28.59 26.67 22.99 21.78 27.72 26.34 18.28 30.58 24.24 29.60 26.88 29.35 28.70 36.81 38.88 37.45 39.33 39.66 38.09 39.04

GFSGBSN_sfc_wetblb_075.txt.gz
Wetbulb
60.02 59.72 58.13 57.32 56.98 56.48 56.01 55.67 55.50 55.76 55.98 56.14 56.04 55.94 55.88 56.20 56.45 56.79 56.92 56.65 56.49 56.26 56.25 56.70 56.86 58.33 55.83 50.18 49.35 65.53 66.60 70.49 65.60 63.10 59.17 59.38 59.06 61.08 59.96 61.78 61.55 61.27 62.95 63.23 64.22 66.39 66.10
59.34 58.59 57.30 56.63 56.42 56.18 55.89 55.91 55.94 55.58 55.48 55.29 55.08 55.20 55.04 55.66 55.98 56.28 56.30 56.10 55.84 55.78 56.02 56.60 57.01 58.78 51.95 44.59 59.14 64.77 63.54 68.20 63.55 59.03 59.04 60.90 59.10 62.50 61.69 60.38 59.48 60.69 61.29 60.11 61.01 63.36 66.67
58.34 57.11 56.69 56.71 56.39 56.08 55.68 55.61 55.43 55.27 55.06 54.88 54.62 55.00 55.45 55.55 55.80 55.99 55.62 55.09 55.23 55.45 55.73 56.25 57.75 57.04 50.95 48.23 63.11 64.50 64.85 65.17 63.84 57.32 57.43 61.76 63.71 62.32 61.64 59.73 61.63 60.30 55.78 60.55 63.86 63.79 63.97
56.59 56.75 56.49 56.23 55.67 55.25 55.24 55.13 54.84 54.49 54.21 54.19 54.93 55.16 55.24 55.32 55.14 54.92 54.32 53.67 54.68 56.71 56.44 56.78 59.55 57.10 52.26 59.80 63.75 62.99 61.15 58.94 59.20 57.98 56.91 60.08 64.25 62.44 60.11 60.67 56.15 53.67 53.54 51.73 62.73 64.20 64.47
56.70 56.55 55.95 55.71 55.58 55.19 55.05 54.64 54.64 54.88 54.86 55.00 55.04 55.06 55.10 55.00 54.55 54.09 53.30 53.43 58.06 57.52 57.63 59.89 56.98 55.42 52.32 62.61 59.80 61.33 60.40 56.50 57.39 56.43 56.97 58.56 61.86 59.81 56.65 55.02 52.46 52.41 51.12 50.12 58.85 64.52 63.71
56.82 56.32 55.79 55.62 55.31 54.99 54.86 54.84 55.20 55.01 55.34 55.36 55.72 55.49 55.15 54.38 54.05 53.38 52.83 53.14 57.52 59.36 59.46 59.46 58.16 52.32 54.91 54.23 58.63 59.91 61.74 57.99 54.99 54.52 53.39 53.43 55.10 55.26 54.66 52.94 49.47 50.27 49.61 50.02 54.32 62.38 63.19
56.64 55.89 55.60 55.10 55.19 55.15 55.13 54.96 55.18 55.05 54.96 55.24 55.63 55.53 54.33 54.01 53.22 52.21 51.45 53.66 48.84 49.97 54.81 49.33 49.41 50.72 50.36 55.34 60.12 58.50 59.06 56.91 54.17 53.07 48.18 51.18 50.72 49.75 54.45 54.23 52.23 51.44 50.66 49.73 51.31 60.68 59.72
56.33 55.48 55.19 55.06 55.00 54.94 54.90 54.78 55.50 55.39 55.43 55.67 55.61 54.45 53.98 53.63 52.68 51.87 50.84 49.18 50.12 49.80 46.42 50.98 52.39 52.33 54.09 54.95 49.92 57.26 60.14 54.42 50.35 47.24 50.12 48.45 48.42 53.31 54.86 52.99 51.79 51.18 50.17 49.84 51.58 55.36 55.63
56.38 55.61 55.00 54.98 55.69 55.31 55.06 54.74 55.29 55.49 55.53 55.59 55.36 54.51 53.71 52.89 52.37 50.71 47.63 49.88 51.79 51.57 46.43 46.95 50.83 50.60 51.36 54.25 49.44 53.88 58.42 54.69 49.57 47.42 48.57 47.54 51.77 54.49 52.96 51.51 50.87 50.80 50.56 49.72 50.02 51.41 61.11
56.30 56.04 54.73 55.66 55.24 54.64 54.92 54.30 55.00 55.32 55.34 55.24 54.54 54.17 53.18 51.93 47.82 49.40 49.61 51.72 51.93 51.40 42.02 42.39 45.92 49.85 51.41 52.46 47.22 55.93 60.45 55.87 51.57 47.09 49.44 50.85 53.37 54.16 51.75 51.10 52.45 50.12 52.53 51.38 50.70 50.05 47.62
56.41 55.94 54.97 55.38 55.26 54.36 54.05 54.65 55.00 55.16 55.30 54.49 54.10 53.53 52.27 50.53 49.11 50.90 52.22 52.22 50.97 48.52 32.03 44.08 46.15 51.74 49.16 47.89 49.39 50.89 57.69 53.61 51.06 50.22 51.17 49.66 51.11 53.10 51.21 52.10 53.20 51.01 52.70 52.02 51.12 49.51 50.51
56.41 55.74 55.39 55.46 55.20 54.81 54.50 54.90 55.22 55.14 54.73 54.59 53.65 52.53 51.70 49.23 49.11 52.02 51.74 51.55 49.56 40.74 33.26 42.08 45.72 45.77 45.83 46.87 47.16 49.73 50.93 52.20 53.42 51.89 52.11 50.66 53.02 53.38 53.11 53.82 54.12 53.69 49.82 48.18 47.71 47.78 44.33
56.27 55.42 55.21 55.32 55.15 54.71 54.79 55.20 55.22 54.90 54.12 53.57 52.54 51.40 50.07 51.00 51.39 51.50 53.05 50.99 40.73 35.61 44.79 41.42 41.59 44.44 44.76 43.59 44.90 47.99 46.31 45.89 46.69 45.71 46.48 46.57 45.44 47.02 47.79 49.40 52.02 51.48 48.73 43.07 42.11 41.95 43.77
56.31 55.62 55.22 55.09 54.95 55.20 55.36 55.40 55.22 54.90 53.98 52.74 51.17 49.94 51.52 52.77 54.20 53.04 51.69 47.13 35.94 40.55 40.82 45.16 43.19 44.34 41.91 43.82 43.48 44.24 43.90 43.21 45.52 44.72 45.35 44.96 41.20 44.55 46.54 45.95 48.22 49.67 49.33 44.29 38.93 39.86 43.19
56.22 55.33 55.09 55.07 55.10 55.34 55.48 55.40 54.84 54.71 53.70 52.23 49.95 53.53 53.60 53.85 53.47 52.05 50.18 39.57 37.72 39.90 42.88 42.26 43.28 41.74 41.37 43.11 44.39 43.88 42.30 42.12 43.23 44.00 44.57 42.13 40.28 45.39 45.69 46.19 46.36 45.88 45.83 47.21 43.79 42.13 44.18
56.14 54.99 54.69 54.47 55.16 55.40 55.42 55.42 54.92 54.47 53.64 51.95 52.98 52.92 53.35 52.61 53.55 52.55 46.55 39.25 41.57 44.98 44.60 43.56 39.66 41.68 39.76 41.18 42.20 42.52 41.59 43.58 42.98 44.33 44.97 43.00 39.87 42.99 44.26 46.04 46.61 46.60 46.07 44.26 45.54 39.59 39.49
55.90 54.80 54.71 54.85 55.28 55.61 55.61 55.63 54.96 54.19 52.81 51.37 52.04 51.69 54.08 53.04 52.47 49.06 40.88 41.38 43.74 46.13 45.79 43.23 40.98 40.32 40.07 40.84 41.35 40.03 39.95 43.14 44.86 44.73 45.46 43.31 43.20 41.27 44.06 41.39 40.08 44.64 43.77 43.23 45.79 43.25 41.86
55.73 54.94 54.91 54.63 55.44 55.71 55.83 55.57 54.47 52.96 51.33 50.52 51.40 47.56 54.09 53.04 47.41 44.01 41.73 43.30 43.24 44.13 45.22 44.50 44.01 42.13 40.39 40.28 39.53 40.01 39.69 41.51 45.55 45.02 42.03 42.46 42.03 37.98 38.59 42.45 43.02 43.07 40.51 40.86 44.21 41.38 41.89
55.63 54.88 55.19 54.86 55.63 55.91 55.87 55.38 53.98 52.37 51.33 52.46 49.40 48.21 53.80 51.91 42.81 41.67 43.74 43.12 43.90 43.18 42.46 42.33 40.70 42.08 42.02 39.15 38.20 40.62 41.60 44.42 45.87 45.77 42.97 43.72 39.46 36.81 37.68 41.53 43.17 41.25 41.79 40.80 40.21 42.87 40.07
55.33 54.53 54.87 54.66 55.87 56.12 55.87 55.14 53.72 52.49 51.53 50.87 48.39 44.57 48.13 47.31 43.99 43.19 41.39 41.32 41.04 44.53 42.86 43.55 42.02 43.41 41.73 40.14 41.73 38.76 39.61 43.05 44.55 46.70 47.75 45.30 39.99 38.89 38.40 38.41 40.69 39.39 40.29 41.42 41.23 41.93 39.62
54.67 54.12 54.68 54.97 55.83 56.04 56.06 55.22 53.96 52.75 51.36 52.01 47.14 43.30 43.17 40.87 42.48 42.77 42.75 41.25 39.48 39.04 43.00 43.97 41.52 40.73 40.07 39.24 39.55 38.47 40.24 42.12 44.17 44.69 44.65 44.17 38.31 40.18 40.23 40.57 40.55 39.72 39.55 40.10 39.70 40.41 40.14
54.48 53.99 54.76 55.06 55.47 56.04 56.42 55.71 54.41 52.99 51.01 51.30 48.40 45.71 44.21 42.26 41.32 42.28 40.73 39.96 39.38 39.93 40.96 39.34 39.35 40.78 42.08 39.10 39.39 38.41 40.11 40.49 39.10 43.37 42.13 43.12 37.97 39.64 36.63 39.29 39.28 37.95 39.95 40.20 39.89 40.33 40.70
54.09 53.74 54.68 54.96 55.29 55.94 56.44 55.93 54.70 52.89 52.08 52.54 49.60 46.88 47.46 40.20 41.03 41.10 40.31 40.03 40.27 41.99 42.84 43.09 41.83 41.14 40.12 41.17 43.51 43.60 43.69 43.03 42.45 40.77 40.65 40.77 39.65 37.52 33.79 37.34 37.81 35.08 38.93 40.12 41.18 44.09 43.27
54.00 53.64 54.29 54.74 55.19 55.58 56.34 56.28 55.37 53.76 52.23 54.32 51.23 48.12 46.93 41.02 42.38 41.28 42.17 42.81 42.10 42.29 41.37 43.19 44.18 41.83 42.95 45.52 45.38 45.14 44.37 43.77 43.49 41.22 41.22 39.70 38.89 38.45 34.98 35.50 29.08 38.42 43.35 42.05 42.49 44.29 46.01
53.92 53.37 53.96 54.45 54.84 55.13 56.00 56.55 55.82 54.53 52.80 53.98 52.52 50.32 47.59 42.31 43.28 42.90 43.02 42.86 43.29 44.16 43.22 43.49 44.30 45.19 46.42 44.09 40.46 38.25 38.79 39.54 39.78 40.51 40.28 41.26 39.99 35.42 33.74 33.20 34.95 38.14 40.83 41.65 40.88 40.92 45.49
53.03 53.23 53.55 54.29 54.43 54.89 55.44 56.29 56.07 55.25 52.98 54.54 52.44 51.18 49.66 45.60 43.92 45.92 43.94 43.61 42.50 42.29 42.83 43.66 46.13 46.21 45.25 42.56 39.90 34.34 33.81 35.55 34.86 36.49 41.00 41.26 41.11 39.28 35.63 31.01 29.58 38.01 42.80 44.85 45.24 36.91 44.18
52.79 52.91 53.20 53.77 54.16 54.62 55.12 55.67 55.71 55.74 53.98 54.93 53.18 52.85 50.85 47.85 47.57 47.24 45.04 43.35 43.92 42.66 43.00 43.22 43.97 43.63 43.49 40.65 36.90 36.14 34.23 35.35 33.97 34.52 35.29 37.46 38.22 35.52 35.16 33.81 36.41 41.18 43.62 45.47 35.25 38.00 44.47
53.03 52.58 53.03 53.51 53.84 54.16 54.74 55.29 55.34 55.16 55.19 54.72 52.86 52.96 52.91 49.60 49.24 48.62 48.39 45.51 44.53 45.15 42.77 43.47 42.94 41.91 40.62 37.61 37.96 35.25 35.93 33.97 33.43 36.03 36.14 36.35 35.50 35.06 35.63 33.46 30.84 44.14 42.83 39.07 42.39 44.17 44.20
52.33 52.49 53.03 53.31 53.69 54.06 54.53 54.90 55.07 55.04 54.86 51.94 52.29 52.22 53.50 52.02 49.82 51.27 52.40 52.51 51.61 50.34 46.63 44.29 43.05 41.68 41.88 38.08 36.90 37.38 34.85 33.97 33.36 33.03 38.00 33.89 38.73 37.93 38.63 38.56 42.89 44.68 43.52 44.89 44.50 42.42 43.44

GFSGBSN_sfc_wetblb_078.txt.gz
Wetbulb
58.55 57.40 57.14 56.94 56.76 56.50 56.18 55.92 55.92 55.88 55.74 55.67 55.66 55.40 55.36 55.93 56.17 56.52 56.77 56.72 56.58 56.43 56.39 56.94 57.40 58.13 58.84 54.16 51.25 65.71 66.42 67.30 68.75 66.26 63.20 61.23 61.62 61.80 61.43 63.20 63.45 63.85 64.63 64.10 64.31 66.31 66.62
57.26 57.19 56.97 56.80 56.61 56.11 55.75 55.91 55.91 55.62 55.31 55.16 54.91 55.08 55.71 55.91 55.76 56.15 56.44 55.82 55.22 55.53 56.07 56.68 57.51 58.96 56.26 49.15 62.22 64.84 62.19 62.96 65.51 62.95 60.60 60.76 59.80 62.51 62.27 64.02 63.78 64.75 64.30 62.10 62.29 65.49 67.27
57.32 57.03 56.71 56.57 56.26 56.01 56.02 55.66 55.56 55.32 55.24 55.05 55.04 55.32 55.38 55.59 55.74 55.68 55.34 55.02 54.79 55.44 55.97 56.40 57.95 59.41 54.24 51.81 64.24 63.05 66.62 64.31 63.68 61.26 59.03 61.26 61.45 61.65 63.30 62.00 65.42 64.14 60.20 62.19 63.55 63.50 64.99
57.11 56.69 56.32 56.44 56.15 55.86 55.56 55.49 55.72 55.63 55.73 55.47 55.70 55.24 55.27 55.42 55.40 55.27 54.42 53.94 55.12 58.10 57.18 56.93 58.68 59.72 54.05 61.96 65.91 62.05 65.50 64.73 62.29 62.34 61.22 63.58 64.30 62.71 62.97 64.79 62.82 60.84 59.75 56.50 63.71 64.63 65.70
56.76 56.32 56.26 56.11 55.72 55.73 55.72 55.68 55.71 55.54 55.57 55.57 55.15 55.52 55.47 55.36 54.82 54.35 53.40 53.77 58.68 58.22 57.79 58.94 59.47 58.42 53.16 63.61 61.81 62.25 63.78 61.27 60.36 59.74 61.16 62.91 62.98 61.24 62.06 59.22 57.84 59.57 56.88 55.50 60.83 65.80 65.83
56.64 55.85 55.91 55.91 55.89 55.78 55.59 55.65 55.65 55.22 55.32 55.02 56.00 55.62 55.20 54.90 54.07 53.34 52.84 53.23 58.57 59.91 60.44 61.16 60.43 54.36 57.45 55.83 61.64 60.70 61.44 60.89 58.16 56.94 55.63 57.39 59.47 56.66 58.55 57.62 52.26 56.59 56.18 55.23 59.15 64.26 65.44
56.81 56.15 55.89 55.78 55.91 55.86 55.65 55.67 55.32 55.52 55.82 56.02 56.13 55.17 55.32 54.73 53.44 52.73 54.13 58.56 55.27 55.88 55.79 52.39 51.72 53.15 55.95 59.82 62.74 60.21 61.25 58.18 57.60 55.62 50.99 54.32 53.32 51.30 54.29 58.24 57.63 59.06 57.24 55.86 58.42 64.91 63.01
56.70 56.25 55.67 55.45 55.50 55.37 55.22 55.13 55.26 55.68 55.61 55.71 55.85 55.40 54.96 54.02 52.61 51.95 55.93 54.58 53.53 53.60 49.80 54.77 53.75 53.93 55.71 59.61 55.66 58.29 62.00 56.25 53.88 50.84 52.89 50.85 49.67 53.43 55.98 58.64 56.35 56.74 55.66 54.82 55.24 59.00 58.32
56.60 56.16 55.45 55.93 55.87 55.76 55.46 55.22 55.17 55.39 55.68 55.79 55.52 55.02 54.14 52.95 52.77 54.61 55.73 54.22 56.78 56.18 50.18 50.62 53.32 52.81 54.14 55.75 54.37 56.49 59.44 57.77 52.76 50.98 50.83 48.99 51.46 55.19 56.29 56.95 55.11 56.33 56.39 54.58 54.29 55.34 60.41
56.98 56.41 55.83 55.87 55.70 55.54 55.33 55.25 55.59 55.66 55.66 55.48 55.30 54.34 53.36 52.01 51.99 57.43 54.71 56.43 57.86 56.29 46.13 46.59 48.31 51.47 53.70 55.24 51.08 59.75 60.07 57.35 53.14 50.35 51.28 50.46 55.50 54.42 55.53 54.83 56.12 53.45 57.59 55.19 53.82 53.20 53.07
57.09 56.37 55.80 55.47 55.58 55.44 55.37 55.64 55.58 55.72 55.42 55.36 54.55 53.42 52.24 50.66 56.61 55.74 55.77 58.35 57.26 54.49 36.74 45.74 48.65 55.45 55.21 52.06 53.58 55.36 60.09 57.91 52.27 50.79 51.68 50.45 53.42 54.06 53.67 54.75 56.72 54.03 57.50 55.90 54.39 53.53 52.50
57.29 56.55 55.72 55.36 55.29 55.47 55.48 55.32 55.40 55.56 55.26 54.77 53.65 52.55 51.91 54.31 56.94 56.98 57.63 58.28 54.15 44.28 36.30 44.22 48.82 49.17 49.52 50.45 51.62 56.41 57.17 57.05 57.61 52.51 52.66 53.60 57.36 57.88 56.34 56.93 56.83 57.12 55.04 54.88 54.63 53.34 48.08
57.45 56.39 55.37 55.54 55.29 55.50 55.42 55.28 55.56 55.32 54.69 53.89 52.45 51.56 53.26 57.25 56.49 59.13 59.57 55.18 44.40 39.61 47.42 43.52 44.86 48.45 47.68 47.66 49.41 51.81 52.01 50.99 50.97 47.43 48.25 52.07 53.85 55.23 55.74 55.42 57.08 55.40 52.29 47.29 46.59 45.89 46.75
57.56 56.36 55.65 55.27 55.02 55.18 55.52 55.58 55.52 55.18 54.44 53.12 51.29 50.23 55.08 57.92 59.39 58.85 57.54 50.13 39.13 43.69 43.92 47.80 45.38 46.42 44.74 48.27 49.05 50.09 49.92 48.76 50.55 51.10 49.33 46.77 44.84 51.62 50.81 53.32 52.96 53.36 52.24 47.74 43.07 44.10 47.01
57.48 56.26 55.43 54.85 55.02 55.30 55.56 55.58 55.22 54.81 53.96 52.28 50.11 60.10 59.80 58.39 59.11 59.39 53.16 44.83 42.56 43.69 45.73 44.25 45.51 43.41 44.85 46.85 48.23 49.45 48.34 47.58 47.41 49.91 48.63 48.30 44.82 48.47 48.72 50.24 51.55 52.96 50.35 53.67 49.42 50.81 48.48
57.38 55.92 55.41 55.53 55.32 55.54 55.58 55.60 55.24 54.73 53.66 51.87 60.46 59.56 57.87 58.57 59.71 56.37 51.63 42.67 45.60 47.58 46.30 46.91 41.95 44.66 43.65 45.46 46.75 47.79 46.90 47.41 46.93 48.65 50.84 49.80 44.07 47.46 47.33 49.61 50.50 52.53 55.03 48.47 49.44 44.42 43.87
57.51 55.75 55.24 55.46 55.44 55.60 55.97 55.77 55.20 54.08 52.52 51.51 58.84 54.37 57.74 58.92 57.90 55.12 48.72 45.92 46.19 49.20 48.35 46.52 43.37 44.41 44.76 44.67 46.61 45.34 44.49 46.81 48.13 48.16 50.22 50.18 48.80 45.66 48.05 47.27 47.77 49.12 49.74 50.69 51.36 49.73 46.22
57.21 55.61 55.36 55.43 55.24 55.91 55.97 55.71 54.73 53.15 51.41 51.63 57.17 51.15 58.03 58.57 52.27 53.27 48.32 47.33 44.98 46.75 49.64 48.19 47.77 45.39 45.29 45.14 44.58 44.47 43.81 45.21 49.20 49.21 46.88 48.54 48.96 44.77 45.49 46.62 47.73 48.64 48.82 50.80 47.53 47.09 49.15
57.05 55.33 55.33 55.67 55.70 56.15 56.05 55.38 54.18 52.65 51.69 58.27 55.17 53.32 58.16 57.59 48.84 47.54 48.32 46.80 47.41 47.29 45.53 45.97 45.39 46.54 46.46 44.39 42.05 44.95 44.31 46.93 49.74 48.95 48.09 48.39 47.50 42.45 42.73 45.38 47.12 47.48 47.73 48.93 49.57 50.99 48.86
57.05 55.03 54.81 55.79 55.99 56.17 56.05 55.22 53.92 52.87 52.01 56.83 54.38 48.83 52.59 53.92 53.49 49.42 47.12 45.90 44.68 47.68 47.17 47.63 46.07 47.62 46.86 44.50 47.17 42.70 44.21 45.65 48.27 49.38 48.73 50.02 47.53 45.59 42.92 44.88 47.62 44.84 45.16 46.85 48.41 47.81 48.90
56.85 54.33 54.60 55.55 55.95 56.26 56.18 55.50 54.20 53.04 52.06 56.85 53.42 48.03 48.84 46.55 47.92 48.67 48.32 45.66 43.80 43.22 46.77 48.12 46.18 46.13 46.03 43.56 44.44 43.77 44.75 45.43 47.72 48.53 48.76 49.74 44.55 46.03 45.71 45.39 45.66 44.62 44.01 44.39 46.23 47.43 47.07
56.51 54.10 54.40 55.29 55.93 56.26 56.20 55.67 54.67 53.37 51.78 56.79 52.31 51.76 51.17 48.20 47.38 47.12 44.97 44.76 43.08 44.27 45.04 43.44 44.54 46.38 47.73 45.28 46.20 43.99 46.35 47.33 44.54 47.04 46.89 48.05 44.04 45.72 42.91 43.85 43.91 42.72 44.16 44.10 43.98 44.87 47.15
55.78 53.71 54.22 55.18 55.53 56.05 56.28 56.01 54.96 53.27 53.52 56.01 56.75 54.30 51.95 43.95 45.88 46.81 44.79 44.22 43.61 45.41 45.85 46.15 45.28 45.73 44.87 45.18 47.87 48.59 49.21 48.92 48.00 47.44 46.03 45.60 44.63 42.95 40.38 42.19 41.82 39.76 43.78 44.37 45.31 46.40 46.89
55.18 53.69 53.85 54.88 55.23 55.63 56.26 56.34 55.49 54.20 53.20 59.24 56.80 55.43 52.81 45.46 48.16 45.73 45.64 46.17 45.14 45.95 44.37 46.24 46.83 45.90 46.40 50.20 50.21 49.86 49.00 48.24 47.89 46.94 48.09 45.42 44.89 43.98 42.65 41.09 34.28 43.48 46.97 46.24 45.75 47.69 48.78
54.91 53.54 53.60 54.49 54.88 55.27 55.94 56.58 55.92 54.93 53.08 59.02 59.64 55.92 53.66 47.27 47.97 46.75 46.57 46.03 47.15 47.65 46.63 46.38 47.14 48.76 50.49 48.54 44.98 42.63 43.22 43.41 43.78 45.29 46.33 47.97 45.44 41.73 39.52 38.71 40.85 41.55 44.04 44.33 45.34 45.30 48.97
54.01 53.28 53.12 54.22 54.55 55.08 55.56 56.29 56.21 55.30 53.44 59.76 58.59 58.77 55.71 51.44 48.73 48.93 47.28 47.80 46.85 46.11 46.34 46.71 50.01 51.47 49.73 47.78 45.99 39.07 39.44 41.15 39.65 41.37 46.87 44.96 47.21 42.74 40.37 36.67 34.62 43.95 46.82 49.05 48.56 42.78 49.26
53.92 53.18 52.89 53.65 54.06 54.61 55.32 55.73 55.66 55.78 54.42 58.19 58.51 59.34 56.72 53.15 52.20 51.19 49.75 48.96 50.10 48.42 47.52 47.54 47.60 47.07 49.37 46.80 43.46 42.54 40.86 41.33 38.83 38.76 39.83 41.58 42.72 39.62 40.33 38.33 41.44 46.10 47.45 49.21 38.69 43.30 49.34
53.07 52.68 52.64 53.40 53.77 54.24 54.98 55.31 55.38 55.36 55.45 56.04 57.67 59.27 57.11 53.73 53.23 52.64 51.81 50.08 50.09 50.35 48.62 48.15 46.84 46.08 46.27 43.59 44.56 43.47 43.41 41.77 40.19 43.05 42.13 41.28 40.16 39.84 41.32 38.19 36.07 48.67 46.98 42.96 48.09 50.02 49.50
53.05 52.29 52.72 53.26 53.69 53.95 54.51 55.27 55.35 55.34 54.98 53.70 56.89 59.08 59.10 55.79 54.43 56.68 56.35 56.13 54.49 53.66 52.73 50.12 47.56 45.82 47.47 45.45 46.38 45.06 41.24 40.43 40.30 38.60 43.82 39.55 44.10 44.10 42.92 44.44 48.07 49.98 49.41 50.36 49.08 47.73 48.71

GFSGBSN_sfc_wetblb_081.txt.gz
Wetbulb
57.80 57.57 57.22 57.06 56.99 56.85 56.79 56.63 56.49 56.42 55.84 55.70 55.40 55.67 56.17 56.49 56.66 56.73 56.98 57.04 56.65 56.26 56.47 57.13 57.49 58.30 59.57 55.93 54.56 67.80 67.14 67.58 64.54 68.33 65.51 62.00 63.59 64.88 63.29 64.82 65.59 65.53 64.78 65.22 67.17 66.33 68.27
57.65 57.58 57.04 56.93 56.78 56.60 56.39 56.12 56.12 55.95 56.16 56.15 56.02 55.96 55.85 56.03 56.20 56.37 56.52 56.10 55.83 55.85 56.31 56.93 57.50 58.03 57.67 51.52 61.42 65.98 63.63 61.27 62.43 65.63 64.20 62.76 63.44 65.76 63.39 64.64 62.21 66.28 66.34 64.02 65.38 63.93 67.91
57.37 57.17 56.95 56.90 56.93 56.37 56.47 56.39 56.39 56.43 56.28 56.09 56.05 55.91 55.83 56.20 56.15 56.20 55.98 55.47 55.22 56.27 56.74 57.23 57.80 59.33 57.08 54.03 63.49 63.56 62.02 60.77 64.23 64.72 62.22 62.35 62.85 62.27 64.21 63.77 67.99 66.54 62.38 63.16 64.44 66.40 66.31
57.62 56.74 56.77 56.77 56.53 56.68 56.54 56.32 56.43 56.30 56.14 56.16 55.86 55.71 56.00 56.24 56.32 55.77 55.55 54.84 55.59 58.54 58.94 57.83 58.57 59.78 56.63 59.37 64.70 62.42 62.32 62.00 65.37 64.32 62.22 62.60 62.49 61.39 62.67 65.76 64.66 63.76 63.62 58.44 63.34 65.35 66.99
57.48 57.27 56.45 56.78 56.54 56.65 56.40 56.37 56.14 56.16 55.66 55.72 56.09 56.32 56.32 56.09 55.89 55.42 54.33 53.93 56.14 58.06 58.54 58.40 59.62 59.49 54.47 64.28 62.39 62.98 65.38 61.48 62.42 62.11 62.21 62.35 63.00 59.72 62.20 60.69 59.54 61.86 57.92 57.89 61.13 65.77 66.29
57.46 57.03 56.32 56.42 56.39 56.53 56.43 56.28 55.90 56.08 56.22 56.52 56.42 56.36 56.21 56.15 55.56 54.58 53.84 53.72 56.81 58.83 60.25 61.73 61.08 55.02 57.82 55.82 61.25 62.67 64.69 63.32 59.23 59.59 58.89 59.19 59.24 56.49 58.89 58.84 53.75 56.96 57.85 57.97 59.22 64.51 64.36
57.46 56.92 56.33 56.12 56.11 56.20 56.40 56.01 56.04 56.01 56.28 56.34 56.44 56.27 56.03 55.71 54.35 53.25 54.03 59.17 57.64 58.18 58.67 56.00 54.67 54.28 55.60 58.36 62.69 60.34 62.39 61.00 58.96 57.05 53.18 55.68 54.47 52.22 55.75 57.76 59.03 58.83 58.47 56.86 61.25 64.19 63.72
57.29 56.92 56.30 55.86 56.26 56.32 56.13 56.29 56.16 56.24 56.00 56.17 56.37 56.12 55.17 54.19 54.01 53.30 55.42 56.80 55.42 56.07 51.26 56.87 55.19 54.51 58.12 61.33 56.57 58.90 61.06 56.80 55.31 51.89 54.31 52.43 51.42 56.14 57.02 58.13 58.62 58.93 58.03 56.13 60.76 63.44 63.68
57.70 57.09 56.38 56.25 56.23 56.16 56.04 56.10 56.03 56.08 56.22 56.26 56.14 55.68 54.62 53.91 53.36 54.43 58.23 56.07 59.10 58.54 51.41 53.13 55.50 53.13 55.40 59.37 55.89 56.89 59.29 57.32 54.34 52.20 52.75 51.01 52.73 56.09 54.91 55.52 57.19 58.55 58.04 56.65 56.19 60.08 61.29
58.19 57.38 56.58 56.32 56.07 56.01 56.15 56.00 56.18 56.16 56.10 55.94 55.49 54.83 54.05 52.89 50.63 59.74 56.63 58.41 59.69 58.67 47.70 49.29 50.90 53.07 54.97 56.13 53.46 59.63 60.63 57.66 54.83 52.44 53.19 52.67 55.20 53.66 53.11 54.34 57.72 55.49 59.56 57.42 56.74 56.03 53.80
58.52 57.50 56.77 56.12 56.18 56.02 55.84 56.00 55.88 55.72 55.64 55.76 55.64 54.60 52.90 51.52 59.11 56.35 57.50 59.75 59.62 56.97 39.02 48.02 50.66 56.69 55.65 53.12 54.47 56.41 60.38 58.23 53.53 52.32 53.67 51.27 52.49 52.68 52.88 55.33 58.03 55.01 59.30 58.26 56.86 55.35 56.64
58.87 57.64 56.65 55.92 55.99 55.91 55.70 55.66 55.76 55.72 55.54 55.15 54.56 53.44 52.54 57.37 59.53 58.24 59.11 60.09 57.60 45.11 38.01 46.52 50.39 49.53 50.90 52.69 53.19 56.50 56.24 59.02 57.90 52.94 53.80 53.50 55.49 56.73 55.90 57.45 57.62 58.15 57.58 57.67 57.28 54.95 50.37
59.09 57.70 56.58 55.95 55.71 55.68 55.45 55.64 55.65 55.57 54.99 54.48 53.32 51.99 53.05 60.43 58.08 61.57 60.45 57.02 46.07 42.26 50.12 45.28 46.66 49.55 50.44 49.63 50.96 53.29 52.35 53.02 51.56 48.63 48.41 52.00 53.14 57.59 57.74 55.42 57.68 56.97 55.10 49.65 48.19 48.38 47.90
59.16 57.59 56.27 55.84 55.72 55.70 55.50 55.82 55.70 55.47 54.93 53.61 51.56 51.00 56.75 60.44 62.17 61.17 59.06 51.72 41.22 46.59 46.16 49.67 48.32 48.85 47.36 49.24 49.43 52.12 52.36 50.69 53.66 52.74 49.29 48.26 48.07 55.33 58.19 56.42 54.62 54.72 54.40 49.70 44.45 45.86 47.99
59.12 57.52 56.15 55.76 55.84 55.56 55.78 55.72 55.41 55.05 54.38 52.73 50.79 60.46 61.05 62.79 61.96 61.19 54.88 43.92 44.41 46.57 47.95 46.09 46.92 45.39 46.09 48.43 49.71 51.09 51.20 49.87 52.78 54.57 48.92 49.34 48.88 55.01 56.90 58.16 55.89 54.51 51.93 54.95 51.27 52.28 49.01
59.03 57.61 56.02 55.82 55.80 55.50 55.76 55.74 55.43 54.95 53.93 52.20 60.64 60.04 60.08 61.59 61.62 58.83 51.67 44.55 48.04 49.98 49.66 48.06 43.30 46.68 44.24 47.06 47.66 48.61 48.86 50.00 50.58 52.59 54.18 51.41 47.91 52.28 51.99 53.53 55.17 53.99 57.09 50.72 51.08 46.55 45.22
59.03 57.51 55.85 55.80 55.96 55.82 56.00 55.95 55.29 54.58 53.09 51.78 59.47 55.49 59.94 62.60 60.74 55.65 45.68 48.48 48.70 51.31 50.52 46.98 45.25 45.96 45.49 46.26 47.79 46.85 48.46 50.02 51.01 51.93 54.27 52.97 51.55 49.53 51.25 50.75 51.13 52.38 52.12 53.73 53.20 51.94 48.09
58.71 57.23 55.65 55.80 56.00 56.14 56.23 55.74 55.01 53.51 51.80 49.78 58.22 51.68 59.32 61.06 52.24 53.45 49.40 50.43 47.11 50.11 50.71 49.54 48.26 48.32 46.09 47.84 45.19 45.14 47.13 49.32 51.37 52.49 51.11 53.12 51.38 47.19 48.47 52.26 52.42 53.05 53.27 53.66 49.49 49.51 51.17
58.31 57.05 55.47 55.66 56.04 56.31 56.31 55.62 54.42 52.98 52.32 58.82 55.74 54.36 59.45 58.22 47.47 50.01 51.10 49.45 49.84 49.26 49.05 49.00 47.40 48.02 49.67 48.26 44.11 47.32 47.78 49.48 51.80 51.58 51.40 52.33 49.53 45.65 45.90 48.75 51.59 50.15 52.15 53.30 53.73 53.10 50.66
58.34 56.74 55.26 55.65 56.27 56.37 56.13 55.31 54.13 53.26 52.85 56.43 54.97 50.82 54.01 57.64 55.11 51.48 49.46 48.89 47.88 49.72 49.47 50.01 49.05 48.69 48.81 46.66 50.18 47.21 45.75 48.53 50.92 50.57 51.49 53.10 50.44 48.16 44.47 47.44 50.30 48.84 49.36 51.57 51.76 49.08 50.38
58.20 56.40 54.56 55.25 56.13 56.47 56.31 55.60 54.40 53.48 52.83 57.99 55.23 49.96 52.53 49.13 49.97 50.96 51.17 48.57 46.44 46.14 49.51 50.86 49.20 49.27 47.04 45.17 46.18 46.48 48.39 48.84 50.25 53.31 51.98 52.28 47.66 49.21 48.21 48.66 49.96 49.90 49.48 49.17 49.63 51.36 49.28
57.74 55.68 54.55 55.23 56.08 56.45 56.35 55.86 54.77 53.54 52.21 58.10 54.10 53.65 52.80 50.89 50.40 48.80 46.05 47.23 45.53 46.98 48.13 46.60 48.24 48.81 50.37 47.02 48.56 45.94 48.16 48.57 47.81 50.28 50.49 51.13 47.92 48.90 46.33 46.75 47.39 46.10 46.97 47.36 48.84 49.45 50.97
57.50 54.83 54.35 55.07 55.82 56.31 56.39 56.13 55.22 53.64 54.07 57.86 59.41 56.89 54.30 46.96 48.91 49.22 47.68 47.35 45.99 47.76 47.79 48.83 48.79 49.47 48.73 48.67 51.32 52.54 53.14 52.17 52.07 50.78 47.57 48.38 49.02 46.27 43.40 46.25 44.97 42.77 46.47 47.31 48.21 49.48 51.36
57.04 54.40 53.96 54.78 55.45 55.94 56.41 56.47 55.66 54.52 53.48 60.55 58.74 57.64 53.81 48.34 50.02 48.32 47.84 48.03 47.47 48.14 46.37 48.10 49.49 48.42 49.73 53.20 52.97 52.63 51.94 51.48 51.51 51.19 51.92 47.90 47.87 47.75 43.23 46.02 37.63 47.08 50.06 49.16 48.38 49.50 52.12
56.82 53.86 53.52 54.39 55.04 55.51 56.32 56.84 56.44 55.03 53.95 61.01 60.71 58.00 54.94 49.89 50.05 49.11 48.29 47.87 48.87 49.51 48.56 48.23 48.88 51.16 52.79 51.17 48.16 45.10 45.95 46.29 47.01 48.72 49.22 50.64 49.15 43.83 41.28 41.55 44.32 45.23 47.15 46.83 47.47 48.48 51.80
56.26 53.41 52.88 54.04 54.80 55.17 55.85 56.47 56.45 55.46 54.27 60.55 60.51 61.82 57.39 53.49 49.70 50.76 49.55 50.15 49.34 48.19 48.45 48.52 51.68 54.12 52.21 49.93 48.27 41.80 41.52 43.72 43.24 44.18 48.45 47.75 49.89 45.67 43.82 39.92 37.69 46.29 49.51 51.71 50.73 45.52 52.09
55.27 52.94 52.75 53.81 54.46 54.92 55.63 55.94 55.93 55.99 54.70 57.58 60.04 62.13 59.23 54.91 53.67 53.13 51.51 51.52 52.51 50.78 49.18 49.64 49.26 49.57 52.42 49.49 45.94 44.42 44.41 46.17 42.75 41.88 42.73 44.11 45.11 42.50 42.79 41.27 44.66 50.17 50.26 50.71 41.02 46.08 52.91
53.54 52.52 52.62 53.27 54.11 54.69 55.29 55.66 55.65 55.67 55.69 56.47 59.58 60.99 58.31 55.06 55.23 54.51 53.30 52.49 51.50 52.29 49.98 50.54 48.76 48.92 48.43 46.67 47.64 46.52 45.21 45.51 43.86 46.80 45.40 44.60 43.28 43.12 44.15 41.87 39.07 51.40 49.25 45.31 51.14 53.77 53.45
52.89 51.95 52.54 53.31 53.81 54.30 54.98 55.43 55.84 55.75 55.51 54.63 58.53 61.88 61.52 57.59 56.82 58.22 57.56 57.79 56.12 55.64 54.05 52.10 50.37 48.42 49.60 49.79 49.56 49.30 45.96 46.02 43.96 42.13 47.87 43.20 47.63 47.02 45.87 47.06 52.13 52.39 52.13 54.40 54.35 52.44 51.73

GFSGBSN_sfc_wetblb_084.txt.gz
Wetbulb
58.03 57.86 57.60 57.35 57.07 56.97 56.90 56.75 56.67 56.83 56.63 56.83 56.68 56.59 56.56 56.57 56.77 57.01 57.09 57.15 56.76 56.77 56.88 57.28 57.84 58.48 58.39 56.25 54.45 66.46 69.87 68.01 59.40 62.75 66.12 64.11 62.63 64.96 63.27 64.69 66.39 64.33 65.03 67.44 68.26 67.61 66.61
57.75 57.75 57.21 57.00 56.84 56.62 56.77 56.59 56.65 56.72 56.70 56.40 56.38 56.43 56.36 56.10 56.58 57.03 56.69 56.39 56.12 56.31 56.84 57.56 57.91 58.11 56.15 51.07 61.86 67.10 62.74 58.00 58.39 63.14 66.24 64.08 62.08 65.86 64.12 64.28 65.07 65.67 65.58 64.51 66.46 66.87 67.54
58.03 57.21 56.81 56.98 56.70 56.82 56.67 56.72 56.46 56.81 56.25 56.31 55.95 56.09 56.27 56.59 56.75 56.84 56.37 55.85 55.65 56.13 57.87 58.33 58.43 58.45 55.71 54.48 60.85 64.68 62.25 58.40 59.97 63.09 64.24 64.09 63.24 64.33 64.21 62.62 67.39 65.82 62.83 62.78 64.62 67.60 66.50
57.95 57.68 56.82 56.83 57.21 57.19 57.00 56.61 56.78 56.68 56.78 56.42 56.52 56.51 56.65 56.82 56.69 56.05 56.22 55.60 55.23 56.71 59.80 59.52 58.82 58.60 53.35 61.42 60.84 61.90 61.66 59.31 60.61 62.60 64.57 64.29 63.61 61.61 62.30 64.42 66.19 63.44 62.88 57.53 62.95 66.47 66.86
58.16 57.83 57.12 56.71 56.87 56.96 56.65 56.39 56.18 56.11 56.47 56.64 56.65 56.20 56.79 56.69 56.64 56.17 55.45 54.85 55.56 59.12 59.28 59.38 57.31 57.95 54.35 64.83 57.59 61.90 60.82 58.13 61.14 63.59 63.60 62.66 60.82 58.15 59.22 58.40 59.24 61.90 57.25 57.84 60.13 65.83 65.75
58.12 57.73 57.28 56.44 56.50 56.21 56.50 56.69 56.46 56.63 56.52 56.56 56.25 56.44 56.71 56.49 56.09 55.03 54.46 54.11 57.48 58.02 58.87 59.56 60.37 55.84 56.00 58.21 57.64 60.57 63.81 61.64 60.79 60.54 58.42 57.89 57.14 55.48 55.93 56.65 52.73 55.82 56.51 57.93 58.97 63.71 64.86
58.62 57.72 57.05 56.42 56.86 56.70 56.77 56.63 56.45 56.63 56.66 56.39 56.73 56.61 56.19 55.78 54.72 54.45 53.93 58.61 56.82 56.73 59.39 56.14 55.91 55.98 56.30 59.89 60.96 60.03 62.59 61.18 59.68 58.09 53.32 56.18 52.98 51.18 53.91 57.10 59.20 58.94 57.88 56.42 59.36 61.06 63.79
59.31 57.91 57.13 56.59 56.65 56.84 56.81 56.68 56.67 56.43 56.30 56.64 56.51 56.05 55.27 55.24 54.66 54.01 54.14 56.86 55.39 55.96 50.84 58.69 57.93 55.85 57.58 58.66 56.45 58.55 62.51 57.60 55.18 52.17 55.00 53.77 50.53 54.33 55.29 56.92 57.02 57.32 56.24 57.54 59.58 61.80 61.04
60.01 58.73 57.76 57.04 56.68 56.58 56.68 56.61 56.50 56.44 56.10 56.25 55.60 55.29 54.91 54.58 53.80 53.12 57.43 56.72 58.48 58.23 50.57 52.26 54.34 55.02 55.61 58.68 56.59 56.02 58.89 57.28 53.73 51.96 52.32 50.80 52.04 54.96 54.69 54.23 54.56 55.61 55.73 56.70 57.12 57.77 57.46
60.08 58.52 57.74 56.98 56.55 56.51 56.41 56.35 56.18 56.16 55.94 55.86 55.43 55.27 54.60 53.15 50.87 59.25 57.46 58.20 59.49 58.34 46.59 48.91 51.43 54.23 54.78 56.54 55.11 59.42 59.05 56.85 54.29 51.24 52.05 51.83 54.36 53.12 53.81 53.02 54.72 53.07 58.69 58.23 59.29 57.58 53.01
60.11 58.95 57.88 56.94 56.37 56.29 56.24 56.08 56.10 56.32 55.97 55.54 55.28 54.56 53.61 52.42 56.10 56.47 57.98 58.82 59.27 56.44 38.08 49.84 51.26 56.97 54.89 52.36 54.97 55.96 60.45 56.54 52.75 52.24 52.48 50.57 51.84 51.92 51.67 52.87 54.89 55.14 59.55 58.06 57.48 55.64 54.75
59.99 59.27 58.10 56.89 56.49 56.36 55.95 55.83 55.83 55.95 55.89 55.73 54.90 53.82 52.89 56.79 56.75 58.68 58.71 59.09 57.67 45.23 38.74 47.50 50.58 49.63 49.67 51.69 52.59 55.44 56.58 58.26 56.78 54.17 53.28 52.85 55.67 54.21 53.53 54.93 55.40 58.59 57.42 57.96 57.71 55.16 48.97
59.77 59.46 58.05 56.54 56.02 56.07 55.69 55.65 55.73 55.63 55.47 54.96 54.04 52.78 52.77 59.43 57.56 61.63 60.64 56.13 46.24 40.92 50.96 47.08 47.25 49.09 48.44 49.01 50.60 52.86 52.92 51.97 50.55 47.92 48.05 50.97 52.13 53.94 55.79 53.21 56.49 56.75 53.93 48.92 48.24 48.35 47.23
59.52 59.25 57.77 56.19 55.72 55.97 55.81 55.81 55.67 55.39 55.06 53.89 52.14 51.62 55.82 58.99 62.09 61.46 58.47 51.58 41.03 46.30 45.67 51.59 49.38 48.87 46.26 49.16 49.80 50.69 51.29 49.57 52.86 52.22 48.50 46.80 45.43 52.08 56.36 54.51 53.60 54.24 53.12 49.58 44.15 45.04 47.87
59.10 59.09 57.79 55.91 55.74 55.97 55.89 55.83 55.45 55.16 54.52 53.05 51.20 59.31 59.66 61.85 63.02 60.65 54.25 45.26 43.46 45.74 49.70 47.88 48.37 45.36 46.16 48.57 48.95 49.70 49.98 49.81 51.51 53.44 48.66 47.18 47.33 54.31 55.43 56.99 56.50 53.80 51.55 56.14 51.48 52.00 48.47
58.84 59.09 57.81 55.87 55.76 55.93 55.87 55.77 55.47 55.16 54.31 52.81 57.37 59.08 60.24 62.98 61.64 58.72 51.19 41.54 45.37 52.04 50.41 49.28 44.35 46.13 43.70 46.22 46.50 48.25 48.95 51.74 51.53 52.66 54.72 51.57 46.80 53.19 55.47 57.54 57.98 55.25 56.39 50.30 51.77 45.21 44.72
58.58 58.89 57.70 56.05 55.94 56.14 56.14 55.96 55.39 54.64 53.46 52.43 57.13 55.72 60.62 62.09 59.43 54.48 44.01 44.81 50.25 51.18 51.16 48.84 46.25 46.51 46.63 44.97 47.59 47.60 47.52 51.96 52.66 52.08 54.93 52.90 51.39 51.52 54.63 52.69 52.25 52.95 51.65 53.13 52.91 51.32 46.58
58.24 58.53 57.30 55.83 55.90 56.28 56.37 56.02 55.10 53.68 52.10 51.36 57.94 52.59 60.34 59.79 50.71 53.05 49.91 49.20 47.59 50.07 50.43 50.18 49.69 48.04 47.52 48.77 46.14 45.60 44.78 47.30 52.56 52.43 50.18 53.42 52.24 46.59 49.39 53.61 55.41 54.62 53.33 53.58 48.95 49.19 51.13
58.06 58.38 57.41 55.65 56.06 56.50 56.27 55.64 54.62 53.12 52.81 56.66 55.88 54.17 58.31 57.05 49.09 47.04 49.95 49.88 50.70 49.59 49.82 49.29 47.51 48.44 49.72 47.90 45.03 47.57 48.25 52.64 52.26 51.31 50.45 51.51 49.88 44.94 46.83 49.87 52.40 50.40 52.37 53.41 53.63 53.39 50.10
57.94 58.30 57.00 55.66 56.27 56.57 56.23 55.29 54.41 53.34 53.26 55.93 55.75 49.91 54.30 55.70 54.02 51.33 49.94 49.61 48.61 50.70 49.57 50.61 49.07 49.29 47.08 47.12 48.94 45.71 46.30 49.41 51.40 51.43 54.76 55.03 50.02 45.73 42.43 46.86 49.98 48.45 50.48 52.42 52.05 48.88 50.40
57.66 58.22 55.67 55.62 56.35 56.53 56.17 55.60 54.78 53.45 53.29 57.03 56.13 50.25 52.36 48.56 50.10 50.79 50.88 49.44 47.29 47.03 50.38 51.40 49.53 47.55 46.54 44.75 46.74 46.36 47.85 48.73 50.37 55.45 52.80 51.35 47.17 49.40 49.45 49.55 50.60 49.66 49.65 50.20 49.98 51.25 49.17
57.38 57.24 55.36 55.48 56.35 56.63 56.39 55.82 55.23 53.80 52.23 58.74 52.35 52.94 53.53 50.90 50.74 49.55 46.68 47.55 46.80 47.25 48.67 47.20 48.04 49.89 49.22 46.11 47.49 46.38 47.93 48.61 49.12 50.34 50.94 51.46 47.12 49.91 46.62 48.29 49.07 48.53 49.90 50.48 50.48 51.08 52.23
57.02 57.20 54.72 55.08 55.90 56.31 56.45 56.10 55.39 53.92 53.97 57.73 57.91 57.30 54.86 48.16 50.34 49.12 48.09 48.01 46.91 48.29 48.10 50.25 50.63 50.55 49.51 48.75 51.93 52.45 52.68 52.25 51.68 50.49 49.68 49.10 47.89 47.20 44.31 46.94 46.29 44.37 47.53 47.91 49.20 51.05 54.46
56.76 56.68 54.39 54.23 55.45 55.95 56.45 56.47 56.07 54.62 53.31 59.37 58.82 59.08 54.12 48.45 49.82 48.74 48.61 49.23 48.61 48.93 47.00 48.64 50.37 49.99 51.23 53.75 53.39 52.64 52.20 51.75 51.25 50.56 51.15 48.85 48.26 47.13 43.49 45.99 38.22 47.49 51.18 50.27 49.30 50.38 55.57
56.53 56.19 53.98 53.95 55.21 55.63 56.50 56.82 56.64 55.40 54.15 57.86 60.17 59.07 55.71 49.39 50.29 49.26 48.57 48.15 49.51 50.32 48.67 48.56 49.27 52.17 53.30 51.48 48.38 46.33 46.36 46.88 48.11 49.82 49.47 50.68 49.02 44.34 40.99 41.70 45.35 46.40 48.41 47.94 47.67 48.09 55.63
56.31 55.06 53.55 53.81 55.00 55.29 56.07 56.75 56.81 55.75 54.58 57.86 60.43 61.10 58.91 53.37 49.84 51.08 49.72 50.88 49.68 48.51 48.76 49.68 51.91 53.62 52.45 49.99 47.07 42.00 40.65 44.10 43.47 45.32 49.19 49.08 50.84 46.15 43.99 38.93 37.01 46.00 50.14 52.46 50.66 45.20 53.72
55.47 53.31 52.91 53.70 54.77 55.25 55.81 56.23 56.53 56.49 55.05 55.57 60.34 61.90 59.20 54.78 53.39 53.71 52.08 51.10 52.05 50.66 48.96 50.06 50.22 50.10 52.60 49.21 45.40 44.16 43.77 47.46 43.21 42.29 43.42 43.79 44.95 42.48 42.71 40.73 43.98 50.49 50.34 51.21 42.41 46.61 54.19
54.31 52.88 53.02 53.68 54.51 55.10 55.56 56.01 56.38 56.49 56.00 55.75 60.41 62.03 57.82 56.16 55.40 54.60 53.52 52.39 51.57 52.62 49.78 50.89 49.36 49.81 48.88 46.63 46.07 45.94 44.94 46.83 44.69 47.49 45.86 44.22 42.55 42.15 43.13 41.02 38.82 52.17 49.62 45.37 52.08 54.87 54.45
54.49 52.44 52.87 53.41 53.94 54.65 55.12 55.90 56.26 56.31 55.85 55.40 58.95 62.03 61.71 57.72 56.88 57.61 57.42 57.81 56.97 55.85 53.58 52.08 50.44 49.85 50.29 48.58 48.43 48.31 45.43 46.25 44.08 42.08 49.00 44.08 47.24 46.05 46.56 46.44 52.43 53.56 52.94 55.10 54.74 53.38 53.73

GFSGBSN_sfc_wetblb_087.txt.gz
Wetbulb
58.28 57.92 57.60 57.12 56.85 56.80 56.49 56.52 56.31 56.35 56.33 56.52 56.45 56.44 56.27 56.32 56.55 56.82 57.28 57.08 56.40 56.34 57.06 57.45 57.86 58.27 56.00 51.73 51.87 64.80 71.27 70.41 63.00 58.46 57.32 62.36 61.06 60.16 60.36 63.01 64.05 60.03 62.93 66.17 66.75 65.70 65.43
58.45 58.22 57.50 56.81 56.89 56.68 56.56 56.23 56.38 56.28 56.51 56.13 55.90 55.81 55.95 56.39 56.52 56.67 56.50 56.54 55.90 56.25 56.65 57.35 58.52 58.15 53.21 44.96 63.30 64.62 60.08 57.75 54.72 55.77 58.56 63.60 62.55 61.72 63.03 62.80 63.92 65.26 64.85 65.99 65.70 64.39 65.46
58.85 58.32 57.54 56.70 57.11 56.61 56.49 56.70 56.56 56.82 56.53 56.51 56.49 56.23 56.09 56.22 56.25 56.69 56.29 55.96 56.06 56.07 56.64 57.97 58.70 57.30 52.40 50.72 62.37 64.12 58.85 52.51 53.26 55.71 61.70 64.98 65.13 58.92 62.75 60.51 65.69 64.68 61.91 63.76 65.42 64.68 64.33
59.03 58.65 57.61 56.99 56.28 56.13 56.30 56.81 57.11 56.99 56.80 56.70 56.64 56.34 55.93 56.40 56.93 56.73 56.49 56.09 55.75 56.11 57.46 60.35 59.32 55.05 49.17 57.46 58.95 60.32 59.14 55.38 54.23 56.85 63.50 64.95 63.44 58.03 56.96 60.35 63.02 61.69 61.35 57.02 62.79 64.85 65.27
59.34 58.74 58.10 56.97 56.73 56.24 56.90 56.97 56.66 56.97 56.96 56.78 56.36 55.99 55.97 57.05 56.70 56.29 55.39 55.29 55.79 57.27 60.15 59.86 54.43 52.49 50.47 62.65 56.23 56.84 58.93 55.82 54.26 56.95 59.11 63.35 60.23 54.67 54.88 51.71 52.71 58.67 53.57 56.39 58.99 66.02 64.57
59.96 59.23 58.34 57.28 56.49 56.76 56.85 57.08 57.14 57.02 56.90 56.06 55.78 55.76 56.26 56.27 55.26 54.40 54.41 54.46 55.66 56.07 57.84 58.13 56.62 50.20 55.18 55.62 57.02 56.57 57.88 57.60 54.47 56.68 56.39 57.18 52.43 48.66 48.81 45.91 44.27 51.78 54.10 56.72 56.79 62.92 63.18
61.04 59.28 58.42 57.21 56.81 56.89 56.96 57.02 57.06 56.96 56.49 55.98 56.54 55.88 55.22 55.21 55.31 54.38 52.83 53.94 51.59 50.93 55.90 50.59 50.74 55.12 56.37 57.35 58.07 56.14 58.97 56.24 56.90 56.19 49.82 52.25 45.56 43.41 48.09 50.52 52.45 54.73 54.71 55.40 58.97 61.44 62.01
61.05 60.37 58.91 57.71 57.21 56.86 56.90 57.07 56.85 56.71 56.34 55.96 56.01 55.65 55.21 55.01 54.80 53.97 51.57 52.02 55.30 51.21 46.21 56.05 56.12 55.91 57.84 56.26 53.10 56.06 59.69 54.55 53.72 49.43 51.53 48.04 44.62 50.66 53.64 53.65 53.05 52.47 53.53 55.13 59.24 61.36 59.46
60.75 60.20 58.29 57.78 57.10 56.81 56.75 56.61 56.42 56.38 56.36 55.65 55.45 55.26 54.97 54.54 53.95 50.92 51.34 54.63 59.05 53.89 45.74 49.77 52.15 55.46 54.90 53.74 53.62 53.99 56.36 55.97 51.48 49.42 50.16 46.71 49.86 54.03 52.95 51.03 50.52 50.56 51.46 52.90 56.17 58.52 57.79
60.16 59.88 58.54 57.79 56.86 56.65 56.52 56.36 56.28 56.22 56.32 56.22 55.36 54.77 54.17 53.30 50.77 54.65 53.99 57.29 58.41 55.11 40.31 46.01 47.36 50.94 54.04 53.83 52.00 58.61 58.07 55.73 52.40 48.14 49.67 48.78 52.75 52.15 50.77 49.22 50.10 45.33 53.17 55.02 55.25 54.35 49.27
59.67 59.74 58.50 57.69 56.62 56.37 56.28 56.22 55.94 56.12 55.91 56.01 55.99 55.03 53.27 52.77 49.96 51.71 55.00 54.57 54.66 51.76 32.27 49.05 48.79 55.56 52.75 49.41 51.43 55.04 57.90 54.69 50.27 49.57 48.40 46.76 49.09 49.00 48.49 49.70 52.11 49.16 54.76 56.80 57.34 53.62 53.00
59.45 59.70 58.78 57.95 56.54 56.18 56.12 55.67 55.79 55.73 55.73 55.69 55.55 54.73 53.58 52.34 51.98 53.93 57.71 57.49 53.34 40.56 35.79 48.12 49.35 48.32 47.81 48.54 49.68 53.01 54.49 54.91 54.18 50.64 50.16 49.36 52.61 50.96 49.97 52.39 52.60 54.06 51.48 55.21 54.74 52.94 44.62
59.31 59.48 59.16 57.89 56.09 55.86 55.75 55.63 55.77 55.49 55.27 54.96 54.04 53.12 51.92 56.03 53.04 58.34 59.25 52.86 40.56 36.09 49.49 47.08 47.31 49.10 46.13 45.57 47.23 48.42 50.55 48.90 46.32 40.40 42.51 48.83 49.13 51.60 52.77 48.08 50.90 50.00 45.15 43.51 42.61 44.26 43.16
58.93 59.06 59.04 57.78 55.82 55.66 55.85 55.84 55.67 55.39 54.96 53.87 52.43 51.85 52.38 55.94 57.91 58.65 57.19 46.89 38.40 45.55 44.47 49.69 49.28 48.91 45.67 45.52 46.17 47.94 48.30 46.19 49.88 48.31 43.81 42.29 40.60 48.42 52.08 48.18 46.60 46.83 46.92 41.89 40.26 40.60 42.11
58.57 58.76 58.98 57.76 55.80 55.74 55.94 55.80 55.41 55.11 54.46 53.11 51.33 54.26 54.84 57.94 59.14 57.92 51.05 42.09 41.63 45.01 48.99 47.03 46.56 43.36 43.89 45.68 46.63 46.08 47.35 46.98 49.32 49.58 42.73 41.10 42.79 50.90 51.89 52.52 50.71 47.37 46.10 49.82 43.68 46.61 41.31
58.47 58.63 58.74 57.80 55.64 55.66 55.92 55.74 55.23 54.94 54.25 52.88 51.14 54.47 55.38 60.61 61.12 56.54 48.52 40.51 45.72 50.72 50.64 48.47 42.20 45.61 41.29 43.97 44.57 45.01 46.71 49.48 49.17 51.35 48.85 46.42 41.26 48.63 51.48 52.99 53.47 50.00 51.54 44.56 42.88 38.23 36.79
58.05 58.36 58.60 57.76 55.68 55.68 56.22 56.02 55.21 54.50 53.48 51.83 53.65 51.34 58.18 60.26 60.23 52.98 43.35 44.55 47.79 51.60 51.50 46.75 45.30 44.59 44.08 44.15 44.76 43.75 45.59 48.96 51.00 51.28 50.52 48.78 44.75 45.97 50.16 46.93 47.92 48.47 46.12 46.63 45.54 44.68 39.12
57.90 58.00 58.30 57.42 55.32 55.80 56.34 55.80 54.76 53.51 52.14 52.13 53.91 49.50 59.73 59.00 49.56 49.34 44.88 47.95 48.76 49.39 49.45 48.91 48.26 47.10 45.66 46.14 45.35 45.33 44.64 46.41 51.29 50.85 45.94 50.18 43.10 41.48 45.85 52.23 53.75 51.05 48.44 46.39 40.85 40.70 44.63
57.80 57.90 58.30 56.53 55.42 56.24 56.26 55.49 54.21 52.95 52.86 52.44 51.23 54.05 56.66 53.94 45.77 46.17 49.10 48.90 51.11 49.04 48.21 48.16 46.76 47.37 48.98 46.19 42.66 45.65 47.38 50.39 51.53 50.14 44.45 48.64 41.75 38.76 41.62 47.88 49.49 45.61 47.79 46.52 46.18 44.65 43.29
57.69 57.92 58.11 55.84 55.61 56.37 56.24 55.31 54.11 53.34 53.36 52.08 52.80 49.06 52.15 53.30 52.93 48.59 46.86 48.25 48.06 50.32 49.25 49.72 48.78 48.31 45.70 45.39 47.00 44.50 46.11 49.76 50.59 51.68 56.84 52.51 44.15 43.51 38.81 40.92 43.65 43.33 47.39 47.78 44.40 39.83 44.86
57.40 57.64 57.89 55.90 55.73 56.51 56.18 55.43 54.50 53.68 53.02 52.05 55.08 48.69 50.24 44.31 46.88 47.17 47.64 48.00 46.36 46.12 49.68 49.94 48.92 48.49 45.24 40.95 43.49 44.42 46.38 47.18 49.45 54.93 51.31 47.99 41.45 44.14 46.54 48.20 48.19 46.68 46.93 48.20 44.18 49.47 47.97
57.06 57.40 57.97 55.96 55.51 56.29 56.35 55.80 55.13 54.03 52.17 57.28 50.31 48.67 52.28 47.02 49.80 49.25 45.78 44.98 45.20 45.54 46.00 45.79 46.96 48.63 47.02 42.95 43.84 43.69 45.96 44.59 45.22 48.83 47.36 47.29 42.09 45.63 44.61 47.99 46.76 45.11 48.11 48.98 47.87 52.61 51.68
56.88 57.08 57.61 55.92 55.46 56.21 56.33 56.06 55.39 53.83 52.84 56.62 57.40 57.01 54.78 49.84 48.26 46.02 44.97 46.03 46.00 48.83 47.62 47.90 48.62 49.02 46.48 47.20 49.33 48.67 48.27 47.75 46.38 44.94 44.42 45.75 43.39 41.96 37.55 45.12 44.46 41.68 46.11 46.22 47.93 53.93 52.88
56.50 56.84 57.09 55.03 55.03 56.07 56.27 56.53 56.02 54.84 53.22 54.08 57.85 55.71 52.64 47.88 47.22 46.50 47.22 47.44 46.75 47.61 46.57 48.09 49.00 47.55 49.05 51.91 51.11 49.16 48.53 46.42 48.04 43.97 45.51 43.97 44.39 42.60 38.69 41.82 34.94 43.14 47.31 48.24 47.53 55.17 54.58
56.50 56.70 55.76 54.42 54.99 55.91 56.33 56.68 56.60 55.51 54.19 53.51 57.71 55.57 54.30 49.45 48.17 48.22 47.79 48.22 48.41 48.19 46.79 47.41 48.58 49.22 50.29 48.01 43.71 41.99 41.11 41.82 44.76 46.67 44.46 44.92 43.11 40.16 35.98 34.91 42.39 44.71 46.34 45.85 48.00 51.04 55.74
56.64 55.57 54.17 54.26 54.64 55.45 56.24 56.71 56.68 56.06 54.54 54.56 57.85 59.30 56.59 52.87 46.78 50.75 49.49 51.38 47.35 46.06 46.97 48.00 50.26 50.09 48.99 45.09 42.85 38.10 36.92 42.59 41.62 44.28 45.25 43.94 44.95 41.27 37.99 33.13 32.87 41.08 47.44 49.10 48.26 46.27 55.78
55.95 54.20 53.88 54.24 54.44 55.23 55.82 56.46 56.99 56.84 55.31 53.93 56.33 60.84 57.22 52.95 51.69 52.92 49.46 48.54 51.04 49.74 46.13 47.27 48.09 46.85 47.98 44.61 40.54 39.84 39.79 46.23 39.63 41.04 38.63 38.64 39.90 37.31 37.64 36.65 41.99 47.17 48.47 48.82 39.45 43.47 53.27
56.54 54.65 53.77 54.21 54.47 54.72 55.47 55.92 56.80 56.80 56.13 54.59 57.09 61.53 56.84 53.19 53.61 54.69 54.21 52.12 51.63 50.36 45.92 48.38 46.72 47.11 45.38 42.86 42.78 41.86 40.71 43.51 41.19 43.34 41.72 39.81 36.94 37.30 38.46 36.69 34.83 51.18 50.25 44.85 47.37 49.21 51.78
55.83 55.42 53.41 54.02 54.45 54.31 55.17 55.89 56.46 56.35 56.22 55.58 57.84 61.07 60.93 55.79 55.40 57.48 56.96 57.11 56.20 54.36 50.38 49.18 46.83 47.96 46.07 45.85 45.20 44.82 41.57 41.90 39.97 36.70 45.00 38.98 42.37 41.22 43.12 41.74 47.98 50.44 49.59 51.02 51.13 49.82 49.86

GFSGBSN_sfc_wetblb_090.txt.gz
Wetbulb
58.73 58.48 57.68 56.91 56.86 56.67 56.72 56.56 56.39 56.28 56.38 56.36 56.19 56.13 56.01 55.85 56.01 56.31 56.53 56.47 56.46 56.46 56.51 57.09 57.25 58.47 54.32 48.89 49.61 61.30 72.64 69.73 68.01 58.37 54.07 54.36 57.79 58.24 55.80 60.65 64.44 63.17 63.55 65.86 65.95 65.65 65.65
58.84 58.55 57.94 57.31 56.64 56.48 56.23 56.13 56.45 56.10 56.04 56.11 56.56 56.25 55.92 55.94 56.09 56.28 56.38 56.21 55.91 55.94 56.40 56.59 57.68 58.26 50.69 41.96 56.83 66.07 64.20 61.32 57.47 54.88 53.58 57.29 60.92 61.54 58.07 60.77 61.92 63.78 65.28 65.51 65.03 63.67 63.89
59.39 58.85 58.12 57.56 57.28 56.95 55.93 56.86 56.61 56.79 56.74 56.88 56.46 56.29 56.38 56.17 56.31 56.56 56.22 56.03 56.32 56.18 56.40 57.05 58.40 56.95 51.29 47.46 59.32 61.54 56.38 52.53 50.63 53.60 55.92 56.29 61.95 60.14 58.56 56.45 66.17 64.76 60.60 62.85 63.61 64.11 63.00
60.15 59.36 58.56 57.74 57.36 56.89 56.83 56.83 56.92 56.91 56.98 56.82 56.12 56.09 56.06 55.90 56.30 56.03 55.48 56.01 55.75 56.19 57.00 58.75 59.89 53.85 46.32 56.65 55.61 56.22 56.65 52.40 51.07 52.33 54.66 61.47 63.31 59.66 56.32 56.56 56.57 60.54 61.69 56.12 61.78 63.21 64.01
60.99 59.90 58.92 58.17 57.57 57.15 57.05 56.90 56.96 57.21 57.14 56.14 56.07 55.90 55.76 55.78 55.73 54.80 54.10 55.08 55.79 56.86 58.11 59.87 51.08 49.18 46.93 61.29 55.13 55.25 57.24 53.56 49.47 51.09 54.20 59.64 58.21 54.43 53.33 49.15 46.56 54.71 52.64 55.25 58.77 64.46 62.87
61.30 60.72 58.83 58.48 57.31 57.00 56.99 57.18 57.27 57.18 56.96 55.97 55.85 55.81 55.38 54.92 54.60 54.83 54.23 54.67 54.87 55.46 57.30 58.25 55.86 48.28 52.64 53.79 53.20 54.64 56.85 56.04 51.45 51.15 53.49 53.22 51.56 47.90 45.68 44.29 39.65 44.97 50.88 55.00 55.78 61.32 62.13
61.08 60.79 59.36 58.40 57.43 57.07 56.65 56.91 57.02 56.80 56.94 56.01 55.81 55.32 55.13 54.64 54.39 54.01 50.57 49.93 49.74 48.94 50.79 46.49 47.56 51.79 55.20 55.68 57.47 53.41 55.78 53.94 51.59 51.42 46.37 50.81 44.43 41.98 45.22 46.90 48.77 48.53 48.10 50.26 58.08 61.47 56.95
60.59 60.48 59.93 58.45 57.81 57.09 56.58 56.78 56.94 56.64 56.56 56.42 55.72 55.25 54.78 54.41 53.61 53.45 49.07 47.39 52.18 49.19 42.88 54.03 53.34 53.60 56.11 55.16 51.92 53.27 55.65 49.89 49.52 46.79 49.61 46.23 42.31 47.49 50.72 50.81 49.81 49.12 49.50 53.76 58.94 58.52 57.47
59.61 59.84 59.58 58.29 57.84 56.95 56.86 56.71 56.53 56.35 56.29 56.47 56.25 55.12 54.39 53.81 52.94 49.57 47.62 50.00 54.65 52.96 42.85 46.88 52.67 52.69 53.17 53.00 51.59 51.18 53.84 52.91 49.97 47.99 47.52 43.19 46.63 51.35 51.15 49.24 48.40 46.51 48.07 49.81 56.37 56.47 57.35
59.02 59.31 59.27 58.29 57.84 56.70 56.58 56.51 56.29 56.29 56.11 56.08 56.16 55.36 54.32 52.98 49.23 49.97 50.04 53.43 53.58 52.18 36.59 42.69 43.55 48.92 50.61 52.15 48.93 56.28 56.28 54.35 50.42 47.43 47.54 46.14 51.20 50.63 49.00 48.20 48.11 39.74 50.76 50.74 56.49 53.59 48.83
58.96 59.07 59.23 58.45 57.94 56.38 56.19 56.13 56.07 56.11 55.92 55.98 55.92 55.32 53.96 52.56 47.27 48.14 52.13 52.05 53.84 47.49 28.89 49.54 45.15 52.31 49.77 47.53 49.79 52.19 56.55 53.33 49.72 47.53 46.31 44.76 48.19 48.10 47.22 48.85 49.70 46.51 51.49 50.75 56.75 52.81 50.77
58.80 58.95 59.13 58.96 57.92 56.24 55.83 55.86 55.90 55.68 55.62 55.54 55.20 54.40 53.54 50.18 48.97 51.17 53.58 53.83 48.50 37.94 31.97 46.53 48.59 48.44 45.27 45.20 47.93 49.49 52.33 53.26 52.73 48.43 47.50 47.13 50.78 48.85 48.71 50.70 50.00 51.32 50.35 52.35 54.60 51.32 45.38
58.80 58.75 58.89 58.67 57.60 56.09 55.48 55.64 55.68 55.44 55.20 54.77 53.81 52.85 51.66 53.60 48.41 52.64 52.50 47.98 37.71 32.89 47.41 45.22 44.63 46.87 43.99 43.26 45.02 45.04 46.63 45.99 43.71 38.61 38.51 45.50 47.28 49.68 50.09 45.12 47.63 46.66 43.42 38.63 38.97 41.52 42.19
58.37 58.51 58.55 58.19 57.23 55.81 55.60 55.94 55.66 55.20 54.73 53.74 51.96 51.27 50.20 52.91 51.60 52.87 50.47 43.91 35.05 43.39 42.39 46.76 46.48 44.32 41.63 43.68 43.12 44.64 44.21 43.21 46.24 44.17 39.74 38.43 38.81 46.35 49.57 46.70 44.43 43.41 44.29 39.07 35.97 38.11 44.45
58.06 58.29 58.23 58.03 57.39 55.89 55.54 55.80 55.34 54.95 54.22 52.88 51.16 47.48 48.83 52.05 53.35 52.13 46.95 37.57 37.96 41.17 47.13 46.01 44.38 40.02 40.87 44.55 45.19 44.77 43.89 43.49 46.99 46.12 40.54 38.02 40.09 49.35 49.70 49.31 48.09 43.83 41.78 46.61 42.58 46.02 39.91
57.65 58.00 58.12 57.91 57.49 55.55 55.66 55.78 55.28 54.63 53.98 52.24 47.32 48.09 49.49 55.97 56.40 51.26 42.49 37.90 41.32 48.54 48.42 46.64 37.31 42.16 38.41 41.48 41.57 42.75 44.32 48.37 46.91 48.89 46.66 43.13 39.08 45.72 50.35 48.88 49.41 47.16 48.85 41.96 40.12 38.06 35.30
56.96 57.78 57.87 58.09 57.01 55.41 56.17 56.05 55.22 54.30 53.27 51.73 49.12 45.74 52.08 55.27 55.02 46.08 38.73 39.46 46.37 49.44 49.42 44.27 40.75 41.02 40.38 40.82 42.09 40.96 44.21 48.98 49.54 48.02 47.12 43.57 41.40 43.05 47.49 43.06 43.83 44.81 43.45 43.43 43.03 40.49 38.35
57.29 57.54 57.73 57.73 55.57 55.65 56.33 55.80 54.85 53.32 52.18 51.09 46.91 43.50 54.08 54.89 44.88 42.59 39.29 44.69 47.71 48.38 49.45 46.47 44.98 44.52 42.70 44.63 41.01 43.60 44.76 47.39 51.30 48.98 43.41 44.85 39.47 37.50 43.04 49.96 50.28 47.71 46.16 44.28 39.50 38.96 41.41
57.22 57.35 57.81 57.47 55.77 55.71 56.25 55.42 54.41 52.78 52.22 48.64 45.34 45.80 53.47 52.52 39.74 39.95 43.94 47.26 49.12 47.64 46.49 44.97 43.51 44.54 45.60 42.49 38.53 45.43 46.60 51.50 51.14 47.35 42.47 43.47 38.88 34.84 39.89 43.83 46.61 43.56 45.24 42.70 41.98 41.27 40.16
57.46 57.03 57.92 57.81 56.20 55.78 56.23 55.22 54.16 53.14 52.63 49.03 46.04 43.47 45.52 46.22 44.90 42.63 41.93 44.75 45.99 50.93 47.86 48.81 46.67 44.04 42.87 40.91 43.25 41.87 44.51 50.13 51.48 49.48 56.06 49.44 38.81 37.42 34.05 38.10 43.09 43.72 45.47 43.99 40.66 37.90 44.77
57.48 57.57 57.65 57.83 56.38 55.88 56.15 55.50 54.61 53.55 52.37 49.38 47.60 42.99 42.32 38.69 40.62 40.79 42.78 44.62 44.09 42.79 45.54 46.36 44.65 46.81 43.58 38.63 41.23 42.38 45.43 45.51 48.57 54.95 49.10 44.07 37.87 39.44 41.38 45.00 46.53 45.39 44.73 45.18 42.54 44.98 43.91
57.15 57.05 57.41 57.55 56.02 55.84 56.29 55.72 55.18 53.92 52.01 51.57 46.11 45.39 47.21 42.58 41.22 41.90 40.09 38.31 42.17 42.00 41.51 41.59 45.21 46.42 44.13 40.92 40.09 39.67 41.76 43.31 43.58 45.19 44.45 43.50 38.94 40.92 40.00 45.61 44.74 43.08 45.56 46.11 49.82 52.32 51.69
56.89 56.91 57.21 57.29 55.62 56.08 56.31 55.95 55.60 53.98 51.29 49.97 51.91 50.80 48.54 45.02 39.86 40.24 38.86 41.28 43.96 45.51 44.71 46.83 47.46 46.68 43.02 45.24 47.09 45.34 44.35 44.43 44.66 44.47 42.72 42.87 39.38 40.43 36.81 41.90 41.06 37.73 41.98 45.47 51.67 53.62 53.12
56.37 57.13 57.11 55.34 55.34 56.08 56.33 56.39 56.19 54.85 52.55 47.93 51.01 49.64 47.19 44.07 40.73 41.13 43.73 44.88 44.52 44.16 42.22 44.65 45.43 42.97 47.86 49.20 47.25 45.38 43.41 43.24 45.59 42.12 43.52 41.28 39.31 38.14 37.10 39.81 33.12 40.37 46.93 52.37 53.61 54.61 54.33
56.61 56.29 54.62 54.59 55.09 55.89 56.40 56.80 56.82 55.62 54.24 48.32 49.59 49.66 47.77 44.25 44.14 43.97 44.25 43.80 43.82 42.44 42.47 44.36 45.13 45.29 45.07 43.19 39.76 38.63 37.88 40.18 42.49 43.82 40.11 43.50 40.77 37.83 36.40 34.26 37.57 42.44 45.59 44.58 47.03 49.38 55.73
56.28 55.90 54.15 54.54 55.01 55.69 56.22 56.77 56.92 55.92 54.51 49.29 49.34 52.35 50.22 45.83 41.47 48.88 45.26 45.59 41.14 39.02 40.96 43.65 45.08 46.41 44.86 40.41 39.55 32.27 34.79 39.14 39.46 41.81 40.12 40.10 40.40 39.60 37.51 34.88 32.52 40.18 46.69 48.53 51.07 44.96 53.91
55.96 56.45 54.29 54.27 54.50 54.89 55.61 56.38 56.73 56.70 55.12 50.67 49.28 52.36 50.73 46.91 46.55 44.74 43.95 42.12 45.09 42.62 39.60 40.71 41.80 43.00 43.46 38.80 36.68 34.38 35.26 43.12 37.28 37.77 37.43 34.90 34.71 33.75 36.27 33.50 40.79 47.51 50.26 51.11 38.90 41.41 51.07
55.70 56.38 54.81 53.70 54.53 55.06 55.36 55.78 56.43 56.36 56.11 52.12 51.17 53.99 50.39 46.50 48.58 49.60 51.27 47.02 46.19 43.47 39.97 42.78 43.33 42.90 39.79 38.08 38.00 36.45 34.91 37.00 36.05 41.20 38.06 36.55 33.49 33.83 35.77 33.80 31.33 49.32 49.23 44.29 45.59 47.80 50.67
55.40 55.80 55.20 53.32 54.06 54.57 55.13 55.67 56.07 56.03 55.86 54.63 51.36 55.79 55.85 49.87 50.26 51.47 51.03 51.94 50.89 48.80 45.40 43.81 41.13 40.61 40.42 38.20 39.22 38.99 35.45 37.33 35.37 31.79 42.19 36.68 39.08 38.37 40.05 39.34 45.20 46.71 46.70 49.14 48.94 48.65 48.09

GFSGBSN_sfc_wetblb_093.txt.gz
Wetbulb
58.87 58.70 58.36 57.57 56.73 56.36 56.05 55.97 55.92 56.31 56.16 56.25 56.29 56.36 55.91 56.05 55.98 55.90 56.09 56.13 56.04 55.69 55.57 56.48 56.73 57.59 53.11 46.00 47.19 55.06 71.20 68.88 66.92 61.28 54.49 52.44 55.83 56.39 54.78 56.96 64.01 62.12 63.50 65.56 65.66 65.90 65.66
59.92 58.91 58.35 58.05 57.21 56.93 56.58 56.61 56.68 56.61 56.80 56.30 56.27 56.10 56.35 56.06 55.93 56.04 56.25 56.11 55.82 55.57 55.92 56.50 56.48 57.52 49.33 38.61 50.00 64.36 63.20 64.17 61.61 54.96 52.22 53.89 57.62 59.41 57.61 56.87 61.67 64.55 63.67 64.40 64.69 64.42 64.76
61.02 59.93 58.67 58.19 57.65 57.10 56.48 56.85 56.76 56.76 56.89 56.30 56.37 55.96 55.90 55.93 55.81 55.95 55.78 55.57 55.33 55.63 55.87 56.11 57.00 56.38 49.64 44.58 58.03 62.22 60.33 55.73 53.59 53.64 50.28 53.35 59.77 60.10 58.62 55.91 62.98 65.09 61.59 62.77 62.67 62.76 63.31
61.53 61.09 59.27 58.73 57.96 57.33 56.91 56.97 57.04 56.74 56.85 56.27 56.08 55.97 55.81 55.66 55.31 55.17 54.67 54.55 54.75 55.93 56.31 57.01 58.76 52.48 43.60 53.79 54.99 56.39 54.59 50.98 50.83 49.83 53.40 56.21 57.45 59.02 57.50 58.22 54.07 61.26 61.37 56.18 62.08 63.44 63.44
61.33 60.86 60.14 58.44 58.34 57.43 57.01 57.06 57.15 57.04 56.45 55.98 55.60 55.66 55.53 55.28 54.81 54.49 54.76 54.88 55.60 56.67 57.06 59.36 50.64 47.22 44.28 58.82 53.73 52.76 55.94 51.91 47.83 48.56 51.69 58.14 58.70 54.14 53.27 47.74 45.55 54.29 54.32 55.42 58.49 63.02 62.20
60.82 60.84 60.26 58.53 58.55 57.60 57.07 56.80 56.92 56.94 56.89 56.25 55.79 55.71 55.25 54.93 54.57 53.86 54.30 54.13 54.91 55.00 56.97 58.11 55.56 46.52 51.39 52.25 53.07 53.41 54.74 53.79 49.43 49.08 50.94 51.63 49.96 47.50 44.56 43.22 39.86 44.61 50.85 55.56 56.05 60.67 61.30
59.61 60.20 60.09 59.00 58.39 57.64 56.96 56.76 56.82 56.63 56.75 56.75 56.37 55.39 54.97 54.83 53.99 53.02 50.13 48.88 47.63 45.77 49.59 45.01 46.09 50.16 53.41 55.35 56.10 51.99 55.17 53.05 50.39 49.64 44.66 48.58 44.99 42.31 45.37 46.34 47.56 47.70 48.72 52.43 58.79 60.42 58.09
59.30 59.80 59.58 59.35 57.76 57.66 56.64 56.65 56.57 56.55 56.51 56.46 56.60 55.66 54.89 54.15 53.29 52.49 49.18 45.03 48.33 49.21 43.31 50.99 52.29 51.44 54.04 53.83 51.16 51.63 54.43 48.94 47.14 43.48 47.74 45.38 41.85 47.43 48.75 48.50 48.32 48.26 48.39 55.12 57.35 59.54 58.78
59.16 59.39 59.28 59.19 57.60 57.57 56.55 56.56 56.42 56.44 56.32 56.40 56.40 56.13 54.60 53.95 53.50 49.42 46.43 47.78 51.83 49.51 41.68 46.19 51.14 50.91 51.10 52.91 50.85 50.74 51.98 49.49 46.30 44.74 46.07 43.36 46.18 49.97 49.26 47.42 46.82 44.05 47.27 54.04 54.17 56.43 58.01
58.79 58.88 59.00 59.07 57.61 57.73 56.35 56.14 56.24 56.26 56.16 56.09 56.03 55.79 54.54 52.91 48.23 48.60 48.71 49.77 51.02 49.47 35.92 42.10 43.00 48.15 51.31 51.18 47.30 53.71 53.98 51.89 48.86 45.07 46.80 45.34 49.80 49.25 46.50 46.55 46.88 40.37 50.15 51.00 55.49 51.95 48.44
58.90 58.90 58.90 58.86 57.73 57.56 56.02 55.90 56.10 56.06 55.87 55.81 55.83 55.33 53.77 52.46 46.95 47.88 52.48 51.96 50.48 46.69 30.40 48.23 45.56 50.65 46.56 46.35 47.89 50.41 55.08 52.37 48.15 46.97 46.11 44.51 46.19 46.26 45.73 46.74 48.46 46.19 51.90 49.34 55.35 49.80 49.23
58.43 58.73 58.80 58.82 57.91 57.41 55.86 55.57 55.77 55.65 55.59 55.45 55.21 54.43 53.33 49.93 49.74 50.69 52.79 51.17 47.37 37.62 32.78 45.56 48.63 47.68 43.78 44.60 46.54 48.62 51.50 52.96 52.14 48.07 45.64 46.50 48.89 48.20 47.46 49.62 49.93 50.86 49.25 50.73 51.21 48.94 42.08
58.09 58.27 58.43 58.27 57.91 57.08 55.55 55.39 55.77 55.43 55.02 54.48 53.58 52.68 51.34 52.67 48.50 51.44 50.78 47.08 37.61 31.94 45.96 43.69 43.68 45.41 43.02 42.57 43.56 44.21 45.05 44.23 43.23 38.39 37.34 43.74 45.04 47.13 48.59 43.43 45.27 44.60 40.60 38.47 38.96 40.51 40.77
58.02 57.93 58.01 57.76 57.48 56.92 55.47 55.67 55.63 55.25 54.60 53.49 51.66 50.57 49.95 52.42 50.59 52.05 48.90 43.26 33.65 42.23 40.72 45.06 45.46 42.89 41.53 43.76 43.23 44.76 42.36 40.73 44.30 42.66 38.13 37.40 37.37 45.64 48.13 45.84 42.79 41.30 40.84 37.37 35.37 36.42 40.40
57.27 57.46 57.66 57.62 57.28 56.58 55.41 55.77 55.31 54.78 54.21 52.70 50.24 46.56 47.90 49.65 51.73 49.70 45.92 36.45 37.48 40.10 45.49 44.57 42.16 39.77 40.44 43.07 43.34 44.21 42.92 40.89 44.22 42.08 39.31 36.23 38.97 47.31 48.79 47.84 46.76 41.57 39.06 44.21 41.70 38.76 39.08
57.46 57.47 57.79 57.86 57.28 55.54 55.51 55.79 55.35 54.78 53.97 52.23 46.74 47.09 47.77 53.06 53.10 48.72 41.88 37.21 39.55 46.48 46.36 44.77 36.75 40.37 36.69 40.61 40.42 41.64 42.44 46.57 44.54 46.97 43.36 40.38 37.05 43.51 49.06 47.93 46.50 44.61 46.03 40.39 38.14 35.53 34.57
57.48 57.12 57.47 57.80 57.10 55.58 55.80 56.04 55.27 54.34 53.23 51.74 46.69 46.84 50.82 52.44 51.61 45.28 38.05 37.44 44.11 48.11 48.31 43.10 39.35 39.51 39.69 39.30 40.43 39.30 41.98 46.86 47.60 46.34 46.15 41.28 39.04 41.07 45.11 41.67 41.10 42.71 41.44 40.43 40.37 39.10 36.65
57.50 56.95 56.91 57.31 57.10 56.08 55.90 55.81 54.78 53.27 51.81 49.70 44.55 43.94 51.73 51.71 44.54 40.34 38.30 43.00 46.62 45.68 47.66 44.82 44.42 42.85 41.63 43.12 39.89 40.15 42.25 44.95 49.17 46.91 42.53 42.00 37.86 36.17 40.92 47.68 48.19 44.94 43.36 42.47 38.33 36.82 41.26
57.33 56.98 56.94 56.68 56.91 56.42 55.76 55.49 54.30 52.80 52.11 47.53 43.36 43.86 52.38 50.09 38.41 38.32 41.18 45.91 46.90 45.91 45.41 43.05 41.76 43.36 43.72 41.64 37.02 42.35 44.53 49.83 50.72 46.10 41.50 42.56 37.46 34.34 38.24 41.74 44.60 41.99 42.78 39.90 39.97 39.57 43.06
57.30 57.45 57.61 57.45 57.37 56.15 55.98 55.31 54.06 53.23 52.38 48.69 45.07 39.94 43.06 44.94 41.50 40.56 40.24 42.37 43.36 49.11 45.99 45.56 43.83 42.78 42.07 39.36 40.77 39.40 41.58 48.74 49.98 50.54 55.57 48.77 36.83 36.63 33.64 36.41 40.14 40.05 43.73 43.83 38.33 37.11 40.30
57.18 57.38 57.38 57.43 57.24 55.77 56.12 55.49 54.70 53.43 51.88 48.04 43.68 39.99 41.32 37.12 38.61 39.73 40.43 43.06 41.98 40.17 43.55 44.61 44.27 43.99 42.68 36.77 39.93 39.77 42.36 42.74 47.65 54.93 47.41 44.13 37.55 38.32 39.12 41.76 42.82 43.12 43.62 42.58 40.20 40.93 42.89
56.88 57.10 57.26 57.64 55.89 55.99 56.36 55.91 55.29 53.65 51.70 48.53 44.64 43.86 45.35 41.39 39.65 38.95 37.57 37.62 40.11 40.15 40.55 41.28 43.08 44.89 44.12 38.99 40.10 38.81 40.38 39.80 40.04 44.85 43.26 41.85 37.80 39.60 39.39 44.19 42.84 41.00 42.87 43.59 48.96 51.11 50.32
56.76 57.16 57.48 55.71 55.35 55.92 56.40 56.28 55.55 53.86 50.40 47.87 49.07 47.92 46.66 42.02 37.49 38.29 37.34 39.30 42.50 42.55 42.76 44.76 45.99 44.48 41.79 44.68 46.80 44.77 43.99 42.42 41.99 42.77 40.20 39.65 38.02 37.69 34.82 41.32 40.25 36.13 40.37 41.13 48.28 51.98 51.67
56.52 56.80 55.24 54.67 55.29 55.88 56.54 56.56 56.24 54.99 52.44 46.30 47.87 48.14 44.96 41.98 39.07 39.22 41.95 43.37 43.14 42.81 40.78 42.99 42.76 41.27 45.42 47.13 47.13 43.66 41.76 40.82 43.27 41.37 41.95 38.23 37.48 37.23 35.59 37.71 32.97 38.36 45.18 46.64 52.84 53.57 53.20
56.50 56.60 55.94 54.60 54.76 55.62 56.37 56.87 56.74 55.67 54.46 47.04 46.23 48.04 46.57 42.49 43.47 42.25 43.23 42.70 42.26 42.31 41.68 42.82 43.27 43.93 43.24 42.78 40.60 38.09 39.41 40.76 42.74 40.78 39.30 40.17 38.01 36.90 36.10 34.76 39.24 42.22 43.61 43.89 41.48 50.90 54.43
56.19 56.25 56.38 54.67 54.60 55.28 56.00 56.69 56.87 56.06 54.66 47.92 46.94 50.56 49.30 40.95 41.50 46.22 43.75 43.40 40.16 37.51 40.57 42.52 44.46 44.54 43.64 38.87 37.95 32.48 35.08 38.47 38.10 40.99 37.73 38.26 39.20 37.76 38.67 34.96 32.81 40.37 47.05 50.16 50.13 46.92 55.68
55.65 56.13 56.38 54.87 54.01 54.54 55.16 55.88 56.48 56.55 55.05 50.09 49.03 51.18 49.50 44.40 45.29 42.68 42.92 41.97 43.69 40.23 38.31 39.42 43.08 42.44 42.68 37.76 36.45 32.56 34.80 41.71 35.34 35.95 36.21 34.24 33.27 33.65 38.09 35.82 40.53 46.85 48.42 49.60 37.55 42.39 53.50
55.15 55.69 56.01 55.00 53.95 54.47 54.68 55.31 55.65 55.96 55.81 52.17 51.47 52.61 48.82 45.67 46.67 48.28 49.74 44.99 44.41 41.44 38.63 41.20 41.63 41.13 39.10 36.71 36.62 34.60 33.60 35.64 34.79 40.71 36.73 35.09 33.01 34.54 33.03 33.17 33.81 48.12 48.24 42.55 43.45 46.21 52.59
54.95 55.31 55.75 54.94 53.74 54.28 54.59 55.06 55.34 55.71 55.47 54.40 49.63 53.49 53.81 48.43 48.70 50.56 49.22 50.16 49.73 47.99 43.88 40.93 41.04 39.52 40.14 37.83 37.51 36.37 33.48 35.25 33.49 32.38 41.23 35.10 37.80 37.86 37.81 38.10 45.05 46.81 44.17 47.73 49.29 47.82 48.73

GFSGBSN_sfc_wetblb_096.txt.gz
Wetbulb
60.53 59.80 58.75 57.63 57.16 56.92 56.92 56.73 56.56 56.33 56.50 56.46 56.33 56.37 56.22 56.13 55.88 55.97 56.32 56.17 56.04 55.57 55.50 55.77 56.77 57.38 52.50 43.25 46.05 55.57 71.50 67.11 65.36 63.18 52.84 53.41 54.38 57.59 55.15 57.06 61.03 61.55 62.84 64.93 65.85 64.93 65.04
61.72 61.03 59.83 57.95 57.25 56.92 56.92 56.54 56.65 56.50 56.56 56.37 56.41 56.10 56.02 55.81 55.67 55.73 55.98 56.17 55.73 55.32 55.54 55.77 56.47 57.58 48.00 38.51 49.05 63.61 63.37 63.33 61.93 56.43 52.10 52.92 57.90 59.63 56.71 56.69 60.30 64.15 63.77 64.50 65.44 64.42 65.11
61.64 61.41 60.48 58.52 57.62 56.96 57.07 56.43 56.46 56.46 56.38 56.42 56.21 56.00 55.65 55.61 55.45 55.19 55.18 54.73 54.26 54.19 55.12 55.67 56.14 56.03 48.04 43.97 54.67 61.16 60.09 56.71 56.64 53.23 50.07 51.96 60.59 58.42 58.11 55.17 59.22 64.65 60.63 62.53 63.32 64.15 63.05
60.89 61.20 60.60 58.82 58.09 57.59 57.06 56.65 56.45 56.31 56.39 56.27 56.03 55.99 55.68 55.37 55.53 55.20 54.71 54.41 54.84 54.93 55.67 56.18 57.46 51.31 40.74 51.15 53.49 56.74 53.21 50.29 52.83 49.95 52.73 53.25 54.56 57.58 56.63 57.45 52.48 60.12 60.32 56.02 61.34 62.69 63.34
59.81 60.14 60.22 59.26 57.69 58.09 57.09 56.93 56.93 56.50 56.21 56.04 55.93 55.64 55.37 55.04 54.83 54.39 53.72 54.03 55.46 56.16 56.16 58.07 49.47 45.65 42.45 58.22 53.35 52.61 53.53 50.40 48.32 48.34 49.97 57.02 54.35 54.26 53.30 46.90 44.33 51.02 52.19 55.49 58.35 63.16 61.65
58.65 59.57 59.89 59.75 58.00 58.01 57.38 56.97 56.99 56.94 56.70 56.07 56.43 55.95 55.38 54.74 54.22 53.50 52.78 53.93 56.51 56.58 56.94 57.65 55.47 45.32 50.51 51.21 52.72 51.36 54.27 49.46 47.07 47.45 49.22 49.11 48.35 46.76 44.81 42.90 39.81 44.54 51.13 55.15 55.78 60.60 60.98
59.29 59.90 60.16 59.68 58.20 57.87 57.26 56.76 56.64 56.72 56.80 56.62 56.04 55.49 55.04 54.41 53.77 52.93 49.48 48.87 45.01 43.16 49.68 44.61 44.02 47.69 50.52 54.31 54.19 50.60 53.96 52.28 49.69 47.11 42.40 46.68 44.49 42.67 45.39 45.95 47.37 47.10 49.83 53.68 57.73 60.78 58.79
59.21 59.63 59.72 59.69 58.83 57.19 57.38 56.60 56.55 56.59 56.57 56.69 56.56 55.57 55.12 54.32 53.40 52.72 49.11 44.12 46.54 48.31 42.73 49.26 50.78 49.77 51.96 52.03 48.97 49.55 54.02 48.44 45.87 42.05 45.76 44.32 42.33 47.57 48.49 47.80 47.53 46.89 52.28 55.09 57.61 59.86 57.85
59.25 59.17 59.12 59.22 58.97 57.02 57.55 56.31 56.34 56.48 56.28 56.26 56.34 56.04 54.60 53.87 53.46 49.21 45.39 47.23 50.78 47.68 40.45 45.24 49.08 49.26 49.07 51.40 48.48 49.64 51.67 47.97 44.38 44.05 44.21 43.29 45.81 50.36 48.01 46.20 46.26 43.46 45.26 54.34 54.49 56.35 57.77
58.94 58.65 58.72 58.82 58.76 57.10 57.35 56.11 56.10 56.30 56.12 55.94 55.98 55.82 54.78 53.02 47.86 48.16 48.16 50.68 50.95 49.43 36.30 42.39 42.68 47.05 50.61 49.74 45.82 53.25 52.66 50.42 46.38 43.60 46.26 44.82 48.80 48.01 47.13 45.83 45.74 41.08 50.90 56.68 54.97 51.16 45.45
58.32 58.23 58.53 58.33 58.33 57.37 57.23 55.88 55.92 55.98 55.78 55.78 55.74 55.09 53.42 52.30 47.10 48.01 51.10 52.00 50.51 45.24 29.86 47.69 45.20 49.04 45.76 44.37 46.41 48.21 53.26 50.53 46.24 45.40 45.71 44.35 45.61 45.40 44.43 45.86 47.45 45.62 52.08 55.14 55.00 49.43 47.62
58.06 57.93 57.94 58.07 57.93 57.27 56.61 55.56 55.64 55.66 55.56 55.37 54.87 53.96 52.53 48.99 47.80 50.40 52.25 49.84 46.44 37.05 32.83 44.63 47.49 46.28 42.69 44.06 45.20 48.58 50.34 51.49 50.71 46.59 44.75 46.60 47.95 47.24 47.29 48.59 49.25 50.07 50.03 50.96 50.94 46.74 42.15
57.81 57.79 57.71 57.88 57.67 56.66 55.88 55.35 55.60 55.49 55.01 54.51 53.50 51.95 50.87 51.59 46.35 50.80 50.72 47.49 37.34 32.69 44.92 42.99 42.69 43.62 41.60 42.80 42.98 43.81 46.16 43.60 42.60 38.29 37.97 42.79 43.70 45.64 47.65 42.57 44.42 44.18 44.81 38.98 41.55 41.31 39.86
57.57 57.29 57.64 57.77 57.29 56.76 55.36 55.56 55.70 55.33 54.59 53.64 51.65 50.18 49.40 50.96 49.59 49.80 49.57 43.24 32.91 40.96 39.24 45.11 44.63 42.52 41.40 43.09 42.81 44.23 41.10 39.60 43.05 41.79 37.32 37.17 36.08 44.18 46.65 44.83 41.77 40.58 42.01 37.77 34.88 36.95 40.04
57.65 57.41 57.40 57.45 56.88 57.00 55.74 55.58 55.37 54.85 54.16 52.92 50.17 45.27 45.72 48.68 50.87 48.91 45.10 34.76 35.54 39.08 44.26 43.54 42.11 39.45 39.94 42.58 42.23 42.19 40.51 39.82 42.46 41.47 38.33 35.79 37.89 45.98 47.05 46.53 45.76 39.61 37.54 42.45 38.54 38.41 40.19
58.12 57.39 57.21 57.31 56.67 56.88 56.00 55.54 55.45 54.77 54.00 52.31 46.15 45.50 46.47 51.26 51.09 46.98 40.86 36.27 38.78 45.23 45.17 43.21 36.64 39.24 36.76 40.10 39.18 40.32 40.15 44.15 44.25 46.01 42.02 39.54 35.81 41.64 47.69 46.95 44.91 43.47 44.63 38.59 36.43 33.48 34.02
57.74 57.39 56.99 56.96 57.07 56.87 56.34 55.74 55.37 54.48 53.36 51.92 45.04 45.69 49.08 51.09 49.26 44.82 37.32 36.49 42.32 46.73 46.90 41.32 38.42 37.96 38.28 38.25 39.58 38.24 39.79 44.71 46.12 45.45 44.62 40.56 38.29 40.28 43.33 40.34 40.45 41.53 39.08 38.74 38.99 38.56 35.63
57.41 57.19 56.98 57.04 56.91 56.74 56.09 55.70 54.93 53.60 51.97 48.93 43.59 43.24 49.63 49.87 44.08 38.53 37.13 41.20 45.49 44.86 46.11 43.51 43.12 41.69 39.88 41.60 38.76 39.19 40.66 43.43 47.97 45.50 40.80 41.37 37.35 35.48 40.53 44.06 46.26 43.22 39.63 40.15 37.07 35.66 38.38
57.19 57.37 57.45 57.31 56.97 56.71 55.93 55.54 54.37 53.10 52.41 45.87 43.53 42.72 49.87 48.71 38.75 36.63 39.67 44.31 45.69 44.39 43.00 41.27 40.40 42.23 43.23 40.13 36.06 40.58 42.94 48.49 49.31 45.30 42.44 43.04 36.36 33.14 36.80 40.20 43.19 41.20 41.38 38.92 37.69 40.53 41.64
57.13 57.39 57.59 57.53 57.25 55.95 56.08 55.51 54.33 53.31 52.14 47.02 44.41 40.07 42.82 43.23 39.75 39.25 38.34 40.37 41.65 47.04 43.37 43.80 43.05 41.82 41.01 39.03 39.66 39.16 39.74 47.20 48.12 47.33 55.06 47.01 36.77 36.23 33.22 35.57 38.87 39.44 42.02 42.23 37.61 36.14 38.48
56.75 57.27 57.63 57.81 56.01 56.03 56.28 55.72 54.73 53.69 51.99 46.29 42.04 39.71 40.56 37.72 38.44 38.62 38.67 38.89 40.18 38.83 41.60 43.60 41.57 42.32 39.67 34.73 37.16 37.70 40.06 41.32 47.16 51.56 44.53 42.61 37.25 39.05 38.76 40.97 41.53 41.19 40.62 41.29 38.04 38.52 40.76
56.56 57.16 57.03 55.13 55.63 56.01 56.51 56.12 55.40 53.93 51.71 47.00 44.38 43.12 43.31 39.52 37.52 36.68 37.31 36.46 38.37 39.32 39.85 39.78 40.94 44.61 40.68 37.88 38.86 37.02 38.05 37.89 39.81 42.35 40.59 40.09 37.69 40.27 39.35 42.61 42.14 39.86 41.94 43.83 43.55 48.50 48.99
56.36 56.94 56.77 55.47 55.39 55.93 56.43 56.30 55.74 53.99 50.19 46.56 47.14 46.25 43.02 40.45 36.01 37.26 36.39 37.88 40.92 41.03 41.23 42.76 43.16 43.15 40.39 42.35 45.33 42.14 42.89 40.95 41.35 39.26 39.29 38.28 38.66 37.58 34.92 39.89 39.70 35.03 40.46 41.23 42.05 50.41 50.04
56.08 56.56 56.83 56.23 54.91 55.73 56.27 56.48 56.36 54.97 52.01 45.86 46.61 47.53 40.82 37.47 37.61 37.99 40.49 42.09 41.71 41.14 39.13 41.80 41.02 40.04 43.97 44.88 44.17 41.23 41.65 39.30 41.87 38.66 40.79 37.51 36.10 37.43 35.20 36.69 30.72 37.70 44.20 46.29 48.61 52.64 52.70
55.09 56.14 56.47 56.29 54.73 55.41 56.07 56.71 56.83 55.68 54.25 46.23 45.42 47.17 44.54 40.51 41.72 41.06 41.87 41.07 40.92 40.36 39.87 41.20 41.83 42.78 41.89 41.61 39.96 39.57 36.50 37.01 40.95 40.05 38.33 38.85 37.82 35.72 34.14 32.75 37.13 41.52 43.87 43.97 41.73 48.98 53.83
54.73 55.88 56.18 56.17 54.78 55.05 55.56 56.35 56.68 55.96 54.31 46.95 46.48 49.31 46.31 40.79 40.31 45.90 42.03 41.87 39.54 37.13 39.64 41.06 42.40 42.12 43.00 38.44 37.77 32.77 32.28 36.59 37.95 40.56 39.15 38.45 38.92 37.58 36.04 34.27 32.58 39.33 46.51 49.42 49.53 43.18 55.22
54.58 55.31 55.90 55.67 55.28 54.20 54.96 55.61 56.07 56.15 54.79 49.22 48.98 49.67 47.90 41.87 43.35 42.90 42.16 41.31 42.16 38.60 37.40 38.45 41.48 40.95 41.82 37.44 35.31 32.03 34.36 40.69 34.99 35.92 36.11 34.33 32.76 33.89 36.02 34.61 38.13 45.64 46.50 48.91 38.42 39.98 53.42
54.48 54.91 55.50 55.80 55.25 54.02 54.50 55.21 55.58 55.55 55.58 50.95 50.46 51.41 48.43 43.65 44.44 47.12 48.03 43.65 42.97 40.39 37.93 40.01 40.37 39.90 37.78 36.07 35.27 33.23 32.08 34.29 35.41 39.66 38.47 35.82 32.13 33.20 32.59 30.86 33.26 47.35 47.15 43.94 44.88 47.20 51.94
54.65 54.85 55.29 55.68 54.91 54.06 54.19 54.94 55.52 55.25 55.31 53.05 49.14 52.03 51.80 47.37 46.95 49.64 47.80 48.47 48.36 47.52 43.12 39.97 40.19 38.71 39.96 37.49 35.75 34.75 32.45 33.96 32.45 31.95 41.58 36.24 37.74 36.90 36.33 36.31 44.04 47.06 46.01 48.15 49.66 49.24 50.25

GFSGBSN_sfc_wetblb_099.txt.gz
Wetbulb
61.95 61.42 60.17 58.13 57.35 56.81 56.59 56.35 56.41 56.64 56.53 56.54 56.70 56.27 56.00 55.96 55.86 55.89 56.02 55.86 55.87 55.73 55.45 55.87 56.13 57.32 55.27 49.51 48.67 55.40 71.08 66.82 70.08 60.01 58.66 56.60 57.98 60.51 59.42 60.00 60.49 61.51 63.52 64.31 64.07 64.49 64.92
61.48 61.56 60.84 58.64 57.25 57.24 56.90 56.18 56.35 56.44 56.48 56.47 56.39 56.35 55.87 55.83 55.60 55.54 55.41 55.21 54.91 54.73 55.27 55.83 56.26 57.35 53.05 45.78 56.00 65.61 63.67 65.02 65.75 58.57 56.15 58.51 59.80 63.00 60.39 59.34 60.05 64.36 64.22 64.38 64.93 64.50 64.49
60.43 61.07 60.80 59.13 57.68 57.88 57.03 56.49 56.64 56.32 56.39 56.33 56.23 56.07 55.59 55.47 55.20 55.13 54.74 54.19 54.21 54.41 54.64 55.56 56.43 56.75 51.19 49.76 56.17 65.27 62.89 60.95 63.14 58.11 54.86 57.46 62.89 61.31 61.38 58.66 61.73 64.95 61.39 63.38 63.05 64.31 62.46
59.67 59.97 60.36 59.68 57.76 57.89 57.23 56.54 56.64 56.36 56.25 56.33 56.29 56.07 55.62 55.34 55.00 54.77 54.21 53.74 54.14 54.77 54.92 55.91 57.26 55.73 47.13 52.87 57.60 62.41 58.35 57.31 57.13 56.91 56.33 57.37 60.29 61.62 60.55 61.31 57.31 62.27 61.77 57.15 62.05 63.55 63.37
59.41 59.74 59.84 59.69 57.97 57.61 57.56 57.00 56.96 56.65 56.11 55.95 55.97 56.00 55.44 54.95 54.51 53.97 53.32 53.24 54.56 55.60 55.82 57.28 54.91 52.18 47.48 59.89 55.49 58.62 57.39 55.07 57.75 55.28 54.96 57.25 55.38 58.69 57.78 53.97 53.08 58.64 55.14 56.90 59.15 63.37 62.43
59.50 59.79 60.07 59.96 58.49 57.57 57.77 57.10 56.82 57.06 56.62 56.16 55.88 56.08 55.34 54.86 54.24 53.30 52.94 53.86 57.11 58.01 58.06 58.09 56.27 50.50 54.46 53.08 55.68 57.45 56.93 55.20 52.72 52.77 52.56 53.45 54.86 55.68 54.74 52.93 49.62 52.40 54.14 57.18 56.75 60.67 60.02
59.55 59.83 59.75 59.73 59.39 57.14 57.65 57.17 56.56 56.73 56.73 56.77 56.07 55.54 55.06 54.87 54.10 52.92 51.77 54.87 51.53 50.37 54.18 50.92 50.30 49.82 52.02 56.36 55.56 53.83 55.73 52.92 52.42 51.48 49.37 52.45 52.79 52.91 54.53 53.13 52.66 52.44 53.31 56.31 59.56 61.06 59.13
59.53 59.26 59.50 59.48 59.35 57.53 57.32 57.45 56.47 56.57 56.61 56.54 56.60 55.80 54.72 54.47 53.61 52.56 50.73 50.74 53.00 53.76 48.86 52.18 52.33 51.73 53.88 55.02 51.10 52.86 57.01 51.63 49.04 46.20 50.52 50.87 49.87 54.69 54.01 51.81 51.67 55.04 56.25 56.00 58.93 60.52 59.42
59.01 58.68 58.69 58.71 58.80 57.83 57.00 57.26 56.16 56.24 56.38 56.40 56.21 55.85 54.62 53.61 53.21 50.96 50.62 51.95 54.65 54.35 48.45 48.99 51.65 51.84 52.72 54.08 51.29 51.78 55.24 51.86 48.45 48.39 49.15 47.76 51.20 54.15 50.92 50.23 50.07 50.60 51.95 56.45 56.31 57.98 58.09
58.15 57.37 57.63 57.83 58.19 57.83 56.94 56.70 56.16 56.11 56.11 56.11 56.09 55.77 53.74 52.57 50.42 51.78 51.94 54.32 54.69 54.07 45.16 48.30 48.24 51.36 54.00 53.83 50.86 55.32 56.49 52.94 50.06 47.60 50.72 51.32 52.28 53.08 49.85 48.42 50.20 47.12 52.91 58.64 56.38 54.78 50.09
58.12 57.75 57.84 57.92 58.12 57.54 56.57 56.04 55.99 55.93 55.81 55.77 55.73 54.80 52.59 51.53 51.41 51.63 53.89 55.47 54.17 50.40 36.09 49.94 49.72 53.30 52.88 50.26 51.98 51.48 55.75 54.21 49.27 49.69 50.80 48.87 50.59 50.73 48.93 49.85 51.10 49.12 53.62 57.22 57.34 54.00 53.70
57.85 57.70 57.64 58.16 57.97 57.32 56.36 55.51 55.75 55.67 55.61 55.53 55.02 53.16 52.09 51.10 51.48 54.11 55.10 53.95 50.90 43.23 36.11 46.23 50.17 48.48 47.56 49.87 48.91 52.65 53.00 55.60 54.20 50.76 51.43 51.00 52.46 52.97 52.60 51.53 52.68 54.12 55.21 56.20 54.69 53.78 47.80
57.90 57.43 57.38 57.67 57.29 56.72 56.61 55.39 55.49 55.43 55.02 54.50 53.35 51.41 50.82 53.20 52.04 54.16 54.51 52.27 43.67 39.07 47.47 44.76 45.71 46.96 47.57 46.49 47.96 49.24 49.62 49.59 48.49 45.55 45.84 48.47 48.98 51.11 52.05 49.78 50.44 50.83 50.00 45.18 43.64 45.22 45.28
58.48 57.16 56.82 56.97 56.88 56.37 56.53 55.85 55.43 55.20 54.74 53.65 51.31 50.02 51.12 52.76 53.90 53.64 55.24 50.08 39.00 43.39 44.10 48.61 47.04 46.94 45.37 47.24 47.82 47.47 48.71 47.40 48.63 49.65 46.88 44.33 41.76 49.15 51.28 50.34 48.50 49.33 48.70 47.29 40.84 42.81 46.71
57.92 57.49 56.77 56.64 56.46 56.42 56.62 55.85 55.18 54.98 54.25 52.79 50.27 51.34 52.05 53.90 53.41 53.48 52.47 42.73 42.55 44.42 47.65 46.23 46.29 44.41 44.50 46.73 47.38 47.35 45.99 47.32 49.12 50.11 46.55 44.75 44.22 50.02 50.53 51.83 51.59 47.19 45.95 51.82 48.58 48.94 48.56
57.67 57.26 57.21 56.91 56.77 56.49 56.44 55.61 55.26 54.94 53.93 52.06 52.18 52.68 52.92 54.75 54.72 54.41 49.19 40.87 44.80 48.26 48.87 47.21 43.41 45.01 42.50 44.87 44.94 46.49 46.07 48.90 48.03 49.59 50.43 48.16 43.69 48.58 50.72 51.97 49.98 49.81 51.64 45.38 47.06 42.29 42.28
57.44 57.18 57.36 57.36 57.06 56.64 56.16 55.79 55.34 54.56 53.21 51.58 52.00 52.75 54.02 55.55 55.09 52.94 45.42 44.41 46.34 50.00 49.98 46.88 45.36 44.49 44.75 44.28 45.57 44.76 45.77 48.68 49.51 49.08 50.46 49.50 47.71 47.04 49.82 49.06 48.52 48.30 47.36 48.45 48.65 47.97 44.37
57.24 57.07 57.26 57.36 57.08 56.90 55.66 55.77 55.02 53.46 51.99 50.86 51.84 51.02 55.20 54.81 51.04 46.83 46.73 46.64 45.97 49.36 50.39 48.75 48.85 47.59 46.33 46.30 45.29 45.07 44.79 47.84 50.75 50.00 48.17 49.32 48.29 44.55 46.56 50.03 50.83 51.14 49.11 49.71 45.40 44.41 47.60
57.07 57.24 57.40 57.64 57.18 55.58 55.90 55.69 54.52 53.26 52.00 51.70 51.57 51.79 55.50 53.56 47.52 46.44 47.37 48.38 49.51 48.93 47.60 46.92 46.18 48.14 48.72 46.69 43.89 45.61 46.95 51.01 51.76 50.38 48.18 49.91 46.60 42.48 44.24 48.15 49.85 48.57 48.97 49.23 47.91 50.33 47.85
56.78 57.26 57.72 56.07 55.34 55.92 56.08 55.63 54.48 53.48 52.09 52.30 50.74 48.43 50.84 50.96 48.19 48.08 47.39 46.37 46.20 49.43 47.39 48.22 47.86 48.53 47.52 46.15 47.74 45.40 45.45 49.37 50.20 51.18 53.77 52.54 46.94 45.78 41.68 44.50 47.44 46.61 46.52 47.61 47.67 46.13 47.29
56.56 57.04 57.54 56.22 55.59 56.02 56.02 55.77 55.03 53.56 52.02 51.60 50.38 47.84 46.93 47.85 46.67 46.70 47.13 44.64 43.75 43.46 46.66 49.13 47.62 47.08 45.97 43.93 45.01 44.74 45.85 47.23 50.78 52.29 50.43 50.30 45.62 46.13 46.31 46.89 46.40 45.76 44.73 47.57 45.68 48.84 47.33
56.38 56.78 56.79 56.82 55.69 55.73 56.06 56.03 55.47 54.00 51.74 53.85 52.29 51.12 48.85 46.25 44.35 45.75 43.65 44.78 43.85 44.90 45.86 44.47 44.30 46.52 46.85 45.26 46.46 44.73 45.69 46.48 46.22 50.08 49.31 48.59 45.93 46.51 44.83 46.45 46.59 44.34 45.82 48.44 49.49 48.06 48.43
55.59 56.28 56.40 56.08 56.32 55.51 56.02 56.17 55.75 54.24 51.51 53.21 53.01 52.87 50.47 43.45 44.21 46.20 45.56 45.21 45.25 46.18 46.41 46.97 45.85 46.06 46.24 46.62 48.62 49.40 49.10 48.11 48.27 47.50 47.23 47.63 47.51 45.33 42.10 45.05 44.89 42.38 45.42 46.95 49.17 51.60 52.68
54.82 55.53 56.50 55.55 56.55 55.44 55.82 56.14 56.13 55.06 53.18 51.52 53.50 53.99 49.13 44.36 45.40 44.98 45.22 46.36 45.57 45.92 45.13 46.72 47.02 46.58 49.56 50.17 49.21 48.91 49.41 48.03 47.81 46.31 48.10 47.00 46.90 46.67 44.09 43.90 37.44 45.42 50.23 50.58 51.03 54.48 56.05
54.54 55.28 56.17 55.76 55.91 55.32 55.67 56.25 56.46 55.45 54.26 52.16 52.56 53.68 50.90 46.57 46.92 46.17 46.62 46.21 46.92 47.52 46.57 46.58 47.64 49.02 49.97 49.05 48.34 45.44 46.00 45.76 47.30 46.34 47.17 47.89 47.59 44.11 42.49 41.13 43.36 44.79 47.91 47.21 47.20 50.03 56.58
55.12 55.18 55.71 55.96 55.35 55.22 55.17 56.04 56.41 55.59 54.50 52.33 53.90 54.66 52.43 49.45 48.21 49.00 47.52 47.24 47.97 46.75 47.28 47.29 50.06 49.86 50.51 48.75 46.77 40.79 40.00 42.57 42.98 44.60 47.54 47.78 48.93 46.59 43.91 39.46 37.08 45.05 49.10 52.01 51.63 48.43 56.81
55.28 54.98 55.30 55.93 55.31 55.34 54.43 55.29 55.82 55.76 54.66 54.07 55.92 55.04 53.83 50.51 51.34 50.22 49.56 48.65 48.50 46.83 46.94 46.77 48.06 48.19 50.13 48.15 44.66 43.11 42.72 45.01 41.78 41.58 42.56 42.87 43.27 42.61 43.15 42.01 44.14 48.03 50.40 51.75 44.36 46.29 57.00
55.02 55.14 55.26 55.61 55.28 55.19 53.97 54.80 55.36 55.38 55.47 54.89 56.49 56.56 55.13 51.70 52.05 52.21 52.12 50.35 49.50 49.24 47.53 48.11 47.71 47.68 48.12 45.30 45.40 44.15 43.76 44.35 43.23 43.96 43.18 41.97 41.15 42.58 41.39 40.27 37.72 51.21 51.36 46.82 49.46 53.76 56.12
54.74 54.94 54.96 55.22 55.89 54.88 53.67 54.69 55.27 55.39 55.16 54.46 56.00 55.99 55.66 54.51 53.16 54.56 53.93 53.56 53.27 53.06 52.06 48.26 48.23 46.80 49.09 46.48 45.93 45.10 43.82 42.84 41.51 41.28 45.66 42.54 44.30 45.10 44.20 44.27 49.75 51.63 50.53 52.58 53.03 53.38 55.21

GFSGBSN_sfc_wetblb_102.txt.gz
Wetbulb
61.33 61.62 60.57 58.61 57.82 57.85 57.25 56.72 56.87 56.73 56.66 56.97 56.92 56.64 56.29 56.15 55.78 55.61 55.74 55.88 55.72 55.65 55.68 55.93 56.40 57.22 58.77 55.09 52.63 60.46 69.42 66.93 63.58 64.30 61.34 59.22 60.99 64.35 63.42 64.03 63.82 63.41 65.16 64.36 64.96 66.23 67.12
60.23 60.85 60.79 59.51 57.54 58.01 56.77 56.79 57.11 56.80 56.53 56.64 56.56 56.54 56.18 56.10 55.82 55.53 55.57 55.27 54.76 54.67 54.76 55.67 56.48 57.22 56.58 50.91 58.58 66.44 63.91 63.42 63.57 61.87 59.33 58.96 60.65 67.09 65.71 63.40 62.60 65.12 65.52 64.45 63.88 64.76 65.85
59.74 60.07 60.48 60.03 58.03 58.00 57.56 56.66 56.77 56.62 56.59 56.54 56.47 56.48 56.28 55.89 55.72 55.33 55.11 54.44 54.26 54.49 54.84 55.71 56.76 58.59 54.75 53.41 59.50 65.73 63.57 63.74 63.16 61.89 59.08 60.16 62.17 66.32 64.88 61.33 63.02 65.65 62.99 63.58 63.74 65.74 62.03
59.76 60.03 60.07 60.05 58.37 57.75 57.74 57.43 57.02 56.90 56.60 56.49 56.22 56.44 56.02 55.70 55.43 55.09 54.32 53.48 53.65 54.67 55.31 56.50 57.51 58.51 52.09 56.07 63.68 61.82 61.76 63.08 64.38 61.32 60.48 62.05 65.21 66.68 63.94 63.66 60.98 62.48 63.81 58.70 62.65 64.71 63.04
59.63 59.79 60.18 60.06 59.01 57.50 57.73 57.33 57.12 57.11 56.42 56.50 56.15 56.14 55.89 55.55 54.91 54.35 53.54 53.64 54.63 55.63 56.36 57.55 58.67 55.60 51.33 59.43 57.38 59.59 58.35 58.19 60.36 58.90 58.73 60.64 61.83 64.01 63.02 58.86 58.85 61.95 57.87 57.55 59.61 63.12 60.82
59.96 59.96 60.17 60.19 59.67 57.53 56.96 58.10 56.89 56.99 57.12 57.00 56.64 56.20 55.49 55.51 54.82 53.84 53.23 54.40 56.53 57.97 58.83 60.08 58.45 54.51 56.55 54.99 57.67 58.37 58.84 58.74 56.62 56.17 54.97 55.87 58.37 60.07 61.05 58.25 52.28 57.40 56.66 58.05 58.37 59.92 57.87
59.37 59.41 59.58 59.63 59.56 58.01 57.27 58.08 56.93 56.70 56.92 57.04 56.83 56.56 55.73 55.16 54.68 53.22 55.00 59.39 57.50 56.33 57.72 54.55 53.65 53.05 54.91 57.95 60.41 58.47 58.37 56.30 55.38 53.58 50.99 53.58 52.94 56.25 60.43 60.00 57.06 58.77 57.80 56.55 58.80 59.59 56.16
58.80 58.50 58.55 58.81 58.82 58.55 57.38 57.62 56.98 56.55 56.65 56.73 56.64 56.44 55.21 54.19 53.62 53.47 55.65 56.15 56.37 56.75 52.34 55.58 55.33 55.05 56.32 57.05 53.79 57.57 57.73 53.04 52.02 49.07 52.88 51.04 50.31 59.32 60.88 57.95 55.82 59.56 58.52 57.20 58.85 60.49 59.81
58.46 58.20 58.11 58.17 58.50 58.26 57.39 56.74 56.53 56.58 56.54 56.50 56.40 56.19 54.56 53.25 53.11 54.12 57.23 56.58 59.31 58.62 52.97 52.41 53.92 53.89 55.40 56.49 53.65 54.90 56.74 54.18 50.66 49.09 50.99 49.71 50.41 58.72 58.45 56.35 54.10 56.20 56.48 58.29 57.60 59.09 60.01
58.21 57.86 57.79 58.22 58.37 57.88 57.37 56.41 56.34 56.34 56.28 56.26 56.28 55.55 53.74 52.54 52.22 58.94 56.92 58.81 59.21 58.14 49.43 49.08 50.95 53.84 55.71 56.15 52.70 57.12 58.10 54.70 50.89 48.92 50.25 50.94 54.53 55.79 56.72 53.94 53.62 52.10 57.56 58.92 59.20 56.42 52.11
57.99 57.94 57.79 58.17 57.59 57.18 57.24 56.72 56.02 56.18 56.09 55.85 55.65 53.98 52.67 51.15 57.38 56.36 58.36 59.76 60.03 56.58 39.94 50.74 50.62 56.19 56.55 53.81 55.14 54.35 58.60 55.40 50.66 49.51 51.74 49.88 52.24 53.97 53.42 54.55 54.87 51.39 56.35 56.51 57.76 56.91 56.05
58.53 57.75 57.69 57.53 57.66 56.95 56.45 56.74 55.87 55.75 55.65 55.37 54.78 53.01 52.14 54.32 57.67 58.64 60.03 59.43 57.20 46.67 39.16 47.73 51.60 50.86 50.95 52.07 53.16 55.13 54.73 57.12 55.62 51.28 52.29 52.47 56.15 56.16 56.03 55.49 55.27 57.72 57.52 56.76 56.01 54.67 50.29
58.80 57.66 57.54 57.28 57.14 56.70 56.22 56.38 55.83 55.43 55.10 54.64 52.95 51.44 52.73 58.11 57.06 59.97 59.30 56.91 46.82 44.11 49.97 46.64 47.94 50.41 50.34 49.15 51.19 52.82 51.74 51.62 50.72 47.28 46.91 50.76 51.93 55.32 56.28 54.43 55.18 55.75 51.12 47.69 46.66 47.90 48.56
58.38 57.57 57.21 56.92 56.67 56.42 56.53 56.48 55.79 55.29 54.78 53.67 50.95 50.56 53.65 58.25 59.93 59.58 59.06 52.56 41.92 45.70 47.09 50.95 49.91 50.27 48.14 50.00 50.32 51.12 50.98 49.57 52.52 52.14 48.89 46.38 45.14 51.80 54.26 54.40 53.48 53.97 51.01 46.34 44.31 44.29 49.09
57.67 57.15 56.99 57.16 57.09 56.53 56.57 55.90 55.41 55.00 54.42 52.45 50.34 58.92 59.79 61.00 60.11 58.93 55.91 48.19 45.99 47.51 49.65 48.70 49.36 46.96 47.47 49.36 49.80 50.24 50.60 49.96 51.96 53.33 49.08 47.37 46.55 52.28 53.48 54.16 54.26 53.08 51.28 55.43 49.59 53.36 49.98
57.49 56.95 57.31 57.50 57.30 56.94 56.12 55.78 55.55 55.04 53.93 52.01 60.95 60.48 59.26 60.50 61.07 59.09 52.91 44.46 48.61 51.53 51.50 50.61 45.86 48.25 45.22 47.43 47.57 48.35 48.89 51.49 50.92 53.12 55.29 51.50 46.79 51.17 52.24 53.92 53.97 52.55 54.22 49.97 51.56 45.76 44.88
57.23 56.93 57.58 57.80 57.38 56.19 55.86 56.12 55.51 54.68 53.30 51.94 59.63 56.29 60.02 61.99 60.94 56.71 48.42 48.52 50.08 53.14 53.01 50.16 47.84 47.45 47.94 47.27 48.73 47.97 48.44 51.40 52.20 52.27 54.50 53.23 50.76 49.73 52.18 50.22 49.71 50.44 49.69 50.73 51.32 50.76 46.42
56.76 56.98 57.50 56.69 55.22 55.70 56.36 56.11 55.19 53.72 51.93 52.88 59.10 53.24 61.53 60.01 53.55 55.42 50.53 51.10 47.71 51.79 53.25 51.35 51.19 49.55 48.81 48.72 48.45 48.25 48.16 51.02 53.18 53.49 50.47 53.42 51.33 47.82 49.02 53.28 54.21 53.72 51.07 51.57 46.90 47.06 50.24
56.50 57.07 57.50 56.61 55.58 55.99 56.16 55.87 54.61 53.33 52.02 59.80 59.09 57.48 62.05 58.99 49.45 50.21 52.30 51.13 52.11 51.02 50.48 50.00 49.01 50.58 51.01 49.05 46.57 48.43 49.45 53.21 53.62 53.36 52.04 54.07 49.51 45.47 47.10 50.71 53.12 51.03 52.38 53.06 52.40 51.75 49.27
56.39 57.13 57.47 57.09 56.55 55.91 56.04 55.63 54.51 53.53 52.39 57.93 57.63 52.26 56.37 59.51 57.53 51.87 50.32 49.37 48.75 50.70 51.49 51.64 50.51 51.34 49.68 48.80 51.06 48.59 48.61 51.76 52.76 53.76 53.22 53.45 51.11 48.35 45.10 47.57 51.28 49.45 50.88 52.67 51.73 48.01 48.79
55.93 56.83 57.18 56.60 56.97 55.85 55.98 55.79 54.91 53.74 52.57 57.24 58.26 53.16 53.30 50.96 51.04 51.60 51.20 49.13 46.87 46.99 50.12 51.51 50.42 49.52 48.98 47.28 48.31 48.09 49.55 50.72 52.58 54.55 54.04 53.68 48.96 50.32 49.94 49.94 49.67 50.48 50.18 50.80 50.54 51.18 48.82
55.68 56.02 56.80 55.88 56.80 56.33 55.93 55.96 55.53 54.06 52.14 60.84 57.12 56.29 56.42 52.97 51.41 50.44 47.20 48.28 46.40 47.33 47.74 46.25 46.21 48.16 50.36 48.56 49.46 47.77 49.65 51.00 50.94 53.50 53.05 53.05 49.49 50.49 47.93 49.88 50.39 48.64 49.94 50.50 51.92 52.28 51.57
55.32 55.66 56.52 56.26 56.22 56.59 55.79 55.96 55.81 54.18 53.35 60.07 60.77 60.13 55.91 47.23 50.50 49.64 49.52 48.56 47.44 48.63 49.14 49.22 48.09 46.98 49.20 50.23 52.17 52.98 52.92 52.76 53.21 52.30 50.52 50.71 49.97 48.54 44.74 49.46 49.20 46.34 50.06 50.14 51.43 54.44 54.15
55.47 55.50 55.98 56.71 56.00 56.53 55.71 55.98 56.10 54.98 53.72 59.47 59.62 59.98 53.92 48.78 51.49 49.79 48.59 48.82 47.99 49.09 48.06 49.29 48.78 48.15 52.43 54.59 54.23 53.86 53.75 52.60 52.75 52.82 53.37 50.03 50.37 49.57 45.50 48.04 40.08 49.86 53.74 53.50 51.81 54.47 58.24
55.82 55.76 55.70 56.24 55.94 56.09 55.83 56.22 56.37 55.53 54.22 60.44 61.50 59.23 56.15 50.60 50.70 49.67 49.32 49.66 50.81 51.35 49.61 49.59 51.09 52.99 54.56 53.32 50.54 48.34 48.23 48.86 49.71 51.19 52.65 53.81 50.79 46.32 43.92 44.24 47.00 48.56 51.13 50.73 50.15 52.93 58.50
55.85 55.77 55.63 55.90 56.51 55.57 55.76 55.81 56.42 55.84 54.48 59.74 61.47 61.47 58.60 53.13 51.20 52.19 51.61 51.00 51.02 51.92 50.21 50.61 54.44 55.67 55.52 52.90 49.99 44.55 41.73 45.35 44.78 47.79 52.84 51.49 53.32 47.23 46.25 41.12 39.43 47.44 52.05 54.64 53.83 49.31 58.02
55.21 55.49 55.75 55.53 56.04 55.61 55.76 55.00 55.69 55.87 54.76 58.60 61.59 61.79 59.38 55.64 55.26 54.67 52.88 51.26 53.92 52.49 50.81 52.31 51.86 52.20 55.06 52.26 47.69 45.94 46.11 49.12 44.16 42.63 44.90 47.29 47.90 44.94 43.49 43.35 46.66 52.60 53.54 54.97 46.25 48.53 57.65
55.02 55.25 55.43 55.29 55.53 55.99 55.75 54.62 55.36 55.43 55.62 56.83 61.76 62.49 60.24 56.94 55.64 56.07 55.37 54.17 54.54 54.38 50.12 53.18 51.52 51.74 51.09 47.44 47.81 49.73 47.56 49.89 47.11 48.47 47.26 46.28 44.53 44.51 46.34 43.26 40.61 54.81 54.55 50.28 54.31 56.63 58.47
54.86 55.11 55.23 55.29 55.25 56.08 55.44 54.52 55.44 55.43 55.43 54.91 60.37 62.67 62.85 58.77 56.61 58.86 57.62 57.59 56.87 56.20 54.09 55.07 52.27 50.74 53.18 51.46 51.10 51.72 48.54 48.34 47.25 43.46 50.62 45.76 49.21 48.15 48.20 48.19 53.95 56.04 55.35 57.83 58.18 55.84 58.48

GFSGBSN_sfc_wetblb_105.txt.gz
Wetbulb
60.36 60.69 60.84 59.82 57.94 58.17 57.54 57.42 57.57 57.49 57.14 57.37 56.97 57.03 56.90 56.72 56.46 56.27 56.11 56.11 56.25 56.27 56.31 56.48 57.25 57.65 59.64 57.46 56.42 67.91 67.05 65.68 62.32 65.99 63.61 61.88 62.49 65.89 62.64 64.54 65.84 64.26 65.38 65.42 65.81 66.76 66.97
60.03 60.22 60.41 60.31 58.25 58.04 57.85 57.40 57.32 57.27 57.11 57.24 56.92 57.10 56.86 56.61 56.40 56.24 56.03 55.78 55.45 55.39 55.67 56.14 57.03 57.57 58.56 54.08 59.92 65.50 64.72 59.43 58.90 64.25 62.75 61.79 62.30 66.31 65.32 64.81 64.21 65.71 66.01 65.58 66.02 67.29 67.02
60.19 60.21 60.49 60.25 58.59 58.00 58.18 57.80 57.74 57.53 57.39 57.03 56.88 56.84 56.91 56.41 56.27 56.06 55.81 55.25 54.98 54.99 55.51 56.61 57.76 59.26 57.51 56.28 60.89 65.62 62.55 58.68 60.13 63.09 60.42 61.45 61.78 65.55 66.99 64.51 66.41 66.26 63.10 64.45 63.37 64.85 64.43
60.21 60.22 60.47 60.36 59.26 57.62 57.75 58.11 57.74 57.72 57.24 56.97 56.87 56.67 56.73 56.62 56.08 55.56 55.05 54.59 54.63 55.10 55.98 56.77 58.29 60.45 56.22 58.72 64.01 63.25 63.74 62.32 62.94 63.52 61.62 61.60 62.39 64.20 67.20 66.11 63.99 63.63 62.03 57.93 62.04 64.03 64.77
60.24 60.23 60.29 60.47 60.03 57.85 57.23 58.19 57.55 57.48 57.37 57.39 57.33 56.61 56.38 56.26 56.05 55.08 54.45 54.00 55.16 56.29 57.25 57.95 59.93 60.08 53.38 58.15 60.44 61.86 62.79 61.39 61.28 61.84 61.78 61.50 62.07 64.94 66.57 61.98 59.13 59.63 56.29 56.96 59.25 62.74 61.98
59.74 59.77 59.74 59.86 59.73 58.20 57.49 57.96 57.68 57.24 57.37 57.62 57.49 57.07 56.57 55.85 55.12 54.72 54.28 54.43 56.71 57.06 58.96 61.82 61.13 56.11 57.04 55.46 60.48 59.15 59.71 61.08 59.94 58.08 56.71 56.96 58.69 62.40 63.09 60.36 51.90 53.52 55.16 58.03 57.35 58.58 59.61
59.08 58.87 58.78 59.11 59.30 58.94 57.57 57.92 57.35 57.15 57.07 57.20 57.01 57.16 56.66 55.80 54.56 54.55 54.87 61.14 59.67 58.91 60.97 57.11 54.99 55.20 55.91 59.29 61.28 58.75 59.59 57.93 57.70 56.12 52.02 54.11 53.28 57.00 60.83 60.74 59.34 58.29 57.45 57.33 58.58 59.16 57.59
58.86 58.68 58.59 58.79 58.90 58.47 58.08 57.36 56.72 56.84 56.92 56.92 56.91 56.86 56.51 54.92 54.41 54.12 56.42 58.42 57.56 58.26 54.40 56.54 55.90 56.20 58.03 59.11 56.16 57.71 60.12 54.68 53.20 50.69 53.67 51.77 50.42 56.96 61.77 61.82 58.64 58.41 58.88 56.45 57.92 58.95 58.26
58.69 58.45 58.46 58.59 58.53 58.01 57.98 57.72 56.77 56.80 56.76 56.66 56.74 56.63 55.32 54.14 53.86 55.17 59.93 59.10 61.39 60.47 55.04 52.92 54.96 55.19 56.42 57.62 55.06 55.72 57.22 55.64 52.59 50.46 51.54 51.31 52.05 55.59 60.88 60.23 57.44 58.44 56.00 55.91 54.85 58.09 58.75
58.67 58.21 58.10 58.14 58.16 57.01 56.97 57.56 57.26 56.64 56.49 56.55 56.53 56.01 54.30 53.51 52.40 60.66 58.21 61.55 61.57 60.90 51.48 49.98 52.74 55.60 56.83 57.03 53.64 59.26 58.12 55.66 52.46 50.07 51.63 52.47 54.85 52.98 58.57 58.36 58.81 53.87 61.64 58.83 55.02 56.55 49.94
59.16 58.21 57.95 57.77 57.72 57.47 56.78 57.00 56.97 56.47 56.11 56.15 56.11 54.53 53.13 51.61 58.54 57.06 60.43 61.64 61.97 60.21 40.95 51.31 51.89 59.00 57.91 55.04 55.59 55.00 58.71 56.13 51.99 50.61 51.47 50.17 52.04 52.26 54.34 57.49 59.34 55.19 58.81 58.33 57.51 56.29 54.75
58.81 58.16 57.87 57.73 57.75 57.36 56.87 56.64 56.61 56.11 55.95 55.81 55.04 53.72 53.01 56.14 59.20 60.83 62.12 61.68 60.27 48.48 41.27 49.18 53.01 52.34 53.02 53.80 54.45 55.71 55.09 57.72 57.45 52.45 52.17 52.76 55.69 55.51 56.39 57.67 58.50 59.22 57.83 57.75 58.34 55.92 50.78
58.32 57.73 57.62 57.63 57.52 57.09 56.72 56.50 56.17 55.73 55.50 54.96 53.43 51.84 53.24 60.97 58.54 62.29 61.64 59.00 49.05 44.17 51.16 48.11 49.27 51.76 51.44 49.95 52.14 53.56 52.84 52.05 51.22 48.34 48.33 51.00 52.74 55.72 57.44 55.10 57.82 59.04 57.25 51.20 49.39 49.96 49.31
57.91 57.25 57.09 57.39 57.54 57.00 56.70 56.22 55.97 55.70 55.26 53.86 51.39 50.86 56.55 61.50 62.31 61.67 61.63 54.90 44.49 47.72 48.96 51.67 50.73 50.85 49.03 50.64 51.09 52.52 51.86 50.56 53.89 53.01 50.03 46.68 46.69 53.23 56.28 56.66 54.25 56.02 56.15 51.83 45.37 46.75 50.60
57.60 57.00 57.60 57.74 57.61 56.98 56.18 56.07 55.78 55.44 54.78 53.05 50.79 60.66 61.43 62.92 62.72 62.00 56.97 49.39 47.69 48.96 50.86 49.57 50.28 48.68 48.70 49.73 50.50 50.60 51.39 50.74 52.84 54.50 50.33 48.47 48.28 54.35 55.09 55.98 57.07 54.28 53.28 57.68 53.42 50.22 49.07
57.35 57.23 57.78 57.62 55.85 55.63 56.19 56.17 55.78 55.28 54.37 52.23 62.09 60.56 60.49 63.17 64.25 61.08 54.70 45.54 49.85 52.67 52.49 52.07 46.84 49.42 46.50 48.50 48.12 49.05 50.17 52.45 51.92 54.18 56.31 53.64 48.53 52.71 53.40 54.86 54.89 54.70 56.72 51.32 52.73 45.85 45.43
57.07 57.14 57.70 57.34 56.26 55.94 56.36 56.43 55.80 54.94 53.52 51.69 61.07 57.75 61.00 63.70 63.37 58.21 50.85 49.90 51.16 53.70 54.44 51.68 48.83 47.92 49.04 47.99 49.04 48.88 49.37 52.42 53.07 53.43 55.11 54.64 52.04 50.56 52.95 51.31 50.85 51.17 50.98 52.56 53.72 52.21 47.52
56.54 56.87 57.40 57.30 56.90 56.12 56.24 56.17 55.12 53.97 52.22 52.70 60.68 55.33 61.52 63.02 55.19 55.83 51.45 51.98 49.18 52.46 53.40 52.32 52.14 51.26 49.85 50.26 49.33 48.36 48.20 51.88 54.94 54.43 51.36 54.11 51.89 49.00 50.86 54.18 54.12 53.70 51.67 52.05 48.39 48.83 51.20
55.85 56.41 57.27 56.87 56.70 56.77 55.98 55.75 54.57 53.55 52.64 60.02 58.91 56.76 61.53 60.49 52.05 51.73 53.12 51.80 53.09 52.12 51.73 51.42 50.49 51.98 52.35 50.77 48.03 49.83 50.45 54.70 54.86 53.69 53.10 54.54 50.11 46.93 48.44 51.81 53.50 51.32 53.33 53.15 52.33 52.02 49.98
55.81 56.20 57.23 56.98 56.69 56.91 55.90 55.44 54.53 53.93 53.13 57.69 58.13 53.32 56.53 57.59 56.43 53.68 51.85 51.17 50.37 52.13 51.93 52.58 51.67 52.42 51.09 50.06 52.33 50.25 50.46 52.92 54.32 54.45 57.32 56.80 51.66 49.55 44.11 48.14 51.53 50.54 51.04 52.84 52.40 49.32 49.66
55.98 56.16 56.89 57.02 56.80 56.97 56.21 55.59 54.89 54.19 53.28 58.17 57.86 55.50 56.21 52.67 52.09 52.44 52.49 50.45 48.55 48.76 51.22 52.03 51.89 50.10 49.98 48.82 49.61 49.83 50.84 52.03 53.69 54.91 54.60 53.64 49.24 50.32 51.03 51.49 52.34 51.31 51.02 51.34 51.31 52.25 50.04
55.97 56.07 56.33 57.05 56.76 56.61 56.54 55.73 55.24 54.37 52.81 60.82 57.76 56.39 55.40 53.50 51.71 51.88 47.93 49.75 47.79 48.60 48.89 48.30 47.55 48.51 50.47 50.24 51.21 48.60 51.13 51.94 51.43 54.98 53.67 54.32 49.10 50.97 49.64 50.74 51.19 49.98 51.92 52.42 52.12 52.28 52.06
55.89 56.11 56.24 56.75 56.56 56.55 56.74 55.76 55.63 54.41 53.48 61.95 63.21 61.14 57.13 49.72 51.76 51.08 50.93 49.75 48.97 49.49 50.53 49.89 49.17 48.43 48.84 52.02 53.88 54.94 54.76 54.99 54.81 53.40 52.69 51.88 49.97 49.32 45.96 49.47 50.02 46.59 50.56 51.68 52.11 53.43 53.43
55.96 56.12 56.24 56.45 57.19 56.27 56.83 55.95 56.04 55.36 53.82 62.19 62.68 61.62 55.02 51.03 52.47 50.55 49.58 49.79 49.28 50.69 49.62 50.58 50.26 48.76 54.86 56.97 56.11 55.77 55.10 54.23 54.11 53.90 54.87 51.57 51.43 50.09 46.59 48.00 41.27 50.59 55.46 55.26 52.62 54.79 55.37
55.73 56.13 56.21 56.17 56.75 56.08 56.63 56.22 56.15 56.01 54.65 60.61 64.83 61.43 56.57 52.50 52.25 50.41 50.24 50.77 51.88 53.19 51.77 50.68 52.18 54.23 56.26 54.35 51.23 49.28 49.05 50.31 51.42 52.93 52.94 54.41 52.50 47.49 45.50 44.71 45.75 50.16 52.95 53.08 51.92 52.60 58.52
54.67 55.58 55.89 56.08 56.27 56.36 56.49 56.45 56.08 56.08 55.00 59.06 65.14 64.06 60.70 54.69 52.39 53.27 52.05 52.16 51.45 53.51 52.12 52.02 55.22 57.01 55.60 52.89 49.81 45.96 44.18 44.72 45.41 46.55 53.69 53.14 53.54 50.26 47.90 43.25 41.08 47.84 52.65 56.35 55.76 48.78 57.94
54.33 55.18 55.71 55.73 55.77 56.01 56.15 56.49 55.48 56.36 55.32 56.89 63.62 65.40 61.63 54.93 56.50 55.09 53.96 52.13 54.14 52.93 51.10 53.12 53.70 52.90 54.87 51.73 47.97 46.44 46.45 46.37 43.41 46.59 47.07 46.95 49.39 46.78 45.53 44.48 47.40 52.53 54.47 55.07 46.92 50.37 58.47
54.83 55.18 55.48 55.50 55.69 55.75 56.37 56.30 55.12 55.81 56.14 56.41 63.97 65.59 62.44 57.26 57.33 56.96 55.96 55.03 56.06 54.95 51.67 55.05 52.42 53.55 51.34 48.18 48.56 48.16 48.15 50.30 48.40 49.85 47.62 40.49 42.47 46.62 47.81 42.93 39.84 56.02 55.54 51.33 55.91 58.75 59.31
54.59 55.02 55.22 55.38 55.72 55.69 56.37 56.29 55.31 55.82 55.79 55.26 61.74 64.38 64.87 60.79 58.04 59.56 58.85 59.02 57.94 56.43 55.01 56.03 53.55 54.23 53.11 51.20 52.31 50.82 50.35 49.48 48.93 44.33 52.78 45.75 51.00 47.12 46.10 48.54 55.55 57.95 57.33 59.44 59.44 57.41 59.67

GFSGBSN_sfc_wetblb_108.txt.gz
Wetbulb
60.66 60.83 60.90 60.62 58.90 58.42 58.53 58.04 57.89 57.63 57.45 57.64 57.39 57.20 57.17 57.13 57.08 57.01 57.02 56.70 56.64 56.57 56.41 56.81 57.24 58.04 58.41 57.29 56.85 65.97 70.66 68.23 58.54 56.84 63.06 63.12 63.09 65.73 62.03 63.87 64.68 62.92 65.07 65.26 66.29 67.66 66.49
60.38 60.55 60.74 60.58 58.85 58.46 58.60 58.41 58.33 58.12 58.03 57.77 57.52 57.18 57.50 57.19 57.21 57.07 56.90 56.58 56.17 56.16 56.38 56.55 57.39 57.99 56.57 53.67 60.82 68.53 63.50 59.38 56.53 59.39 62.16 63.04 61.94 65.97 64.51 64.76 62.47 65.19 65.75 65.63 66.16 66.34 65.61
60.51 60.59 60.76 60.78 59.05 58.14 58.03 58.57 58.15 58.34 58.15 57.78 57.57 57.46 57.38 57.29 57.09 57.05 56.58 56.22 55.90 55.70 55.95 56.97 57.77 58.94 57.15 56.93 61.12 64.15 63.07 55.88 57.06 60.40 61.76 63.52 63.25 63.28 65.56 63.63 66.80 66.67 63.29 64.56 64.72 66.03 65.05
60.50 60.63 60.50 60.59 59.60 58.07 57.83 58.26 58.35 57.91 58.02 57.86 57.88 57.66 57.24 57.07 56.99 56.74 56.17 55.46 55.34 55.88 56.38 57.34 57.92 58.94 56.41 60.63 62.31 63.90 62.53 58.56 57.85 61.04 62.77 63.21 62.33 59.96 61.44 66.27 64.71 63.69 62.95 58.17 62.28 64.49 64.80
59.79 59.68 59.66 59.88 59.85 58.38 57.90 58.14 58.17 57.90 57.74 57.90 57.74 57.69 57.35 57.11 56.48 55.98 55.60 54.97 55.95 57.14 57.79 58.48 58.43 58.19 55.81 59.53 56.80 62.91 62.96 59.12 60.83 61.74 62.23 61.70 59.86 58.57 61.82 60.29 58.90 61.01 54.26 57.16 58.34 62.75 62.30
59.60 59.52 59.32 59.41 59.41 59.02 58.17 58.20 58.09 57.75 57.82 57.87 58.01 57.65 57.17 56.98 56.13 55.64 55.19 55.03 58.88 56.96 58.77 61.39 60.94 56.67 58.49 54.96 58.58 60.96 62.46 62.11 59.01 59.55 58.28 57.55 57.01 55.51 59.57 59.07 51.92 53.81 52.96 54.17 56.48 59.83 60.43
59.47 59.41 59.27 59.12 59.29 58.56 58.67 58.37 57.59 57.19 57.40 57.74 57.77 57.34 57.22 56.97 55.60 54.82 54.69 59.38 59.00 57.66 60.85 57.99 56.39 56.47 56.32 59.01 61.22 57.90 59.10 59.82 59.65 56.81 52.08 54.75 51.78 52.16 59.12 61.47 59.60 57.96 55.88 55.28 57.22 59.45 58.39
59.05 58.93 58.93 58.88 58.62 57.88 57.96 57.93 57.86 57.13 57.09 57.05 57.34 57.07 56.77 56.08 54.87 54.20 54.98 57.63 57.31 58.35 53.99 60.28 55.41 56.05 58.32 58.83 55.42 57.09 59.23 54.81 54.66 51.01 53.48 51.92 48.28 54.05 59.95 61.15 59.38 59.45 56.17 55.27 56.51 59.62 58.42
59.65 58.78 58.40 58.32 58.09 57.35 57.16 57.38 57.73 57.41 57.18 56.99 57.01 56.83 55.98 54.95 54.21 54.39 57.84 59.18 61.64 60.59 54.77 53.32 55.12 54.84 55.63 57.09 55.49 55.36 57.33 55.09 52.00 49.96 51.24 50.14 51.75 53.76 54.47 58.16 57.16 56.30 54.86 54.69 54.12 57.30 58.38
59.09 58.29 57.86 58.04 58.00 57.79 57.02 56.94 57.38 57.11 56.93 56.69 56.69 56.57 54.77 53.65 52.67 59.62 58.36 61.22 61.19 61.34 50.68 50.23 51.87 55.40 56.43 56.34 53.49 59.01 58.06 55.52 53.11 50.08 50.47 50.82 54.55 52.95 52.51 55.76 58.98 54.15 59.59 57.86 55.70 54.62 50.26
58.61 57.96 57.65 57.83 57.90 57.64 57.16 56.88 57.00 56.85 56.51 56.51 56.57 55.01 53.70 52.94 55.79 57.76 60.56 60.64 60.96 59.44 40.71 51.91 52.35 59.43 57.50 54.37 55.18 55.48 58.54 55.52 51.71 50.70 51.15 49.51 51.15 52.33 50.96 56.62 59.36 55.38 60.55 58.59 57.34 54.69 53.38
58.13 57.78 57.61 57.79 58.03 57.72 57.14 56.82 56.55 56.28 56.18 56.10 55.27 54.13 52.82 55.58 57.05 58.78 61.17 61.00 59.37 48.60 39.29 49.60 52.97 52.45 52.34 54.31 54.66 55.49 55.48 57.03 56.40 53.16 51.81 51.22 54.94 53.84 53.52 56.62 58.99 60.64 59.03 57.14 54.96 53.82 48.86
57.88 57.33 57.71 58.10 57.99 57.41 56.59 56.45 56.30 56.14 55.84 55.13 53.69 52.61 52.96 60.16 59.42 61.19 61.31 58.34 48.92 43.67 52.92 48.28 49.81 51.05 51.74 50.14 52.44 53.10 51.05 51.28 50.18 47.85 47.64 50.01 51.71 54.46 56.01 54.48 58.29 57.57 55.61 50.25 47.33 48.19 47.40
57.56 57.21 57.59 57.95 56.64 55.89 56.07 56.47 56.36 55.90 55.23 54.06 52.10 51.20 56.63 59.15 62.97 61.89 60.35 55.03 45.12 49.76 48.57 51.53 50.48 51.00 49.21 50.34 51.05 51.75 51.06 49.53 52.55 52.13 49.35 46.57 44.89 52.31 55.11 54.58 53.70 54.37 54.17 49.99 43.36 45.45 46.06
57.37 57.27 57.66 57.53 56.93 56.07 56.15 56.36 55.82 55.37 54.71 53.14 51.04 59.77 61.24 62.67 61.98 61.98 57.02 48.44 47.57 49.83 51.05 49.61 49.82 47.94 49.06 50.19 50.77 50.13 50.96 49.93 52.02 53.70 49.36 48.84 47.17 53.69 55.32 56.25 56.65 53.93 51.93 56.57 50.73 50.14 49.04
56.81 57.16 57.38 57.51 56.99 56.81 56.05 55.96 55.66 55.29 54.52 52.63 58.47 61.56 59.97 62.05 63.03 60.99 54.93 47.42 49.93 52.43 52.04 51.78 47.77 50.47 46.79 48.70 47.41 48.44 49.69 52.49 52.03 54.73 55.38 52.74 48.98 52.87 54.03 55.22 55.59 54.81 56.52 50.43 51.50 45.57 44.50
56.22 56.57 56.98 57.43 56.80 56.73 56.41 55.87 55.57 54.76 53.75 52.42 58.78 57.95 58.89 62.82 63.05 58.06 51.04 49.89 50.96 53.24 54.07 51.54 49.53 49.51 49.71 48.32 49.74 49.41 49.11 52.83 54.46 54.28 55.16 53.95 51.78 51.11 52.99 51.04 50.18 50.71 51.04 52.60 52.60 51.05 46.15
56.27 56.12 56.77 57.28 56.74 56.49 56.81 55.79 55.07 53.84 52.51 53.33 58.91 54.56 60.01 62.98 55.37 55.70 51.76 51.99 50.46 52.37 52.90 52.55 51.96 51.07 50.88 50.56 48.79 48.66 49.11 51.95 55.02 54.37 51.14 53.82 51.57 48.01 50.39 54.14 54.50 53.24 51.29 52.29 48.16 48.70 50.42
56.42 56.29 56.71 57.02 56.78 56.72 56.73 55.68 54.54 53.40 53.10 57.61 57.31 58.46 60.05 60.10 50.94 52.21 53.01 51.74 53.54 52.88 51.91 52.12 51.27 52.16 52.75 50.44 48.43 51.09 51.55 54.76 54.62 52.51 53.01 54.36 50.79 45.80 48.56 52.12 53.75 50.56 52.08 52.16 51.20 51.44 49.89
56.46 56.43 56.54 56.74 56.93 56.91 56.45 55.74 54.17 53.84 53.52 56.30 58.43 53.96 56.98 57.09 56.39 53.43 52.12 51.68 50.98 52.47 52.17 52.78 52.11 52.45 51.26 50.59 52.21 49.61 50.77 52.50 54.15 52.85 59.88 57.28 51.63 49.20 44.29 47.14 52.16 50.42 50.03 51.64 51.85 47.22 48.17
56.32 56.59 56.52 56.77 57.15 56.85 56.55 55.94 54.50 53.85 53.46 57.03 57.93 55.25 56.88 52.28 52.50 53.05 53.35 51.63 49.44 49.33 51.73 52.11 51.41 50.34 50.09 48.71 50.30 50.84 52.27 51.73 53.83 56.66 54.39 52.16 48.18 50.18 50.61 51.89 51.95 51.73 51.59 52.15 50.21 51.32 48.92
56.15 56.48 56.69 56.49 56.99 56.94 56.58 56.28 55.19 54.26 52.88 59.62 57.72 56.95 56.79 53.35 52.92 52.51 48.57 50.18 48.63 49.56 49.28 49.08 48.19 49.45 48.87 49.30 51.42 49.52 51.81 52.38 51.97 54.06 52.42 53.09 48.35 50.59 49.28 51.53 51.59 50.00 51.17 52.60 52.19 51.52 52.00
55.80 56.43 56.71 56.64 56.73 57.02 56.69 56.15 55.58 54.42 53.93 62.38 62.10 61.30 57.12 51.03 52.18 51.30 51.40 50.66 49.55 50.08 51.15 50.41 49.45 48.83 47.60 52.07 54.56 54.59 55.00 54.53 54.63 53.68 52.11 52.75 49.85 48.80 45.32 49.99 49.11 46.32 50.35 51.43 52.86 53.89 52.83
55.44 55.76 56.05 57.07 56.73 56.79 56.70 56.47 56.31 55.19 54.19 58.18 62.92 61.48 57.15 51.62 51.42 51.06 50.56 49.98 49.94 51.40 49.92 51.21 51.26 48.57 53.18 57.73 56.43 54.11 54.20 54.31 53.87 53.77 55.24 51.73 51.87 50.37 46.06 48.57 40.76 50.64 55.31 54.80 53.00 53.81 57.05
54.77 55.05 55.58 56.37 56.84 56.96 57.00 57.02 56.84 55.46 55.11 56.97 62.08 61.48 58.24 53.41 52.39 51.36 50.41 50.91 51.95 52.87 51.95 50.75 52.56 54.59 55.66 53.16 49.61 49.13 49.49 50.61 51.66 53.92 53.23 53.08 52.01 47.30 44.41 44.08 47.78 50.96 52.63 52.31 50.85 53.41 58.07
54.44 54.62 55.05 55.90 56.31 56.47 56.67 57.03 57.29 55.47 55.15 57.15 62.60 64.89 60.51 55.15 52.32 54.41 51.73 52.63 50.64 52.54 53.07 53.39 55.65 56.38 54.87 51.78 49.65 45.29 44.42 46.83 42.99 46.01 53.66 53.73 53.94 50.05 48.10 42.47 40.66 49.61 53.71 56.14 55.26 48.87 58.57
54.15 54.32 55.21 55.68 55.99 56.35 56.57 56.72 57.15 55.88 55.44 55.63 59.29 65.15 61.08 55.94 56.68 55.80 53.94 53.31 54.53 52.97 51.70 53.95 53.93 53.16 54.81 50.39 48.07 47.06 45.14 47.98 42.39 40.75 42.17 44.64 47.98 45.92 46.47 44.50 48.28 52.68 54.65 55.69 44.71 49.42 57.97
54.16 54.25 55.07 55.41 55.60 55.86 56.42 56.74 56.80 55.82 56.14 55.61 59.58 65.46 61.78 58.82 58.72 57.04 55.98 54.62 55.32 54.23 51.59 54.87 53.21 54.36 51.77 48.63 47.53 48.38 48.28 49.18 46.63 45.61 41.55 44.35 43.56 43.69 46.28 42.05 41.48 54.29 55.60 49.52 55.40 57.68 57.34
54.78 54.78 54.68 55.11 55.19 55.50 56.13 56.52 57.16 55.52 55.86 55.40 57.39 65.16 64.41 60.03 58.79 59.79 59.02 58.36 56.94 56.09 54.49 55.07 53.88 53.99 54.30 50.84 51.59 50.71 48.07 49.70 48.19 43.87 52.94 46.20 48.49 44.70 46.70 47.57 53.62 56.59 55.77 58.67 58.47 58.22 59.13

GFSGBSN_sfc_wetblb_111.txt.gz
Wetbulb
60.91 61.08 61.18 60.72 59.40 58.57 58.58 58.81 58.79 58.57 58.48 58.33 58.10 57.73 57.65 57.67 57.62 57.68 57.53 57.60 57.27 57.03 56.94 56.98 57.32 57.88 55.82 52.54 53.85 62.66 71.07 69.20 61.40 53.37 52.23 60.17 60.17 62.61 61.92 62.78 64.42 62.43 61.06 61.43 61.86 63.29 64.10
60.89 60.92 61.01 60.87 58.73 58.71 58.21 58.42 58.82 58.57 58.47 58.35 58.05 58.00 58.00 57.81 57.68 57.57 57.62 57.50 57.01 56.65 56.65 56.99 57.58 58.18 53.12 48.16 63.55 65.47 65.76 61.60 54.08 51.23 53.18 59.95 60.37 63.54 63.65 63.13 62.60 64.67 63.17 62.82 64.02 64.73 66.25
60.34 60.58 60.58 60.54 58.82 58.30 58.33 58.39 58.61 58.53 58.25 58.26 58.37 58.37 58.11 57.78 57.43 57.51 57.43 56.93 56.55 56.33 56.57 57.00 57.96 57.51 53.19 53.27 60.25 66.30 59.56 54.74 51.73 52.67 55.25 60.68 61.94 58.99 62.58 62.65 66.27 64.81 62.10 63.82 63.97 65.23 63.49
59.69 59.38 59.70 59.88 59.89 58.33 58.02 58.41 58.48 58.55 58.21 58.19 58.21 58.21 58.11 57.82 57.55 57.12 56.75 56.43 55.84 56.31 56.88 57.57 58.05 55.70 50.83 60.88 59.79 59.92 58.93 53.45 52.77 55.14 58.03 60.95 61.55 57.79 56.30 65.84 64.30 62.56 61.76 56.42 61.63 64.17 63.08
59.42 59.16 59.37 59.80 59.55 58.33 58.78 58.88 58.35 58.04 58.15 58.07 58.21 58.13 58.02 57.68 57.42 56.75 55.86 55.64 56.38 58.18 58.46 58.16 54.97 52.02 52.32 61.60 54.64 57.51 60.26 55.68 51.84 53.08 56.65 61.52 58.01 52.87 54.48 55.85 56.68 57.44 52.83 52.55 56.35 62.88 60.24
58.77 58.57 59.13 59.35 58.89 58.48 58.59 58.49 58.43 57.96 57.83 57.83 57.85 57.67 57.46 57.32 56.97 55.70 54.77 54.89 57.08 57.57 58.29 58.94 58.65 51.87 56.85 55.90 54.75 55.83 60.01 58.88 54.31 55.66 56.32 55.93 51.99 47.93 50.06 51.89 48.55 52.78 52.57 53.65 53.40 59.45 60.53
59.47 58.19 57.91 58.61 57.78 57.44 57.21 57.93 58.18 58.19 57.69 57.65 57.53 57.08 56.96 56.89 56.20 54.67 53.52 53.95 53.98 53.06 55.31 54.41 54.39 55.77 55.97 57.29 59.29 56.45 58.59 57.89 56.61 53.73 48.59 51.26 45.68 43.94 48.75 54.03 59.13 56.61 55.06 54.91 56.93 60.35 58.75
58.46 58.37 58.22 58.23 57.66 57.21 57.03 57.03 57.63 57.90 57.65 57.57 57.20 56.77 56.59 56.36 55.09 54.18 51.88 51.36 55.52 53.64 49.34 58.32 58.93 54.31 56.41 55.85 53.78 55.02 55.97 52.37 53.32 47.93 50.16 46.81 43.46 49.29 52.93 60.25 58.35 57.47 54.45 52.98 56.94 59.14 57.93
58.93 57.16 57.24 57.02 57.06 57.17 57.14 56.85 56.96 57.44 57.34 57.12 56.77 56.57 56.02 54.85 54.26 51.56 53.06 54.98 58.86 57.00 48.97 54.58 57.14 52.60 52.95 52.68 53.13 52.97 53.87 52.14 50.59 48.20 47.93 45.12 48.11 51.31 50.54 58.51 57.27 56.06 54.22 54.00 53.75 56.38 57.34
57.69 57.07 56.82 56.99 57.62 57.31 56.82 56.81 56.89 56.82 56.79 56.65 56.71 56.19 54.54 53.30 51.72 56.27 55.60 58.70 58.52 57.63 44.72 48.62 47.98 52.95 54.32 53.68 50.82 57.09 56.34 53.05 50.34 46.38 47.23 46.22 51.10 50.93 48.82 52.27 56.52 52.77 58.05 56.91 54.67 52.46 48.56
56.87 56.78 57.37 58.02 57.98 57.44 56.92 56.67 56.59 56.45 56.22 56.26 56.21 54.48 53.52 53.13 50.08 53.11 57.87 57.53 56.25 54.50 36.98 52.99 50.36 56.97 55.32 50.19 51.99 53.72 56.67 53.12 48.99 48.73 46.64 45.04 47.39 47.79 48.44 54.02 58.80 54.07 57.09 56.98 55.36 52.04 52.66
57.02 56.73 57.77 58.23 57.33 56.28 55.93 56.13 56.18 56.14 56.02 56.06 54.77 53.72 52.74 52.54 51.78 54.91 56.70 56.72 54.96 43.54 39.16 50.01 51.55 50.29 49.64 51.58 53.12 54.10 53.61 53.40 53.18 50.19 49.83 47.39 51.26 49.53 49.88 58.47 59.23 60.35 57.48 56.29 55.03 52.30 46.27
57.61 57.36 57.81 57.83 57.27 56.53 55.90 55.96 55.98 55.74 55.49 55.09 53.98 52.94 51.58 55.52 56.47 60.10 57.40 55.41 44.84 40.11 52.04 48.52 47.79 49.67 49.08 48.85 50.68 50.65 49.70 46.91 44.60 40.02 42.27 46.99 47.24 50.31 52.72 54.30 59.00 56.75 52.30 44.67 44.21 44.76 44.49
56.94 57.07 57.24 57.23 56.81 56.49 56.37 56.05 55.62 55.39 55.13 54.04 52.11 51.43 52.76 55.47 57.78 58.34 57.26 50.20 42.03 49.02 48.65 49.65 48.51 48.67 48.24 49.92 49.48 50.55 47.35 44.18 48.89 47.10 44.11 40.82 39.35 48.58 52.02 51.68 53.62 53.75 51.88 45.71 39.69 42.36 45.78
56.42 56.52 56.90 57.01 56.85 56.31 56.39 56.06 55.27 55.05 54.50 53.13 51.18 55.88 55.41 59.31 58.37 56.55 52.51 45.08 44.93 47.40 49.81 49.16 48.63 47.11 46.85 49.73 48.28 48.55 47.86 46.06 48.45 48.31 42.07 43.45 44.71 50.85 52.43 52.48 52.15 49.28 47.96 52.97 47.33 48.48 43.13
56.73 56.47 56.66 56.90 56.87 56.29 56.31 56.00 55.15 54.75 54.18 52.71 54.49 56.38 57.80 62.72 61.09 57.12 50.82 45.78 46.84 50.65 51.11 51.47 45.66 48.71 45.28 47.08 46.19 45.65 47.81 51.27 51.02 52.68 51.27 47.83 43.11 50.79 51.36 52.63 52.07 52.08 52.23 43.56 44.71 41.33 40.83
56.56 56.60 56.46 56.70 56.83 56.49 56.61 56.09 55.05 54.28 53.55 52.37 56.89 53.85 59.45 61.21 60.21 54.67 47.30 48.08 50.63 51.23 52.39 49.29 47.79 47.92 47.66 47.55 47.49 46.76 47.72 51.90 53.32 51.84 51.32 49.02 46.28 47.39 50.42 45.64 45.03 46.04 44.54 45.50 45.55 44.61 42.01
56.40 56.31 56.32 56.40 56.42 56.69 56.77 55.98 54.83 53.27 52.62 54.21 57.99 52.16 58.43 60.03 52.17 53.38 48.35 49.68 49.90 50.16 51.55 50.71 50.04 49.41 49.12 49.49 46.88 47.54 47.66 51.14 53.49 51.17 47.71 50.39 46.35 40.75 45.53 51.38 51.60 48.20 45.14 45.66 40.81 40.48 44.17
56.37 56.31 56.56 56.48 56.36 56.78 56.84 55.72 54.50 52.87 53.10 52.09 53.93 54.65 61.01 57.52 47.03 48.97 50.21 50.73 52.00 50.94 50.05 50.19 49.92 49.95 49.92 46.62 44.44 49.23 50.20 53.85 54.27 50.19 47.97 48.28 44.57 39.62 43.70 47.66 51.63 45.05 46.80 45.91 44.33 41.84 39.78
56.45 56.48 56.82 56.70 56.50 56.84 56.72 55.62 54.26 53.19 53.52 52.30 55.07 51.84 55.55 55.40 53.57 50.87 49.98 51.44 49.76 52.25 51.13 51.03 50.97 50.32 48.92 47.58 49.95 48.25 48.75 52.77 53.22 51.78 60.13 52.99 45.47 44.29 37.07 42.43 48.32 46.66 49.70 49.38 44.44 38.23 40.12
56.41 56.59 56.77 56.82 56.61 56.69 56.62 55.86 54.87 53.47 53.16 53.09 56.65 53.18 56.09 50.10 49.96 50.53 50.09 50.59 48.50 48.68 51.11 51.34 49.29 49.96 46.39 43.28 46.64 46.64 49.79 50.72 53.21 55.81 50.92 47.43 40.84 45.78 46.22 49.32 50.28 48.63 49.05 49.79 46.41 45.84 41.48
56.09 56.27 56.55 56.79 56.99 56.61 56.64 56.01 55.39 53.87 52.85 56.37 53.98 54.55 56.80 52.34 51.94 50.40 47.80 48.84 48.00 48.20 48.63 47.35 46.63 47.91 46.95 42.63 48.20 46.79 48.63 47.76 47.42 50.69 49.41 49.07 42.65 43.74 44.04 49.26 49.67 48.65 50.21 50.42 50.13 50.69 47.95
56.05 55.04 55.52 56.29 57.00 56.96 56.64 56.25 55.90 53.98 53.09 56.98 61.70 61.92 57.78 51.85 51.11 48.32 49.65 49.11 48.48 50.54 51.69 50.82 49.70 47.63 46.28 50.54 52.50 50.58 47.93 49.02 48.62 47.95 47.87 46.89 46.30 43.94 39.56 47.04 47.42 42.58 49.58 50.54 50.39 53.81 53.11
55.70 54.96 55.08 55.17 56.18 56.83 56.93 56.59 56.43 55.23 54.09 53.93 57.77 58.82 55.66 51.30 53.09 50.25 50.09 49.88 49.81 50.45 49.27 50.49 51.79 48.17 51.15 52.91 51.82 50.03 48.98 48.46 51.78 51.30 49.99 46.46 45.82 44.42 40.54 43.40 35.58 47.50 52.40 53.03 53.13 55.19 55.57
55.50 54.77 54.87 54.81 55.65 56.21 56.79 56.90 56.93 56.35 54.81 53.28 56.37 58.48 57.17 52.34 54.43 53.71 50.52 51.78 51.69 50.46 50.24 50.74 52.09 52.15 52.46 49.93 45.28 43.50 44.76 46.73 49.10 50.25 49.00 47.90 45.95 42.90 39.07 38.85 44.04 48.93 51.17 50.12 49.75 50.56 55.93
55.27 54.95 54.48 54.73 55.42 55.69 56.04 57.00 56.91 56.65 54.85 53.86 55.66 59.48 58.92 53.39 52.24 55.49 51.62 53.60 48.87 49.12 50.16 52.70 54.22 53.86 51.17 47.34 45.18 40.68 40.20 43.79 43.40 44.54 48.16 48.14 47.49 43.51 42.61 38.41 37.30 46.62 52.15 53.89 52.22 45.40 56.58
55.33 55.03 54.18 54.34 54.91 55.34 55.96 56.52 56.89 57.11 55.22 53.66 54.27 58.23 58.62 53.97 56.20 56.65 52.18 51.84 52.80 50.53 49.39 52.87 53.69 52.35 51.41 45.11 42.61 41.84 41.97 46.61 40.82 41.13 41.61 42.23 43.08 40.30 41.26 39.08 45.00 50.28 53.59 54.90 40.46 44.71 56.09
55.21 54.91 54.97 54.24 54.40 55.17 55.47 55.92 56.64 57.42 55.70 53.93 53.55 57.19 59.58 56.50 57.09 59.31 57.35 53.65 53.77 52.52 48.66 51.53 50.71 51.87 50.17 45.15 43.81 44.95 44.62 45.55 41.80 43.78 42.87 41.76 40.93 40.05 41.16 39.28 37.65 52.36 53.14 47.99 50.34 53.46 56.80
54.91 54.58 54.79 53.97 54.05 55.05 55.67 55.83 56.72 56.89 55.57 55.26 52.81 60.09 60.12 58.36 57.36 60.42 58.66 57.93 58.30 55.45 51.65 51.92 50.51 51.58 51.33 46.94 46.87 47.44 45.26 43.69 43.63 40.94 47.03 42.16 44.81 42.60 44.49 43.82 50.34 53.35 52.67 53.34 54.28 56.47 57.00

GFSGBSN_sfc_wetblb_114.txt.gz
Wetbulb
61.07 60.96 60.93 59.42 58.29 58.51 58.50 58.61 58.98 58.76 58.70 58.67 58.42 58.30 58.15 58.00 57.95 57.89 58.03 57.86 57.51 57.33 57.16 57.12 57.39 58.23 54.33 49.70 52.38 61.66 72.03 70.54 61.43 53.51 50.61 55.66 58.82 58.98 60.33 62.00 63.48 60.00 61.51 61.63 63.16 62.78 63.42
60.08 60.14 60.33 60.23 58.51 57.88 58.26 58.37 58.36 58.56 58.38 58.36 58.35 58.54 58.30 58.11 58.00 57.93 57.76 57.62 57.28 57.01 56.98 57.16 57.67 58.38 51.09 44.87 59.60 64.99 63.02 60.30 55.78 49.97 48.97 52.02 58.91 60.31 61.99 62.76 61.62 63.01 62.29 61.29 62.19 63.16 65.36
58.72 59.08 59.75 59.89 59.03 58.09 58.33 58.66 58.42 58.21 58.17 58.13 58.38 58.39 58.47 58.10 57.73 57.74 57.34 56.69 56.49 56.48 56.89 57.30 57.52 56.95 50.80 49.14 61.60 64.76 61.08 56.52 50.58 49.39 50.71 53.57 56.15 56.84 58.32 63.29 66.18 63.06 59.69 61.32 62.78 63.73 63.63
59.36 59.29 59.42 59.61 59.22 58.06 58.80 58.61 58.59 58.15 58.03 58.09 58.13 58.03 58.18 57.75 57.39 57.21 56.69 55.90 55.89 56.86 57.44 57.60 58.13 53.56 46.90 58.40 57.91 57.74 57.42 51.00 51.08 49.49 51.84 56.30 57.84 55.20 53.87 64.74 63.52 58.79 60.98 56.91 60.91 62.67 63.48
59.27 58.87 58.96 58.73 57.98 57.74 57.40 57.92 58.36 58.35 57.90 57.66 57.66 57.74 57.58 57.30 57.19 56.64 55.55 55.19 56.14 57.75 59.60 57.98 52.07 50.28 49.42 62.75 54.35 56.23 56.17 51.79 47.93 48.92 52.22 58.07 55.65 52.73 51.65 55.84 56.95 57.03 53.11 53.46 56.24 62.41 60.93
58.85 58.57 58.32 58.37 57.44 57.40 56.96 56.86 57.34 58.07 57.91 57.53 57.44 57.21 57.07 56.99 56.68 55.45 54.46 55.07 55.31 56.41 57.89 58.14 57.63 49.19 53.47 55.17 52.46 54.01 54.63 55.47 49.56 48.97 50.44 50.84 50.15 45.72 46.42 47.54 47.91 52.34 52.12 53.51 53.34 59.16 60.43
57.88 57.43 57.42 57.46 57.30 57.24 57.08 56.96 56.82 57.52 57.68 57.44 57.29 56.79 56.52 56.50 55.65 54.31 51.14 49.84 50.19 49.24 52.24 51.56 52.08 53.15 55.71 56.61 56.49 53.41 55.09 55.87 51.70 50.49 45.92 49.50 44.83 42.24 44.97 49.42 56.69 56.22 55.01 54.50 56.76 60.08 58.59
57.50 57.22 57.11 57.44 57.97 57.55 57.13 57.10 56.71 57.24 57.38 57.29 56.81 56.60 56.30 55.23 53.77 53.23 50.41 46.31 51.31 53.33 46.44 54.54 56.66 56.27 57.97 55.12 52.54 54.25 55.63 51.32 50.60 46.27 48.06 45.27 42.31 47.53 52.41 58.66 58.09 57.16 53.88 52.81 56.56 59.82 58.66
57.24 56.80 56.86 57.03 57.49 57.38 57.04 56.92 56.83 56.79 56.72 56.58 56.66 55.94 54.52 53.78 53.33 50.15 48.53 51.48 55.05 53.53 44.85 51.49 55.33 54.87 53.73 50.92 50.88 51.67 51.79 50.15 49.86 47.03 45.86 42.68 46.13 51.06 56.56 57.36 54.78 55.93 53.97 53.10 53.88 55.96 57.44
56.77 56.89 57.15 57.91 57.52 56.88 56.47 56.51 56.58 56.60 56.36 56.40 56.30 55.01 53.54 52.68 50.64 50.92 51.40 54.53 54.71 53.42 41.13 47.16 45.65 50.89 51.24 51.56 48.35 55.05 53.57 51.43 48.16 47.07 46.96 44.05 49.42 49.08 48.48 56.10 55.99 52.36 57.65 56.65 54.56 51.98 46.67
57.75 57.24 57.81 57.85 57.53 57.21 56.56 56.32 56.26 56.26 56.12 55.97 56.08 55.31 53.10 52.55 47.46 48.17 54.24 50.77 52.35 51.84 34.91 51.96 48.18 55.02 52.16 48.07 49.09 51.42 55.07 51.25 47.37 46.98 43.85 43.05 45.11 45.52 45.67 56.10 56.31 52.31 58.71 56.30 54.72 52.47 51.01
57.29 57.42 57.54 57.73 57.37 56.89 56.40 56.04 55.86 55.71 55.63 55.55 55.33 54.32 52.87 49.58 47.44 50.49 52.65 52.57 50.66 41.56 37.11 48.74 49.37 47.61 46.84 48.13 49.91 52.33 51.90 51.57 51.15 47.50 46.91 46.72 49.13 46.81 47.98 58.57 57.27 58.01 56.75 55.69 53.97 51.91 45.00
56.97 56.98 57.06 57.03 57.14 56.64 56.14 55.98 55.78 55.25 54.94 54.68 53.82 52.77 50.75 53.44 52.02 54.32 53.49 51.10 42.26 36.69 49.41 47.51 46.07 45.67 45.02 45.95 49.24 48.86 48.53 45.19 42.67 39.61 38.93 45.35 46.39 51.40 59.82 54.22 57.90 56.37 50.19 45.63 43.83 44.23 43.34
56.92 56.68 56.67 56.75 56.70 56.52 56.38 56.28 55.71 54.96 54.44 53.64 51.83 50.90 50.24 53.09 50.70 52.96 51.03 46.85 38.40 47.19 46.04 49.32 45.74 46.97 44.29 46.93 47.63 48.64 45.58 43.50 45.78 43.24 39.90 38.38 38.70 49.74 54.72 55.48 52.97 52.87 48.56 45.84 41.02 42.41 45.49
56.87 56.75 56.75 56.50 56.50 56.40 56.44 56.14 55.17 54.52 53.97 52.75 50.87 48.35 49.05 52.98 53.85 52.18 48.10 40.03 39.80 41.58 46.94 47.71 46.25 43.93 44.72 46.99 46.87 47.30 44.01 42.59 46.65 45.27 40.18 39.23 42.11 50.76 53.55 55.13 57.03 51.66 47.57 52.85 44.92 46.99 44.08
56.87 56.71 56.79 56.59 56.35 56.46 56.42 55.98 55.21 54.42 53.70 52.29 49.74 49.96 50.66 56.75 56.27 50.99 45.57 42.20 42.74 47.10 48.85 47.67 41.72 44.90 41.13 44.47 44.28 44.39 44.41 49.29 49.41 50.03 46.48 44.11 39.99 46.95 51.76 51.34 56.49 52.00 52.59 42.61 42.92 39.93 39.11
56.87 56.61 56.69 56.71 56.37 56.38 56.78 56.18 55.13 53.93 53.22 51.91 51.49 48.06 54.26 56.27 54.88 48.40 41.70 43.59 47.17 48.09 49.67 45.65 43.95 43.68 46.13 44.17 43.92 42.47 44.87 50.43 50.98 49.04 48.81 43.10 42.69 44.65 46.57 43.16 43.97 44.29 42.44 42.06 43.64 45.09 40.41
56.89 56.62 56.52 56.56 56.36 56.33 56.68 56.02 54.84 53.17 51.93 51.49 49.72 45.57 56.72 55.11 46.49 44.40 42.41 45.09 48.98 47.69 48.85 48.15 47.45 46.78 44.90 46.17 44.28 44.74 45.98 48.75 53.62 48.05 45.22 45.33 41.01 38.47 43.04 48.59 50.43 45.52 42.25 41.61 38.59 38.91 41.35
56.72 56.66 56.74 56.66 56.64 56.51 56.37 55.89 54.48 52.98 52.54 48.20 45.76 47.22 54.45 52.82 41.38 40.64 45.40 47.04 48.95 46.61 46.24 46.63 46.59 46.25 46.17 44.84 41.24 45.90 47.93 52.75 53.85 49.77 44.05 45.36 42.69 36.53 40.96 44.48 48.46 45.60 46.84 43.51 40.54 37.89 37.31
56.70 56.56 56.61 56.74 56.82 56.95 56.37 55.45 54.42 53.60 52.56 47.97 47.92 44.74 49.65 48.69 44.99 45.03 42.99 45.57 45.71 50.24 48.46 47.71 46.53 46.75 43.87 43.71 44.20 44.78 46.62 52.03 52.38 50.88 58.84 51.69 40.57 41.19 35.71 40.69 45.03 44.26 47.04 46.53 40.24 35.79 36.20
56.50 55.99 55.56 55.98 56.64 56.98 56.70 55.89 54.74 54.00 52.70 49.55 49.24 45.46 49.04 45.43 45.31 44.19 43.61 45.26 45.52 45.23 47.19 46.08 44.31 44.36 40.67 37.14 42.60 44.55 47.25 48.10 50.79 54.33 49.32 45.68 38.50 42.97 47.11 46.86 48.82 48.12 47.01 48.24 42.83 43.83 39.59
56.58 56.19 55.44 55.26 55.62 56.46 56.84 56.26 55.55 54.28 52.40 51.11 46.83 49.77 51.52 48.65 44.88 44.47 43.39 41.30 44.27 44.85 44.33 43.28 42.58 44.93 42.66 40.75 42.57 41.27 42.92 41.04 42.22 48.07 46.93 46.66 41.96 41.37 40.80 47.53 47.40 47.48 49.71 52.38 52.34 51.77 52.67
56.48 55.92 55.44 55.78 55.27 55.60 56.56 56.44 55.87 54.26 51.56 48.46 52.84 54.82 52.05 48.10 48.22 46.13 42.29 43.94 46.69 47.12 48.36 48.25 46.62 43.38 42.70 46.06 46.80 46.12 44.34 43.08 44.11 43.98 43.72 42.80 41.71 40.36 36.82 45.67 44.36 41.95 49.10 51.75 51.89 54.63 53.52
56.68 55.96 55.46 55.52 55.09 55.32 55.44 56.12 56.40 55.39 52.70 48.53 49.75 51.69 49.77 46.51 49.96 49.34 50.94 49.10 48.06 46.99 44.91 46.31 47.08 42.71 47.22 47.93 46.07 44.62 44.55 47.89 48.86 46.38 44.52 42.18 40.19 39.42 37.08 38.95 34.29 43.43 51.89 54.46 52.63 53.89 54.78
56.96 55.94 55.47 55.22 54.96 55.34 55.30 55.37 56.31 55.87 54.58 48.18 49.10 50.88 51.55 46.87 51.02 51.43 51.41 48.18 47.51 45.35 45.59 46.79 48.74 48.52 48.42 45.11 40.70 38.98 41.25 42.60 45.52 47.13 45.91 44.72 41.45 38.30 35.47 35.37 41.47 47.24 48.43 48.31 49.46 50.50 55.80
56.92 56.20 55.43 55.24 54.87 54.73 55.10 55.22 55.47 56.28 55.13 48.85 49.15 51.55 51.85 48.17 48.44 53.75 51.57 49.29 43.57 43.25 45.87 48.51 49.64 48.01 47.40 41.84 40.81 35.76 36.17 39.84 40.21 43.73 44.15 45.03 43.60 40.62 39.14 36.47 34.46 43.61 49.90 53.73 51.57 44.42 55.42
56.70 56.20 55.47 55.07 54.74 54.91 54.86 55.19 55.31 56.65 55.65 50.68 48.54 50.43 52.71 49.53 51.99 52.74 50.09 46.96 47.30 44.05 43.82 46.15 48.53 47.34 46.42 38.79 37.21 37.86 38.25 43.85 38.65 39.45 37.83 38.15 40.11 38.17 40.05 38.92 43.60 50.02 50.73 52.79 40.99 43.58 54.76
56.35 55.79 55.13 54.70 54.52 54.42 54.69 55.71 55.27 56.45 56.70 52.21 49.23 51.50 52.25 51.73 52.91 55.34 55.76 48.90 48.90 46.93 43.11 45.47 45.37 45.66 44.18 40.01 38.74 40.16 39.51 41.07 39.88 41.85 41.21 37.71 36.00 35.62 40.59 38.58 36.05 51.21 51.40 46.95 48.79 51.09 55.77
56.03 55.43 54.84 54.60 54.48 54.09 54.41 55.84 56.22 56.26 56.36 54.11 47.59 54.06 53.87 53.15 53.27 56.72 56.65 56.25 52.82 51.18 46.79 44.96 44.69 45.57 45.20 42.23 41.40 41.59 41.67 39.29 37.74 35.87 43.75 37.94 41.11 39.32 41.50 41.72 47.22 50.12 49.87 52.50 52.77 54.85 54.03

GFSGBSN_sfc_wetblb_117.txt.gz
Wetbulb
59.38 59.61 59.78 59.21 58.23 57.40 57.78 58.22 58.27 58.36 58.52 58.32 58.36 58.35 58.25 58.07 58.04 58.07 57.95 57.53 57.40 57.31 56.82 57.24 57.51 58.05 52.96 46.69 49.95 60.55 73.11 68.99 64.84 53.76 50.96 55.53 58.41 58.24 55.44 61.01 62.75 60.88 60.83 61.47 62.65 62.97 62.54
59.00 59.08 59.29 59.44 58.83 57.77 58.47 58.45 58.50 58.10 57.98 58.09 57.99 58.10 57.98 57.96 57.73 57.66 57.84 57.34 56.89 56.73 56.87 57.15 57.62 58.30 49.85 40.56 55.59 63.77 64.64 60.45 54.66 49.00 47.65 55.54 58.94 59.27 56.34 60.11 61.83 62.54 61.99 61.53 61.94 62.18 63.10
58.71 59.04 59.34 58.45 58.93 58.10 57.76 57.95 57.99 58.20 57.84 57.58 57.68 57.72 57.70 57.58 57.47 57.47 57.40 56.68 56.26 56.45 56.99 57.18 57.63 56.80 49.31 45.52 60.80 61.51 58.07 53.64 50.39 48.74 47.22 51.52 55.75 55.61 54.83 58.73 64.59 63.18 59.66 60.42 61.74 62.50 61.28
58.97 58.64 58.41 58.41 57.58 56.95 56.83 56.85 57.19 57.93 57.86 57.67 57.43 57.40 57.34 57.24 57.10 57.02 56.45 55.84 55.84 56.58 57.67 57.68 57.83 52.81 46.12 54.97 57.05 55.51 59.51 51.28 50.20 47.94 49.25 55.83 54.96 53.75 52.39 62.81 61.55 59.20 59.51 54.95 60.03 61.24 62.17
57.85 58.32 58.23 58.17 57.43 57.05 56.84 56.85 56.65 57.00 57.77 57.55 57.54 57.18 57.02 56.90 56.65 56.08 55.21 55.01 56.12 56.79 58.98 57.81 51.34 49.03 49.58 61.56 55.33 56.29 58.69 49.64 46.94 47.26 50.47 55.22 54.10 50.95 52.19 55.08 54.11 56.72 52.24 52.83 55.90 59.54 61.11
57.25 57.51 57.04 57.32 57.89 57.36 57.05 56.95 56.86 56.91 57.46 57.25 57.29 56.95 56.83 56.48 55.29 53.85 53.16 54.79 57.35 56.64 57.70 57.95 56.83 47.80 51.53 53.58 52.92 54.35 54.82 51.98 47.68 47.16 48.66 48.82 47.88 44.43 44.19 45.37 44.59 51.09 52.51 53.58 53.84 57.35 59.83
57.02 57.02 57.17 57.22 57.38 57.57 57.52 57.37 57.17 57.12 57.17 57.13 57.05 56.68 55.80 54.64 53.89 52.87 50.53 48.11 48.04 46.83 51.69 48.35 48.44 51.19 54.48 55.70 54.53 51.34 53.02 53.00 50.12 48.89 43.68 48.11 43.89 40.90 43.73 47.13 54.83 55.98 54.75 53.85 55.78 58.75 58.33
57.08 56.98 57.97 58.06 57.55 57.25 56.94 57.10 56.99 56.73 56.71 56.71 56.70 55.76 54.95 53.99 53.27 52.71 50.07 45.17 47.90 50.29 45.88 52.58 54.75 54.69 56.82 55.68 51.04 52.19 55.17 50.30 48.29 43.86 46.38 44.37 41.02 46.50 49.26 53.81 57.04 55.53 53.90 53.09 56.15 59.16 57.71
56.59 57.00 57.94 57.92 57.61 57.39 57.11 56.67 56.58 56.54 56.58 56.50 56.44 56.22 54.62 53.49 53.01 49.68 46.77 48.50 51.69 51.12 43.61 49.29 53.02 53.50 53.18 51.76 49.40 49.44 52.30 50.03 47.57 45.16 44.15 41.98 45.72 49.66 57.57 56.61 55.12 54.37 53.50 53.03 53.27 55.97 57.15
57.59 57.58 57.51 57.59 57.55 57.29 56.90 56.74 56.56 56.28 56.10 56.08 56.02 55.79 54.34 52.67 49.94 49.51 49.32 53.00 50.97 50.65 40.55 46.40 45.11 51.43 49.53 49.75 47.12 53.47 51.94 49.97 47.02 46.35 46.02 43.51 48.27 48.41 55.79 54.17 54.32 51.24 56.84 55.58 54.13 51.76 47.12
57.14 57.00 57.21 57.25 57.17 57.02 56.54 56.38 56.24 56.14 55.65 55.59 55.65 54.80 53.16 52.21 45.62 46.34 50.83 50.20 50.30 50.10 32.51 49.25 48.42 52.73 48.77 46.98 47.60 50.28 52.73 50.08 45.39 45.59 43.25 42.96 43.58 44.49 44.92 54.98 54.92 50.77 57.56 55.27 53.87 51.73 49.55
57.14 57.05 57.09 57.05 57.03 56.84 56.36 56.14 55.92 55.67 55.39 55.23 54.99 53.99 52.47 48.79 46.24 49.44 52.38 50.68 49.79 41.40 35.36 47.20 48.91 46.28 45.57 46.71 47.98 50.04 50.44 50.53 50.12 46.49 44.52 45.08 48.71 45.66 45.98 53.42 56.61 58.48 54.87 54.07 53.72 49.53 43.30
57.08 57.13 57.03 56.93 56.70 56.46 56.22 56.10 55.78 55.31 54.74 54.32 53.31 52.39 50.42 51.82 50.26 51.16 50.97 51.03 41.29 36.51 47.67 46.19 44.79 44.06 43.35 44.63 47.02 46.76 46.62 43.63 42.17 38.62 38.12 43.79 44.66 55.85 58.27 54.40 57.07 55.68 50.65 43.54 42.31 43.35 42.44
57.09 56.79 56.71 56.66 56.28 56.10 56.14 56.26 55.57 54.88 54.36 53.32 51.45 50.63 50.31 52.10 48.84 51.41 50.52 46.36 37.10 45.21 44.53 47.30 45.00 44.43 43.67 46.50 46.14 46.86 44.25 42.42 44.70 43.64 39.63 37.74 40.82 52.99 57.27 53.62 51.92 51.33 48.57 43.90 39.39 41.65 44.45
57.01 56.83 56.65 56.48 56.30 56.06 56.26 56.10 55.25 54.70 53.72 52.65 50.45 48.21 47.94 50.86 51.86 49.76 47.97 39.45 37.74 40.72 45.05 45.67 45.37 42.60 42.33 45.34 44.60 45.40 42.72 41.27 45.07 43.63 39.09 37.91 40.27 48.74 57.06 56.83 55.38 51.04 45.87 49.59 46.16 43.57 43.30
57.11 56.87 56.71 56.62 56.28 56.24 56.24 56.00 55.31 54.56 53.40 52.08 49.17 48.79 48.97 53.53 53.08 50.40 44.69 40.49 42.95 45.56 46.89 45.89 40.15 42.83 39.08 42.74 43.36 43.87 42.77 47.60 47.38 47.82 44.92 41.76 37.95 45.67 50.78 57.27 56.66 51.40 52.52 44.43 44.00 38.05 37.74
56.99 56.85 56.72 56.62 56.42 56.46 56.30 56.00 55.23 54.40 52.90 51.85 49.80 48.02 52.18 53.61 52.88 46.97 41.04 41.38 47.14 47.23 47.74 44.38 42.69 42.64 42.15 42.11 41.76 41.81 45.39 48.63 49.82 48.24 47.60 42.53 40.75 42.39 44.94 43.16 49.36 43.70 42.10 41.13 42.97 42.22 38.36
56.78 56.72 56.28 56.40 56.28 56.48 56.70 56.10 54.83 53.44 51.66 49.80 46.57 43.11 53.30 51.67 45.69 40.73 40.77 45.25 47.73 45.05 47.41 46.93 45.81 43.83 42.25 43.94 42.49 43.05 44.75 48.41 52.19 48.81 44.63 43.88 39.61 37.33 41.20 46.82 47.78 46.99 40.86 39.84 38.22 37.41 38.30
56.90 56.23 55.77 55.24 55.60 56.42 56.64 55.97 54.55 53.35 52.13 47.36 44.05 45.16 52.49 51.44 41.74 39.81 42.63 46.56 47.14 44.75 43.92 44.80 44.88 45.14 45.00 42.40 40.55 44.47 46.24 51.72 52.22 48.64 43.37 43.94 40.05 37.17 39.04 42.40 46.61 45.35 44.67 41.05 37.49 35.79 34.77
57.16 56.70 56.04 55.40 55.16 55.36 56.34 55.85 54.57 53.67 52.72 48.42 45.73 43.05 47.96 47.30 43.25 41.85 40.77 44.26 43.87 48.28 46.44 45.69 43.34 43.16 41.72 40.59 42.76 42.75 45.15 50.15 51.27 51.14 56.88 49.77 40.00 40.30 38.15 38.40 42.41 44.16 45.90 44.47 38.82 37.11 36.84
57.36 56.73 56.73 55.85 55.40 55.22 55.36 55.67 55.11 54.01 52.54 48.39 47.31 44.14 46.98 44.31 46.65 43.46 40.25 43.71 44.75 42.55 45.11 43.88 42.02 42.52 39.47 37.98 40.76 42.48 44.51 45.00 48.42 52.80 49.33 43.38 37.90 38.98 44.99 45.20 44.95 46.01 48.52 50.17 45.75 43.79 39.21
57.44 56.90 56.44 56.23 55.47 55.12 55.42 55.03 55.33 54.39 52.00 50.55 45.80 49.42 50.58 48.01 46.01 44.94 40.44 38.93 42.74 43.13 43.05 41.94 41.36 43.06 43.09 40.53 42.56 39.63 40.76 38.19 40.29 45.58 44.36 43.60 38.21 41.16 42.23 47.25 48.02 48.49 50.70 50.88 51.38 51.99 51.97
57.76 57.23 56.73 56.35 55.83 55.32 55.15 54.83 55.17 54.35 50.22 45.38 47.84 51.09 50.75 46.48 46.39 44.01 43.32 43.12 44.45 46.54 46.71 46.18 45.20 41.88 42.21 44.34 45.28 42.59 43.20 43.29 43.21 42.39 42.26 41.49 40.24 38.28 35.89 42.58 46.14 41.65 47.16 50.04 50.61 53.68 51.78
57.50 57.40 57.00 56.21 55.83 55.30 55.36 55.03 55.23 55.19 51.57 46.42 46.55 48.29 48.26 45.35 48.64 48.07 49.86 50.16 46.74 45.57 44.86 44.99 44.89 41.63 45.51 46.95 45.25 45.61 45.85 45.60 47.06 44.85 42.90 40.71 38.70 37.01 35.70 39.13 35.15 44.71 50.83 54.19 51.92 52.77 53.89
56.97 57.64 57.14 56.40 56.01 55.44 54.98 54.87 55.08 55.35 54.75 46.85 46.50 47.88 49.44 46.11 49.93 50.25 50.63 47.36 46.66 44.91 45.12 46.10 46.95 47.29 45.88 43.88 39.39 37.32 39.34 40.55 43.58 45.35 44.62 42.56 39.43 36.60 34.89 33.32 40.14 46.51 48.08 48.03 46.53 50.51 54.09
55.71 57.22 56.96 56.14 55.72 55.53 55.02 55.17 55.38 55.41 54.99 47.50 46.67 49.11 49.17 47.81 45.13 53.22 51.11 48.87 43.24 42.73 46.25 47.83 48.98 46.67 45.57 40.32 39.20 33.98 33.74 37.99 38.78 41.97 40.19 42.63 41.33 38.72 36.22 34.64 33.64 42.65 49.72 51.92 51.16 46.13 54.02
55.55 56.80 56.98 55.94 55.37 55.36 55.02 54.89 55.56 55.42 55.37 50.63 47.64 49.09 50.22 49.97 50.70 50.93 49.35 47.70 46.01 43.98 44.41 44.49 46.59 46.62 43.85 36.83 35.56 36.59 37.34 42.45 36.06 35.61 35.44 36.93 37.96 36.10 36.76 34.88 40.50 49.05 50.43 53.06 40.99 41.94 53.50
55.75 56.30 56.50 55.59 55.01 54.72 54.47 54.73 55.75 56.09 56.24 51.24 47.19 50.41 48.58 49.17 50.67 53.97 55.36 49.49 48.06 46.43 43.20 44.76 44.83 44.80 41.69 38.87 37.41 39.30 37.85 39.76 37.46 38.85 38.00 36.01 35.61 34.94 36.69 34.01 33.75 50.07 50.11 45.25 47.95 51.32 55.10
55.79 56.26 55.94 54.95 54.56 54.52 54.53 54.69 55.32 56.22 55.86 53.34 45.21 50.94 51.25 47.04 49.76 54.78 57.51 57.60 53.78 51.10 45.96 43.62 44.14 43.57 44.02 40.78 39.49 40.75 40.29 39.00 37.54 34.27 40.76 36.34 39.40 38.40 39.54 39.11 46.15 49.02 50.00 51.00 52.21 54.02 54.65

GFSGBSN_sfc_wetblb_120.txt.gz
Wetbulb
58.77 59.05 59.50 59.13 58.19 57.75 58.01 57.68 58.11 58.25 58.01 58.20 58.09 58.21 58.25 58.21 58.11 58.04 58.00 57.93 57.40 56.51 56.46 57.28 57.76 58.23 51.51 43.10 48.15 59.71 72.02 69.68 62.19 54.60 51.21 57.06 58.43 57.96 55.22 59.54 62.38 60.83 61.00 61.99 63.03 62.93 62.68
58.23 58.23 58.68 58.27 58.06 57.14 56.79 56.80 57.13 57.55 58.00 57.82 57.82 57.81 57.81 57.70 57.68 57.86 57.73 57.37 56.84 56.51 56.73 57.32 57.81 58.41 48.36 38.71 54.12 63.90 63.19 60.29 54.18 48.93 47.83 58.21 59.60 60.10 55.54 55.35 60.30 62.25 61.69 60.96 62.22 62.34 62.90
58.36 58.56 57.96 57.73 57.35 57.10 56.81 56.66 56.49 56.84 57.83 57.79 57.61 57.61 57.49 57.49 57.54 57.50 57.26 56.69 56.35 56.36 56.84 57.34 57.58 56.66 46.64 44.20 59.10 60.31 58.27 54.91 50.16 48.40 46.42 49.67 58.45 55.59 53.51 58.67 64.55 62.30 58.93 60.44 61.54 62.28 61.13
57.41 57.66 57.54 57.55 57.41 57.21 56.95 56.85 56.78 56.55 57.23 57.40 57.43 57.33 57.33 57.22 57.06 55.92 54.86 54.27 54.90 56.42 56.91 57.84 57.98 51.70 45.87 52.23 55.81 56.02 57.05 52.40 50.23 46.98 48.30 53.59 55.14 52.71 51.39 62.78 60.95 59.86 59.01 54.54 59.80 60.57 62.15
57.26 57.26 57.27 57.13 57.02 57.17 56.82 57.11 57.33 57.37 57.37 57.31 57.11 57.01 56.77 56.08 55.18 54.29 53.47 54.23 56.28 56.83 58.43 58.32 50.70 48.18 46.98 60.50 54.89 55.42 58.31 48.14 46.57 46.18 48.47 54.83 53.88 50.11 56.81 54.98 51.93 55.28 50.90 52.93 55.45 60.23 60.19
57.02 57.72 57.62 58.09 57.37 57.32 57.26 57.36 57.24 57.41 57.41 57.36 57.18 56.76 55.51 54.80 54.21 53.25 53.09 55.03 58.19 57.50 57.77 57.55 56.30 46.49 50.37 52.08 52.76 53.57 54.70 49.01 46.42 45.74 48.19 48.10 46.41 43.68 43.54 44.95 40.76 49.43 50.92 52.23 52.44 56.91 59.33
57.36 57.28 58.35 57.59 57.53 57.46 57.37 57.23 56.81 56.99 57.05 57.17 57.00 56.53 56.11 54.29 53.30 52.67 49.85 46.82 46.65 46.04 50.27 47.14 47.41 49.90 52.53 55.74 53.74 50.41 53.79 52.69 49.13 47.65 44.98 46.27 43.16 40.33 43.45 45.50 52.36 54.80 54.52 52.28 55.75 58.41 57.79
57.06 57.77 57.59 57.53 57.53 57.47 57.21 57.05 57.00 56.92 56.71 56.56 56.55 56.31 55.51 54.43 53.33 52.57 47.91 45.41 47.40 49.44 43.73 50.73 52.81 53.07 55.06 55.01 50.30 50.49 53.40 48.82 47.26 42.88 45.67 43.58 39.56 45.85 47.99 50.13 56.81 55.13 53.74 53.09 56.52 58.55 57.81
56.98 57.00 57.07 57.43 57.36 57.38 57.18 56.86 56.66 56.56 56.49 56.27 56.05 55.81 54.27 53.59 53.34 49.15 46.95 47.72 50.39 48.39 42.38 48.17 51.31 51.90 51.36 52.99 48.44 48.91 52.04 49.72 46.11 43.49 43.00 41.23 44.39 48.45 56.32 55.64 54.66 54.82 53.51 52.64 53.29 56.68 57.05
57.10 57.25 57.20 57.28 57.18 57.06 56.92 56.72 56.43 56.37 56.01 55.89 55.87 55.08 53.72 52.26 49.73 48.26 48.00 51.75 49.63 49.17 39.57 45.11 44.28 50.05 50.02 48.56 45.87 52.49 51.29 48.84 45.93 44.57 44.61 42.70 46.23 51.18 54.67 53.92 54.15 51.41 55.50 55.66 54.00 50.63 48.47
57.33 57.21 57.11 57.06 56.96 56.84 56.61 56.49 56.37 56.25 55.77 55.57 55.55 54.35 52.69 51.72 44.81 45.11 49.34 49.66 48.15 48.56 31.65 48.42 48.33 51.12 47.39 45.69 46.52 48.22 51.22 49.12 44.18 44.23 43.42 42.49 42.67 43.84 52.55 53.41 54.53 51.39 56.92 54.39 53.58 50.41 49.09
57.33 57.21 57.05 57.06 56.94 56.66 56.29 56.23 56.19 55.71 55.36 55.14 54.55 53.62 52.57 48.56 45.65 49.08 51.21 47.73 48.21 40.47 34.27 45.94 48.92 45.08 44.49 45.91 47.04 48.58 49.00 49.80 48.62 44.91 43.08 44.48 46.51 45.55 47.05 53.44 56.30 57.03 53.64 52.63 51.49 48.33 42.62
57.27 57.01 56.92 56.74 56.72 56.39 56.09 56.07 55.89 55.40 55.00 54.07 52.88 51.81 50.13 50.88 48.88 50.22 49.23 49.96 39.37 35.26 46.15 44.52 43.12 43.68 42.31 43.23 45.61 45.29 44.96 42.56 40.70 37.70 36.99 42.60 44.01 54.33 57.43 53.64 55.83 52.91 47.24 40.89 39.33 42.31 43.38
57.33 57.08 56.74 56.68 56.41 56.27 56.23 56.09 55.57 55.16 54.59 53.22 51.21 50.25 50.35 51.62 48.63 49.57 50.32 43.20 34.57 42.07 42.05 45.57 43.96 43.34 42.20 44.95 44.87 44.70 43.04 41.26 42.63 41.24 37.73 36.45 38.37 52.22 55.81 53.19 51.49 49.46 45.77 41.74 38.36 41.07 43.62
57.36 56.51 56.62 56.53 56.43 56.33 56.31 55.97 55.24 54.80 53.97 52.48 50.28 47.02 47.61 50.07 51.09 48.67 47.54 37.79 36.61 39.21 43.82 44.05 43.32 41.84 41.90 44.32 42.68 43.47 40.81 40.27 43.18 43.04 37.56 36.33 39.00 48.83 55.83 56.28 54.67 49.79 45.20 48.66 43.33 46.20 43.20
57.46 56.67 56.25 56.18 56.15 56.27 56.43 56.07 55.32 54.76 53.79 51.84 48.61 47.77 49.10 52.18 51.32 49.65 44.30 39.56 42.01 45.16 44.87 44.33 39.07 41.19 38.02 41.59 41.17 41.21 40.75 46.45 45.84 46.57 42.95 41.08 37.25 44.29 53.23 56.33 54.84 50.66 52.93 43.45 43.28 39.50 38.06
57.38 56.55 56.05 55.68 55.19 55.53 56.43 56.11 55.35 54.50 53.13 51.54 47.73 47.43 51.33 51.64 50.56 46.46 40.87 40.47 45.67 47.56 46.24 43.14 41.39 40.35 40.28 39.76 40.82 39.95 42.02 46.40 49.27 47.38 45.60 41.59 40.33 41.91 45.11 46.07 47.98 45.98 46.37 41.40 44.07 43.35 39.78
57.46 56.67 56.17 55.86 55.33 55.09 55.51 55.79 55.13 53.55 51.93 48.70 44.20 44.31 51.08 50.69 45.10 38.81 40.12 43.06 46.86 44.48 46.49 45.54 44.49 41.83 41.13 42.59 41.65 41.38 42.84 46.82 50.62 48.75 43.33 43.20 38.78 36.88 41.51 45.31 46.12 46.15 41.74 40.61 39.77 37.45 38.49
57.62 57.36 56.95 56.54 55.92 55.70 55.13 54.78 54.42 53.23 52.61 47.25 43.59 43.99 51.83 49.73 40.97 39.65 40.57 44.00 45.94 43.57 42.66 43.83 42.49 44.10 43.99 40.92 39.76 43.19 44.58 49.98 50.12 47.29 44.36 43.94 39.41 36.52 39.22 43.16 44.13 43.28 43.46 39.40 36.01 35.76 35.53
57.90 57.66 57.48 56.94 56.14 55.75 55.20 54.35 53.70 53.50 52.64 47.26 44.28 42.96 47.73 46.42 41.52 40.88 39.55 41.95 42.03 46.32 44.07 43.61 41.46 41.46 39.79 40.54 41.42 40.51 42.72 47.98 48.42 50.58 55.40 49.63 40.97 39.84 35.83 38.98 41.14 41.58 44.88 42.84 37.92 35.30 36.35
58.08 58.16 57.55 56.71 56.84 56.38 55.28 54.54 53.74 53.67 52.57 47.08 45.18 42.58 45.46 44.13 44.98 42.91 41.00 41.12 43.47 41.23 43.66 42.87 40.64 41.95 39.51 37.91 39.93 39.96 42.65 42.59 46.46 49.78 47.54 42.64 38.68 40.94 42.27 45.25 44.59 43.91 47.65 49.67 46.07 43.93 38.02
56.89 57.77 57.86 57.05 57.06 56.42 55.88 54.79 54.13 53.99 52.01 49.93 47.59 48.19 49.06 46.57 45.28 43.74 39.78 38.77 41.76 41.70 42.55 40.45 40.60 43.07 41.45 39.40 41.73 40.12 39.98 37.26 38.32 45.00 43.21 44.00 39.12 39.77 41.32 45.95 48.80 48.03 49.29 49.89 51.24 52.14 51.42
56.36 56.74 57.92 57.79 56.92 56.42 56.12 55.09 54.34 53.58 49.51 43.11 45.01 48.18 49.60 45.79 45.46 43.67 44.04 45.17 43.27 44.55 45.42 44.93 44.14 43.05 41.55 43.72 44.82 41.00 42.39 42.22 41.44 40.50 41.55 40.57 40.46 39.30 33.83 41.68 45.88 41.77 46.29 49.50 50.29 51.71 50.29
55.73 56.28 57.44 57.80 57.16 56.38 55.92 55.63 54.51 53.96 51.37 45.05 44.18 46.19 47.73 44.61 47.36 47.44 49.34 50.08 46.69 44.72 44.10 44.78 43.47 41.17 43.31 47.47 47.61 46.10 44.71 44.29 45.45 43.29 41.04 38.97 37.62 36.78 36.98 36.86 32.53 41.59 51.20 52.86 51.35 52.41 52.23
54.91 55.38 56.70 57.58 57.30 56.42 56.00 55.64 55.58 54.54 54.56 50.16 45.07 46.25 48.29 45.43 48.25 49.12 49.28 47.56 46.22 43.44 43.25 44.44 45.93 45.44 45.87 43.33 38.57 37.89 38.25 40.34 42.12 44.17 42.84 40.63 37.71 35.36 33.95 32.90 38.68 45.76 48.94 48.58 48.92 49.86 54.21
55.16 55.65 56.14 57.18 57.42 56.18 55.86 55.56 55.62 55.39 54.51 50.90 45.37 47.05 48.26 47.25 45.22 51.76 49.93 49.58 43.08 42.42 44.57 46.64 48.91 44.48 45.09 39.93 38.94 32.88 32.54 36.22 37.81 40.79 38.42 40.89 39.67 37.52 35.88 32.48 34.11 42.34 49.39 52.36 52.66 44.51 55.02
55.83 55.65 55.91 56.87 57.21 55.95 55.78 55.14 55.36 56.14 54.68 53.48 49.04 48.52 47.21 48.58 50.78 49.91 48.11 46.94 44.50 43.51 43.39 44.30 45.88 45.32 43.19 37.24 35.96 35.04 35.48 40.76 34.84 34.60 33.82 35.30 35.90 35.36 35.59 34.00 39.12 46.84 50.33 52.20 42.94 43.65 54.84
55.59 55.57 55.81 56.39 56.57 55.45 55.13 54.91 55.07 55.54 56.04 53.45 48.76 50.01 47.14 47.73 48.10 53.35 54.05 48.31 47.10 45.01 42.67 44.40 44.66 44.83 41.11 37.98 36.38 37.75 36.58 39.31 36.64 37.62 36.87 35.16 33.91 33.69 35.39 33.34 33.73 49.67 50.04 44.93 46.65 51.78 56.18
55.39 55.63 55.93 56.25 55.59 55.02 54.84 55.18 55.09 55.53 55.89 53.31 46.04 50.14 50.50 44.52 46.15 52.88 55.63 56.74 54.80 53.16 45.16 42.74 44.18 43.62 43.10 39.98 38.39 39.72 38.78 37.67 36.01 33.99 39.62 35.58 37.99 36.56 38.02 37.85 44.11 47.76 48.04 51.23 52.27 53.74 55.12